<?xml version="1.0" encoding="UTF-8" standalone="no" ?>
<gpx xmlns="http://www.topografix.com/GPX/1/1" xmlns:xsi="http://www.w3.org/2001/XMLSchema-instance" xsi:schemaLocation="http://www.topografix.com/GPX/1/1 http://www.topografix.com/GPX/1/1/gpx.xsd" version="1.1" creator="VisuGPX - https://www.visugpx.com">
  <metadata>
    <name>Présilly-Le Château-Le monument des maquisards-Reithouse</name>
  </metadata>
  <trk>
    <name><![CDATA[Présilly-Le Château-Le monument des maquisards-Reithouse_1]]></name>
    <extensions>
      <line xmlns="http://www.topografix.com/GPX/gpx_style/0/2">
        <color>0000FF</color>
        <width>4</width>
      </line>
    </extensions>
    <trkseg>
      <trkpt lat="46.55708" lon="5.5855">
        <ele>502.8</ele>
        <time>2022-06-11T07:24:18Z</time>
      </trkpt>
      <trkpt lat="46.55704" lon="5.58546">
        <ele>502.2</ele>
        <time>2022-06-11T07:24:23Z</time>
      </trkpt>
      <trkpt lat="46.55708" lon="5.58553">
        <ele>501.5</ele>
        <time>2022-06-11T07:24:29Z</time>
      </trkpt>
      <trkpt lat="46.55713" lon="5.58556">
        <ele>501.6</ele>
        <time>2022-06-11T07:24:34Z</time>
      </trkpt>
      <trkpt lat="46.55712" lon="5.58549">
        <ele>503.2</ele>
        <time>2022-06-11T07:24:48Z</time>
      </trkpt>
      <trkpt lat="46.55714" lon="5.58542">
        <ele>504.7</ele>
        <time>2022-06-11T07:24:54Z</time>
      </trkpt>
      <trkpt lat="46.55719" lon="5.58542">
        <ele>507.4</ele>
        <time>2022-06-11T07:25:03Z</time>
      </trkpt>
      <trkpt lat="46.55724" lon="5.58545">
        <ele>508.7</ele>
        <time>2022-06-11T07:25:09Z</time>
      </trkpt>
      <trkpt lat="46.5573" lon="5.58546">
        <ele>509.8</ele>
        <time>2022-06-11T07:25:14Z</time>
      </trkpt>
      <trkpt lat="46.55735" lon="5.58548">
        <ele>511.1</ele>
        <time>2022-06-11T07:25:19Z</time>
      </trkpt>
      <trkpt lat="46.5574" lon="5.58547">
        <ele>511.5</ele>
        <time>2022-06-11T07:25:22Z</time>
      </trkpt>
      <trkpt lat="46.55745" lon="5.58546">
        <ele>512</ele>
        <time>2022-06-11T07:25:26Z</time>
      </trkpt>
      <trkpt lat="46.55749" lon="5.5855">
        <ele>514.1</ele>
        <time>2022-06-11T07:25:34Z</time>
      </trkpt>
      <trkpt lat="46.55752" lon="5.58556">
        <ele>517.6</ele>
        <time>2022-06-11T07:25:42Z</time>
      </trkpt>
      <trkpt lat="46.55757" lon="5.58558">
        <ele>521.2</ele>
        <time>2022-06-11T07:25:50Z</time>
      </trkpt>
      <trkpt lat="46.55762" lon="5.58558">
        <ele>524.3</ele>
        <time>2022-06-11T07:25:56Z</time>
      </trkpt>
      <trkpt lat="46.55766" lon="5.58555">
        <ele>527.1</ele>
        <time>2022-06-11T07:26:03Z</time>
      </trkpt>
      <trkpt lat="46.5577" lon="5.58551">
        <ele>532.1</ele>
        <time>2022-06-11T07:26:14Z</time>
      </trkpt>
      <trkpt lat="46.55774" lon="5.58549">
        <ele>534.7</ele>
        <time>2022-06-11T07:26:22Z</time>
      </trkpt>
      <trkpt lat="46.55778" lon="5.58545">
        <ele>536</ele>
        <time>2022-06-11T07:26:34Z</time>
      </trkpt>
      <trkpt lat="46.55778" lon="5.58538">
        <ele>536.4</ele>
        <time>2022-06-11T07:26:42Z</time>
      </trkpt>
      <trkpt lat="46.55776" lon="5.58531">
        <ele>536.9</ele>
        <time>2022-06-11T07:26:49Z</time>
      </trkpt>
      <trkpt lat="46.55771" lon="5.58528">
        <ele>537.2</ele>
        <time>2022-06-11T07:26:57Z</time>
      </trkpt>
      <trkpt lat="46.55767" lon="5.58524">
        <ele>535.9</ele>
        <time>2022-06-11T07:27:16Z</time>
      </trkpt>
      <trkpt lat="46.55765" lon="5.58518">
        <ele>534.3</ele>
        <time>2022-06-11T07:27:22Z</time>
      </trkpt>
      <trkpt lat="46.5576" lon="5.58516">
        <ele>533.1</ele>
        <time>2022-06-11T07:27:28Z</time>
      </trkpt>
      <trkpt lat="46.55756" lon="5.58514">
        <ele>531.9</ele>
        <time>2022-06-11T07:27:34Z</time>
      </trkpt>
      <trkpt lat="46.55751" lon="5.58512">
        <ele>531.3</ele>
        <time>2022-06-11T07:27:41Z</time>
      </trkpt>
      <trkpt lat="46.55748" lon="5.58508">
        <ele>531.8</ele>
        <time>2022-06-11T07:27:49Z</time>
      </trkpt>
      <trkpt lat="46.55752" lon="5.58511">
        <ele>533</ele>
        <time>2022-06-11T07:28:04Z</time>
      </trkpt>
      <trkpt lat="46.55756" lon="5.58514">
        <ele>533.9</ele>
        <time>2022-06-11T07:28:08Z</time>
      </trkpt>
      <trkpt lat="46.5576" lon="5.58519">
        <ele>534.4</ele>
        <time>2022-06-11T07:28:13Z</time>
      </trkpt>
      <trkpt lat="46.55764" lon="5.58523">
        <ele>534.2</ele>
        <time>2022-06-11T07:28:18Z</time>
      </trkpt>
      <trkpt lat="46.55768" lon="5.58528">
        <ele>533.3</ele>
        <time>2022-06-11T07:28:23Z</time>
      </trkpt>
      <trkpt lat="46.55773" lon="5.58531">
        <ele>532.6</ele>
        <time>2022-06-11T07:28:29Z</time>
      </trkpt>
      <trkpt lat="46.55777" lon="5.58535">
        <ele>531.8</ele>
        <time>2022-06-11T07:28:36Z</time>
      </trkpt>
      <trkpt lat="46.55782" lon="5.58534">
        <ele>532.5</ele>
        <time>2022-06-11T07:28:42Z</time>
      </trkpt>
      <trkpt lat="46.55786" lon="5.58533">
        <ele>533.4</ele>
        <time>2022-06-11T07:28:47Z</time>
      </trkpt>
      <trkpt lat="46.55791" lon="5.58531">
        <ele>534.7</ele>
        <time>2022-06-11T07:28:52Z</time>
      </trkpt>
      <trkpt lat="46.55796" lon="5.5853">
        <ele>535.7</ele>
        <time>2022-06-11T07:28:58Z</time>
      </trkpt>
      <trkpt lat="46.55801" lon="5.58529">
        <ele>536.1</ele>
        <time>2022-06-11T07:29:02Z</time>
      </trkpt>
      <trkpt lat="46.55805" lon="5.58524">
        <ele>536.6</ele>
        <time>2022-06-11T07:29:09Z</time>
      </trkpt>
      <trkpt lat="46.55807" lon="5.58517">
        <ele>537</ele>
        <time>2022-06-11T07:29:14Z</time>
      </trkpt>
      <trkpt lat="46.55807" lon="5.58511">
        <ele>537</ele>
        <time>2022-06-11T07:29:20Z</time>
      </trkpt>
      <trkpt lat="46.55808" lon="5.58504">
        <ele>539</ele>
        <time>2022-06-11T07:29:29Z</time>
      </trkpt>
      <trkpt lat="46.55809" lon="5.58497">
        <ele>541.7</ele>
        <time>2022-06-11T07:29:37Z</time>
      </trkpt>
      <trkpt lat="46.55812" lon="5.58492">
        <ele>544</ele>
        <time>2022-06-11T07:29:44Z</time>
      </trkpt>
      <trkpt lat="46.55816" lon="5.58487">
        <ele>547.2</ele>
        <time>2022-06-11T07:29:53Z</time>
      </trkpt>
      <trkpt lat="46.55819" lon="5.58482">
        <ele>548.7</ele>
        <time>2022-06-11T07:29:58Z</time>
      </trkpt>
      <trkpt lat="46.55823" lon="5.58478">
        <ele>549.5</ele>
        <time>2022-06-11T07:30:03Z</time>
      </trkpt>
      <trkpt lat="46.55827" lon="5.58475">
        <ele>549.6</ele>
        <time>2022-06-11T07:30:08Z</time>
      </trkpt>
      <trkpt lat="46.55832" lon="5.58476">
        <ele>549.5</ele>
        <time>2022-06-11T07:30:15Z</time>
      </trkpt>
      <trkpt lat="46.55838" lon="5.58475">
        <ele>550.5</ele>
        <time>2022-06-11T07:30:20Z</time>
      </trkpt>
      <trkpt lat="46.55843" lon="5.58473">
        <ele>551.4</ele>
        <time>2022-06-11T07:30:24Z</time>
      </trkpt>
      <trkpt lat="46.55847" lon="5.58473">
        <ele>552.2</ele>
        <time>2022-06-11T07:30:29Z</time>
      </trkpt>
      <trkpt lat="46.55852" lon="5.58474">
        <ele>553.5</ele>
        <time>2022-06-11T07:30:37Z</time>
      </trkpt>
      <trkpt lat="46.55858" lon="5.58474">
        <ele>553.6</ele>
        <time>2022-06-11T07:30:41Z</time>
      </trkpt>
      <trkpt lat="46.55862" lon="5.58477">
        <ele>553.3</ele>
        <time>2022-06-11T07:30:46Z</time>
      </trkpt>
      <trkpt lat="46.55867" lon="5.58476">
        <ele>552.5</ele>
        <time>2022-06-11T07:30:52Z</time>
      </trkpt>
      <trkpt lat="46.55871" lon="5.58472">
        <ele>551.5</ele>
        <time>2022-06-11T07:30:57Z</time>
      </trkpt>
      <trkpt lat="46.55876" lon="5.58475">
        <ele>550.2</ele>
        <time>2022-06-11T07:31:06Z</time>
      </trkpt>
      <trkpt lat="46.55881" lon="5.58472">
        <ele>548</ele>
        <time>2022-06-11T07:31:14Z</time>
      </trkpt>
      <trkpt lat="46.55886" lon="5.58471">
        <ele>546.2</ele>
        <time>2022-06-11T07:31:19Z</time>
      </trkpt>
      <trkpt lat="46.55891" lon="5.58472">
        <ele>546.4</ele>
        <time>2022-06-11T07:31:24Z</time>
      </trkpt>
      <trkpt lat="46.55886" lon="5.58472">
        <ele>549.4</ele>
        <time>2022-06-11T07:31:36Z</time>
      </trkpt>
      <trkpt lat="46.5589" lon="5.58468">
        <ele>552.7</ele>
        <time>2022-06-11T07:31:45Z</time>
      </trkpt>
      <trkpt lat="46.55889" lon="5.58462">
        <ele>555.5</ele>
        <time>2022-06-11T07:31:52Z</time>
      </trkpt>
      <trkpt lat="46.55894" lon="5.58465">
        <ele>556.9</ele>
        <time>2022-06-11T07:31:58Z</time>
      </trkpt>
      <trkpt lat="46.55899" lon="5.58465">
        <ele>559.1</ele>
        <time>2022-06-11T07:32:10Z</time>
      </trkpt>
      <trkpt lat="46.55894" lon="5.58467">
        <ele>563.2</ele>
        <time>2022-06-11T07:32:53Z</time>
      </trkpt>
      <trkpt lat="46.5589" lon="5.5847">
        <ele>558.7</ele>
        <time>2022-06-11T07:33:07Z</time>
      </trkpt>
      <trkpt lat="46.55885" lon="5.58475">
        <ele>557.8</ele>
        <time>2022-06-11T07:33:13Z</time>
      </trkpt>
      <trkpt lat="46.55882" lon="5.58479">
        <ele>556.6</ele>
        <time>2022-06-11T07:33:18Z</time>
      </trkpt>
      <trkpt lat="46.55877" lon="5.5848">
        <ele>555.1</ele>
        <time>2022-06-11T07:33:23Z</time>
      </trkpt>
      <trkpt lat="46.55873" lon="5.58479">
        <ele>553.5</ele>
        <time>2022-06-11T07:33:27Z</time>
      </trkpt>
      <trkpt lat="46.55868" lon="5.58476">
        <ele>552.1</ele>
        <time>2022-06-11T07:33:31Z</time>
      </trkpt>
      <trkpt lat="46.55862" lon="5.58477">
        <ele>551</ele>
        <time>2022-06-11T07:33:35Z</time>
      </trkpt>
      <trkpt lat="46.55858" lon="5.58478">
        <ele>550.3</ele>
        <time>2022-06-11T07:33:39Z</time>
      </trkpt>
      <trkpt lat="46.55853" lon="5.58477">
        <ele>549.2</ele>
        <time>2022-06-11T07:33:44Z</time>
      </trkpt>
      <trkpt lat="46.55848" lon="5.58477">
        <ele>546.1</ele>
        <time>2022-06-11T07:33:50Z</time>
      </trkpt>
      <trkpt lat="46.55844" lon="5.58478">
        <ele>544.5</ele>
        <time>2022-06-11T07:33:55Z</time>
      </trkpt>
      <trkpt lat="46.55839" lon="5.58481">
        <ele>544.3</ele>
        <time>2022-06-11T07:33:59Z</time>
      </trkpt>
      <trkpt lat="46.55833" lon="5.58481">
        <ele>544</ele>
        <time>2022-06-11T07:34:03Z</time>
      </trkpt>
      <trkpt lat="46.55828" lon="5.58481">
        <ele>543.5</ele>
        <time>2022-06-11T07:34:08Z</time>
      </trkpt>
      <trkpt lat="46.55834" lon="5.58482">
        <ele>543.8</ele>
        <time>2022-06-11T07:34:23Z</time>
      </trkpt>
      <trkpt lat="46.55838" lon="5.58478">
        <ele>543.6</ele>
        <time>2022-06-11T07:34:26Z</time>
      </trkpt>
      <trkpt lat="46.55843" lon="5.58475">
        <ele>543.2</ele>
        <time>2022-06-11T07:34:30Z</time>
      </trkpt>
      <trkpt lat="46.55848" lon="5.58474">
        <ele>542.9</ele>
        <time>2022-06-11T07:34:36Z</time>
      </trkpt>
      <trkpt lat="46.55853" lon="5.58476">
        <ele>543.8</ele>
        <time>2022-06-11T07:34:41Z</time>
      </trkpt>
      <trkpt lat="46.55858" lon="5.58476">
        <ele>544.5</ele>
        <time>2022-06-11T07:34:45Z</time>
      </trkpt>
      <trkpt lat="46.55862" lon="5.58475">
        <ele>545.1</ele>
        <time>2022-06-11T07:34:49Z</time>
      </trkpt>
      <trkpt lat="46.55868" lon="5.58475">
        <ele>545.7</ele>
        <time>2022-06-11T07:34:53Z</time>
      </trkpt>
      <trkpt lat="46.55874" lon="5.58475">
        <ele>546.6</ele>
        <time>2022-06-11T07:34:57Z</time>
      </trkpt>
      <trkpt lat="46.55879" lon="5.58472">
        <ele>547.5</ele>
        <time>2022-06-11T07:35:01Z</time>
      </trkpt>
      <trkpt lat="46.55882" lon="5.58468">
        <ele>548.4</ele>
        <time>2022-06-11T07:35:04Z</time>
      </trkpt>
      <trkpt lat="46.55886" lon="5.58471">
        <ele>549.7</ele>
        <time>2022-06-11T07:35:09Z</time>
      </trkpt>
      <trkpt lat="46.55891" lon="5.58471">
        <ele>550.5</ele>
        <time>2022-06-11T07:35:13Z</time>
      </trkpt>
      <trkpt lat="46.55896" lon="5.58469">
        <ele>551</ele>
        <time>2022-06-11T07:35:16Z</time>
      </trkpt>
      <trkpt lat="46.559" lon="5.58464">
        <ele>551.2</ele>
        <time>2022-06-11T07:35:21Z</time>
      </trkpt>
      <trkpt lat="46.55898" lon="5.58457">
        <ele>551.9</ele>
        <time>2022-06-11T07:35:29Z</time>
      </trkpt>
      <trkpt lat="46.55893" lon="5.58453">
        <ele>551.7</ele>
        <time>2022-06-11T07:35:33Z</time>
      </trkpt>
      <trkpt lat="46.55898" lon="5.58454">
        <ele>549.3</ele>
        <time>2022-06-11T07:35:43Z</time>
      </trkpt>
      <trkpt lat="46.55903" lon="5.58456">
        <ele>548.9</ele>
        <time>2022-06-11T07:35:46Z</time>
      </trkpt>
      <trkpt lat="46.55907" lon="5.58458">
        <ele>548.3</ele>
        <time>2022-06-11T07:35:51Z</time>
      </trkpt>
      <trkpt lat="46.55911" lon="5.58462">
        <ele>548.5</ele>
        <time>2022-06-11T07:35:55Z</time>
      </trkpt>
      <trkpt lat="46.55916" lon="5.58465">
        <ele>549.3</ele>
        <time>2022-06-11T07:36:00Z</time>
      </trkpt>
      <trkpt lat="46.55921" lon="5.58467">
        <ele>550.2</ele>
        <time>2022-06-11T07:36:04Z</time>
      </trkpt>
      <trkpt lat="46.55926" lon="5.58469">
        <ele>550.8</ele>
        <time>2022-06-11T07:36:08Z</time>
      </trkpt>
      <trkpt lat="46.55931" lon="5.58467">
        <ele>551.7</ele>
        <time>2022-06-11T07:36:14Z</time>
      </trkpt>
      <trkpt lat="46.55936" lon="5.58464">
        <ele>553.1</ele>
        <time>2022-06-11T07:36:22Z</time>
      </trkpt>
      <trkpt lat="46.55941" lon="5.58467">
        <ele>553.8</ele>
        <time>2022-06-11T07:36:35Z</time>
      </trkpt>
      <trkpt lat="46.55945" lon="5.5847">
        <ele>554.3</ele>
        <time>2022-06-11T07:36:41Z</time>
      </trkpt>
      <trkpt lat="46.5595" lon="5.58469">
        <ele>555.4</ele>
        <time>2022-06-11T07:36:55Z</time>
      </trkpt>
      <trkpt lat="46.55947" lon="5.58462">
        <ele>557.9</ele>
        <time>2022-06-11T07:37:05Z</time>
      </trkpt>
      <trkpt lat="46.55945" lon="5.58457">
        <ele>562.3</ele>
        <time>2022-06-11T07:37:28Z</time>
      </trkpt>
      <trkpt lat="46.55943" lon="5.5845">
        <ele>564.1</ele>
        <time>2022-06-11T07:37:36Z</time>
      </trkpt>
      <trkpt lat="46.55942" lon="5.58457">
        <ele>569.2</ele>
        <time>2022-06-11T07:37:54Z</time>
      </trkpt>
      <trkpt lat="46.55945" lon="5.58463">
        <ele>569.7</ele>
        <time>2022-06-11T07:38:00Z</time>
      </trkpt>
      <trkpt lat="46.5595" lon="5.58462">
        <ele>561.5</ele>
        <time>2022-06-11T07:39:20Z</time>
      </trkpt>
      <trkpt lat="46.55955" lon="5.58461">
        <ele>562.4</ele>
        <time>2022-06-11T07:39:24Z</time>
      </trkpt>
      <trkpt lat="46.55958" lon="5.58456">
        <ele>563.6</ele>
        <time>2022-06-11T07:39:33Z</time>
      </trkpt>
      <trkpt lat="46.55957" lon="5.58449">
        <ele>563.9</ele>
        <time>2022-06-11T07:39:38Z</time>
      </trkpt>
      <trkpt lat="46.55956" lon="5.5844">
        <ele>566.3</ele>
        <time>2022-06-11T07:39:56Z</time>
      </trkpt>
      <trkpt lat="46.55955" lon="5.58433">
        <ele>569.5</ele>
        <time>2022-06-11T07:40:02Z</time>
      </trkpt>
      <trkpt lat="46.5596" lon="5.58436">
        <ele>571.1</ele>
        <time>2022-06-11T07:40:06Z</time>
      </trkpt>
      <trkpt lat="46.55963" lon="5.58441">
        <ele>572.8</ele>
        <time>2022-06-11T07:40:12Z</time>
      </trkpt>
      <trkpt lat="46.55959" lon="5.58444">
        <ele>574.4</ele>
        <time>2022-06-11T07:40:21Z</time>
      </trkpt>
      <trkpt lat="46.55957" lon="5.58438">
        <ele>575</ele>
        <time>2022-06-11T07:40:29Z</time>
      </trkpt>
      <trkpt lat="46.55963" lon="5.58437">
        <ele>576.9</ele>
        <time>2022-06-11T07:40:39Z</time>
      </trkpt>
      <trkpt lat="46.5596" lon="5.58431">
        <ele>579.9</ele>
        <time>2022-06-11T07:40:48Z</time>
      </trkpt>
      <trkpt lat="46.5596" lon="5.58425">
        <ele>580.1</ele>
        <time>2022-06-11T07:40:53Z</time>
      </trkpt>
      <trkpt lat="46.55955" lon="5.58425">
        <ele>581.6</ele>
        <time>2022-06-11T07:41:13Z</time>
      </trkpt>
      <trkpt lat="46.55956" lon="5.58419">
        <ele>583.8</ele>
        <time>2022-06-11T07:41:26Z</time>
      </trkpt>
      <trkpt lat="46.55955" lon="5.58412">
        <ele>582.1</ele>
        <time>2022-06-11T07:41:43Z</time>
      </trkpt>
      <trkpt lat="46.55955" lon="5.58405">
        <ele>581.8</ele>
        <time>2022-06-11T07:41:49Z</time>
      </trkpt>
      <trkpt lat="46.55957" lon="5.58398">
        <ele>581.4</ele>
        <time>2022-06-11T07:41:53Z</time>
      </trkpt>
      <trkpt lat="46.55959" lon="5.58391">
        <ele>580.7</ele>
        <time>2022-06-11T07:41:58Z</time>
      </trkpt>
      <trkpt lat="46.55954" lon="5.58388">
        <ele>579.5</ele>
        <time>2022-06-11T07:42:07Z</time>
      </trkpt>
      <trkpt lat="46.55951" lon="5.58383">
        <ele>579.3</ele>
        <time>2022-06-11T07:42:22Z</time>
      </trkpt>
      <trkpt lat="46.55955" lon="5.58379">
        <ele>581.2</ele>
        <time>2022-06-11T07:42:33Z</time>
      </trkpt>
      <trkpt lat="46.5596" lon="5.58376">
        <ele>583.4</ele>
        <time>2022-06-11T07:42:44Z</time>
      </trkpt>
      <trkpt lat="46.55966" lon="5.58376">
        <ele>587.2</ele>
        <time>2022-06-11T07:42:55Z</time>
      </trkpt>
      <trkpt lat="46.55971" lon="5.58378">
        <ele>589.3</ele>
        <time>2022-06-11T07:42:58Z</time>
      </trkpt>
      <trkpt lat="46.55967" lon="5.58374">
        <ele>595.2</ele>
        <time>2022-06-11T07:43:27Z</time>
      </trkpt>
      <trkpt lat="46.55971" lon="5.5837">
        <ele>596.5</ele>
        <time>2022-06-11T07:43:32Z</time>
      </trkpt>
      <trkpt lat="46.55976" lon="5.58372">
        <ele>597.6</ele>
        <time>2022-06-11T07:43:37Z</time>
      </trkpt>
      <trkpt lat="46.55981" lon="5.58373">
        <ele>596</ele>
        <time>2022-06-11T07:44:04Z</time>
      </trkpt>
      <trkpt lat="46.55981" lon="5.58366">
        <ele>599.8</ele>
        <time>2022-06-11T07:44:27Z</time>
      </trkpt>
      <trkpt lat="46.5598" lon="5.58359">
        <ele>600.5</ele>
        <time>2022-06-11T07:44:32Z</time>
      </trkpt>
      <trkpt lat="46.55976" lon="5.58353">
        <ele>603.1</ele>
        <time>2022-06-11T07:44:39Z</time>
      </trkpt>
      <trkpt lat="46.55973" lon="5.58349">
        <ele>606</ele>
        <time>2022-06-11T07:44:48Z</time>
      </trkpt>
      <trkpt lat="46.55971" lon="5.58356">
        <ele>605.9</ele>
        <time>2022-06-11T07:45:09Z</time>
      </trkpt>
      <trkpt lat="46.55976" lon="5.58353">
        <ele>602.4</ele>
        <time>2022-06-11T07:45:15Z</time>
      </trkpt>
      <trkpt lat="46.55974" lon="5.58359">
        <ele>600.1</ele>
        <time>2022-06-11T07:45:36Z</time>
      </trkpt>
      <trkpt lat="46.55978" lon="5.58356">
        <ele>600.1</ele>
        <time>2022-06-11T07:46:08Z</time>
      </trkpt>
      <trkpt lat="46.55982" lon="5.58352">
        <ele>599.5</ele>
        <time>2022-06-11T07:46:13Z</time>
      </trkpt>
      <trkpt lat="46.55977" lon="5.58352">
        <ele>599.7</ele>
        <time>2022-06-11T07:46:35Z</time>
      </trkpt>
      <trkpt lat="46.55973" lon="5.58349">
        <ele>598</ele>
        <time>2022-06-11T07:47:01Z</time>
      </trkpt>
      <trkpt lat="46.55972" lon="5.58342">
        <ele>598.7</ele>
        <time>2022-06-11T07:47:25Z</time>
      </trkpt>
      <trkpt lat="46.55967" lon="5.58341">
        <ele>599.7</ele>
        <time>2022-06-11T07:47:33Z</time>
      </trkpt>
      <trkpt lat="46.55963" lon="5.58343">
        <ele>600.1</ele>
        <time>2022-06-11T07:47:37Z</time>
      </trkpt>
      <trkpt lat="46.55959" lon="5.58348">
        <ele>600.5</ele>
        <time>2022-06-11T07:47:44Z</time>
      </trkpt>
      <trkpt lat="46.55956" lon="5.58341">
        <ele>601.3</ele>
        <time>2022-06-11T07:47:51Z</time>
      </trkpt>
      <trkpt lat="46.55952" lon="5.58335">
        <ele>602</ele>
        <time>2022-06-11T07:47:55Z</time>
      </trkpt>
      <trkpt lat="46.55947" lon="5.5833">
        <ele>602.1</ele>
        <time>2022-06-11T07:47:59Z</time>
      </trkpt>
      <trkpt lat="46.55943" lon="5.58325">
        <ele>602.2</ele>
        <time>2022-06-11T07:48:02Z</time>
      </trkpt>
      <trkpt lat="46.55938" lon="5.58322">
        <ele>602</ele>
        <time>2022-06-11T07:48:06Z</time>
      </trkpt>
      <trkpt lat="46.55933" lon="5.58322">
        <ele>602</ele>
        <time>2022-06-11T07:48:12Z</time>
      </trkpt>
      <trkpt lat="46.55927" lon="5.58322">
        <ele>603.1</ele>
        <time>2022-06-11T07:48:24Z</time>
      </trkpt>
      <trkpt lat="46.55923" lon="5.5832">
        <ele>603.5</ele>
        <time>2022-06-11T07:48:27Z</time>
      </trkpt>
      <trkpt lat="46.55921" lon="5.58313">
        <ele>605.5</ele>
        <time>2022-06-11T07:48:47Z</time>
      </trkpt>
      <trkpt lat="46.55917" lon="5.58308">
        <ele>605</ele>
        <time>2022-06-11T07:48:50Z</time>
      </trkpt>
      <trkpt lat="46.55913" lon="5.58303">
        <ele>604.2</ele>
        <time>2022-06-11T07:48:55Z</time>
      </trkpt>
      <trkpt lat="46.55909" lon="5.583">
        <ele>603.6</ele>
        <time>2022-06-11T07:48:59Z</time>
      </trkpt>
      <trkpt lat="46.55904" lon="5.58299">
        <ele>602.7</ele>
        <time>2022-06-11T07:49:04Z</time>
      </trkpt>
      <trkpt lat="46.559" lon="5.58296">
        <ele>604.9</ele>
        <time>2022-06-11T07:49:26Z</time>
      </trkpt>
      <trkpt lat="46.55896" lon="5.58292">
        <ele>607.8</ele>
        <time>2022-06-11T07:49:49Z</time>
      </trkpt>
      <trkpt lat="46.55892" lon="5.58288">
        <ele>608.6</ele>
        <time>2022-06-11T07:49:59Z</time>
      </trkpt>
      <trkpt lat="46.55896" lon="5.58272">
        <ele>597.3</ele>
        <time>2022-06-11T07:50:56Z</time>
      </trkpt>
      <trkpt lat="46.55895" lon="5.5828">
        <ele>599.8</ele>
        <time>2022-06-11T07:51:08Z</time>
      </trkpt>
      <trkpt lat="46.55894" lon="5.58287">
        <ele>605.1</ele>
        <time>2022-06-11T07:51:19Z</time>
      </trkpt>
      <trkpt lat="46.55897" lon="5.58296">
        <ele>604.8</ele>
        <time>2022-06-11T07:51:29Z</time>
      </trkpt>
      <trkpt lat="46.55894" lon="5.58301">
        <ele>603.5</ele>
        <time>2022-06-11T07:51:34Z</time>
      </trkpt>
      <trkpt lat="46.55897" lon="5.58296">
        <ele>604.9</ele>
        <time>2022-06-11T07:51:46Z</time>
      </trkpt>
      <trkpt lat="46.55902" lon="5.58293">
        <ele>605.6</ele>
        <time>2022-06-11T07:51:51Z</time>
      </trkpt>
      <trkpt lat="46.55906" lon="5.58292">
        <ele>605.9</ele>
        <time>2022-06-11T07:51:56Z</time>
      </trkpt>
      <trkpt lat="46.55911" lon="5.58291">
        <ele>606.1</ele>
        <time>2022-06-11T07:52:02Z</time>
      </trkpt>
      <trkpt lat="46.55913" lon="5.58285">
        <ele>606.6</ele>
        <time>2022-06-11T07:52:11Z</time>
      </trkpt>
      <trkpt lat="46.55913" lon="5.58278">
        <ele>606.7</ele>
        <time>2022-06-11T07:52:15Z</time>
      </trkpt>
      <trkpt lat="46.55914" lon="5.5827">
        <ele>606.8</ele>
        <time>2022-06-11T07:52:19Z</time>
      </trkpt>
      <trkpt lat="46.55912" lon="5.58264">
        <ele>607.1</ele>
        <time>2022-06-11T07:52:24Z</time>
      </trkpt>
      <trkpt lat="46.55911" lon="5.58256">
        <ele>608.1</ele>
        <time>2022-06-11T07:52:33Z</time>
      </trkpt>
      <trkpt lat="46.55907" lon="5.58252">
        <ele>608.7</ele>
        <time>2022-06-11T07:52:38Z</time>
      </trkpt>
      <trkpt lat="46.55903" lon="5.58249">
        <ele>610.5</ele>
        <time>2022-06-11T07:52:45Z</time>
      </trkpt>
      <trkpt lat="46.55899" lon="5.58245">
        <ele>612.2</ele>
        <time>2022-06-11T07:52:50Z</time>
      </trkpt>
      <trkpt lat="46.55904" lon="5.58245">
        <ele>613.4</ele>
        <time>2022-06-11T07:53:05Z</time>
      </trkpt>
      <trkpt lat="46.55904" lon="5.58238">
        <ele>614.8</ele>
        <time>2022-06-11T07:53:17Z</time>
      </trkpt>
      <trkpt lat="46.55908" lon="5.5824">
        <ele>616.3</ele>
        <time>2022-06-11T07:53:23Z</time>
      </trkpt>
      <trkpt lat="46.55912" lon="5.58235">
        <ele>618.2</ele>
        <time>2022-06-11T07:53:36Z</time>
      </trkpt>
      <trkpt lat="46.55916" lon="5.58231">
        <ele>618.2</ele>
        <time>2022-06-11T07:53:40Z</time>
      </trkpt>
      <trkpt lat="46.55919" lon="5.58225">
        <ele>618</ele>
        <time>2022-06-11T07:53:45Z</time>
      </trkpt>
      <trkpt lat="46.55916" lon="5.58231">
        <ele>616.3</ele>
        <time>2022-06-11T07:54:12Z</time>
      </trkpt>
      <trkpt lat="46.55914" lon="5.58224">
        <ele>622.6</ele>
        <time>2022-06-11T07:54:36Z</time>
      </trkpt>
      <trkpt lat="46.55915" lon="5.58217">
        <ele>623.7</ele>
        <time>2022-06-11T07:54:51Z</time>
      </trkpt>
      <trkpt lat="46.55915" lon="5.58224">
        <ele>622.2</ele>
        <time>2022-06-11T07:55:08Z</time>
      </trkpt>
      <trkpt lat="46.55913" lon="5.5823">
        <ele>619.5</ele>
        <time>2022-06-11T07:55:14Z</time>
      </trkpt>
      <trkpt lat="46.55909" lon="5.58234">
        <ele>617.5</ele>
        <time>2022-06-11T07:55:19Z</time>
      </trkpt>
      <trkpt lat="46.55905" lon="5.58238">
        <ele>616.1</ele>
        <time>2022-06-11T07:55:28Z</time>
      </trkpt>
      <trkpt lat="46.55901" lon="5.5824">
        <ele>615.8</ele>
        <time>2022-06-11T07:55:35Z</time>
      </trkpt>
      <trkpt lat="46.55897" lon="5.58245">
        <ele>615.1</ele>
        <time>2022-06-11T07:55:48Z</time>
      </trkpt>
      <trkpt lat="46.55896" lon="5.58252">
        <ele>614.6</ele>
        <time>2022-06-11T07:56:02Z</time>
      </trkpt>
      <trkpt lat="46.55892" lon="5.58252">
        <ele>613.1</ele>
        <time>2022-06-11T07:56:20Z</time>
      </trkpt>
      <trkpt lat="46.55887" lon="5.58247">
        <ele>613.4</ele>
        <time>2022-06-11T07:56:29Z</time>
      </trkpt>
      <trkpt lat="46.55885" lon="5.58241">
        <ele>614</ele>
        <time>2022-06-11T07:56:34Z</time>
      </trkpt>
      <trkpt lat="46.55882" lon="5.58246">
        <ele>614.4</ele>
        <time>2022-06-11T07:56:46Z</time>
      </trkpt>
      <trkpt lat="46.5588" lon="5.58252">
        <ele>614.5</ele>
        <time>2022-06-11T07:56:50Z</time>
      </trkpt>
      <trkpt lat="46.5588" lon="5.58259">
        <ele>615</ele>
        <time>2022-06-11T07:57:15Z</time>
      </trkpt>
      <trkpt lat="46.55873" lon="5.58255">
        <ele>618.5</ele>
        <time>2022-06-11T07:57:56Z</time>
      </trkpt>
      <trkpt lat="46.55872" lon="5.58263">
        <ele>618.2</ele>
        <time>2022-06-11T07:58:03Z</time>
      </trkpt>
      <trkpt lat="46.55868" lon="5.58268">
        <ele>617.5</ele>
        <time>2022-06-11T07:58:07Z</time>
      </trkpt>
      <trkpt lat="46.5587" lon="5.58275">
        <ele>614.6</ele>
        <time>2022-06-11T07:58:19Z</time>
      </trkpt>
      <trkpt lat="46.55874" lon="5.58271">
        <ele>612.5</ele>
        <time>2022-06-11T07:58:32Z</time>
      </trkpt>
      <trkpt lat="46.55869" lon="5.58268">
        <ele>611.5</ele>
        <time>2022-06-11T07:58:41Z</time>
      </trkpt>
      <trkpt lat="46.55869" lon="5.58261">
        <ele>611.7</ele>
        <time>2022-06-11T07:58:45Z</time>
      </trkpt>
      <trkpt lat="46.55873" lon="5.58255">
        <ele>611.9</ele>
        <time>2022-06-11T07:58:48Z</time>
      </trkpt>
      <trkpt lat="46.55877" lon="5.5825">
        <ele>611.6</ele>
        <time>2022-06-11T07:58:52Z</time>
      </trkpt>
      <trkpt lat="46.55878" lon="5.58257">
        <ele>612.1</ele>
        <time>2022-06-11T07:59:26Z</time>
      </trkpt>
      <trkpt lat="46.55873" lon="5.58256">
        <ele>611.1</ele>
        <time>2022-06-11T07:59:44Z</time>
      </trkpt>
      <trkpt lat="46.55873" lon="5.58263">
        <ele>610.4</ele>
        <time>2022-06-11T07:59:51Z</time>
      </trkpt>
      <trkpt lat="46.5587" lon="5.58269">
        <ele>609.6</ele>
        <time>2022-06-11T07:59:59Z</time>
      </trkpt>
      <trkpt lat="46.55875" lon="5.58268">
        <ele>610.9</ele>
        <time>2022-06-11T08:00:10Z</time>
      </trkpt>
      <trkpt lat="46.5588" lon="5.58266">
        <ele>611.4</ele>
        <time>2022-06-11T08:00:16Z</time>
      </trkpt>
      <trkpt lat="46.55885" lon="5.5827">
        <ele>611.9</ele>
        <time>2022-06-11T08:00:21Z</time>
      </trkpt>
      <trkpt lat="46.55887" lon="5.58275">
        <ele>611.5</ele>
        <time>2022-06-11T08:00:24Z</time>
      </trkpt>
      <trkpt lat="46.55889" lon="5.58282">
        <ele>609.5</ele>
        <time>2022-06-11T08:00:35Z</time>
      </trkpt>
      <trkpt lat="46.55882" lon="5.58259">
        <ele>644.7</ele>
        <time>2022-06-11T08:02:16Z</time>
      </trkpt>
      <trkpt lat="46.55878" lon="5.58259">
        <ele>638.2</ele>
        <time>2022-06-11T08:02:22Z</time>
      </trkpt>
      <trkpt lat="46.55882" lon="5.58257">
        <ele>634.6</ele>
        <time>2022-06-11T08:02:29Z</time>
      </trkpt>
      <trkpt lat="46.55887" lon="5.58258">
        <ele>631.7</ele>
        <time>2022-06-11T08:02:37Z</time>
      </trkpt>
      <trkpt lat="46.55889" lon="5.58264">
        <ele>629.8</ele>
        <time>2022-06-11T08:02:42Z</time>
      </trkpt>
      <trkpt lat="46.55891" lon="5.5827">
        <ele>624.4</ele>
        <time>2022-06-11T08:02:59Z</time>
      </trkpt>
      <trkpt lat="46.55895" lon="5.58275">
        <ele>622.5</ele>
        <time>2022-06-11T08:03:08Z</time>
      </trkpt>
      <trkpt lat="46.55894" lon="5.58268">
        <ele>621.4</ele>
        <time>2022-06-11T08:03:30Z</time>
      </trkpt>
      <trkpt lat="46.55894" lon="5.5826">
        <ele>621.6</ele>
        <time>2022-06-11T08:03:36Z</time>
      </trkpt>
      <trkpt lat="46.55889" lon="5.58263">
        <ele>620</ele>
        <time>2022-06-11T08:03:57Z</time>
      </trkpt>
      <trkpt lat="46.55894" lon="5.5826">
        <ele>617.6</ele>
        <time>2022-06-11T08:04:07Z</time>
      </trkpt>
      <trkpt lat="46.55898" lon="5.58255">
        <ele>616.4</ele>
        <time>2022-06-11T08:04:10Z</time>
      </trkpt>
      <trkpt lat="46.55901" lon="5.58248">
        <ele>615.1</ele>
        <time>2022-06-11T08:04:16Z</time>
      </trkpt>
      <trkpt lat="46.55905" lon="5.58246">
        <ele>614.7</ele>
        <time>2022-06-11T08:04:20Z</time>
      </trkpt>
      <trkpt lat="46.5591" lon="5.58244">
        <ele>614.2</ele>
        <time>2022-06-11T08:04:33Z</time>
      </trkpt>
      <trkpt lat="46.55915" lon="5.58243">
        <ele>614.5</ele>
        <time>2022-06-11T08:04:40Z</time>
      </trkpt>
      <trkpt lat="46.55917" lon="5.58236">
        <ele>615.6</ele>
        <time>2022-06-11T08:04:48Z</time>
      </trkpt>
      <trkpt lat="46.55918" lon="5.5823">
        <ele>617.2</ele>
        <time>2022-06-11T08:04:55Z</time>
      </trkpt>
      <trkpt lat="46.55919" lon="5.58223">
        <ele>618.7</ele>
        <time>2022-06-11T08:05:02Z</time>
      </trkpt>
      <trkpt lat="46.55917" lon="5.58217">
        <ele>621.5</ele>
        <time>2022-06-11T08:05:14Z</time>
      </trkpt>
      <trkpt lat="46.55915" lon="5.58211">
        <ele>622.9</ele>
        <time>2022-06-11T08:05:21Z</time>
      </trkpt>
      <trkpt lat="46.55913" lon="5.58203">
        <ele>623.2</ele>
        <time>2022-06-11T08:05:27Z</time>
      </trkpt>
      <trkpt lat="46.55909" lon="5.58198">
        <ele>623.7</ele>
        <time>2022-06-11T08:05:44Z</time>
      </trkpt>
      <trkpt lat="46.55905" lon="5.58197">
        <ele>624</ele>
        <time>2022-06-11T08:05:49Z</time>
      </trkpt>
      <trkpt lat="46.559" lon="5.58198">
        <ele>622.4</ele>
        <time>2022-06-11T08:06:10Z</time>
      </trkpt>
      <trkpt lat="46.55895" lon="5.58198">
        <ele>621.8</ele>
        <time>2022-06-11T08:06:16Z</time>
      </trkpt>
      <trkpt lat="46.55889" lon="5.58198">
        <ele>621.4</ele>
        <time>2022-06-11T08:06:21Z</time>
      </trkpt>
      <trkpt lat="46.55884" lon="5.58199">
        <ele>620.4</ele>
        <time>2022-06-11T08:06:26Z</time>
      </trkpt>
      <trkpt lat="46.55879" lon="5.58202">
        <ele>619</ele>
        <time>2022-06-11T08:06:32Z</time>
      </trkpt>
      <trkpt lat="46.55874" lon="5.58202">
        <ele>617.8</ele>
        <time>2022-06-11T08:06:37Z</time>
      </trkpt>
      <trkpt lat="46.5587" lon="5.58199">
        <ele>616.8</ele>
        <time>2022-06-11T08:06:42Z</time>
      </trkpt>
      <trkpt lat="46.55865" lon="5.58197">
        <ele>615.8</ele>
        <time>2022-06-11T08:06:46Z</time>
      </trkpt>
      <trkpt lat="46.5586" lon="5.58199">
        <ele>615</ele>
        <time>2022-06-11T08:06:51Z</time>
      </trkpt>
      <trkpt lat="46.55856" lon="5.582">
        <ele>614.5</ele>
        <time>2022-06-11T08:06:56Z</time>
      </trkpt>
      <trkpt lat="46.55851" lon="5.58201">
        <ele>611.3</ele>
        <time>2022-06-11T08:07:17Z</time>
      </trkpt>
      <trkpt lat="46.5585" lon="5.58207">
        <ele>609.5</ele>
        <time>2022-06-11T08:07:28Z</time>
      </trkpt>
      <trkpt lat="46.55846" lon="5.58209">
        <ele>607.2</ele>
        <time>2022-06-11T08:07:42Z</time>
      </trkpt>
      <trkpt lat="46.55844" lon="5.58216">
        <ele>605.5</ele>
        <time>2022-06-11T08:07:50Z</time>
      </trkpt>
      <trkpt lat="46.55841" lon="5.58222">
        <ele>605</ele>
        <time>2022-06-11T08:08:02Z</time>
      </trkpt>
      <trkpt lat="46.55837" lon="5.58225">
        <ele>605.7</ele>
        <time>2022-06-11T08:08:09Z</time>
      </trkpt>
      <trkpt lat="46.55833" lon="5.5823">
        <ele>605.3</ele>
        <time>2022-06-11T08:08:22Z</time>
      </trkpt>
      <trkpt lat="46.5583" lon="5.58236">
        <ele>605.7</ele>
        <time>2022-06-11T08:08:29Z</time>
      </trkpt>
      <trkpt lat="46.55826" lon="5.5824">
        <ele>605.8</ele>
        <time>2022-06-11T08:08:36Z</time>
      </trkpt>
      <trkpt lat="46.55822" lon="5.58244">
        <ele>603.6</ele>
        <time>2022-06-11T08:08:56Z</time>
      </trkpt>
      <trkpt lat="46.55817" lon="5.58247">
        <ele>602.7</ele>
        <time>2022-06-11T08:09:06Z</time>
      </trkpt>
      <trkpt lat="46.55821" lon="5.58243">
        <ele>604.1</ele>
        <time>2022-06-11T08:09:56Z</time>
      </trkpt>
      <trkpt lat="46.55816" lon="5.58243">
        <ele>605.9</ele>
        <time>2022-06-11T08:10:06Z</time>
      </trkpt>
      <trkpt lat="46.55812" lon="5.58243">
        <ele>607</ele>
        <time>2022-06-11T08:10:13Z</time>
      </trkpt>
      <trkpt lat="46.5581" lon="5.5825">
        <ele>606.8</ele>
        <time>2022-06-11T08:10:30Z</time>
      </trkpt>
      <trkpt lat="46.55809" lon="5.58243">
        <ele>606.9</ele>
        <time>2022-06-11T08:11:02Z</time>
      </trkpt>
      <trkpt lat="46.55804" lon="5.5824">
        <ele>606.7</ele>
        <time>2022-06-11T08:11:08Z</time>
      </trkpt>
      <trkpt lat="46.55799" lon="5.58237">
        <ele>606.3</ele>
        <time>2022-06-11T08:11:15Z</time>
      </trkpt>
      <trkpt lat="46.55795" lon="5.58234">
        <ele>606.2</ele>
        <time>2022-06-11T08:11:19Z</time>
      </trkpt>
      <trkpt lat="46.55799" lon="5.58237">
        <ele>606.4</ele>
        <time>2022-06-11T08:12:04Z</time>
      </trkpt>
      <trkpt lat="46.55804" lon="5.58239">
        <ele>606.7</ele>
        <time>2022-06-11T08:12:12Z</time>
      </trkpt>
      <trkpt lat="46.55809" lon="5.58239">
        <ele>608.1</ele>
        <time>2022-06-11T08:12:22Z</time>
      </trkpt>
      <trkpt lat="46.55812" lon="5.58243">
        <ele>609.2</ele>
        <time>2022-06-11T08:12:28Z</time>
      </trkpt>
      <trkpt lat="46.55816" lon="5.58248">
        <ele>610</ele>
        <time>2022-06-11T08:12:33Z</time>
      </trkpt>
      <trkpt lat="46.55811" lon="5.58247">
        <ele>612</ele>
        <time>2022-06-11T08:12:57Z</time>
      </trkpt>
      <trkpt lat="46.55817" lon="5.58248">
        <ele>612.3</ele>
        <time>2022-06-11T08:13:22Z</time>
      </trkpt>
      <trkpt lat="46.55819" lon="5.58255">
        <ele>611.7</ele>
        <time>2022-06-11T08:13:26Z</time>
      </trkpt>
      <trkpt lat="46.55823" lon="5.58253">
        <ele>608.1</ele>
        <time>2022-06-11T08:13:56Z</time>
      </trkpt>
      <trkpt lat="46.55828" lon="5.58248">
        <ele>607.9</ele>
        <time>2022-06-11T08:14:27Z</time>
      </trkpt>
      <trkpt lat="46.55831" lon="5.58253">
        <ele>607.1</ele>
        <time>2022-06-11T08:14:41Z</time>
      </trkpt>
      <trkpt lat="46.5583" lon="5.5826">
        <ele>606.9</ele>
        <time>2022-06-11T08:14:46Z</time>
      </trkpt>
      <trkpt lat="46.55829" lon="5.58268">
        <ele>607.1</ele>
        <time>2022-06-11T08:14:51Z</time>
      </trkpt>
      <trkpt lat="46.5583" lon="5.58275">
        <ele>607.4</ele>
        <time>2022-06-11T08:14:57Z</time>
      </trkpt>
      <trkpt lat="46.55831" lon="5.58282">
        <ele>607.9</ele>
        <time>2022-06-11T08:15:03Z</time>
      </trkpt>
      <trkpt lat="46.55833" lon="5.58289">
        <ele>607.7</ele>
        <time>2022-06-11T08:15:11Z</time>
      </trkpt>
      <trkpt lat="46.55832" lon="5.58295">
        <ele>607.3</ele>
        <time>2022-06-11T08:15:22Z</time>
      </trkpt>
      <trkpt lat="46.55833" lon="5.58302">
        <ele>606.8</ele>
        <time>2022-06-11T08:16:00Z</time>
      </trkpt>
      <trkpt lat="46.5583" lon="5.58297">
        <ele>605.4</ele>
        <time>2022-06-11T08:17:47Z</time>
      </trkpt>
      <trkpt lat="46.55831" lon="5.5829">
        <ele>603.3</ele>
        <time>2022-06-11T08:19:05Z</time>
      </trkpt>
      <trkpt lat="46.55831" lon="5.58282">
        <ele>602.9</ele>
        <time>2022-06-11T08:19:10Z</time>
      </trkpt>
      <trkpt lat="46.5583" lon="5.58275">
        <ele>602.6</ele>
        <time>2022-06-11T08:19:14Z</time>
      </trkpt>
      <trkpt lat="46.5583" lon="5.58269">
        <ele>602.7</ele>
        <time>2022-06-11T08:19:18Z</time>
      </trkpt>
      <trkpt lat="46.5583" lon="5.58261">
        <ele>602.7</ele>
        <time>2022-06-11T08:19:23Z</time>
      </trkpt>
      <trkpt lat="46.5583" lon="5.58253">
        <ele>603</ele>
        <time>2022-06-11T08:19:29Z</time>
      </trkpt>
      <trkpt lat="46.55831" lon="5.58247">
        <ele>603.9</ele>
        <time>2022-06-11T08:19:36Z</time>
      </trkpt>
      <trkpt lat="46.55833" lon="5.5824">
        <ele>604.6</ele>
        <time>2022-06-11T08:19:41Z</time>
      </trkpt>
      <trkpt lat="46.55833" lon="5.58234">
        <ele>605.3</ele>
        <time>2022-06-11T08:19:46Z</time>
      </trkpt>
      <trkpt lat="46.55835" lon="5.58228">
        <ele>605.6</ele>
        <time>2022-06-11T08:19:51Z</time>
      </trkpt>
      <trkpt lat="46.55836" lon="5.58221">
        <ele>605.7</ele>
        <time>2022-06-11T08:19:56Z</time>
      </trkpt>
      <trkpt lat="46.55836" lon="5.58214">
        <ele>606.2</ele>
        <time>2022-06-11T08:20:00Z</time>
      </trkpt>
      <trkpt lat="46.5584" lon="5.58208">
        <ele>607</ele>
        <time>2022-06-11T08:20:06Z</time>
      </trkpt>
      <trkpt lat="46.55843" lon="5.58204">
        <ele>607.9</ele>
        <time>2022-06-11T08:20:11Z</time>
      </trkpt>
      <trkpt lat="46.55847" lon="5.582">
        <ele>609.3</ele>
        <time>2022-06-11T08:20:18Z</time>
      </trkpt>
      <trkpt lat="46.5585" lon="5.58194">
        <ele>609.9</ele>
        <time>2022-06-11T08:20:23Z</time>
      </trkpt>
      <trkpt lat="46.55853" lon="5.58189">
        <ele>609.9</ele>
        <time>2022-06-11T08:20:27Z</time>
      </trkpt>
      <trkpt lat="46.55852" lon="5.58183">
        <ele>610</ele>
        <time>2022-06-11T08:20:33Z</time>
      </trkpt>
      <trkpt lat="46.5585" lon="5.58176">
        <ele>610.6</ele>
        <time>2022-06-11T08:20:39Z</time>
      </trkpt>
      <trkpt lat="46.55847" lon="5.58171">
        <ele>610.8</ele>
        <time>2022-06-11T08:20:44Z</time>
      </trkpt>
      <trkpt lat="46.55843" lon="5.58166">
        <ele>610.8</ele>
        <time>2022-06-11T08:20:50Z</time>
      </trkpt>
      <trkpt lat="46.55838" lon="5.58162">
        <ele>610</ele>
        <time>2022-06-11T08:20:56Z</time>
      </trkpt>
      <trkpt lat="46.55835" lon="5.58159">
        <ele>609.1</ele>
        <time>2022-06-11T08:21:00Z</time>
      </trkpt>
      <trkpt lat="46.55831" lon="5.58155">
        <ele>607.6</ele>
        <time>2022-06-11T08:21:05Z</time>
      </trkpt>
      <trkpt lat="46.55834" lon="5.5815">
        <ele>605.1</ele>
        <time>2022-06-11T08:21:15Z</time>
      </trkpt>
      <trkpt lat="46.55837" lon="5.58145">
        <ele>604.1</ele>
        <time>2022-06-11T08:21:21Z</time>
      </trkpt>
      <trkpt lat="46.55838" lon="5.58138">
        <ele>602.8</ele>
        <time>2022-06-11T08:21:29Z</time>
      </trkpt>
      <trkpt lat="46.5584" lon="5.58131">
        <ele>602.2</ele>
        <time>2022-06-11T08:21:35Z</time>
      </trkpt>
      <trkpt lat="46.55843" lon="5.58125">
        <ele>601.5</ele>
        <time>2022-06-11T08:21:43Z</time>
      </trkpt>
      <trkpt lat="46.55845" lon="5.58119">
        <ele>601.1</ele>
        <time>2022-06-11T08:21:48Z</time>
      </trkpt>
      <trkpt lat="46.55846" lon="5.5811">
        <ele>601.2</ele>
        <time>2022-06-11T08:21:51Z</time>
      </trkpt>
      <trkpt lat="46.55849" lon="5.58104">
        <ele>601.5</ele>
        <time>2022-06-11T08:21:54Z</time>
      </trkpt>
      <trkpt lat="46.55854" lon="5.58103">
        <ele>602.1</ele>
        <time>2022-06-11T08:22:02Z</time>
      </trkpt>
      <trkpt lat="46.55856" lon="5.58108">
        <ele>602.5</ele>
        <time>2022-06-11T08:22:08Z</time>
      </trkpt>
      <trkpt lat="46.5586" lon="5.58112">
        <ele>602.1</ele>
        <time>2022-06-11T08:22:14Z</time>
      </trkpt>
      <trkpt lat="46.55864" lon="5.58117">
        <ele>601.8</ele>
        <time>2022-06-11T08:22:20Z</time>
      </trkpt>
      <trkpt lat="46.55868" lon="5.5812">
        <ele>601.6</ele>
        <time>2022-06-11T08:22:30Z</time>
      </trkpt>
      <trkpt lat="46.55873" lon="5.58124">
        <ele>600.3</ele>
        <time>2022-06-11T08:22:39Z</time>
      </trkpt>
      <trkpt lat="46.55875" lon="5.58129">
        <ele>599.4</ele>
        <time>2022-06-11T08:22:47Z</time>
      </trkpt>
      <trkpt lat="46.55879" lon="5.58135">
        <ele>599.2</ele>
        <time>2022-06-11T08:22:52Z</time>
      </trkpt>
      <trkpt lat="46.55883" lon="5.58138">
        <ele>599.4</ele>
        <time>2022-06-11T08:22:56Z</time>
      </trkpt>
      <trkpt lat="46.55888" lon="5.5814">
        <ele>600.4</ele>
        <time>2022-06-11T08:23:03Z</time>
      </trkpt>
      <trkpt lat="46.55891" lon="5.58146">
        <ele>600.6</ele>
        <time>2022-06-11T08:23:09Z</time>
      </trkpt>
      <trkpt lat="46.55895" lon="5.58152">
        <ele>600.7</ele>
        <time>2022-06-11T08:23:14Z</time>
      </trkpt>
      <trkpt lat="46.55898" lon="5.58158">
        <ele>601</ele>
        <time>2022-06-11T08:23:18Z</time>
      </trkpt>
      <trkpt lat="46.55901" lon="5.58162">
        <ele>601.3</ele>
        <time>2022-06-11T08:23:23Z</time>
      </trkpt>
      <trkpt lat="46.55906" lon="5.58165">
        <ele>601.6</ele>
        <time>2022-06-11T08:23:28Z</time>
      </trkpt>
      <trkpt lat="46.5591" lon="5.58169">
        <ele>602.1</ele>
        <time>2022-06-11T08:23:35Z</time>
      </trkpt>
      <trkpt lat="46.55915" lon="5.58173">
        <ele>603.1</ele>
        <time>2022-06-11T08:23:41Z</time>
      </trkpt>
      <trkpt lat="46.55919" lon="5.58177">
        <ele>604.5</ele>
        <time>2022-06-11T08:23:48Z</time>
      </trkpt>
      <trkpt lat="46.55923" lon="5.58179">
        <ele>606</ele>
        <time>2022-06-11T08:23:58Z</time>
      </trkpt>
      <trkpt lat="46.55928" lon="5.5818">
        <ele>606.4</ele>
        <time>2022-06-11T08:24:04Z</time>
      </trkpt>
      <trkpt lat="46.55933" lon="5.58181">
        <ele>606.7</ele>
        <time>2022-06-11T08:24:08Z</time>
      </trkpt>
      <trkpt lat="46.55938" lon="5.58181">
        <ele>606.8</ele>
        <time>2022-06-11T08:24:13Z</time>
      </trkpt>
      <trkpt lat="46.55944" lon="5.58181">
        <ele>606.5</ele>
        <time>2022-06-11T08:24:28Z</time>
      </trkpt>
      <trkpt lat="46.55949" lon="5.58183">
        <ele>605.9</ele>
        <time>2022-06-11T08:24:33Z</time>
      </trkpt>
      <trkpt lat="46.55954" lon="5.58184">
        <ele>605.4</ele>
        <time>2022-06-11T08:24:37Z</time>
      </trkpt>
      <trkpt lat="46.55958" lon="5.58186">
        <ele>603</ele>
        <time>2022-06-11T08:24:52Z</time>
      </trkpt>
      <trkpt lat="46.55963" lon="5.58187">
        <ele>602.4</ele>
        <time>2022-06-11T08:24:58Z</time>
      </trkpt>
      <trkpt lat="46.55969" lon="5.58187">
        <ele>602</ele>
        <time>2022-06-11T08:25:03Z</time>
      </trkpt>
      <trkpt lat="46.55973" lon="5.58185">
        <ele>601.6</ele>
        <time>2022-06-11T08:25:08Z</time>
      </trkpt>
      <trkpt lat="46.55978" lon="5.58185">
        <ele>600.8</ele>
        <time>2022-06-11T08:25:14Z</time>
      </trkpt>
      <trkpt lat="46.55983" lon="5.58187">
        <ele>600.4</ele>
        <time>2022-06-11T08:25:20Z</time>
      </trkpt>
      <trkpt lat="46.55988" lon="5.58188">
        <ele>600.3</ele>
        <time>2022-06-11T08:25:23Z</time>
      </trkpt>
      <trkpt lat="46.55993" lon="5.58188">
        <ele>600</ele>
        <time>2022-06-11T08:25:29Z</time>
      </trkpt>
      <trkpt lat="46.55999" lon="5.58187">
        <ele>599.8</ele>
        <time>2022-06-11T08:25:33Z</time>
      </trkpt>
      <trkpt lat="46.56004" lon="5.58188">
        <ele>599.7</ele>
        <time>2022-06-11T08:25:36Z</time>
      </trkpt>
      <trkpt lat="46.56009" lon="5.58188">
        <ele>599.9</ele>
        <time>2022-06-11T08:25:39Z</time>
      </trkpt>
      <trkpt lat="46.56015" lon="5.58191">
        <ele>600.3</ele>
        <time>2022-06-11T08:25:42Z</time>
      </trkpt>
      <trkpt lat="46.56019" lon="5.58189">
        <ele>602.1</ele>
        <time>2022-06-11T08:25:52Z</time>
      </trkpt>
      <trkpt lat="46.56025" lon="5.58188">
        <ele>602.4</ele>
        <time>2022-06-11T08:25:56Z</time>
      </trkpt>
      <trkpt lat="46.5603" lon="5.58185">
        <ele>602.5</ele>
        <time>2022-06-11T08:26:00Z</time>
      </trkpt>
      <trkpt lat="46.56033" lon="5.5818">
        <ele>602.4</ele>
        <time>2022-06-11T08:26:04Z</time>
      </trkpt>
      <trkpt lat="46.56038" lon="5.58178">
        <ele>603.3</ele>
        <time>2022-06-11T08:26:08Z</time>
      </trkpt>
      <trkpt lat="46.56042" lon="5.58174">
        <ele>604.4</ele>
        <time>2022-06-11T08:26:13Z</time>
      </trkpt>
      <trkpt lat="46.56045" lon="5.58169">
        <ele>605.3</ele>
        <time>2022-06-11T08:26:17Z</time>
      </trkpt>
      <trkpt lat="46.56049" lon="5.58165">
        <ele>606.1</ele>
        <time>2022-06-11T08:26:22Z</time>
      </trkpt>
      <trkpt lat="46.56053" lon="5.58161">
        <ele>607</ele>
        <time>2022-06-11T08:26:28Z</time>
      </trkpt>
      <trkpt lat="46.56058" lon="5.5816">
        <ele>610.4</ele>
        <time>2022-06-11T08:27:12Z</time>
      </trkpt>
      <trkpt lat="46.56063" lon="5.58158">
        <ele>609.5</ele>
        <time>2022-06-11T08:27:21Z</time>
      </trkpt>
      <trkpt lat="46.56067" lon="5.58154">
        <ele>609.1</ele>
        <time>2022-06-11T08:27:26Z</time>
      </trkpt>
      <trkpt lat="46.56072" lon="5.58154">
        <ele>609</ele>
        <time>2022-06-11T08:27:35Z</time>
      </trkpt>
      <trkpt lat="46.56077" lon="5.58153">
        <ele>609</ele>
        <time>2022-06-11T08:27:39Z</time>
      </trkpt>
      <trkpt lat="46.56082" lon="5.58151">
        <ele>609.5</ele>
        <time>2022-06-11T08:27:47Z</time>
      </trkpt>
      <trkpt lat="46.56087" lon="5.58153">
        <ele>609.9</ele>
        <time>2022-06-11T08:27:52Z</time>
      </trkpt>
      <trkpt lat="46.56091" lon="5.5815">
        <ele>610.2</ele>
        <time>2022-06-11T08:27:57Z</time>
      </trkpt>
      <trkpt lat="46.56096" lon="5.58147">
        <ele>610.3</ele>
        <time>2022-06-11T08:28:01Z</time>
      </trkpt>
      <trkpt lat="46.56101" lon="5.58147">
        <ele>611.2</ele>
        <time>2022-06-11T08:28:11Z</time>
      </trkpt>
      <trkpt lat="46.56106" lon="5.5815">
        <ele>612.4</ele>
        <time>2022-06-11T08:28:17Z</time>
      </trkpt>
      <trkpt lat="46.56111" lon="5.58148">
        <ele>613.2</ele>
        <time>2022-06-11T08:28:22Z</time>
      </trkpt>
      <trkpt lat="46.56116" lon="5.58147">
        <ele>613.5</ele>
        <time>2022-06-11T08:28:25Z</time>
      </trkpt>
      <trkpt lat="46.56121" lon="5.58146">
        <ele>614</ele>
        <time>2022-06-11T08:28:28Z</time>
      </trkpt>
      <trkpt lat="46.56125" lon="5.58142">
        <ele>614.4</ele>
        <time>2022-06-11T08:28:32Z</time>
      </trkpt>
      <trkpt lat="46.5613" lon="5.5814">
        <ele>614.9</ele>
        <time>2022-06-11T08:28:37Z</time>
      </trkpt>
      <trkpt lat="46.56135" lon="5.58143">
        <ele>615.1</ele>
        <time>2022-06-11T08:28:41Z</time>
      </trkpt>
      <trkpt lat="46.5614" lon="5.58147">
        <ele>615.6</ele>
        <time>2022-06-11T08:28:48Z</time>
      </trkpt>
      <trkpt lat="46.56145" lon="5.58147">
        <ele>615.9</ele>
        <time>2022-06-11T08:28:52Z</time>
      </trkpt>
      <trkpt lat="46.5615" lon="5.58146">
        <ele>616.1</ele>
        <time>2022-06-11T08:28:55Z</time>
      </trkpt>
      <trkpt lat="46.56155" lon="5.58144">
        <ele>616.4</ele>
        <time>2022-06-11T08:28:59Z</time>
      </trkpt>
      <trkpt lat="46.5616" lon="5.5814">
        <ele>616.8</ele>
        <time>2022-06-11T08:29:03Z</time>
      </trkpt>
      <trkpt lat="46.56166" lon="5.58138">
        <ele>617.1</ele>
        <time>2022-06-11T08:29:07Z</time>
      </trkpt>
      <trkpt lat="46.5617" lon="5.58136">
        <ele>617.4</ele>
        <time>2022-06-11T08:29:10Z</time>
      </trkpt>
      <trkpt lat="46.56175" lon="5.58132">
        <ele>617.8</ele>
        <time>2022-06-11T08:29:15Z</time>
      </trkpt>
      <trkpt lat="46.5618" lon="5.58131">
        <ele>618</ele>
        <time>2022-06-11T08:29:21Z</time>
      </trkpt>
      <trkpt lat="46.56184" lon="5.58131">
        <ele>618.9</ele>
        <time>2022-06-11T08:29:27Z</time>
      </trkpt>
      <trkpt lat="46.56189" lon="5.5813">
        <ele>620</ele>
        <time>2022-06-11T08:29:32Z</time>
      </trkpt>
      <trkpt lat="46.56193" lon="5.58129">
        <ele>620.9</ele>
        <time>2022-06-11T08:29:38Z</time>
      </trkpt>
      <trkpt lat="46.56197" lon="5.58126">
        <ele>622</ele>
        <time>2022-06-11T08:29:48Z</time>
      </trkpt>
      <trkpt lat="46.562" lon="5.5812">
        <ele>621.6</ele>
        <time>2022-06-11T08:29:53Z</time>
      </trkpt>
      <trkpt lat="46.56204" lon="5.58115">
        <ele>621.1</ele>
        <time>2022-06-11T08:29:56Z</time>
      </trkpt>
      <trkpt lat="46.56209" lon="5.58111">
        <ele>621.1</ele>
        <time>2022-06-11T08:29:59Z</time>
      </trkpt>
      <trkpt lat="46.56214" lon="5.58112">
        <ele>621.5</ele>
        <time>2022-06-11T08:30:03Z</time>
      </trkpt>
      <trkpt lat="46.56219" lon="5.58113">
        <ele>622.4</ele>
        <time>2022-06-11T08:30:09Z</time>
      </trkpt>
      <trkpt lat="46.56223" lon="5.58111">
        <ele>623.1</ele>
        <time>2022-06-11T08:30:15Z</time>
      </trkpt>
      <trkpt lat="46.56226" lon="5.58107">
        <ele>623.4</ele>
        <time>2022-06-11T08:30:20Z</time>
      </trkpt>
      <trkpt lat="46.56231" lon="5.58106">
        <ele>622.6</ele>
        <time>2022-06-11T08:30:25Z</time>
      </trkpt>
      <trkpt lat="46.56236" lon="5.58106">
        <ele>621.7</ele>
        <time>2022-06-11T08:30:30Z</time>
      </trkpt>
      <trkpt lat="46.56241" lon="5.58107">
        <ele>621.3</ele>
        <time>2022-06-11T08:30:38Z</time>
      </trkpt>
      <trkpt lat="46.56245" lon="5.58105">
        <ele>621.1</ele>
        <time>2022-06-11T08:30:44Z</time>
      </trkpt>
      <trkpt lat="46.56251" lon="5.58106">
        <ele>621</ele>
        <time>2022-06-11T08:30:48Z</time>
      </trkpt>
      <trkpt lat="46.56256" lon="5.58106">
        <ele>621.2</ele>
        <time>2022-06-11T08:30:52Z</time>
      </trkpt>
      <trkpt lat="46.56261" lon="5.58106">
        <ele>621.6</ele>
        <time>2022-06-11T08:30:56Z</time>
      </trkpt>
      <trkpt lat="46.56266" lon="5.58108">
        <ele>622.2</ele>
        <time>2022-06-11T08:31:00Z</time>
      </trkpt>
      <trkpt lat="46.56272" lon="5.58108">
        <ele>623.1</ele>
        <time>2022-06-11T08:31:04Z</time>
      </trkpt>
      <trkpt lat="46.56277" lon="5.58108">
        <ele>624.3</ele>
        <time>2022-06-11T08:31:07Z</time>
      </trkpt>
      <trkpt lat="46.56283" lon="5.58105">
        <ele>626.1</ele>
        <time>2022-06-11T08:31:11Z</time>
      </trkpt>
      <trkpt lat="46.56282" lon="5.58098">
        <ele>628.1</ele>
        <time>2022-06-11T08:31:17Z</time>
      </trkpt>
      <trkpt lat="46.56286" lon="5.58101">
        <ele>631.7</ele>
        <time>2022-06-11T08:31:34Z</time>
      </trkpt>
      <trkpt lat="46.56291" lon="5.581">
        <ele>634.2</ele>
        <time>2022-06-11T08:31:40Z</time>
      </trkpt>
      <trkpt lat="46.56296" lon="5.58098">
        <ele>635.4</ele>
        <time>2022-06-11T08:31:44Z</time>
      </trkpt>
      <trkpt lat="46.56301" lon="5.58097">
        <ele>635.8</ele>
        <time>2022-06-11T08:31:48Z</time>
      </trkpt>
      <trkpt lat="46.56306" lon="5.58094">
        <ele>635.5</ele>
        <time>2022-06-11T08:31:51Z</time>
      </trkpt>
      <trkpt lat="46.56312" lon="5.58091">
        <ele>634.9</ele>
        <time>2022-06-11T08:31:54Z</time>
      </trkpt>
      <trkpt lat="46.56316" lon="5.58087">
        <ele>635</ele>
        <time>2022-06-11T08:31:57Z</time>
      </trkpt>
      <trkpt lat="46.56321" lon="5.58085">
        <ele>635.8</ele>
        <time>2022-06-11T08:32:00Z</time>
      </trkpt>
      <trkpt lat="46.56325" lon="5.58087">
        <ele>639.3</ele>
        <time>2022-06-11T08:32:07Z</time>
      </trkpt>
      <trkpt lat="46.5633" lon="5.58091">
        <ele>641.6</ele>
        <time>2022-06-11T08:32:14Z</time>
      </trkpt>
      <trkpt lat="46.56335" lon="5.58088">
        <ele>641.7</ele>
        <time>2022-06-11T08:32:17Z</time>
      </trkpt>
      <trkpt lat="46.5634" lon="5.58085">
        <ele>642.2</ele>
        <time>2022-06-11T08:32:20Z</time>
      </trkpt>
      <trkpt lat="46.56345" lon="5.58082">
        <ele>642.4</ele>
        <time>2022-06-11T08:32:24Z</time>
      </trkpt>
      <trkpt lat="46.56349" lon="5.58077">
        <ele>642.8</ele>
        <time>2022-06-11T08:32:29Z</time>
      </trkpt>
      <trkpt lat="46.56354" lon="5.58075">
        <ele>643.3</ele>
        <time>2022-06-11T08:32:33Z</time>
      </trkpt>
      <trkpt lat="46.56358" lon="5.58074">
        <ele>644.8</ele>
        <time>2022-06-11T08:32:41Z</time>
      </trkpt>
      <trkpt lat="46.56364" lon="5.58071">
        <ele>646.5</ele>
        <time>2022-06-11T08:32:48Z</time>
      </trkpt>
      <trkpt lat="46.56369" lon="5.58067">
        <ele>647.3</ele>
        <time>2022-06-11T08:32:51Z</time>
      </trkpt>
      <trkpt lat="46.56374" lon="5.58068">
        <ele>649.3</ele>
        <time>2022-06-11T08:32:59Z</time>
      </trkpt>
      <trkpt lat="46.56379" lon="5.58072">
        <ele>649.5</ele>
        <time>2022-06-11T08:33:03Z</time>
      </trkpt>
      <trkpt lat="46.56383" lon="5.5807">
        <ele>649.2</ele>
        <time>2022-06-11T08:33:09Z</time>
      </trkpt>
      <trkpt lat="46.56388" lon="5.58067">
        <ele>648.6</ele>
        <time>2022-06-11T08:33:14Z</time>
      </trkpt>
      <trkpt lat="46.56393" lon="5.58064">
        <ele>648.8</ele>
        <time>2022-06-11T08:33:17Z</time>
      </trkpt>
      <trkpt lat="46.56398" lon="5.5806">
        <ele>649.4</ele>
        <time>2022-06-11T08:33:21Z</time>
      </trkpt>
      <trkpt lat="46.56403" lon="5.58057">
        <ele>650</ele>
        <time>2022-06-11T08:33:24Z</time>
      </trkpt>
      <trkpt lat="46.56411" lon="5.58057">
        <ele>650.2</ele>
        <time>2022-06-11T08:33:27Z</time>
      </trkpt>
      <trkpt lat="46.56418" lon="5.58058">
        <ele>649.9</ele>
        <time>2022-06-11T08:33:30Z</time>
      </trkpt>
      <trkpt lat="46.56423" lon="5.58056">
        <ele>649.6</ele>
        <time>2022-06-11T08:33:34Z</time>
      </trkpt>
      <trkpt lat="46.56427" lon="5.58056">
        <ele>647.6</ele>
        <time>2022-06-11T08:33:47Z</time>
      </trkpt>
      <trkpt lat="46.56432" lon="5.58057">
        <ele>646.8</ele>
        <time>2022-06-11T08:33:54Z</time>
      </trkpt>
      <trkpt lat="46.56436" lon="5.58055">
        <ele>646.2</ele>
        <time>2022-06-11T08:33:57Z</time>
      </trkpt>
      <trkpt lat="46.5644" lon="5.58052">
        <ele>645.9</ele>
        <time>2022-06-11T08:34:00Z</time>
      </trkpt>
      <trkpt lat="46.56445" lon="5.58048">
        <ele>645.8</ele>
        <time>2022-06-11T08:34:04Z</time>
      </trkpt>
      <trkpt lat="46.56449" lon="5.58042">
        <ele>645.6</ele>
        <time>2022-06-11T08:34:07Z</time>
      </trkpt>
      <trkpt lat="46.56453" lon="5.58039">
        <ele>645.3</ele>
        <time>2022-06-11T08:34:11Z</time>
      </trkpt>
      <trkpt lat="46.56457" lon="5.58034">
        <ele>644.2</ele>
        <time>2022-06-11T08:34:17Z</time>
      </trkpt>
      <trkpt lat="46.56461" lon="5.58033">
        <ele>644</ele>
        <time>2022-06-11T08:34:21Z</time>
      </trkpt>
      <trkpt lat="46.56467" lon="5.58032">
        <ele>644.1</ele>
        <time>2022-06-11T08:34:27Z</time>
      </trkpt>
      <trkpt lat="46.56472" lon="5.58029">
        <ele>643.9</ele>
        <time>2022-06-11T08:34:30Z</time>
      </trkpt>
      <trkpt lat="46.56477" lon="5.58027">
        <ele>643.8</ele>
        <time>2022-06-11T08:34:33Z</time>
      </trkpt>
      <trkpt lat="46.56481" lon="5.58027">
        <ele>643.8</ele>
        <time>2022-06-11T08:34:37Z</time>
      </trkpt>
      <trkpt lat="46.56486" lon="5.58029">
        <ele>643.5</ele>
        <time>2022-06-11T08:34:42Z</time>
      </trkpt>
      <trkpt lat="46.5649" lon="5.58033">
        <ele>642.9</ele>
        <time>2022-06-11T08:34:45Z</time>
      </trkpt>
      <trkpt lat="46.56494" lon="5.58034">
        <ele>638.8</ele>
        <time>2022-06-11T08:35:00Z</time>
      </trkpt>
      <trkpt lat="46.56499" lon="5.58032">
        <ele>639.5</ele>
        <time>2022-06-11T08:35:06Z</time>
      </trkpt>
      <trkpt lat="46.56505" lon="5.5803">
        <ele>640.4</ele>
        <time>2022-06-11T08:35:11Z</time>
      </trkpt>
      <trkpt lat="46.56511" lon="5.5803">
        <ele>640.3</ele>
        <time>2022-06-11T08:35:14Z</time>
      </trkpt>
      <trkpt lat="46.56516" lon="5.58028">
        <ele>639.9</ele>
        <time>2022-06-11T08:35:17Z</time>
      </trkpt>
      <trkpt lat="46.56521" lon="5.58026">
        <ele>639.4</ele>
        <time>2022-06-11T08:35:20Z</time>
      </trkpt>
      <trkpt lat="46.56526" lon="5.58024">
        <ele>638.8</ele>
        <time>2022-06-11T08:35:25Z</time>
      </trkpt>
      <trkpt lat="46.56531" lon="5.5802">
        <ele>638.3</ele>
        <time>2022-06-11T08:35:31Z</time>
      </trkpt>
      <trkpt lat="46.56536" lon="5.58017">
        <ele>638.2</ele>
        <time>2022-06-11T08:35:35Z</time>
      </trkpt>
      <trkpt lat="46.56542" lon="5.58016">
        <ele>637.6</ele>
        <time>2022-06-11T08:35:39Z</time>
      </trkpt>
      <trkpt lat="46.56547" lon="5.58017">
        <ele>636.2</ele>
        <time>2022-06-11T08:35:45Z</time>
      </trkpt>
      <trkpt lat="46.56551" lon="5.58012">
        <ele>636</ele>
        <time>2022-06-11T08:35:51Z</time>
      </trkpt>
      <trkpt lat="46.56554" lon="5.58007">
        <ele>637.1</ele>
        <time>2022-06-11T08:35:55Z</time>
      </trkpt>
      <trkpt lat="46.56559" lon="5.58007">
        <ele>639.4</ele>
        <time>2022-06-11T08:36:02Z</time>
      </trkpt>
      <trkpt lat="46.56563" lon="5.58008">
        <ele>641.2</ele>
        <time>2022-06-11T08:36:06Z</time>
      </trkpt>
      <trkpt lat="46.56568" lon="5.58009">
        <ele>641.9</ele>
        <time>2022-06-11T08:36:09Z</time>
      </trkpt>
      <trkpt lat="46.56572" lon="5.58007">
        <ele>642.1</ele>
        <time>2022-06-11T08:36:12Z</time>
      </trkpt>
      <trkpt lat="46.56577" lon="5.58005">
        <ele>641.3</ele>
        <time>2022-06-11T08:36:16Z</time>
      </trkpt>
      <trkpt lat="46.56582" lon="5.58002">
        <ele>640.2</ele>
        <time>2022-06-11T08:36:19Z</time>
      </trkpt>
      <trkpt lat="46.56587" lon="5.58001">
        <ele>639.1</ele>
        <time>2022-06-11T08:36:22Z</time>
      </trkpt>
      <trkpt lat="46.56593" lon="5.58">
        <ele>637.9</ele>
        <time>2022-06-11T08:36:25Z</time>
      </trkpt>
      <trkpt lat="46.56598" lon="5.57997">
        <ele>636.3</ele>
        <time>2022-06-11T08:36:32Z</time>
      </trkpt>
      <trkpt lat="46.56602" lon="5.57995">
        <ele>636.3</ele>
        <time>2022-06-11T08:36:36Z</time>
      </trkpt>
      <trkpt lat="46.56608" lon="5.57992">
        <ele>636.2</ele>
        <time>2022-06-11T08:36:40Z</time>
      </trkpt>
      <trkpt lat="46.56613" lon="5.5799">
        <ele>636</ele>
        <time>2022-06-11T08:36:45Z</time>
      </trkpt>
      <trkpt lat="46.56618" lon="5.57991">
        <ele>635.7</ele>
        <time>2022-06-11T08:36:50Z</time>
      </trkpt>
      <trkpt lat="46.56622" lon="5.57989">
        <ele>635.2</ele>
        <time>2022-06-11T08:36:57Z</time>
      </trkpt>
      <trkpt lat="46.56627" lon="5.57989">
        <ele>634.8</ele>
        <time>2022-06-11T08:37:05Z</time>
      </trkpt>
      <trkpt lat="46.56631" lon="5.57987">
        <ele>634.6</ele>
        <time>2022-06-11T08:37:10Z</time>
      </trkpt>
      <trkpt lat="46.56636" lon="5.57985">
        <ele>634.7</ele>
        <time>2022-06-11T08:37:14Z</time>
      </trkpt>
      <trkpt lat="46.56642" lon="5.57983">
        <ele>634.8</ele>
        <time>2022-06-11T08:37:18Z</time>
      </trkpt>
      <trkpt lat="46.56646" lon="5.5798">
        <ele>634.4</ele>
        <time>2022-06-11T08:37:23Z</time>
      </trkpt>
      <trkpt lat="46.56651" lon="5.5798">
        <ele>634.2</ele>
        <time>2022-06-11T08:37:28Z</time>
      </trkpt>
      <trkpt lat="46.56656" lon="5.57982">
        <ele>634.4</ele>
        <time>2022-06-11T08:37:32Z</time>
      </trkpt>
      <trkpt lat="46.56661" lon="5.57985">
        <ele>634.7</ele>
        <time>2022-06-11T08:37:37Z</time>
      </trkpt>
      <trkpt lat="46.56666" lon="5.57983">
        <ele>635.3</ele>
        <time>2022-06-11T08:37:42Z</time>
      </trkpt>
      <trkpt lat="46.56671" lon="5.57981">
        <ele>636.8</ele>
        <time>2022-06-11T08:37:48Z</time>
      </trkpt>
      <trkpt lat="46.56676" lon="5.57979">
        <ele>638.2</ele>
        <time>2022-06-11T08:37:53Z</time>
      </trkpt>
      <trkpt lat="46.5668" lon="5.57975">
        <ele>639.6</ele>
        <time>2022-06-11T08:37:58Z</time>
      </trkpt>
      <trkpt lat="46.56684" lon="5.57973">
        <ele>640.4</ele>
        <time>2022-06-11T08:38:02Z</time>
      </trkpt>
      <trkpt lat="46.56689" lon="5.5797">
        <ele>640.6</ele>
        <time>2022-06-11T08:38:05Z</time>
      </trkpt>
      <trkpt lat="46.56694" lon="5.57967">
        <ele>640.7</ele>
        <time>2022-06-11T08:38:09Z</time>
      </trkpt>
      <trkpt lat="46.56699" lon="5.57967">
        <ele>640.3</ele>
        <time>2022-06-11T08:38:13Z</time>
      </trkpt>
      <trkpt lat="46.56703" lon="5.57969">
        <ele>640.3</ele>
        <time>2022-06-11T08:38:16Z</time>
      </trkpt>
      <trkpt lat="46.56709" lon="5.57971">
        <ele>640.1</ele>
        <time>2022-06-11T08:38:20Z</time>
      </trkpt>
      <trkpt lat="46.56714" lon="5.57973">
        <ele>640</ele>
        <time>2022-06-11T08:38:24Z</time>
      </trkpt>
      <trkpt lat="46.56718" lon="5.57968">
        <ele>640.3</ele>
        <time>2022-06-11T08:38:31Z</time>
      </trkpt>
      <trkpt lat="46.56722" lon="5.57963">
        <ele>639.5</ele>
        <time>2022-06-11T08:38:39Z</time>
      </trkpt>
      <trkpt lat="46.56724" lon="5.57957">
        <ele>638.9</ele>
        <time>2022-06-11T08:38:43Z</time>
      </trkpt>
      <trkpt lat="46.56726" lon="5.57951">
        <ele>638.6</ele>
        <time>2022-06-11T08:38:48Z</time>
      </trkpt>
      <trkpt lat="46.56731" lon="5.57947">
        <ele>638.8</ele>
        <time>2022-06-11T08:38:52Z</time>
      </trkpt>
      <trkpt lat="46.56736" lon="5.57945">
        <ele>639</ele>
        <time>2022-06-11T08:38:57Z</time>
      </trkpt>
      <trkpt lat="46.56741" lon="5.57944">
        <ele>638.8</ele>
        <time>2022-06-11T08:39:01Z</time>
      </trkpt>
      <trkpt lat="46.56747" lon="5.57943">
        <ele>638.9</ele>
        <time>2022-06-11T08:39:05Z</time>
      </trkpt>
      <trkpt lat="46.56752" lon="5.57944">
        <ele>639.5</ele>
        <time>2022-06-11T08:39:10Z</time>
      </trkpt>
      <trkpt lat="46.56757" lon="5.57947">
        <ele>640.3</ele>
        <time>2022-06-11T08:39:14Z</time>
      </trkpt>
      <trkpt lat="46.56762" lon="5.57947">
        <ele>642.4</ele>
        <time>2022-06-11T08:39:19Z</time>
      </trkpt>
      <trkpt lat="46.56767" lon="5.57943">
        <ele>644.6</ele>
        <time>2022-06-11T08:39:23Z</time>
      </trkpt>
      <trkpt lat="46.56771" lon="5.57938">
        <ele>646.7</ele>
        <time>2022-06-11T08:39:27Z</time>
      </trkpt>
      <trkpt lat="46.56776" lon="5.57934">
        <ele>648.5</ele>
        <time>2022-06-11T08:39:31Z</time>
      </trkpt>
      <trkpt lat="46.5678" lon="5.5793">
        <ele>649.9</ele>
        <time>2022-06-11T08:39:35Z</time>
      </trkpt>
      <trkpt lat="46.56785" lon="5.57926">
        <ele>650.5</ele>
        <time>2022-06-11T08:39:40Z</time>
      </trkpt>
      <trkpt lat="46.5679" lon="5.5793">
        <ele>652.3</ele>
        <time>2022-06-11T08:39:46Z</time>
      </trkpt>
      <trkpt lat="46.56794" lon="5.57935">
        <ele>653.6</ele>
        <time>2022-06-11T08:39:52Z</time>
      </trkpt>
      <trkpt lat="46.56799" lon="5.57934">
        <ele>654.2</ele>
        <time>2022-06-11T08:39:58Z</time>
      </trkpt>
      <trkpt lat="46.56804" lon="5.5793">
        <ele>654.2</ele>
        <time>2022-06-11T08:40:03Z</time>
      </trkpt>
      <trkpt lat="46.56809" lon="5.57928">
        <ele>654.4</ele>
        <time>2022-06-11T08:40:08Z</time>
      </trkpt>
      <trkpt lat="46.56814" lon="5.57928">
        <ele>654.6</ele>
        <time>2022-06-11T08:40:12Z</time>
      </trkpt>
      <trkpt lat="46.56818" lon="5.57926">
        <ele>654.4</ele>
        <time>2022-06-11T08:40:15Z</time>
      </trkpt>
      <trkpt lat="46.56825" lon="5.57925">
        <ele>653.9</ele>
        <time>2022-06-11T08:40:19Z</time>
      </trkpt>
      <trkpt lat="46.5683" lon="5.57926">
        <ele>653.3</ele>
        <time>2022-06-11T08:40:22Z</time>
      </trkpt>
      <trkpt lat="46.56836" lon="5.57926">
        <ele>652.2</ele>
        <time>2022-06-11T08:40:26Z</time>
      </trkpt>
      <trkpt lat="46.56841" lon="5.57925">
        <ele>650.6</ele>
        <time>2022-06-11T08:40:30Z</time>
      </trkpt>
      <trkpt lat="46.56846" lon="5.57923">
        <ele>649.2</ele>
        <time>2022-06-11T08:40:34Z</time>
      </trkpt>
      <trkpt lat="46.5685" lon="5.5792">
        <ele>648.2</ele>
        <time>2022-06-11T08:40:38Z</time>
      </trkpt>
      <trkpt lat="46.56854" lon="5.57915">
        <ele>647.3</ele>
        <time>2022-06-11T08:40:42Z</time>
      </trkpt>
      <trkpt lat="46.56858" lon="5.57911">
        <ele>646.6</ele>
        <time>2022-06-11T08:40:45Z</time>
      </trkpt>
      <trkpt lat="46.56862" lon="5.57911">
        <ele>645.9</ele>
        <time>2022-06-11T08:40:53Z</time>
      </trkpt>
      <trkpt lat="46.56867" lon="5.57913">
        <ele>647.2</ele>
        <time>2022-06-11T08:40:58Z</time>
      </trkpt>
      <trkpt lat="46.56872" lon="5.57913">
        <ele>648.2</ele>
        <time>2022-06-11T08:41:03Z</time>
      </trkpt>
      <trkpt lat="46.56877" lon="5.57914">
        <ele>648.8</ele>
        <time>2022-06-11T08:41:09Z</time>
      </trkpt>
      <trkpt lat="46.56881" lon="5.57913">
        <ele>649.1</ele>
        <time>2022-06-11T08:41:12Z</time>
      </trkpt>
      <trkpt lat="46.56887" lon="5.57912">
        <ele>649.4</ele>
        <time>2022-06-11T08:41:16Z</time>
      </trkpt>
      <trkpt lat="46.56892" lon="5.57911">
        <ele>650.1</ele>
        <time>2022-06-11T08:41:19Z</time>
      </trkpt>
      <trkpt lat="46.56896" lon="5.57907">
        <ele>650.9</ele>
        <time>2022-06-11T08:41:22Z</time>
      </trkpt>
      <trkpt lat="46.56901" lon="5.57904">
        <ele>651.7</ele>
        <time>2022-06-11T08:41:25Z</time>
      </trkpt>
      <trkpt lat="46.56906" lon="5.579">
        <ele>653.1</ele>
        <time>2022-06-11T08:41:30Z</time>
      </trkpt>
      <trkpt lat="46.5691" lon="5.57901">
        <ele>654.7</ele>
        <time>2022-06-11T08:41:34Z</time>
      </trkpt>
      <trkpt lat="46.56916" lon="5.57901">
        <ele>656</ele>
        <time>2022-06-11T08:41:39Z</time>
      </trkpt>
      <trkpt lat="46.5692" lon="5.57898">
        <ele>656.8</ele>
        <time>2022-06-11T08:41:43Z</time>
      </trkpt>
      <trkpt lat="46.56925" lon="5.57896">
        <ele>657.2</ele>
        <time>2022-06-11T08:41:48Z</time>
      </trkpt>
      <trkpt lat="46.56929" lon="5.57893">
        <ele>657</ele>
        <time>2022-06-11T08:41:51Z</time>
      </trkpt>
      <trkpt lat="46.56934" lon="5.57888">
        <ele>656.8</ele>
        <time>2022-06-11T08:41:55Z</time>
      </trkpt>
      <trkpt lat="46.56938" lon="5.57885">
        <ele>655.2</ele>
        <time>2022-06-11T08:41:58Z</time>
      </trkpt>
      <trkpt lat="46.56943" lon="5.57884">
        <ele>653.4</ele>
        <time>2022-06-11T08:42:01Z</time>
      </trkpt>
      <trkpt lat="46.56948" lon="5.57884">
        <ele>652.3</ele>
        <time>2022-06-11T08:42:05Z</time>
      </trkpt>
      <trkpt lat="46.56954" lon="5.57881">
        <ele>651.8</ele>
        <time>2022-06-11T08:42:09Z</time>
      </trkpt>
      <trkpt lat="46.56959" lon="5.57882">
        <ele>652.1</ele>
        <time>2022-06-11T08:42:15Z</time>
      </trkpt>
      <trkpt lat="46.56963" lon="5.57879">
        <ele>653</ele>
        <time>2022-06-11T08:42:22Z</time>
      </trkpt>
      <trkpt lat="46.56966" lon="5.57875">
        <ele>653</ele>
        <time>2022-06-11T08:42:28Z</time>
      </trkpt>
      <trkpt lat="46.56969" lon="5.5787">
        <ele>654.5</ele>
        <time>2022-06-11T08:42:34Z</time>
      </trkpt>
      <trkpt lat="46.56974" lon="5.57871">
        <ele>658.1</ele>
        <time>2022-06-11T08:42:41Z</time>
      </trkpt>
      <trkpt lat="46.56979" lon="5.57873">
        <ele>658.5</ele>
        <time>2022-06-11T08:42:59Z</time>
      </trkpt>
      <trkpt lat="46.56981" lon="5.57867">
        <ele>657.8</ele>
        <time>2022-06-11T08:43:10Z</time>
      </trkpt>
      <trkpt lat="46.56986" lon="5.5787">
        <ele>661</ele>
        <time>2022-06-11T08:43:32Z</time>
      </trkpt>
      <trkpt lat="46.5699" lon="5.57871">
        <ele>663</ele>
        <time>2022-06-11T08:43:38Z</time>
      </trkpt>
      <trkpt lat="46.56988" lon="5.57865">
        <ele>664</ele>
        <time>2022-06-11T08:44:10Z</time>
      </trkpt>
      <trkpt lat="46.56983" lon="5.57865">
        <ele>663.2</ele>
        <time>2022-06-11T08:44:29Z</time>
      </trkpt>
      <trkpt lat="46.56982" lon="5.57858">
        <ele>661.1</ele>
        <time>2022-06-11T08:44:42Z</time>
      </trkpt>
      <trkpt lat="46.56979" lon="5.57853">
        <ele>662</ele>
        <time>2022-06-11T08:45:01Z</time>
      </trkpt>
      <trkpt lat="46.56983" lon="5.57852">
        <ele>669.4</ele>
        <time>2022-06-11T08:45:24Z</time>
      </trkpt>
      <trkpt lat="46.5698" lon="5.57856">
        <ele>670.2</ele>
        <time>2022-06-11T08:46:05Z</time>
      </trkpt>
      <trkpt lat="46.56982" lon="5.57862">
        <ele>664.1</ele>
        <time>2022-06-11T08:46:47Z</time>
      </trkpt>
      <trkpt lat="46.56987" lon="5.57866">
        <ele>662.3</ele>
        <time>2022-06-11T08:46:56Z</time>
      </trkpt>
      <trkpt lat="46.56986" lon="5.5786">
        <ele>658.6</ele>
        <time>2022-06-11T08:47:06Z</time>
      </trkpt>
      <trkpt lat="46.56985" lon="5.57851">
        <ele>657.2</ele>
        <time>2022-06-11T08:47:10Z</time>
      </trkpt>
      <trkpt lat="46.56986" lon="5.57845">
        <ele>655.3</ele>
        <time>2022-06-11T08:47:15Z</time>
      </trkpt>
      <trkpt lat="46.56991" lon="5.57844">
        <ele>652.9</ele>
        <time>2022-06-11T08:47:21Z</time>
      </trkpt>
      <trkpt lat="46.56996" lon="5.57842">
        <ele>650.9</ele>
        <time>2022-06-11T08:47:26Z</time>
      </trkpt>
      <trkpt lat="46.56998" lon="5.57836">
        <ele>649.3</ele>
        <time>2022-06-11T08:47:31Z</time>
      </trkpt>
      <trkpt lat="46.57001" lon="5.5783">
        <ele>648.3</ele>
        <time>2022-06-11T08:47:34Z</time>
      </trkpt>
      <trkpt lat="46.57003" lon="5.57824">
        <ele>647.2</ele>
        <time>2022-06-11T08:47:38Z</time>
      </trkpt>
      <trkpt lat="46.57008" lon="5.5782">
        <ele>646.5</ele>
        <time>2022-06-11T08:47:45Z</time>
      </trkpt>
      <trkpt lat="46.57011" lon="5.57815">
        <ele>645.9</ele>
        <time>2022-06-11T08:47:50Z</time>
      </trkpt>
      <trkpt lat="46.57014" lon="5.57808">
        <ele>645.8</ele>
        <time>2022-06-11T08:47:55Z</time>
      </trkpt>
      <trkpt lat="46.57015" lon="5.57801">
        <ele>646</ele>
        <time>2022-06-11T08:47:59Z</time>
      </trkpt>
      <trkpt lat="46.57017" lon="5.57796">
        <ele>646.2</ele>
        <time>2022-06-11T08:48:04Z</time>
      </trkpt>
      <trkpt lat="46.5702" lon="5.57789">
        <ele>646.4</ele>
        <time>2022-06-11T08:48:10Z</time>
      </trkpt>
      <trkpt lat="46.57024" lon="5.57782">
        <ele>646.3</ele>
        <time>2022-06-11T08:48:14Z</time>
      </trkpt>
      <trkpt lat="46.57027" lon="5.57777">
        <ele>646.2</ele>
        <time>2022-06-11T08:48:17Z</time>
      </trkpt>
      <trkpt lat="46.5703" lon="5.57772">
        <ele>646.3</ele>
        <time>2022-06-11T08:48:20Z</time>
      </trkpt>
      <trkpt lat="46.57031" lon="5.57764">
        <ele>647.4</ele>
        <time>2022-06-11T08:48:24Z</time>
      </trkpt>
      <trkpt lat="46.57033" lon="5.57759">
        <ele>650.9</ele>
        <time>2022-06-11T08:48:31Z</time>
      </trkpt>
      <trkpt lat="46.57037" lon="5.57753">
        <ele>654.1</ele>
        <time>2022-06-11T08:48:38Z</time>
      </trkpt>
      <trkpt lat="46.57041" lon="5.57749">
        <ele>656.1</ele>
        <time>2022-06-11T08:48:43Z</time>
      </trkpt>
      <trkpt lat="46.57046" lon="5.57749">
        <ele>661.8</ele>
        <time>2022-06-11T08:48:53Z</time>
      </trkpt>
      <trkpt lat="46.5705" lon="5.57745">
        <ele>664.9</ele>
        <time>2022-06-11T08:49:00Z</time>
      </trkpt>
      <trkpt lat="46.57055" lon="5.57741">
        <ele>667.6</ele>
        <time>2022-06-11T08:49:06Z</time>
      </trkpt>
      <trkpt lat="46.57058" lon="5.57736">
        <ele>669.8</ele>
        <time>2022-06-11T08:49:14Z</time>
      </trkpt>
      <trkpt lat="46.57061" lon="5.57731">
        <ele>670.5</ele>
        <time>2022-06-11T08:49:17Z</time>
      </trkpt>
      <trkpt lat="46.57066" lon="5.57724">
        <ele>671.1</ele>
        <time>2022-06-11T08:49:20Z</time>
      </trkpt>
      <trkpt lat="46.5707" lon="5.57719">
        <ele>671.8</ele>
        <time>2022-06-11T08:49:25Z</time>
      </trkpt>
      <trkpt lat="46.57074" lon="5.57715">
        <ele>673.5</ele>
        <time>2022-06-11T08:49:32Z</time>
      </trkpt>
      <trkpt lat="46.57077" lon="5.57709">
        <ele>675.5</ele>
        <time>2022-06-11T08:49:39Z</time>
      </trkpt>
      <trkpt lat="46.57081" lon="5.57703">
        <ele>676.2</ele>
        <time>2022-06-11T08:49:43Z</time>
      </trkpt>
      <trkpt lat="46.57085" lon="5.57698">
        <ele>676.8</ele>
        <time>2022-06-11T08:49:46Z</time>
      </trkpt>
      <trkpt lat="46.57089" lon="5.57693">
        <ele>677.3</ele>
        <time>2022-06-11T08:49:49Z</time>
      </trkpt>
      <trkpt lat="46.57092" lon="5.57688">
        <ele>677.7</ele>
        <time>2022-06-11T08:49:55Z</time>
      </trkpt>
      <trkpt lat="46.57088" lon="5.5769">
        <ele>677.9</ele>
        <time>2022-06-11T08:50:01Z</time>
      </trkpt>
      <trkpt lat="46.57089" lon="5.57683">
        <ele>677.7</ele>
        <time>2022-06-11T08:50:08Z</time>
      </trkpt>
      <trkpt lat="46.57092" lon="5.57677">
        <ele>678</ele>
        <time>2022-06-11T08:50:11Z</time>
      </trkpt>
      <trkpt lat="46.57095" lon="5.57671">
        <ele>678.8</ele>
        <time>2022-06-11T08:50:15Z</time>
      </trkpt>
      <trkpt lat="46.57097" lon="5.57665">
        <ele>679.6</ele>
        <time>2022-06-11T08:50:19Z</time>
      </trkpt>
      <trkpt lat="46.57097" lon="5.57657">
        <ele>681</ele>
        <time>2022-06-11T08:50:26Z</time>
      </trkpt>
      <trkpt lat="46.57101" lon="5.57652">
        <ele>681.7</ele>
        <time>2022-06-11T08:50:30Z</time>
      </trkpt>
      <trkpt lat="46.57105" lon="5.57649">
        <ele>681.9</ele>
        <time>2022-06-11T08:50:33Z</time>
      </trkpt>
      <trkpt lat="46.5711" lon="5.57646">
        <ele>682</ele>
        <time>2022-06-11T08:50:36Z</time>
      </trkpt>
      <trkpt lat="46.57112" lon="5.57641">
        <ele>681.8</ele>
        <time>2022-06-11T08:50:43Z</time>
      </trkpt>
      <trkpt lat="46.57116" lon="5.57638">
        <ele>680.4</ele>
        <time>2022-06-11T08:50:49Z</time>
      </trkpt>
      <trkpt lat="46.5712" lon="5.57631">
        <ele>679</ele>
        <time>2022-06-11T08:50:54Z</time>
      </trkpt>
      <trkpt lat="46.57123" lon="5.57624">
        <ele>677.9</ele>
        <time>2022-06-11T08:51:00Z</time>
      </trkpt>
      <trkpt lat="46.57127" lon="5.57622">
        <ele>676.6</ele>
        <time>2022-06-11T08:51:09Z</time>
      </trkpt>
      <trkpt lat="46.57132" lon="5.5762">
        <ele>676.6</ele>
        <time>2022-06-11T08:51:13Z</time>
      </trkpt>
      <trkpt lat="46.57137" lon="5.57617">
        <ele>677.9</ele>
        <time>2022-06-11T08:51:18Z</time>
      </trkpt>
      <trkpt lat="46.57142" lon="5.57613">
        <ele>680.3</ele>
        <time>2022-06-11T08:51:24Z</time>
      </trkpt>
      <trkpt lat="46.57146" lon="5.57609">
        <ele>681.6</ele>
        <time>2022-06-11T08:51:29Z</time>
      </trkpt>
      <trkpt lat="46.57151" lon="5.57612">
        <ele>682.7</ele>
        <time>2022-06-11T08:51:37Z</time>
      </trkpt>
      <trkpt lat="46.57156" lon="5.57612">
        <ele>683.1</ele>
        <time>2022-06-11T08:51:42Z</time>
      </trkpt>
      <trkpt lat="46.57159" lon="5.57607">
        <ele>683.3</ele>
        <time>2022-06-11T08:51:46Z</time>
      </trkpt>
      <trkpt lat="46.57163" lon="5.57602">
        <ele>684.2</ele>
        <time>2022-06-11T08:51:52Z</time>
      </trkpt>
      <trkpt lat="46.57166" lon="5.57598">
        <ele>684.7</ele>
        <time>2022-06-11T08:51:56Z</time>
      </trkpt>
      <trkpt lat="46.5717" lon="5.57593">
        <ele>685</ele>
        <time>2022-06-11T08:52:00Z</time>
      </trkpt>
      <trkpt lat="46.57174" lon="5.57588">
        <ele>685</ele>
        <time>2022-06-11T08:52:05Z</time>
      </trkpt>
      <trkpt lat="46.57179" lon="5.57586">
        <ele>685</ele>
        <time>2022-06-11T08:52:09Z</time>
      </trkpt>
      <trkpt lat="46.57184" lon="5.57586">
        <ele>685.7</ele>
        <time>2022-06-11T08:52:14Z</time>
      </trkpt>
      <trkpt lat="46.57189" lon="5.57584">
        <ele>686.1</ele>
        <time>2022-06-11T08:52:17Z</time>
      </trkpt>
      <trkpt lat="46.57194" lon="5.57581">
        <ele>686.9</ele>
        <time>2022-06-11T08:52:20Z</time>
      </trkpt>
      <trkpt lat="46.57199" lon="5.57582">
        <ele>689.2</ele>
        <time>2022-06-11T08:52:31Z</time>
      </trkpt>
      <trkpt lat="46.57204" lon="5.57578">
        <ele>689</ele>
        <time>2022-06-11T08:52:39Z</time>
      </trkpt>
      <trkpt lat="46.57208" lon="5.57573">
        <ele>689.2</ele>
        <time>2022-06-11T08:52:42Z</time>
      </trkpt>
      <trkpt lat="46.57212" lon="5.5757">
        <ele>689.7</ele>
        <time>2022-06-11T08:52:45Z</time>
      </trkpt>
      <trkpt lat="46.57215" lon="5.57565">
        <ele>690.1</ele>
        <time>2022-06-11T08:52:50Z</time>
      </trkpt>
      <trkpt lat="46.5722" lon="5.5756">
        <ele>690.3</ele>
        <time>2022-06-11T08:52:55Z</time>
      </trkpt>
      <trkpt lat="46.57224" lon="5.57557">
        <ele>690.6</ele>
        <time>2022-06-11T08:53:00Z</time>
      </trkpt>
      <trkpt lat="46.57229" lon="5.57555">
        <ele>691</ele>
        <time>2022-06-11T08:53:05Z</time>
      </trkpt>
      <trkpt lat="46.57233" lon="5.57553">
        <ele>691.1</ele>
        <time>2022-06-11T08:53:09Z</time>
      </trkpt>
      <trkpt lat="46.57238" lon="5.57552">
        <ele>691.5</ele>
        <time>2022-06-11T08:53:14Z</time>
      </trkpt>
      <trkpt lat="46.57243" lon="5.57552">
        <ele>692.1</ele>
        <time>2022-06-11T08:53:23Z</time>
      </trkpt>
      <trkpt lat="46.5725" lon="5.5755">
        <ele>692.2</ele>
        <time>2022-06-11T08:53:28Z</time>
      </trkpt>
      <trkpt lat="46.57254" lon="5.5755">
        <ele>693</ele>
        <time>2022-06-11T08:53:36Z</time>
      </trkpt>
      <trkpt lat="46.5726" lon="5.57551">
        <ele>694.2</ele>
        <time>2022-06-11T08:53:41Z</time>
      </trkpt>
      <trkpt lat="46.57264" lon="5.57549">
        <ele>694.9</ele>
        <time>2022-06-11T08:53:44Z</time>
      </trkpt>
      <trkpt lat="46.57269" lon="5.57548">
        <ele>695.6</ele>
        <time>2022-06-11T08:53:47Z</time>
      </trkpt>
      <trkpt lat="46.57273" lon="5.57548">
        <ele>696.3</ele>
        <time>2022-06-11T08:53:51Z</time>
      </trkpt>
      <trkpt lat="46.57278" lon="5.57547">
        <ele>696.9</ele>
        <time>2022-06-11T08:53:55Z</time>
      </trkpt>
      <trkpt lat="46.57282" lon="5.57549">
        <ele>697.5</ele>
        <time>2022-06-11T08:54:01Z</time>
      </trkpt>
      <trkpt lat="46.57287" lon="5.57549">
        <ele>698</ele>
        <time>2022-06-11T08:54:04Z</time>
      </trkpt>
      <trkpt lat="46.57292" lon="5.5755">
        <ele>698.8</ele>
        <time>2022-06-11T08:54:07Z</time>
      </trkpt>
      <trkpt lat="46.57297" lon="5.57553">
        <ele>700.1</ele>
        <time>2022-06-11T08:54:10Z</time>
      </trkpt>
      <trkpt lat="46.57299" lon="5.5756">
        <ele>702.4</ele>
        <time>2022-06-11T08:54:15Z</time>
      </trkpt>
      <trkpt lat="46.57302" lon="5.57566">
        <ele>704.3</ele>
        <time>2022-06-11T08:54:20Z</time>
      </trkpt>
      <trkpt lat="46.57306" lon="5.57566">
        <ele>706.1</ele>
        <time>2022-06-11T08:54:27Z</time>
      </trkpt>
      <trkpt lat="46.57311" lon="5.57565">
        <ele>707.1</ele>
        <time>2022-06-11T08:54:34Z</time>
      </trkpt>
      <trkpt lat="46.57316" lon="5.57566">
        <ele>707.4</ele>
        <time>2022-06-11T08:54:41Z</time>
      </trkpt>
      <trkpt lat="46.57321" lon="5.57565">
        <ele>707</ele>
        <time>2022-06-11T08:54:45Z</time>
      </trkpt>
      <trkpt lat="46.57325" lon="5.57561">
        <ele>706.4</ele>
        <time>2022-06-11T08:54:48Z</time>
      </trkpt>
      <trkpt lat="46.5733" lon="5.57557">
        <ele>705.9</ele>
        <time>2022-06-11T08:54:51Z</time>
      </trkpt>
      <trkpt lat="46.57335" lon="5.57555">
        <ele>705.3</ele>
        <time>2022-06-11T08:54:54Z</time>
      </trkpt>
      <trkpt lat="46.5734" lon="5.57554">
        <ele>704.9</ele>
        <time>2022-06-11T08:54:57Z</time>
      </trkpt>
      <trkpt lat="46.57344" lon="5.57552">
        <ele>704.7</ele>
        <time>2022-06-11T08:55:00Z</time>
      </trkpt>
      <trkpt lat="46.57348" lon="5.5755">
        <ele>704.9</ele>
        <time>2022-06-11T08:55:04Z</time>
      </trkpt>
      <trkpt lat="46.57353" lon="5.57547">
        <ele>704.8</ele>
        <time>2022-06-11T08:55:09Z</time>
      </trkpt>
      <trkpt lat="46.57358" lon="5.57546">
        <ele>703.6</ele>
        <time>2022-06-11T08:55:20Z</time>
      </trkpt>
      <trkpt lat="46.57363" lon="5.57543">
        <ele>702.7</ele>
        <time>2022-06-11T08:55:26Z</time>
      </trkpt>
      <trkpt lat="46.57368" lon="5.57539">
        <ele>701.8</ele>
        <time>2022-06-11T08:55:30Z</time>
      </trkpt>
      <trkpt lat="46.57374" lon="5.57535">
        <ele>701.2</ele>
        <time>2022-06-11T08:55:34Z</time>
      </trkpt>
      <trkpt lat="46.57378" lon="5.57532">
        <ele>700.4</ele>
        <time>2022-06-11T08:55:40Z</time>
      </trkpt>
      <trkpt lat="46.57383" lon="5.57529">
        <ele>700.3</ele>
        <time>2022-06-11T08:55:46Z</time>
      </trkpt>
      <trkpt lat="46.57388" lon="5.57529">
        <ele>699.9</ele>
        <time>2022-06-11T08:55:55Z</time>
      </trkpt>
      <trkpt lat="46.57393" lon="5.57528">
        <ele>699.1</ele>
        <time>2022-06-11T08:56:01Z</time>
      </trkpt>
      <trkpt lat="46.57398" lon="5.57528">
        <ele>697.9</ele>
        <time>2022-06-11T08:56:08Z</time>
      </trkpt>
      <trkpt lat="46.57402" lon="5.5753">
        <ele>697</ele>
        <time>2022-06-11T08:56:12Z</time>
      </trkpt>
      <trkpt lat="46.57408" lon="5.57529">
        <ele>695.9</ele>
        <time>2022-06-11T08:56:17Z</time>
      </trkpt>
      <trkpt lat="46.57412" lon="5.57527">
        <ele>695.2</ele>
        <time>2022-06-11T08:56:22Z</time>
      </trkpt>
      <trkpt lat="46.57417" lon="5.57524">
        <ele>695.2</ele>
        <time>2022-06-11T08:56:25Z</time>
      </trkpt>
      <trkpt lat="46.57421" lon="5.57521">
        <ele>695.7</ele>
        <time>2022-06-11T08:56:29Z</time>
      </trkpt>
      <trkpt lat="46.57426" lon="5.57518">
        <ele>696.4</ele>
        <time>2022-06-11T08:56:32Z</time>
      </trkpt>
      <trkpt lat="46.5743" lon="5.57514">
        <ele>696.6</ele>
        <time>2022-06-11T08:56:38Z</time>
      </trkpt>
      <trkpt lat="46.57436" lon="5.57511">
        <ele>695.9</ele>
        <time>2022-06-11T08:56:44Z</time>
      </trkpt>
      <trkpt lat="46.57441" lon="5.5751">
        <ele>695.4</ele>
        <time>2022-06-11T08:56:48Z</time>
      </trkpt>
      <trkpt lat="46.57448" lon="5.57509">
        <ele>695.2</ele>
        <time>2022-06-11T08:56:51Z</time>
      </trkpt>
      <trkpt lat="46.57454" lon="5.57509">
        <ele>695.1</ele>
        <time>2022-06-11T08:56:54Z</time>
      </trkpt>
      <trkpt lat="46.57459" lon="5.57509">
        <ele>694.8</ele>
        <time>2022-06-11T08:56:58Z</time>
      </trkpt>
      <trkpt lat="46.57464" lon="5.57509">
        <ele>695.1</ele>
        <time>2022-06-11T08:57:02Z</time>
      </trkpt>
      <trkpt lat="46.57469" lon="5.57508">
        <ele>695.6</ele>
        <time>2022-06-11T08:57:07Z</time>
      </trkpt>
      <trkpt lat="46.57473" lon="5.57504">
        <ele>696.5</ele>
        <time>2022-06-11T08:57:14Z</time>
      </trkpt>
      <trkpt lat="46.57478" lon="5.57502">
        <ele>696.1</ele>
        <time>2022-06-11T08:57:19Z</time>
      </trkpt>
      <trkpt lat="46.57483" lon="5.575">
        <ele>694.7</ele>
        <time>2022-06-11T08:57:25Z</time>
      </trkpt>
      <trkpt lat="46.57488" lon="5.57497">
        <ele>694.2</ele>
        <time>2022-06-11T08:57:28Z</time>
      </trkpt>
      <trkpt lat="46.57493" lon="5.57495">
        <ele>693.5</ele>
        <time>2022-06-11T08:57:32Z</time>
      </trkpt>
      <trkpt lat="46.57497" lon="5.57492">
        <ele>693</ele>
        <time>2022-06-11T08:57:36Z</time>
      </trkpt>
      <trkpt lat="46.57501" lon="5.57489">
        <ele>692.4</ele>
        <time>2022-06-11T08:57:43Z</time>
      </trkpt>
      <trkpt lat="46.57505" lon="5.57485">
        <ele>692.8</ele>
        <time>2022-06-11T08:57:49Z</time>
      </trkpt>
      <trkpt lat="46.5751" lon="5.57486">
        <ele>687.4</ele>
        <time>2022-06-11T08:58:05Z</time>
      </trkpt>
      <trkpt lat="46.57515" lon="5.57483">
        <ele>685.2</ele>
        <time>2022-06-11T08:58:10Z</time>
      </trkpt>
      <trkpt lat="46.5752" lon="5.57481">
        <ele>684.1</ele>
        <time>2022-06-11T08:58:14Z</time>
      </trkpt>
      <trkpt lat="46.57525" lon="5.57479">
        <ele>683.7</ele>
        <time>2022-06-11T08:58:18Z</time>
      </trkpt>
      <trkpt lat="46.57529" lon="5.57478">
        <ele>681.8</ele>
        <time>2022-06-11T08:58:27Z</time>
      </trkpt>
      <trkpt lat="46.57534" lon="5.57476">
        <ele>681</ele>
        <time>2022-06-11T08:58:31Z</time>
      </trkpt>
      <trkpt lat="46.57541" lon="5.57472">
        <ele>680</ele>
        <time>2022-06-11T08:58:34Z</time>
      </trkpt>
      <trkpt lat="46.57546" lon="5.57472">
        <ele>679</ele>
        <time>2022-06-11T08:58:37Z</time>
      </trkpt>
      <trkpt lat="46.57551" lon="5.57469">
        <ele>678.3</ele>
        <time>2022-06-11T08:58:40Z</time>
      </trkpt>
      <trkpt lat="46.57553" lon="5.57461">
        <ele>678.2</ele>
        <time>2022-06-11T08:58:52Z</time>
      </trkpt>
      <trkpt lat="46.57556" lon="5.57457">
        <ele>678.5</ele>
        <time>2022-06-11T08:58:57Z</time>
      </trkpt>
      <trkpt lat="46.5756" lon="5.57453">
        <ele>679</ele>
        <time>2022-06-11T08:59:01Z</time>
      </trkpt>
      <trkpt lat="46.57564" lon="5.57448">
        <ele>679</ele>
        <time>2022-06-11T08:59:05Z</time>
      </trkpt>
      <trkpt lat="46.57568" lon="5.57441">
        <ele>679.3</ele>
        <time>2022-06-11T08:59:10Z</time>
      </trkpt>
      <trkpt lat="46.57572" lon="5.5744">
        <ele>680.3</ele>
        <time>2022-06-11T08:59:19Z</time>
      </trkpt>
      <trkpt lat="46.57577" lon="5.57437">
        <ele>680.4</ele>
        <time>2022-06-11T08:59:24Z</time>
      </trkpt>
      <trkpt lat="46.57582" lon="5.57434">
        <ele>680.5</ele>
        <time>2022-06-11T08:59:29Z</time>
      </trkpt>
      <trkpt lat="46.57586" lon="5.57431">
        <ele>679.6</ele>
        <time>2022-06-11T08:59:35Z</time>
      </trkpt>
      <trkpt lat="46.57592" lon="5.57431">
        <ele>679</ele>
        <time>2022-06-11T08:59:39Z</time>
      </trkpt>
      <trkpt lat="46.576" lon="5.57428">
        <ele>678.8</ele>
        <time>2022-06-11T08:59:42Z</time>
      </trkpt>
      <trkpt lat="46.57604" lon="5.57425">
        <ele>679</ele>
        <time>2022-06-11T08:59:45Z</time>
      </trkpt>
      <trkpt lat="46.57609" lon="5.57422">
        <ele>679.5</ele>
        <time>2022-06-11T08:59:50Z</time>
      </trkpt>
      <trkpt lat="46.57614" lon="5.57419">
        <ele>680.2</ele>
        <time>2022-06-11T08:59:57Z</time>
      </trkpt>
      <trkpt lat="46.5762" lon="5.57416">
        <ele>680.4</ele>
        <time>2022-06-11T09:00:00Z</time>
      </trkpt>
      <trkpt lat="46.57625" lon="5.57413">
        <ele>681.1</ele>
        <time>2022-06-11T09:00:04Z</time>
      </trkpt>
      <trkpt lat="46.57628" lon="5.57408">
        <ele>682.3</ele>
        <time>2022-06-11T09:00:10Z</time>
      </trkpt>
      <trkpt lat="46.57632" lon="5.57402">
        <ele>682.8</ele>
        <time>2022-06-11T09:00:16Z</time>
      </trkpt>
      <trkpt lat="46.57636" lon="5.57398">
        <ele>682.5</ele>
        <time>2022-06-11T09:00:22Z</time>
      </trkpt>
      <trkpt lat="46.5764" lon="5.57394">
        <ele>681.5</ele>
        <time>2022-06-11T09:00:27Z</time>
      </trkpt>
      <trkpt lat="46.57643" lon="5.57388">
        <ele>681.1</ele>
        <time>2022-06-11T09:00:32Z</time>
      </trkpt>
      <trkpt lat="46.57647" lon="5.57383">
        <ele>680.9</ele>
        <time>2022-06-11T09:00:37Z</time>
      </trkpt>
      <trkpt lat="46.57651" lon="5.57378">
        <ele>681.2</ele>
        <time>2022-06-11T09:00:42Z</time>
      </trkpt>
      <trkpt lat="46.57654" lon="5.57373">
        <ele>681.4</ele>
        <time>2022-06-11T09:00:47Z</time>
      </trkpt>
      <trkpt lat="46.57659" lon="5.57369">
        <ele>681.8</ele>
        <time>2022-06-11T09:00:52Z</time>
      </trkpt>
      <trkpt lat="46.57663" lon="5.57364">
        <ele>681.5</ele>
        <time>2022-06-11T09:00:56Z</time>
      </trkpt>
      <trkpt lat="46.57667" lon="5.5736">
        <ele>681.3</ele>
        <time>2022-06-11T09:01:00Z</time>
      </trkpt>
      <trkpt lat="46.57671" lon="5.57358">
        <ele>680.9</ele>
        <time>2022-06-11T09:01:05Z</time>
      </trkpt>
      <trkpt lat="46.57676" lon="5.57358">
        <ele>680.6</ele>
        <time>2022-06-11T09:01:09Z</time>
      </trkpt>
      <trkpt lat="46.57681" lon="5.57357">
        <ele>680</ele>
        <time>2022-06-11T09:01:13Z</time>
      </trkpt>
      <trkpt lat="46.57684" lon="5.57351">
        <ele>679</ele>
        <time>2022-06-11T09:01:18Z</time>
      </trkpt>
      <trkpt lat="46.57687" lon="5.57345">
        <ele>676.4</ele>
        <time>2022-06-11T09:01:25Z</time>
      </trkpt>
      <trkpt lat="46.57691" lon="5.57341">
        <ele>674.8</ele>
        <time>2022-06-11T09:01:30Z</time>
      </trkpt>
      <trkpt lat="46.57694" lon="5.57337">
        <ele>673</ele>
        <time>2022-06-11T09:01:35Z</time>
      </trkpt>
      <trkpt lat="46.57698" lon="5.57334">
        <ele>671.7</ele>
        <time>2022-06-11T09:01:39Z</time>
      </trkpt>
      <trkpt lat="46.57703" lon="5.57331">
        <ele>670.5</ele>
        <time>2022-06-11T09:01:45Z</time>
      </trkpt>
      <trkpt lat="46.57707" lon="5.57326">
        <ele>670</ele>
        <time>2022-06-11T09:01:52Z</time>
      </trkpt>
      <trkpt lat="46.57712" lon="5.57323">
        <ele>669.7</ele>
        <time>2022-06-11T09:01:57Z</time>
      </trkpt>
      <trkpt lat="46.57715" lon="5.57319">
        <ele>669.4</ele>
        <time>2022-06-11T09:02:01Z</time>
      </trkpt>
      <trkpt lat="46.57719" lon="5.57313">
        <ele>668.5</ele>
        <time>2022-06-11T09:02:06Z</time>
      </trkpt>
      <trkpt lat="46.57722" lon="5.57307">
        <ele>667.9</ele>
        <time>2022-06-11T09:02:11Z</time>
      </trkpt>
      <trkpt lat="46.57724" lon="5.57301">
        <ele>666.7</ele>
        <time>2022-06-11T09:02:17Z</time>
      </trkpt>
      <trkpt lat="46.57727" lon="5.57295">
        <ele>665.1</ele>
        <time>2022-06-11T09:02:23Z</time>
      </trkpt>
      <trkpt lat="46.57731" lon="5.57289">
        <ele>663.6</ele>
        <time>2022-06-11T09:02:28Z</time>
      </trkpt>
      <trkpt lat="46.57735" lon="5.57285">
        <ele>660.8</ele>
        <time>2022-06-11T09:02:35Z</time>
      </trkpt>
      <trkpt lat="46.57738" lon="5.5728">
        <ele>657.8</ele>
        <time>2022-06-11T09:02:42Z</time>
      </trkpt>
      <trkpt lat="46.57742" lon="5.57276">
        <ele>656.3</ele>
        <time>2022-06-11T09:02:47Z</time>
      </trkpt>
      <trkpt lat="46.57747" lon="5.57272">
        <ele>655.7</ele>
        <time>2022-06-11T09:02:51Z</time>
      </trkpt>
      <trkpt lat="46.5775" lon="5.57267">
        <ele>655.4</ele>
        <time>2022-06-11T09:02:56Z</time>
      </trkpt>
      <trkpt lat="46.57753" lon="5.57261">
        <ele>655.3</ele>
        <time>2022-06-11T09:03:01Z</time>
      </trkpt>
      <trkpt lat="46.57756" lon="5.57256">
        <ele>655.4</ele>
        <time>2022-06-11T09:03:08Z</time>
      </trkpt>
      <trkpt lat="46.57758" lon="5.57249">
        <ele>655.7</ele>
        <time>2022-06-11T09:03:15Z</time>
      </trkpt>
      <trkpt lat="46.5776" lon="5.57242">
        <ele>654.6</ele>
        <time>2022-06-11T09:03:21Z</time>
      </trkpt>
      <trkpt lat="46.57762" lon="5.57235">
        <ele>653.5</ele>
        <time>2022-06-11T09:03:26Z</time>
      </trkpt>
      <trkpt lat="46.57763" lon="5.57228">
        <ele>651.9</ele>
        <time>2022-06-11T09:03:31Z</time>
      </trkpt>
      <trkpt lat="46.57764" lon="5.5722">
        <ele>650.5</ele>
        <time>2022-06-11T09:03:37Z</time>
      </trkpt>
      <trkpt lat="46.57766" lon="5.57214">
        <ele>649.3</ele>
        <time>2022-06-11T09:03:42Z</time>
      </trkpt>
      <trkpt lat="46.57764" lon="5.57207">
        <ele>647.9</ele>
        <time>2022-06-11T09:03:48Z</time>
      </trkpt>
      <trkpt lat="46.57763" lon="5.572">
        <ele>646.6</ele>
        <time>2022-06-11T09:03:53Z</time>
      </trkpt>
      <trkpt lat="46.57764" lon="5.57193">
        <ele>645.3</ele>
        <time>2022-06-11T09:03:58Z</time>
      </trkpt>
      <trkpt lat="46.57765" lon="5.57186">
        <ele>644.6</ele>
        <time>2022-06-11T09:04:07Z</time>
      </trkpt>
      <trkpt lat="46.57765" lon="5.57179">
        <ele>644.6</ele>
        <time>2022-06-11T09:04:12Z</time>
      </trkpt>
      <trkpt lat="46.57764" lon="5.57171">
        <ele>644.6</ele>
        <time>2022-06-11T09:04:17Z</time>
      </trkpt>
      <trkpt lat="46.57764" lon="5.57164">
        <ele>644.8</ele>
        <time>2022-06-11T09:04:21Z</time>
      </trkpt>
      <trkpt lat="46.57764" lon="5.57156">
        <ele>644.9</ele>
        <time>2022-06-11T09:04:29Z</time>
      </trkpt>
      <trkpt lat="46.57765" lon="5.57148">
        <ele>645.3</ele>
        <time>2022-06-11T09:04:33Z</time>
      </trkpt>
      <trkpt lat="46.57766" lon="5.57141">
        <ele>645.9</ele>
        <time>2022-06-11T09:04:37Z</time>
      </trkpt>
      <trkpt lat="46.57766" lon="5.57135">
        <ele>646.8</ele>
        <time>2022-06-11T09:04:43Z</time>
      </trkpt>
      <trkpt lat="46.57767" lon="5.57127">
        <ele>646.9</ele>
        <time>2022-06-11T09:04:52Z</time>
      </trkpt>
      <trkpt lat="46.57769" lon="5.5712">
        <ele>645.7</ele>
        <time>2022-06-11T09:05:00Z</time>
      </trkpt>
      <trkpt lat="46.57773" lon="5.57116">
        <ele>642.8</ele>
        <time>2022-06-11T09:05:14Z</time>
      </trkpt>
      <trkpt lat="46.5777" lon="5.57121">
        <ele>634.9</ele>
        <time>2022-06-11T09:05:39Z</time>
      </trkpt>
      <trkpt lat="46.57771" lon="5.57115">
        <ele>639.7</ele>
        <time>2022-06-11T09:06:12Z</time>
      </trkpt>
      <trkpt lat="46.57776" lon="5.57113">
        <ele>640.2</ele>
        <time>2022-06-11T09:06:39Z</time>
      </trkpt>
      <trkpt lat="46.57781" lon="5.5711">
        <ele>640</ele>
        <time>2022-06-11T09:06:45Z</time>
      </trkpt>
      <trkpt lat="46.57785" lon="5.57106">
        <ele>639.9</ele>
        <time>2022-06-11T09:06:49Z</time>
      </trkpt>
      <trkpt lat="46.57786" lon="5.571">
        <ele>639.8</ele>
        <time>2022-06-11T09:06:56Z</time>
      </trkpt>
      <trkpt lat="46.57786" lon="5.57093">
        <ele>638.9</ele>
        <time>2022-06-11T09:07:03Z</time>
      </trkpt>
      <trkpt lat="46.57787" lon="5.57085">
        <ele>637.8</ele>
        <time>2022-06-11T09:07:08Z</time>
      </trkpt>
      <trkpt lat="46.5779" lon="5.57079">
        <ele>635</ele>
        <time>2022-06-11T09:07:17Z</time>
      </trkpt>
      <trkpt lat="46.57794" lon="5.57074">
        <ele>634.3</ele>
        <time>2022-06-11T09:07:21Z</time>
      </trkpt>
      <trkpt lat="46.57797" lon="5.5707">
        <ele>633.5</ele>
        <time>2022-06-11T09:07:26Z</time>
      </trkpt>
      <trkpt lat="46.57801" lon="5.57064">
        <ele>632.6</ele>
        <time>2022-06-11T09:07:32Z</time>
      </trkpt>
      <trkpt lat="46.57805" lon="5.5706">
        <ele>632</ele>
        <time>2022-06-11T09:07:38Z</time>
      </trkpt>
      <trkpt lat="46.57809" lon="5.57056">
        <ele>631.6</ele>
        <time>2022-06-11T09:07:45Z</time>
      </trkpt>
      <trkpt lat="46.57813" lon="5.57051">
        <ele>630.6</ele>
        <time>2022-06-11T09:07:50Z</time>
      </trkpt>
      <trkpt lat="46.57817" lon="5.57046">
        <ele>629.6</ele>
        <time>2022-06-11T09:07:54Z</time>
      </trkpt>
      <trkpt lat="46.5782" lon="5.57041">
        <ele>628.1</ele>
        <time>2022-06-11T09:07:59Z</time>
      </trkpt>
      <trkpt lat="46.57823" lon="5.57036">
        <ele>626.6</ele>
        <time>2022-06-11T09:08:05Z</time>
      </trkpt>
      <trkpt lat="46.57825" lon="5.5703">
        <ele>625.7</ele>
        <time>2022-06-11T09:08:11Z</time>
      </trkpt>
      <trkpt lat="46.57829" lon="5.57025">
        <ele>625.2</ele>
        <time>2022-06-11T09:08:16Z</time>
      </trkpt>
      <trkpt lat="46.57831" lon="5.57019">
        <ele>624</ele>
        <time>2022-06-11T09:08:23Z</time>
      </trkpt>
      <trkpt lat="46.5783" lon="5.57013">
        <ele>620.3</ele>
        <time>2022-06-11T09:08:31Z</time>
      </trkpt>
      <trkpt lat="46.57829" lon="5.57006">
        <ele>616.6</ele>
        <time>2022-06-11T09:08:37Z</time>
      </trkpt>
      <trkpt lat="46.57828" lon="5.56999">
        <ele>612.9</ele>
        <time>2022-06-11T09:08:43Z</time>
      </trkpt>
      <trkpt lat="46.57826" lon="5.56994">
        <ele>607.5</ele>
        <time>2022-06-11T09:08:51Z</time>
      </trkpt>
      <trkpt lat="46.57823" lon="5.56988">
        <ele>602.5</ele>
        <time>2022-06-11T09:09:00Z</time>
      </trkpt>
      <trkpt lat="46.57821" lon="5.56982">
        <ele>600.4</ele>
        <time>2022-06-11T09:09:05Z</time>
      </trkpt>
      <trkpt lat="46.57819" lon="5.56974">
        <ele>598.9</ele>
        <time>2022-06-11T09:09:10Z</time>
      </trkpt>
      <trkpt lat="46.57818" lon="5.56967">
        <ele>598.4</ele>
        <time>2022-06-11T09:09:13Z</time>
      </trkpt>
      <trkpt lat="46.57816" lon="5.5696">
        <ele>598</ele>
        <time>2022-06-11T09:09:17Z</time>
      </trkpt>
      <trkpt lat="46.57813" lon="5.56956">
        <ele>597.5</ele>
        <time>2022-06-11T09:09:21Z</time>
      </trkpt>
      <trkpt lat="46.57809" lon="5.56952">
        <ele>596.9</ele>
        <time>2022-06-11T09:09:26Z</time>
      </trkpt>
      <trkpt lat="46.57805" lon="5.56947">
        <ele>596.3</ele>
        <time>2022-06-11T09:09:34Z</time>
      </trkpt>
      <trkpt lat="46.57802" lon="5.56942">
        <ele>596</ele>
        <time>2022-06-11T09:09:41Z</time>
      </trkpt>
      <trkpt lat="46.57799" lon="5.56936">
        <ele>595.9</ele>
        <time>2022-06-11T09:09:45Z</time>
      </trkpt>
      <trkpt lat="46.57797" lon="5.5693">
        <ele>596.2</ele>
        <time>2022-06-11T09:09:50Z</time>
      </trkpt>
      <trkpt lat="46.57795" lon="5.56923">
        <ele>596.2</ele>
        <time>2022-06-11T09:09:55Z</time>
      </trkpt>
      <trkpt lat="46.57791" lon="5.56919">
        <ele>596.1</ele>
        <time>2022-06-11T09:10:00Z</time>
      </trkpt>
      <trkpt lat="46.57786" lon="5.56914">
        <ele>596.1</ele>
        <time>2022-06-11T09:10:05Z</time>
      </trkpt>
      <trkpt lat="46.57783" lon="5.56909">
        <ele>596.3</ele>
        <time>2022-06-11T09:10:09Z</time>
      </trkpt>
      <trkpt lat="46.5778" lon="5.56905">
        <ele>596.7</ele>
        <time>2022-06-11T09:10:14Z</time>
      </trkpt>
      <trkpt lat="46.57775" lon="5.56902">
        <ele>597</ele>
        <time>2022-06-11T09:10:19Z</time>
      </trkpt>
      <trkpt lat="46.5777" lon="5.56901">
        <ele>597.2</ele>
        <time>2022-06-11T09:10:26Z</time>
      </trkpt>
      <trkpt lat="46.57766" lon="5.56897">
        <ele>597.2</ele>
        <time>2022-06-11T09:10:31Z</time>
      </trkpt>
      <trkpt lat="46.57762" lon="5.56894">
        <ele>597.2</ele>
        <time>2022-06-11T09:10:35Z</time>
      </trkpt>
      <trkpt lat="46.57757" lon="5.56893">
        <ele>597.1</ele>
        <time>2022-06-11T09:10:39Z</time>
      </trkpt>
      <trkpt lat="46.57751" lon="5.56892">
        <ele>597.1</ele>
        <time>2022-06-11T09:10:42Z</time>
      </trkpt>
      <trkpt lat="46.57746" lon="5.56889">
        <ele>597.1</ele>
        <time>2022-06-11T09:10:46Z</time>
      </trkpt>
      <trkpt lat="46.57741" lon="5.56886">
        <ele>597.3</ele>
        <time>2022-06-11T09:10:50Z</time>
      </trkpt>
      <trkpt lat="46.57737" lon="5.56882">
        <ele>597.7</ele>
        <time>2022-06-11T09:10:54Z</time>
      </trkpt>
      <trkpt lat="46.57732" lon="5.56882">
        <ele>597.6</ele>
        <time>2022-06-11T09:10:59Z</time>
      </trkpt>
      <trkpt lat="46.57728" lon="5.56877">
        <ele>597.5</ele>
        <time>2022-06-11T09:11:04Z</time>
      </trkpt>
      <trkpt lat="46.57723" lon="5.56876">
        <ele>597</ele>
        <time>2022-06-11T09:11:11Z</time>
      </trkpt>
      <trkpt lat="46.57718" lon="5.56877">
        <ele>595.5</ele>
        <time>2022-06-11T09:11:19Z</time>
      </trkpt>
      <trkpt lat="46.57713" lon="5.56872">
        <ele>594.6</ele>
        <time>2022-06-11T09:11:24Z</time>
      </trkpt>
      <trkpt lat="46.5771" lon="5.56868">
        <ele>594.3</ele>
        <time>2022-06-11T09:11:28Z</time>
      </trkpt>
      <trkpt lat="46.57706" lon="5.56864">
        <ele>594.2</ele>
        <time>2022-06-11T09:11:34Z</time>
      </trkpt>
      <trkpt lat="46.57702" lon="5.5686">
        <ele>593.5</ele>
        <time>2022-06-11T09:11:39Z</time>
      </trkpt>
      <trkpt lat="46.57697" lon="5.56858">
        <ele>592</ele>
        <time>2022-06-11T09:11:44Z</time>
      </trkpt>
      <trkpt lat="46.57692" lon="5.56857">
        <ele>589</ele>
        <time>2022-06-11T09:11:51Z</time>
      </trkpt>
      <trkpt lat="46.57686" lon="5.56856">
        <ele>587.1</ele>
        <time>2022-06-11T09:11:56Z</time>
      </trkpt>
      <trkpt lat="46.57681" lon="5.56855">
        <ele>585.9</ele>
        <time>2022-06-11T09:12:00Z</time>
      </trkpt>
      <trkpt lat="46.57676" lon="5.56853">
        <ele>585.1</ele>
        <time>2022-06-11T09:12:04Z</time>
      </trkpt>
      <trkpt lat="46.5767" lon="5.5685">
        <ele>584.6</ele>
        <time>2022-06-11T09:12:08Z</time>
      </trkpt>
      <trkpt lat="46.57666" lon="5.56846">
        <ele>584.2</ele>
        <time>2022-06-11T09:12:12Z</time>
      </trkpt>
      <trkpt lat="46.57661" lon="5.56844">
        <ele>583.8</ele>
        <time>2022-06-11T09:12:16Z</time>
      </trkpt>
      <trkpt lat="46.57657" lon="5.56841">
        <ele>583.2</ele>
        <time>2022-06-11T09:12:22Z</time>
      </trkpt>
      <trkpt lat="46.57657" lon="5.56834">
        <ele>582.2</ele>
        <time>2022-06-11T09:12:32Z</time>
      </trkpt>
      <trkpt lat="46.57655" lon="5.56841">
        <ele>582.1</ele>
        <time>2022-06-11T09:12:51Z</time>
      </trkpt>
      <trkpt lat="46.57659" lon="5.56846">
        <ele>581.6</ele>
        <time>2022-06-11T09:13:02Z</time>
      </trkpt>
      <trkpt lat="46.57664" lon="5.56844">
        <ele>577.9</ele>
        <time>2022-06-11T09:13:40Z</time>
      </trkpt>
      <trkpt lat="46.57668" lon="5.56845">
        <ele>577.3</ele>
        <time>2022-06-11T09:13:45Z</time>
      </trkpt>
      <trkpt lat="46.57672" lon="5.56849">
        <ele>577.2</ele>
        <time>2022-06-11T09:13:53Z</time>
      </trkpt>
      <trkpt lat="46.57676" lon="5.56852">
        <ele>578.1</ele>
        <time>2022-06-11T09:13:58Z</time>
      </trkpt>
      <trkpt lat="46.57681" lon="5.56854">
        <ele>579.1</ele>
        <time>2022-06-11T09:14:04Z</time>
      </trkpt>
      <trkpt lat="46.57686" lon="5.56857">
        <ele>579.2</ele>
        <time>2022-06-11T09:14:10Z</time>
      </trkpt>
      <trkpt lat="46.5769" lon="5.5686">
        <ele>579.6</ele>
        <time>2022-06-11T09:14:18Z</time>
      </trkpt>
      <trkpt lat="46.57694" lon="5.56864">
        <ele>579.5</ele>
        <time>2022-06-11T09:14:26Z</time>
      </trkpt>
      <trkpt lat="46.57699" lon="5.56868">
        <ele>579.9</ele>
        <time>2022-06-11T09:14:30Z</time>
      </trkpt>
      <trkpt lat="46.57703" lon="5.56869">
        <ele>580.3</ele>
        <time>2022-06-11T09:14:37Z</time>
      </trkpt>
      <trkpt lat="46.57708" lon="5.56871">
        <ele>581.8</ele>
        <time>2022-06-11T09:14:45Z</time>
      </trkpt>
      <trkpt lat="46.57712" lon="5.56875">
        <ele>583.3</ele>
        <time>2022-06-11T09:15:01Z</time>
      </trkpt>
      <trkpt lat="46.57716" lon="5.5688">
        <ele>583.4</ele>
        <time>2022-06-11T09:15:06Z</time>
      </trkpt>
      <trkpt lat="46.5772" lon="5.56883">
        <ele>583.3</ele>
        <time>2022-06-11T09:15:11Z</time>
      </trkpt>
      <trkpt lat="46.57725" lon="5.56886">
        <ele>583.3</ele>
        <time>2022-06-11T09:15:15Z</time>
      </trkpt>
      <trkpt lat="46.57729" lon="5.56888">
        <ele>583</ele>
        <time>2022-06-11T09:15:19Z</time>
      </trkpt>
      <trkpt lat="46.57734" lon="5.56887">
        <ele>582.1</ele>
        <time>2022-06-11T09:15:27Z</time>
      </trkpt>
      <trkpt lat="46.57739" lon="5.56892">
        <ele>581.2</ele>
        <time>2022-06-11T09:15:32Z</time>
      </trkpt>
      <trkpt lat="46.57741" lon="5.56898">
        <ele>580.4</ele>
        <time>2022-06-11T09:15:37Z</time>
      </trkpt>
      <trkpt lat="46.57745" lon="5.56902">
        <ele>579.4</ele>
        <time>2022-06-11T09:15:42Z</time>
      </trkpt>
      <trkpt lat="46.5775" lon="5.56905">
        <ele>578.3</ele>
        <time>2022-06-11T09:15:51Z</time>
      </trkpt>
      <trkpt lat="46.57755" lon="5.56905">
        <ele>578.4</ele>
        <time>2022-06-11T09:15:57Z</time>
      </trkpt>
      <trkpt lat="46.5776" lon="5.56903">
        <ele>580.3</ele>
        <time>2022-06-11T09:16:02Z</time>
      </trkpt>
      <trkpt lat="46.57764" lon="5.56908">
        <ele>581.5</ele>
        <time>2022-06-11T09:16:05Z</time>
      </trkpt>
      <trkpt lat="46.57768" lon="5.56913">
        <ele>583.2</ele>
        <time>2022-06-11T09:16:09Z</time>
      </trkpt>
      <trkpt lat="46.57773" lon="5.56914">
        <ele>584.8</ele>
        <time>2022-06-11T09:16:14Z</time>
      </trkpt>
      <trkpt lat="46.57779" lon="5.56915">
        <ele>586.8</ele>
        <time>2022-06-11T09:16:19Z</time>
      </trkpt>
      <trkpt lat="46.57783" lon="5.56915">
        <ele>588.1</ele>
        <time>2022-06-11T09:16:26Z</time>
      </trkpt>
      <trkpt lat="46.57787" lon="5.56919">
        <ele>588.7</ele>
        <time>2022-06-11T09:16:33Z</time>
      </trkpt>
      <trkpt lat="46.57791" lon="5.56924">
        <ele>589.3</ele>
        <time>2022-06-11T09:16:40Z</time>
      </trkpt>
      <trkpt lat="46.57794" lon="5.56929">
        <ele>589.9</ele>
        <time>2022-06-11T09:16:48Z</time>
      </trkpt>
      <trkpt lat="46.57798" lon="5.56933">
        <ele>590.4</ele>
        <time>2022-06-11T09:16:53Z</time>
      </trkpt>
      <trkpt lat="46.57801" lon="5.56938">
        <ele>592.6</ele>
        <time>2022-06-11T09:17:12Z</time>
      </trkpt>
      <trkpt lat="46.57803" lon="5.56945">
        <ele>593</ele>
        <time>2022-06-11T09:17:18Z</time>
      </trkpt>
      <trkpt lat="46.57806" lon="5.56951">
        <ele>593.6</ele>
        <time>2022-06-11T09:17:23Z</time>
      </trkpt>
      <trkpt lat="46.57809" lon="5.56956">
        <ele>594.1</ele>
        <time>2022-06-11T09:17:28Z</time>
      </trkpt>
      <trkpt lat="46.57811" lon="5.56962">
        <ele>594.5</ele>
        <time>2022-06-11T09:17:35Z</time>
      </trkpt>
      <trkpt lat="46.57812" lon="5.5697">
        <ele>594.2</ele>
        <time>2022-06-11T09:17:42Z</time>
      </trkpt>
      <trkpt lat="46.57816" lon="5.56975">
        <ele>594.6</ele>
        <time>2022-06-11T09:17:48Z</time>
      </trkpt>
      <trkpt lat="46.57819" lon="5.5698">
        <ele>595.3</ele>
        <time>2022-06-11T09:17:53Z</time>
      </trkpt>
      <trkpt lat="46.57822" lon="5.56986">
        <ele>598.1</ele>
        <time>2022-06-11T09:17:59Z</time>
      </trkpt>
      <trkpt lat="46.57826" lon="5.5699">
        <ele>600.7</ele>
        <time>2022-06-11T09:18:04Z</time>
      </trkpt>
      <trkpt lat="46.57828" lon="5.56996">
        <ele>603.8</ele>
        <time>2022-06-11T09:18:10Z</time>
      </trkpt>
      <trkpt lat="46.57832" lon="5.57002">
        <ele>606.4</ele>
        <time>2022-06-11T09:18:17Z</time>
      </trkpt>
      <trkpt lat="46.57836" lon="5.57004">
        <ele>606.6</ele>
        <time>2022-06-11T09:18:31Z</time>
      </trkpt>
      <trkpt lat="46.57836" lon="5.56996">
        <ele>609</ele>
        <time>2022-06-11T09:18:56Z</time>
      </trkpt>
      <trkpt lat="46.5784" lon="5.56993">
        <ele>610.7</ele>
        <time>2022-06-11T09:19:09Z</time>
      </trkpt>
      <trkpt lat="46.57843" lon="5.56987">
        <ele>611.1</ele>
        <time>2022-06-11T09:19:14Z</time>
      </trkpt>
      <trkpt lat="46.57845" lon="5.56981">
        <ele>611.2</ele>
        <time>2022-06-11T09:19:18Z</time>
      </trkpt>
      <trkpt lat="46.57848" lon="5.56975">
        <ele>611.9</ele>
        <time>2022-06-11T09:19:24Z</time>
      </trkpt>
      <trkpt lat="46.57852" lon="5.56979">
        <ele>612.5</ele>
        <time>2022-06-11T09:19:28Z</time>
      </trkpt>
      <trkpt lat="46.57855" lon="5.56985">
        <ele>612.8</ele>
        <time>2022-06-11T09:19:32Z</time>
      </trkpt>
      <trkpt lat="46.57858" lon="5.56991">
        <ele>612.9</ele>
        <time>2022-06-11T09:19:37Z</time>
      </trkpt>
      <trkpt lat="46.57854" lon="5.56987">
        <ele>612.6</ele>
        <time>2022-06-11T09:19:46Z</time>
      </trkpt>
      <trkpt lat="46.57851" lon="5.56981">
        <ele>612.9</ele>
        <time>2022-06-11T09:20:01Z</time>
      </trkpt>
      <trkpt lat="46.57856" lon="5.56978">
        <ele>612.5</ele>
        <time>2022-06-11T09:20:17Z</time>
      </trkpt>
      <trkpt lat="46.5786" lon="5.56977">
        <ele>611.4</ele>
        <time>2022-06-11T09:20:22Z</time>
      </trkpt>
      <trkpt lat="46.57864" lon="5.56973">
        <ele>609.7</ele>
        <time>2022-06-11T09:20:32Z</time>
      </trkpt>
      <trkpt lat="46.57869" lon="5.56973">
        <ele>609</ele>
        <time>2022-06-11T09:20:38Z</time>
      </trkpt>
      <trkpt lat="46.57874" lon="5.5697">
        <ele>607.4</ele>
        <time>2022-06-11T09:20:50Z</time>
      </trkpt>
      <trkpt lat="46.57879" lon="5.56968">
        <ele>606</ele>
        <time>2022-06-11T09:20:57Z</time>
      </trkpt>
      <trkpt lat="46.57884" lon="5.56968">
        <ele>604.9</ele>
        <time>2022-06-11T09:21:01Z</time>
      </trkpt>
      <trkpt lat="46.57889" lon="5.56968">
        <ele>604</ele>
        <time>2022-06-11T09:21:06Z</time>
      </trkpt>
      <trkpt lat="46.57893" lon="5.56968">
        <ele>603.3</ele>
        <time>2022-06-11T09:21:10Z</time>
      </trkpt>
      <trkpt lat="46.57898" lon="5.56969">
        <ele>602</ele>
        <time>2022-06-11T09:21:17Z</time>
      </trkpt>
      <trkpt lat="46.57903" lon="5.56968">
        <ele>601.1</ele>
        <time>2022-06-11T09:21:22Z</time>
      </trkpt>
      <trkpt lat="46.57908" lon="5.56967">
        <ele>600.5</ele>
        <time>2022-06-11T09:21:25Z</time>
      </trkpt>
      <trkpt lat="46.57913" lon="5.56965">
        <ele>599.7</ele>
        <time>2022-06-11T09:21:29Z</time>
      </trkpt>
      <trkpt lat="46.57918" lon="5.56963">
        <ele>598.7</ele>
        <time>2022-06-11T09:21:33Z</time>
      </trkpt>
      <trkpt lat="46.57924" lon="5.56963">
        <ele>597.7</ele>
        <time>2022-06-11T09:21:38Z</time>
      </trkpt>
      <trkpt lat="46.57929" lon="5.56964">
        <ele>596.6</ele>
        <time>2022-06-11T09:21:44Z</time>
      </trkpt>
      <trkpt lat="46.57934" lon="5.56965">
        <ele>595.6</ele>
        <time>2022-06-11T09:21:48Z</time>
      </trkpt>
      <trkpt lat="46.57939" lon="5.56967">
        <ele>594.5</ele>
        <time>2022-06-11T09:21:55Z</time>
      </trkpt>
      <trkpt lat="46.57945" lon="5.56966">
        <ele>593.6</ele>
        <time>2022-06-11T09:22:01Z</time>
      </trkpt>
      <trkpt lat="46.57951" lon="5.56965">
        <ele>593.1</ele>
        <time>2022-06-11T09:22:05Z</time>
      </trkpt>
      <trkpt lat="46.57955" lon="5.56963">
        <ele>592.7</ele>
        <time>2022-06-11T09:22:10Z</time>
      </trkpt>
      <trkpt lat="46.5796" lon="5.56963">
        <ele>592.4</ele>
        <time>2022-06-11T09:22:15Z</time>
      </trkpt>
      <trkpt lat="46.57965" lon="5.56963">
        <ele>592.4</ele>
        <time>2022-06-11T09:22:19Z</time>
      </trkpt>
      <trkpt lat="46.5797" lon="5.56964">
        <ele>592.9</ele>
        <time>2022-06-11T09:22:31Z</time>
      </trkpt>
      <trkpt lat="46.57976" lon="5.56963">
        <ele>593.1</ele>
        <time>2022-06-11T09:22:37Z</time>
      </trkpt>
      <trkpt lat="46.57982" lon="5.56964">
        <ele>592.9</ele>
        <time>2022-06-11T09:22:40Z</time>
      </trkpt>
      <trkpt lat="46.57988" lon="5.56964">
        <ele>592.7</ele>
        <time>2022-06-11T09:22:43Z</time>
      </trkpt>
      <trkpt lat="46.57994" lon="5.56964">
        <ele>592.8</ele>
        <time>2022-06-11T09:22:47Z</time>
      </trkpt>
      <trkpt lat="46.57999" lon="5.56965">
        <ele>593.8</ele>
        <time>2022-06-11T09:22:52Z</time>
      </trkpt>
      <trkpt lat="46.58" lon="5.56971">
        <ele>595</ele>
        <time>2022-06-11T09:22:58Z</time>
      </trkpt>
      <trkpt lat="46.58003" lon="5.56977">
        <ele>595.4</ele>
        <time>2022-06-11T09:23:07Z</time>
      </trkpt>
      <trkpt lat="46.58007" lon="5.5698">
        <ele>595</ele>
        <time>2022-06-11T09:23:13Z</time>
      </trkpt>
      <trkpt lat="46.58012" lon="5.56983">
        <ele>595.5</ele>
        <time>2022-06-11T09:23:18Z</time>
      </trkpt>
      <trkpt lat="46.58017" lon="5.56986">
        <ele>596.4</ele>
        <time>2022-06-11T09:23:22Z</time>
      </trkpt>
      <trkpt lat="46.5802" lon="5.5699">
        <ele>597.4</ele>
        <time>2022-06-11T09:23:27Z</time>
      </trkpt>
      <trkpt lat="46.58025" lon="5.56994">
        <ele>598.2</ele>
        <time>2022-06-11T09:23:32Z</time>
      </trkpt>
      <trkpt lat="46.58029" lon="5.56999">
        <ele>598.5</ele>
        <time>2022-06-11T09:23:37Z</time>
      </trkpt>
      <trkpt lat="46.58033" lon="5.57003">
        <ele>598.7</ele>
        <time>2022-06-11T09:23:42Z</time>
      </trkpt>
      <trkpt lat="46.58038" lon="5.57004">
        <ele>598.9</ele>
        <time>2022-06-11T09:23:47Z</time>
      </trkpt>
      <trkpt lat="46.58042" lon="5.57007">
        <ele>599.8</ele>
        <time>2022-06-11T09:23:52Z</time>
      </trkpt>
      <trkpt lat="46.58047" lon="5.5701">
        <ele>600.5</ele>
        <time>2022-06-11T09:23:58Z</time>
      </trkpt>
      <trkpt lat="46.58051" lon="5.57006">
        <ele>601.7</ele>
        <time>2022-06-11T09:24:08Z</time>
      </trkpt>
      <trkpt lat="46.58048" lon="5.57001">
        <ele>602.2</ele>
        <time>2022-06-11T09:24:17Z</time>
      </trkpt>
      <trkpt lat="46.58046" lon="5.56994">
        <ele>601.6</ele>
        <time>2022-06-11T09:24:30Z</time>
      </trkpt>
      <trkpt lat="46.58043" lon="5.57">
        <ele>596.9</ele>
        <time>2022-06-11T09:25:08Z</time>
      </trkpt>
      <trkpt lat="46.58038" lon="5.57002">
        <ele>595.9</ele>
        <time>2022-06-11T09:25:18Z</time>
      </trkpt>
      <trkpt lat="46.58039" lon="5.56995">
        <ele>593.5</ele>
        <time>2022-06-11T09:25:30Z</time>
      </trkpt>
      <trkpt lat="46.58043" lon="5.56999">
        <ele>593.3</ele>
        <time>2022-06-11T09:25:39Z</time>
      </trkpt>
      <trkpt lat="46.58047" lon="5.56996">
        <ele>593.5</ele>
        <time>2022-06-11T09:26:08Z</time>
      </trkpt>
      <trkpt lat="46.58051" lon="5.57">
        <ele>592</ele>
        <time>2022-06-11T09:26:26Z</time>
      </trkpt>
      <trkpt lat="46.58055" lon="5.57002">
        <ele>592.6</ele>
        <time>2022-06-11T09:26:33Z</time>
      </trkpt>
      <trkpt lat="46.58053" lon="5.56997">
        <ele>599.8</ele>
        <time>2022-06-11T09:28:48Z</time>
      </trkpt>
      <trkpt lat="46.58048" lon="5.57">
        <ele>597.8</ele>
        <time>2022-06-11T09:29:19Z</time>
      </trkpt>
      <trkpt lat="46.58043" lon="5.57001">
        <ele>597.6</ele>
        <time>2022-06-11T09:29:24Z</time>
      </trkpt>
      <trkpt lat="46.58048" lon="5.57">
        <ele>597.1</ele>
        <time>2022-06-11T09:29:38Z</time>
      </trkpt>
      <trkpt lat="46.58052" lon="5.57003">
        <ele>595.5</ele>
        <time>2022-06-11T09:29:56Z</time>
      </trkpt>
      <trkpt lat="46.58053" lon="5.56996">
        <ele>597</ele>
        <time>2022-06-11T09:31:08Z</time>
      </trkpt>
      <trkpt lat="46.5805" lon="5.57001">
        <ele>597.1</ele>
        <time>2022-06-11T09:31:15Z</time>
      </trkpt>
      <trkpt lat="46.58046" lon="5.57007">
        <ele>597.4</ele>
        <time>2022-06-11T09:31:19Z</time>
      </trkpt>
      <trkpt lat="46.58042" lon="5.5701">
        <ele>597.6</ele>
        <time>2022-06-11T09:31:23Z</time>
      </trkpt>
      <trkpt lat="46.58037" lon="5.57012">
        <ele>598.1</ele>
        <time>2022-06-11T09:31:30Z</time>
      </trkpt>
      <trkpt lat="46.58033" lon="5.57009">
        <ele>597.8</ele>
        <time>2022-06-11T09:31:38Z</time>
      </trkpt>
      <trkpt lat="46.58027" lon="5.5701">
        <ele>596.8</ele>
        <time>2022-06-11T09:31:43Z</time>
      </trkpt>
      <trkpt lat="46.58023" lon="5.57006">
        <ele>595.4</ele>
        <time>2022-06-11T09:31:51Z</time>
      </trkpt>
      <trkpt lat="46.58024" lon="5.56999">
        <ele>594.7</ele>
        <time>2022-06-11T09:31:55Z</time>
      </trkpt>
      <trkpt lat="46.58022" lon="5.56993">
        <ele>591.4</ele>
        <time>2022-06-11T09:32:08Z</time>
      </trkpt>
      <trkpt lat="46.58017" lon="5.56992">
        <ele>586.8</ele>
        <time>2022-06-11T09:32:14Z</time>
      </trkpt>
      <trkpt lat="46.58012" lon="5.56987">
        <ele>585.7</ele>
        <time>2022-06-11T09:32:17Z</time>
      </trkpt>
      <trkpt lat="46.58006" lon="5.56983">
        <ele>585.4</ele>
        <time>2022-06-11T09:32:20Z</time>
      </trkpt>
      <trkpt lat="46.58001" lon="5.56981">
        <ele>585.7</ele>
        <time>2022-06-11T09:32:24Z</time>
      </trkpt>
      <trkpt lat="46.57996" lon="5.56978">
        <ele>587</ele>
        <time>2022-06-11T09:32:29Z</time>
      </trkpt>
      <trkpt lat="46.57993" lon="5.56974">
        <ele>587.3</ele>
        <time>2022-06-11T09:32:33Z</time>
      </trkpt>
      <trkpt lat="46.57988" lon="5.5697">
        <ele>587.3</ele>
        <time>2022-06-11T09:32:38Z</time>
      </trkpt>
      <trkpt lat="46.57983" lon="5.56967">
        <ele>587.2</ele>
        <time>2022-06-11T09:32:44Z</time>
      </trkpt>
      <trkpt lat="46.57979" lon="5.56967">
        <ele>586.8</ele>
        <time>2022-06-11T09:32:50Z</time>
      </trkpt>
      <trkpt lat="46.57975" lon="5.56971">
        <ele>586.2</ele>
        <time>2022-06-11T09:32:58Z</time>
      </trkpt>
      <trkpt lat="46.5797" lon="5.56974">
        <ele>586.3</ele>
        <time>2022-06-11T09:33:02Z</time>
      </trkpt>
      <trkpt lat="46.57965" lon="5.56975">
        <ele>586.2</ele>
        <time>2022-06-11T09:33:06Z</time>
      </trkpt>
      <trkpt lat="46.57959" lon="5.56974">
        <ele>586</ele>
        <time>2022-06-11T09:33:11Z</time>
      </trkpt>
      <trkpt lat="46.57955" lon="5.5697">
        <ele>585.7</ele>
        <time>2022-06-11T09:33:16Z</time>
      </trkpt>
      <trkpt lat="46.57949" lon="5.56969">
        <ele>585.7</ele>
        <time>2022-06-11T09:33:20Z</time>
      </trkpt>
      <trkpt lat="46.57945" lon="5.56971">
        <ele>585.8</ele>
        <time>2022-06-11T09:33:25Z</time>
      </trkpt>
      <trkpt lat="46.5794" lon="5.56968">
        <ele>586.4</ele>
        <time>2022-06-11T09:33:29Z</time>
      </trkpt>
      <trkpt lat="46.57935" lon="5.56966">
        <ele>586.9</ele>
        <time>2022-06-11T09:33:33Z</time>
      </trkpt>
      <trkpt lat="46.5793" lon="5.56965">
        <ele>587.1</ele>
        <time>2022-06-11T09:33:37Z</time>
      </trkpt>
      <trkpt lat="46.57925" lon="5.56966">
        <ele>587.5</ele>
        <time>2022-06-11T09:33:42Z</time>
      </trkpt>
      <trkpt lat="46.5792" lon="5.56968">
        <ele>587.9</ele>
        <time>2022-06-11T09:33:50Z</time>
      </trkpt>
      <trkpt lat="46.57915" lon="5.56969">
        <ele>588.3</ele>
        <time>2022-06-11T09:33:55Z</time>
      </trkpt>
      <trkpt lat="46.5791" lon="5.56968">
        <ele>588.7</ele>
        <time>2022-06-11T09:34:01Z</time>
      </trkpt>
      <trkpt lat="46.57905" lon="5.56968">
        <ele>588.9</ele>
        <time>2022-06-11T09:34:04Z</time>
      </trkpt>
      <trkpt lat="46.579" lon="5.56969">
        <ele>589.1</ele>
        <time>2022-06-11T09:34:08Z</time>
      </trkpt>
      <trkpt lat="46.57895" lon="5.56966">
        <ele>588.9</ele>
        <time>2022-06-11T09:34:14Z</time>
      </trkpt>
      <trkpt lat="46.57891" lon="5.56962">
        <ele>588.8</ele>
        <time>2022-06-11T09:34:19Z</time>
      </trkpt>
      <trkpt lat="46.57887" lon="5.56958">
        <ele>588.3</ele>
        <time>2022-06-11T09:34:23Z</time>
      </trkpt>
      <trkpt lat="46.57883" lon="5.56954">
        <ele>587.9</ele>
        <time>2022-06-11T09:34:27Z</time>
      </trkpt>
      <trkpt lat="46.57879" lon="5.56951">
        <ele>588.4</ele>
        <time>2022-06-11T09:34:31Z</time>
      </trkpt>
      <trkpt lat="46.57875" lon="5.56946">
        <ele>589.4</ele>
        <time>2022-06-11T09:34:37Z</time>
      </trkpt>
      <trkpt lat="46.5787" lon="5.56946">
        <ele>590.3</ele>
        <time>2022-06-11T09:34:42Z</time>
      </trkpt>
      <trkpt lat="46.57864" lon="5.56946">
        <ele>590.9</ele>
        <time>2022-06-11T09:34:47Z</time>
      </trkpt>
      <trkpt lat="46.5786" lon="5.56942">
        <ele>590.9</ele>
        <time>2022-06-11T09:34:52Z</time>
      </trkpt>
      <trkpt lat="46.57856" lon="5.56938">
        <ele>590.9</ele>
        <time>2022-06-11T09:34:58Z</time>
      </trkpt>
      <trkpt lat="46.57852" lon="5.56932">
        <ele>591.2</ele>
        <time>2022-06-11T09:35:03Z</time>
      </trkpt>
      <trkpt lat="46.57849" lon="5.56928">
        <ele>591.2</ele>
        <time>2022-06-11T09:35:07Z</time>
      </trkpt>
      <trkpt lat="46.57844" lon="5.5693">
        <ele>590.7</ele>
        <time>2022-06-11T09:35:17Z</time>
      </trkpt>
      <trkpt lat="46.57838" lon="5.5693">
        <ele>589.9</ele>
        <time>2022-06-11T09:35:21Z</time>
      </trkpt>
      <trkpt lat="46.57832" lon="5.56929">
        <ele>589.3</ele>
        <time>2022-06-11T09:35:25Z</time>
      </trkpt>
      <trkpt lat="46.57828" lon="5.56926">
        <ele>588.8</ele>
        <time>2022-06-11T09:35:29Z</time>
      </trkpt>
      <trkpt lat="46.57823" lon="5.56921">
        <ele>588.3</ele>
        <time>2022-06-11T09:35:33Z</time>
      </trkpt>
      <trkpt lat="46.57818" lon="5.56917">
        <ele>588</ele>
        <time>2022-06-11T09:35:37Z</time>
      </trkpt>
      <trkpt lat="46.57813" lon="5.56914">
        <ele>588.1</ele>
        <time>2022-06-11T09:35:41Z</time>
      </trkpt>
      <trkpt lat="46.57808" lon="5.56913">
        <ele>588.6</ele>
        <time>2022-06-11T09:35:45Z</time>
      </trkpt>
      <trkpt lat="46.57803" lon="5.56913">
        <ele>588.7</ele>
        <time>2022-06-11T09:35:49Z</time>
      </trkpt>
      <trkpt lat="46.57798" lon="5.56915">
        <ele>589.7</ele>
        <time>2022-06-11T09:35:55Z</time>
      </trkpt>
      <trkpt lat="46.57793" lon="5.56917">
        <ele>590.2</ele>
        <time>2022-06-11T09:36:02Z</time>
      </trkpt>
      <trkpt lat="46.57788" lon="5.56918">
        <ele>589.6</ele>
        <time>2022-06-11T09:36:07Z</time>
      </trkpt>
      <trkpt lat="46.57783" lon="5.56919">
        <ele>589.2</ele>
        <time>2022-06-11T09:36:11Z</time>
      </trkpt>
      <trkpt lat="46.57779" lon="5.56919">
        <ele>589</ele>
        <time>2022-06-11T09:36:15Z</time>
      </trkpt>
      <trkpt lat="46.57773" lon="5.56919">
        <ele>588.9</ele>
        <time>2022-06-11T09:36:20Z</time>
      </trkpt>
      <trkpt lat="46.57768" lon="5.5692">
        <ele>588.7</ele>
        <time>2022-06-11T09:36:26Z</time>
      </trkpt>
      <trkpt lat="46.57764" lon="5.56917">
        <ele>588.8</ele>
        <time>2022-06-11T09:36:31Z</time>
      </trkpt>
      <trkpt lat="46.57762" lon="5.5691">
        <ele>588.4</ele>
        <time>2022-06-11T09:36:39Z</time>
      </trkpt>
      <trkpt lat="46.57757" lon="5.56907">
        <ele>588.1</ele>
        <time>2022-06-11T09:36:43Z</time>
      </trkpt>
      <trkpt lat="46.57753" lon="5.56909">
        <ele>587.2</ele>
        <time>2022-06-11T09:36:49Z</time>
      </trkpt>
      <trkpt lat="46.57747" lon="5.56908">
        <ele>586.5</ele>
        <time>2022-06-11T09:36:55Z</time>
      </trkpt>
      <trkpt lat="46.57743" lon="5.56905">
        <ele>586.1</ele>
        <time>2022-06-11T09:36:59Z</time>
      </trkpt>
      <trkpt lat="46.57738" lon="5.56904">
        <ele>585.7</ele>
        <time>2022-06-11T09:37:03Z</time>
      </trkpt>
      <trkpt lat="46.57734" lon="5.56901">
        <ele>584.9</ele>
        <time>2022-06-11T09:37:09Z</time>
      </trkpt>
      <trkpt lat="46.5773" lon="5.56899">
        <ele>583.8</ele>
        <time>2022-06-11T09:37:15Z</time>
      </trkpt>
      <trkpt lat="46.57726" lon="5.56896">
        <ele>583.3</ele>
        <time>2022-06-11T09:37:18Z</time>
      </trkpt>
      <trkpt lat="46.57722" lon="5.56892">
        <ele>582.9</ele>
        <time>2022-06-11T09:37:21Z</time>
      </trkpt>
      <trkpt lat="46.57718" lon="5.56888">
        <ele>582.6</ele>
        <time>2022-06-11T09:37:24Z</time>
      </trkpt>
      <trkpt lat="46.57715" lon="5.56883">
        <ele>582.7</ele>
        <time>2022-06-11T09:37:27Z</time>
      </trkpt>
      <trkpt lat="46.5771" lon="5.56878">
        <ele>582.6</ele>
        <time>2022-06-11T09:37:32Z</time>
      </trkpt>
      <trkpt lat="46.57706" lon="5.56874">
        <ele>582.6</ele>
        <time>2022-06-11T09:37:36Z</time>
      </trkpt>
      <trkpt lat="46.57702" lon="5.5687">
        <ele>582.6</ele>
        <time>2022-06-11T09:37:40Z</time>
      </trkpt>
      <trkpt lat="46.57697" lon="5.56869">
        <ele>582.6</ele>
        <time>2022-06-11T09:37:45Z</time>
      </trkpt>
      <trkpt lat="46.57691" lon="5.56868">
        <ele>582.3</ele>
        <time>2022-06-11T09:37:51Z</time>
      </trkpt>
      <trkpt lat="46.57687" lon="5.56865">
        <ele>582.2</ele>
        <time>2022-06-11T09:37:54Z</time>
      </trkpt>
      <trkpt lat="46.57683" lon="5.5686">
        <ele>582.1</ele>
        <time>2022-06-11T09:37:57Z</time>
      </trkpt>
      <trkpt lat="46.57678" lon="5.56856">
        <ele>582</ele>
        <time>2022-06-11T09:38:01Z</time>
      </trkpt>
      <trkpt lat="46.57674" lon="5.56852">
        <ele>581.1</ele>
        <time>2022-06-11T09:38:07Z</time>
      </trkpt>
      <trkpt lat="46.57669" lon="5.56849">
        <ele>580.1</ele>
        <time>2022-06-11T09:38:12Z</time>
      </trkpt>
      <trkpt lat="46.57664" lon="5.56847">
        <ele>578.9</ele>
        <time>2022-06-11T09:38:18Z</time>
      </trkpt>
      <trkpt lat="46.5766" lon="5.56843">
        <ele>576.8</ele>
        <time>2022-06-11T09:38:24Z</time>
      </trkpt>
      <trkpt lat="46.57656" lon="5.56839">
        <ele>575.8</ele>
        <time>2022-06-11T09:38:28Z</time>
      </trkpt>
      <trkpt lat="46.57651" lon="5.56837">
        <ele>575.3</ele>
        <time>2022-06-11T09:38:33Z</time>
      </trkpt>
      <trkpt lat="46.57646" lon="5.56834">
        <ele>574.7</ele>
        <time>2022-06-11T09:38:39Z</time>
      </trkpt>
      <trkpt lat="46.57642" lon="5.5683">
        <ele>573.9</ele>
        <time>2022-06-11T09:38:44Z</time>
      </trkpt>
      <trkpt lat="46.57638" lon="5.56825">
        <ele>573.6</ele>
        <time>2022-06-11T09:38:49Z</time>
      </trkpt>
      <trkpt lat="46.57634" lon="5.56821">
        <ele>573.3</ele>
        <time>2022-06-11T09:38:53Z</time>
      </trkpt>
      <trkpt lat="46.57631" lon="5.56816">
        <ele>572.3</ele>
        <time>2022-06-11T09:38:57Z</time>
      </trkpt>
      <trkpt lat="46.57627" lon="5.56812">
        <ele>571.7</ele>
        <time>2022-06-11T09:39:01Z</time>
      </trkpt>
      <trkpt lat="46.57623" lon="5.56809">
        <ele>571.2</ele>
        <time>2022-06-11T09:39:07Z</time>
      </trkpt>
      <trkpt lat="46.5762" lon="5.56805">
        <ele>571.1</ele>
        <time>2022-06-11T09:39:12Z</time>
      </trkpt>
      <trkpt lat="46.57616" lon="5.568">
        <ele>571</ele>
        <time>2022-06-11T09:39:16Z</time>
      </trkpt>
      <trkpt lat="46.57613" lon="5.56794">
        <ele>571.1</ele>
        <time>2022-06-11T09:39:20Z</time>
      </trkpt>
      <trkpt lat="46.57611" lon="5.56787">
        <ele>571.4</ele>
        <time>2022-06-11T09:39:24Z</time>
      </trkpt>
      <trkpt lat="46.5761" lon="5.56781">
        <ele>571.6</ele>
        <time>2022-06-11T09:39:28Z</time>
      </trkpt>
      <trkpt lat="46.57606" lon="5.56776">
        <ele>571.3</ele>
        <time>2022-06-11T09:39:34Z</time>
      </trkpt>
      <trkpt lat="46.57603" lon="5.56769">
        <ele>570.3</ele>
        <time>2022-06-11T09:39:39Z</time>
      </trkpt>
      <trkpt lat="46.57601" lon="5.56763">
        <ele>569.8</ele>
        <time>2022-06-11T09:39:42Z</time>
      </trkpt>
      <trkpt lat="46.57599" lon="5.56756">
        <ele>569.5</ele>
        <time>2022-06-11T09:39:46Z</time>
      </trkpt>
      <trkpt lat="46.57597" lon="5.56749">
        <ele>569.3</ele>
        <time>2022-06-11T09:39:49Z</time>
      </trkpt>
      <trkpt lat="46.57595" lon="5.56743">
        <ele>569.2</ele>
        <time>2022-06-11T09:39:53Z</time>
      </trkpt>
      <trkpt lat="46.57592" lon="5.56737">
        <ele>568.6</ele>
        <time>2022-06-11T09:39:59Z</time>
      </trkpt>
      <trkpt lat="46.57587" lon="5.56732">
        <ele>567.4</ele>
        <time>2022-06-11T09:40:04Z</time>
      </trkpt>
      <trkpt lat="46.57582" lon="5.56729">
        <ele>566.6</ele>
        <time>2022-06-11T09:40:08Z</time>
      </trkpt>
      <trkpt lat="46.57577" lon="5.56725">
        <ele>566</ele>
        <time>2022-06-11T09:40:12Z</time>
      </trkpt>
      <trkpt lat="46.57573" lon="5.56721">
        <ele>565.5</ele>
        <time>2022-06-11T09:40:16Z</time>
      </trkpt>
      <trkpt lat="46.57568" lon="5.56719">
        <ele>564.9</ele>
        <time>2022-06-11T09:40:20Z</time>
      </trkpt>
      <trkpt lat="46.57564" lon="5.56715">
        <ele>564.1</ele>
        <time>2022-06-11T09:40:25Z</time>
      </trkpt>
      <trkpt lat="46.5756" lon="5.5671">
        <ele>562.9</ele>
        <time>2022-06-11T09:40:31Z</time>
      </trkpt>
      <trkpt lat="46.57556" lon="5.56707">
        <ele>561.7</ele>
        <time>2022-06-11T09:40:38Z</time>
      </trkpt>
      <trkpt lat="46.5755" lon="5.56707">
        <ele>561.1</ele>
        <time>2022-06-11T09:40:43Z</time>
      </trkpt>
      <trkpt lat="46.57546" lon="5.56705">
        <ele>560</ele>
        <time>2022-06-11T09:40:51Z</time>
      </trkpt>
      <trkpt lat="46.57541" lon="5.56701">
        <ele>559.8</ele>
        <time>2022-06-11T09:40:55Z</time>
      </trkpt>
      <trkpt lat="46.57535" lon="5.567">
        <ele>559.8</ele>
        <time>2022-06-11T09:40:58Z</time>
      </trkpt>
      <trkpt lat="46.5753" lon="5.56699">
        <ele>559.9</ele>
        <time>2022-06-11T09:41:01Z</time>
      </trkpt>
      <trkpt lat="46.57525" lon="5.56696">
        <ele>560.1</ele>
        <time>2022-06-11T09:41:05Z</time>
      </trkpt>
      <trkpt lat="46.57521" lon="5.56693">
        <ele>559.8</ele>
        <time>2022-06-11T09:41:09Z</time>
      </trkpt>
      <trkpt lat="46.57515" lon="5.56692">
        <ele>559.9</ele>
        <time>2022-06-11T09:41:13Z</time>
      </trkpt>
      <trkpt lat="46.5751" lon="5.56689">
        <ele>560.6</ele>
        <time>2022-06-11T09:41:16Z</time>
      </trkpt>
      <trkpt lat="46.57505" lon="5.56686">
        <ele>561.9</ele>
        <time>2022-06-11T09:41:20Z</time>
      </trkpt>
      <trkpt lat="46.57504" lon="5.56679">
        <ele>562</ele>
        <time>2022-06-11T09:41:25Z</time>
      </trkpt>
      <trkpt lat="46.57499" lon="5.56677">
        <ele>558.5</ele>
        <time>2022-06-11T09:41:36Z</time>
      </trkpt>
      <trkpt lat="46.57494" lon="5.56676">
        <ele>557.3</ele>
        <time>2022-06-11T09:41:40Z</time>
      </trkpt>
      <trkpt lat="46.57489" lon="5.56678">
        <ele>555.9</ele>
        <time>2022-06-11T09:41:45Z</time>
      </trkpt>
      <trkpt lat="46.57484" lon="5.56679">
        <ele>555.2</ele>
        <time>2022-06-11T09:41:48Z</time>
      </trkpt>
      <trkpt lat="46.57479" lon="5.56678">
        <ele>554.5</ele>
        <time>2022-06-11T09:41:51Z</time>
      </trkpt>
      <trkpt lat="46.57474" lon="5.56676">
        <ele>554</ele>
        <time>2022-06-11T09:41:54Z</time>
      </trkpt>
      <trkpt lat="46.57469" lon="5.56674">
        <ele>553.7</ele>
        <time>2022-06-11T09:41:57Z</time>
      </trkpt>
      <trkpt lat="46.57463" lon="5.56672">
        <ele>552.9</ele>
        <time>2022-06-11T09:42:01Z</time>
      </trkpt>
      <trkpt lat="46.5746" lon="5.56677">
        <ele>551.4</ele>
        <time>2022-06-11T09:42:05Z</time>
      </trkpt>
      <trkpt lat="46.57455" lon="5.56678">
        <ele>549.9</ele>
        <time>2022-06-11T09:42:09Z</time>
      </trkpt>
      <trkpt lat="46.57449" lon="5.56677">
        <ele>548.1</ele>
        <time>2022-06-11T09:42:15Z</time>
      </trkpt>
      <trkpt lat="46.57444" lon="5.56678">
        <ele>547.2</ele>
        <time>2022-06-11T09:42:22Z</time>
      </trkpt>
      <trkpt lat="46.5744" lon="5.56675">
        <ele>547.5</ele>
        <time>2022-06-11T09:42:27Z</time>
      </trkpt>
      <trkpt lat="46.57435" lon="5.56675">
        <ele>548.1</ele>
        <time>2022-06-11T09:42:32Z</time>
      </trkpt>
      <trkpt lat="46.57435" lon="5.56683">
        <ele>546.8</ele>
        <time>2022-06-11T09:42:38Z</time>
      </trkpt>
      <trkpt lat="46.5743" lon="5.56685">
        <ele>545.8</ele>
        <time>2022-06-11T09:42:43Z</time>
      </trkpt>
      <trkpt lat="46.57425" lon="5.56684">
        <ele>544.9</ele>
        <time>2022-06-11T09:42:47Z</time>
      </trkpt>
      <trkpt lat="46.5742" lon="5.56685">
        <ele>544.1</ele>
        <time>2022-06-11T09:42:51Z</time>
      </trkpt>
      <trkpt lat="46.57413" lon="5.56683">
        <ele>543.9</ele>
        <time>2022-06-11T09:42:54Z</time>
      </trkpt>
      <trkpt lat="46.57407" lon="5.56682">
        <ele>543.9</ele>
        <time>2022-06-11T09:42:57Z</time>
      </trkpt>
      <trkpt lat="46.57402" lon="5.5668">
        <ele>543.7</ele>
        <time>2022-06-11T09:43:03Z</time>
      </trkpt>
      <trkpt lat="46.57397" lon="5.56678">
        <ele>543.5</ele>
        <time>2022-06-11T09:43:08Z</time>
      </trkpt>
      <trkpt lat="46.57393" lon="5.56676">
        <ele>543.7</ele>
        <time>2022-06-11T09:43:12Z</time>
      </trkpt>
      <trkpt lat="46.57389" lon="5.56673">
        <ele>544.7</ele>
        <time>2022-06-11T09:43:15Z</time>
      </trkpt>
      <trkpt lat="46.57385" lon="5.56667">
        <ele>546.2</ele>
        <time>2022-06-11T09:43:19Z</time>
      </trkpt>
      <trkpt lat="46.57379" lon="5.56665">
        <ele>547.2</ele>
        <time>2022-06-11T09:43:23Z</time>
      </trkpt>
      <trkpt lat="46.57375" lon="5.56664">
        <ele>547.7</ele>
        <time>2022-06-11T09:43:27Z</time>
      </trkpt>
      <trkpt lat="46.57369" lon="5.56661">
        <ele>547.9</ele>
        <time>2022-06-11T09:43:31Z</time>
      </trkpt>
      <trkpt lat="46.57364" lon="5.5666">
        <ele>548</ele>
        <time>2022-06-11T09:43:36Z</time>
      </trkpt>
      <trkpt lat="46.57358" lon="5.56657">
        <ele>548.4</ele>
        <time>2022-06-11T09:43:43Z</time>
      </trkpt>
      <trkpt lat="46.57353" lon="5.56653">
        <ele>549.3</ele>
        <time>2022-06-11T09:43:46Z</time>
      </trkpt>
      <trkpt lat="46.57347" lon="5.56648">
        <ele>550.6</ele>
        <time>2022-06-11T09:43:49Z</time>
      </trkpt>
      <trkpt lat="46.57341" lon="5.56645">
        <ele>551.8</ele>
        <time>2022-06-11T09:43:52Z</time>
      </trkpt>
      <trkpt lat="46.57337" lon="5.56645">
        <ele>552.8</ele>
        <time>2022-06-11T09:43:55Z</time>
      </trkpt>
      <trkpt lat="46.57332" lon="5.56647">
        <ele>553.9</ele>
        <time>2022-06-11T09:44:00Z</time>
      </trkpt>
      <trkpt lat="46.57327" lon="5.56646">
        <ele>554.2</ele>
        <time>2022-06-11T09:44:04Z</time>
      </trkpt>
      <trkpt lat="46.57322" lon="5.56644">
        <ele>554.4</ele>
        <time>2022-06-11T09:44:08Z</time>
      </trkpt>
      <trkpt lat="46.57318" lon="5.56644">
        <ele>554.4</ele>
        <time>2022-06-11T09:44:16Z</time>
      </trkpt>
      <trkpt lat="46.57318" lon="5.56653">
        <ele>553.7</ele>
        <time>2022-06-11T09:44:19Z</time>
      </trkpt>
      <trkpt lat="46.57315" lon="5.56658">
        <ele>551.2</ele>
        <time>2022-06-11T09:44:25Z</time>
      </trkpt>
      <trkpt lat="46.57312" lon="5.56654">
        <ele>554.6</ele>
        <time>2022-06-11T09:44:35Z</time>
      </trkpt>
      <trkpt lat="46.57307" lon="5.56651">
        <ele>561.5</ele>
        <time>2022-06-11T09:44:46Z</time>
      </trkpt>
      <trkpt lat="46.57303" lon="5.56645">
        <ele>563.3</ele>
        <time>2022-06-11T09:44:51Z</time>
      </trkpt>
      <trkpt lat="46.57299" lon="5.56641">
        <ele>562.3</ele>
        <time>2022-06-11T09:44:55Z</time>
      </trkpt>
      <trkpt lat="46.57294" lon="5.56641">
        <ele>559.3</ele>
        <time>2022-06-11T09:45:00Z</time>
      </trkpt>
      <trkpt lat="46.57289" lon="5.56642">
        <ele>556.5</ele>
        <time>2022-06-11T09:45:05Z</time>
      </trkpt>
      <trkpt lat="46.57284" lon="5.5664">
        <ele>554.9</ele>
        <time>2022-06-11T09:45:10Z</time>
      </trkpt>
      <trkpt lat="46.57279" lon="5.56641">
        <ele>553</ele>
        <time>2022-06-11T09:45:26Z</time>
      </trkpt>
      <trkpt lat="46.57274" lon="5.56638">
        <ele>553</ele>
        <time>2022-06-11T09:45:30Z</time>
      </trkpt>
      <trkpt lat="46.5727" lon="5.56638">
        <ele>552.2</ele>
        <time>2022-06-11T09:45:34Z</time>
      </trkpt>
      <trkpt lat="46.57265" lon="5.56636">
        <ele>552.1</ele>
        <time>2022-06-11T09:45:37Z</time>
      </trkpt>
      <trkpt lat="46.5726" lon="5.56634">
        <ele>552.4</ele>
        <time>2022-06-11T09:45:40Z</time>
      </trkpt>
      <trkpt lat="46.57257" lon="5.5663">
        <ele>553</ele>
        <time>2022-06-11T09:45:44Z</time>
      </trkpt>
      <trkpt lat="46.57252" lon="5.56625">
        <ele>553.7</ele>
        <time>2022-06-11T09:45:48Z</time>
      </trkpt>
      <trkpt lat="46.57249" lon="5.5662">
        <ele>554.2</ele>
        <time>2022-06-11T09:45:51Z</time>
      </trkpt>
      <trkpt lat="46.57244" lon="5.56615">
        <ele>554.6</ele>
        <time>2022-06-11T09:45:55Z</time>
      </trkpt>
      <trkpt lat="46.5724" lon="5.56613">
        <ele>554.5</ele>
        <time>2022-06-11T09:46:00Z</time>
      </trkpt>
      <trkpt lat="46.57235" lon="5.5661">
        <ele>554.5</ele>
        <time>2022-06-11T09:46:04Z</time>
      </trkpt>
      <trkpt lat="46.5723" lon="5.56607">
        <ele>554.5</ele>
        <time>2022-06-11T09:46:08Z</time>
      </trkpt>
      <trkpt lat="46.57227" lon="5.56601">
        <ele>554.5</ele>
        <time>2022-06-11T09:46:12Z</time>
      </trkpt>
      <trkpt lat="46.57222" lon="5.566">
        <ele>554.7</ele>
        <time>2022-06-11T09:46:17Z</time>
      </trkpt>
      <trkpt lat="46.57217" lon="5.566">
        <ele>554.9</ele>
        <time>2022-06-11T09:46:23Z</time>
      </trkpt>
      <trkpt lat="46.57213" lon="5.56597">
        <ele>554.9</ele>
        <time>2022-06-11T09:46:27Z</time>
      </trkpt>
      <trkpt lat="46.57209" lon="5.56591">
        <ele>554.7</ele>
        <time>2022-06-11T09:46:31Z</time>
      </trkpt>
      <trkpt lat="46.57203" lon="5.56587">
        <ele>554</ele>
        <time>2022-06-11T09:46:35Z</time>
      </trkpt>
      <trkpt lat="46.57197" lon="5.56583">
        <ele>553.8</ele>
        <time>2022-06-11T09:46:38Z</time>
      </trkpt>
      <trkpt lat="46.57193" lon="5.5658">
        <ele>554.5</ele>
        <time>2022-06-11T09:46:44Z</time>
      </trkpt>
      <trkpt lat="46.57188" lon="5.5658">
        <ele>554.5</ele>
        <time>2022-06-11T09:46:55Z</time>
      </trkpt>
      <trkpt lat="46.57183" lon="5.56583">
        <ele>554.5</ele>
        <time>2022-06-11T09:46:59Z</time>
      </trkpt>
      <trkpt lat="46.57179" lon="5.56589">
        <ele>554.6</ele>
        <time>2022-06-11T09:47:03Z</time>
      </trkpt>
      <trkpt lat="46.57174" lon="5.56591">
        <ele>554.6</ele>
        <time>2022-06-11T09:47:07Z</time>
      </trkpt>
      <trkpt lat="46.5717" lon="5.56596">
        <ele>554</ele>
        <time>2022-06-11T09:47:11Z</time>
      </trkpt>
      <trkpt lat="46.57165" lon="5.56599">
        <ele>553.1</ele>
        <time>2022-06-11T09:47:15Z</time>
      </trkpt>
      <trkpt lat="46.57161" lon="5.56603">
        <ele>551.9</ele>
        <time>2022-06-11T09:47:22Z</time>
      </trkpt>
      <trkpt lat="46.57157" lon="5.56605">
        <ele>552.9</ele>
        <time>2022-06-11T09:47:28Z</time>
      </trkpt>
      <trkpt lat="46.57152" lon="5.5661">
        <ele>553.3</ele>
        <time>2022-06-11T09:47:32Z</time>
      </trkpt>
      <trkpt lat="46.5715" lon="5.56616">
        <ele>553.4</ele>
        <time>2022-06-11T09:47:36Z</time>
      </trkpt>
      <trkpt lat="46.57146" lon="5.5662">
        <ele>553.8</ele>
        <time>2022-06-11T09:47:40Z</time>
      </trkpt>
      <trkpt lat="46.57141" lon="5.56623">
        <ele>554.4</ele>
        <time>2022-06-11T09:47:44Z</time>
      </trkpt>
      <trkpt lat="46.57136" lon="5.56625">
        <ele>554.9</ele>
        <time>2022-06-11T09:47:48Z</time>
      </trkpt>
      <trkpt lat="46.57131" lon="5.56627">
        <ele>555.7</ele>
        <time>2022-06-11T09:47:53Z</time>
      </trkpt>
      <trkpt lat="46.57125" lon="5.56627">
        <ele>556.5</ele>
        <time>2022-06-11T09:47:57Z</time>
      </trkpt>
      <trkpt lat="46.57119" lon="5.56626">
        <ele>557.2</ele>
        <time>2022-06-11T09:48:00Z</time>
      </trkpt>
      <trkpt lat="46.57114" lon="5.56625">
        <ele>558.4</ele>
        <time>2022-06-11T09:48:04Z</time>
      </trkpt>
      <trkpt lat="46.57109" lon="5.56625">
        <ele>559.7</ele>
        <time>2022-06-11T09:48:08Z</time>
      </trkpt>
      <trkpt lat="46.57104" lon="5.56625">
        <ele>560.3</ele>
        <time>2022-06-11T09:48:12Z</time>
      </trkpt>
      <trkpt lat="46.57099" lon="5.56626">
        <ele>560.4</ele>
        <time>2022-06-11T09:48:18Z</time>
      </trkpt>
      <trkpt lat="46.57094" lon="5.56628">
        <ele>560.1</ele>
        <time>2022-06-11T09:48:24Z</time>
      </trkpt>
      <trkpt lat="46.57089" lon="5.56629">
        <ele>559.8</ele>
        <time>2022-06-11T09:48:29Z</time>
      </trkpt>
      <trkpt lat="46.57085" lon="5.56632">
        <ele>559.7</ele>
        <time>2022-06-11T09:48:32Z</time>
      </trkpt>
      <trkpt lat="46.57081" lon="5.56632">
        <ele>559.5</ele>
        <time>2022-06-11T09:48:36Z</time>
      </trkpt>
      <trkpt lat="46.57075" lon="5.56632">
        <ele>558.7</ele>
        <time>2022-06-11T09:48:40Z</time>
      </trkpt>
      <trkpt lat="46.5707" lon="5.56632">
        <ele>557.6</ele>
        <time>2022-06-11T09:48:45Z</time>
      </trkpt>
      <trkpt lat="46.57065" lon="5.56632">
        <ele>556.2</ele>
        <time>2022-06-11T09:48:51Z</time>
      </trkpt>
      <trkpt lat="46.57059" lon="5.56633">
        <ele>553.9</ele>
        <time>2022-06-11T09:48:58Z</time>
      </trkpt>
      <trkpt lat="46.57055" lon="5.56635">
        <ele>552.9</ele>
        <time>2022-06-11T09:49:02Z</time>
      </trkpt>
      <trkpt lat="46.57051" lon="5.56639">
        <ele>552.4</ele>
        <time>2022-06-11T09:49:07Z</time>
      </trkpt>
      <trkpt lat="46.57046" lon="5.5664">
        <ele>552.8</ele>
        <time>2022-06-11T09:49:12Z</time>
      </trkpt>
      <trkpt lat="46.57041" lon="5.56642">
        <ele>553.6</ele>
        <time>2022-06-11T09:49:17Z</time>
      </trkpt>
      <trkpt lat="46.57036" lon="5.56642">
        <ele>554.5</ele>
        <time>2022-06-11T09:49:20Z</time>
      </trkpt>
      <trkpt lat="46.57031" lon="5.56641">
        <ele>556.3</ele>
        <time>2022-06-11T09:49:26Z</time>
      </trkpt>
      <trkpt lat="46.57027" lon="5.56643">
        <ele>556</ele>
        <time>2022-06-11T09:49:31Z</time>
      </trkpt>
      <trkpt lat="46.57022" lon="5.5664">
        <ele>555.2</ele>
        <time>2022-06-11T09:49:36Z</time>
      </trkpt>
      <trkpt lat="46.57019" lon="5.56646">
        <ele>553.7</ele>
        <time>2022-06-11T09:49:43Z</time>
      </trkpt>
      <trkpt lat="46.57014" lon="5.56644">
        <ele>552.2</ele>
        <time>2022-06-11T09:49:51Z</time>
      </trkpt>
      <trkpt lat="46.57016" lon="5.56651">
        <ele>551.5</ele>
        <time>2022-06-11T09:50:06Z</time>
      </trkpt>
      <trkpt lat="46.5702" lon="5.56653">
        <ele>550</ele>
        <time>2022-06-11T09:50:15Z</time>
      </trkpt>
      <trkpt lat="46.57017" lon="5.56648">
        <ele>549.8</ele>
        <time>2022-06-11T09:50:21Z</time>
      </trkpt>
      <trkpt lat="46.57012" lon="5.56643">
        <ele>550.2</ele>
        <time>2022-06-11T09:50:24Z</time>
      </trkpt>
      <trkpt lat="46.57008" lon="5.5664">
        <ele>551.7</ele>
        <time>2022-06-11T09:50:28Z</time>
      </trkpt>
      <trkpt lat="46.57003" lon="5.56642">
        <ele>554.4</ele>
        <time>2022-06-11T09:51:09Z</time>
      </trkpt>
      <trkpt lat="46.57004" lon="5.56635">
        <ele>557.7</ele>
        <time>2022-06-11T09:51:27Z</time>
      </trkpt>
      <trkpt lat="46.57005" lon="5.56629">
        <ele>558.3</ele>
        <time>2022-06-11T09:51:34Z</time>
      </trkpt>
      <trkpt lat="46.57007" lon="5.56623">
        <ele>558.2</ele>
        <time>2022-06-11T09:51:43Z</time>
      </trkpt>
      <trkpt lat="46.5701" lon="5.56618">
        <ele>556.9</ele>
        <time>2022-06-11T09:51:54Z</time>
      </trkpt>
      <trkpt lat="46.57009" lon="5.56611">
        <ele>556.3</ele>
        <time>2022-06-11T09:52:02Z</time>
      </trkpt>
      <trkpt lat="46.57005" lon="5.56603">
        <ele>555.3</ele>
        <time>2022-06-11T09:52:16Z</time>
      </trkpt>
      <trkpt lat="46.57004" lon="5.56597">
        <ele>555.3</ele>
        <time>2022-06-11T09:52:20Z</time>
      </trkpt>
      <trkpt lat="46.57002" lon="5.56591">
        <ele>555</ele>
        <time>2022-06-11T09:52:23Z</time>
      </trkpt>
      <trkpt lat="46.57" lon="5.56585">
        <ele>554.8</ele>
        <time>2022-06-11T09:52:26Z</time>
      </trkpt>
      <trkpt lat="46.57" lon="5.56578">
        <ele>554.7</ele>
        <time>2022-06-11T09:52:31Z</time>
      </trkpt>
      <trkpt lat="46.57005" lon="5.56579">
        <ele>554.9</ele>
        <time>2022-06-11T09:52:36Z</time>
      </trkpt>
      <trkpt lat="46.57007" lon="5.56584">
        <ele>555.4</ele>
        <time>2022-06-11T09:52:43Z</time>
      </trkpt>
      <trkpt lat="46.57008" lon="5.56577">
        <ele>553.7</ele>
        <time>2022-06-11T09:53:00Z</time>
      </trkpt>
      <trkpt lat="46.57007" lon="5.5657">
        <ele>553.9</ele>
        <time>2022-06-11T09:53:05Z</time>
      </trkpt>
      <trkpt lat="46.5701" lon="5.56563">
        <ele>554.4</ele>
        <time>2022-06-11T09:53:11Z</time>
      </trkpt>
      <trkpt lat="46.57006" lon="5.56558">
        <ele>554.2</ele>
        <time>2022-06-11T09:53:22Z</time>
      </trkpt>
      <trkpt lat="46.57012" lon="5.56556">
        <ele>551</ele>
        <time>2022-06-11T09:53:43Z</time>
      </trkpt>
      <trkpt lat="46.57017" lon="5.56559">
        <ele>550.6</ele>
        <time>2022-06-11T09:53:54Z</time>
      </trkpt>
      <trkpt lat="46.57012" lon="5.56554">
        <ele>547</ele>
        <time>2022-06-11T09:54:25Z</time>
      </trkpt>
      <trkpt lat="46.57009" lon="5.56548">
        <ele>546.8</ele>
        <time>2022-06-11T09:54:29Z</time>
      </trkpt>
      <trkpt lat="46.57007" lon="5.56541">
        <ele>550.5</ele>
        <time>2022-06-11T09:55:18Z</time>
      </trkpt>
      <trkpt lat="46.5701" lon="5.56536">
        <ele>550.4</ele>
        <time>2022-06-11T09:55:24Z</time>
      </trkpt>
      <trkpt lat="46.57014" lon="5.56532">
        <ele>550.2</ele>
        <time>2022-06-11T09:55:34Z</time>
      </trkpt>
      <trkpt lat="46.57015" lon="5.56525">
        <ele>551.3</ele>
        <time>2022-06-11T09:56:02Z</time>
      </trkpt>
      <trkpt lat="46.57018" lon="5.56519">
        <ele>552</ele>
        <time>2022-06-11T09:56:09Z</time>
      </trkpt>
      <trkpt lat="46.57019" lon="5.56512">
        <ele>552.8</ele>
        <time>2022-06-11T09:56:48Z</time>
      </trkpt>
      <trkpt lat="46.57017" lon="5.56506">
        <ele>550.8</ele>
        <time>2022-06-11T09:57:15Z</time>
      </trkpt>
      <trkpt lat="46.57014" lon="5.56501">
        <ele>549.8</ele>
        <time>2022-06-11T09:57:34Z</time>
      </trkpt>
      <trkpt lat="46.57014" lon="5.56494">
        <ele>548.9</ele>
        <time>2022-06-11T09:57:43Z</time>
      </trkpt>
      <trkpt lat="46.57018" lon="5.56489">
        <ele>548.5</ele>
        <time>2022-06-11T09:57:49Z</time>
      </trkpt>
      <trkpt lat="46.5702" lon="5.56484">
        <ele>549</ele>
        <time>2022-06-11T09:57:53Z</time>
      </trkpt>
      <trkpt lat="46.57021" lon="5.56477">
        <ele>550.3</ele>
        <time>2022-06-11T09:57:59Z</time>
      </trkpt>
      <trkpt lat="46.57021" lon="5.5647">
        <ele>550.8</ele>
        <time>2022-06-11T09:58:05Z</time>
      </trkpt>
      <trkpt lat="46.57023" lon="5.56463">
        <ele>550.5</ele>
        <time>2022-06-11T09:58:10Z</time>
      </trkpt>
      <trkpt lat="46.57021" lon="5.56455">
        <ele>550.3</ele>
        <time>2022-06-11T09:58:14Z</time>
      </trkpt>
      <trkpt lat="46.57021" lon="5.56449">
        <ele>550.1</ele>
        <time>2022-06-11T09:58:18Z</time>
      </trkpt>
      <trkpt lat="46.57022" lon="5.56441">
        <ele>550</ele>
        <time>2022-06-11T09:58:23Z</time>
      </trkpt>
      <trkpt lat="46.57024" lon="5.56435">
        <ele>550.5</ele>
        <time>2022-06-11T09:58:27Z</time>
      </trkpt>
      <trkpt lat="46.57024" lon="5.56441">
        <ele>551.7</ele>
        <time>2022-06-11T09:58:44Z</time>
      </trkpt>
      <trkpt lat="46.57022" lon="5.56449">
        <ele>552.3</ele>
        <time>2022-06-11T09:58:50Z</time>
      </trkpt>
      <trkpt lat="46.57024" lon="5.56455">
        <ele>552.5</ele>
        <time>2022-06-11T09:58:58Z</time>
      </trkpt>
      <trkpt lat="46.57026" lon="5.56462">
        <ele>552.3</ele>
        <time>2022-06-11T09:59:02Z</time>
      </trkpt>
      <trkpt lat="46.57026" lon="5.5647">
        <ele>552.4</ele>
        <time>2022-06-11T09:59:06Z</time>
      </trkpt>
      <trkpt lat="46.57024" lon="5.56476">
        <ele>552.3</ele>
        <time>2022-06-11T09:59:11Z</time>
      </trkpt>
      <trkpt lat="46.57021" lon="5.56483">
        <ele>551.7</ele>
        <time>2022-06-11T09:59:15Z</time>
      </trkpt>
      <trkpt lat="46.5702" lon="5.5649">
        <ele>549</ele>
        <time>2022-06-11T09:59:24Z</time>
      </trkpt>
      <trkpt lat="46.5702" lon="5.56497">
        <ele>547.1</ele>
        <time>2022-06-11T09:59:37Z</time>
      </trkpt>
      <trkpt lat="46.57015" lon="5.56505">
        <ele>545</ele>
        <time>2022-06-11T09:59:49Z</time>
      </trkpt>
      <trkpt lat="46.57012" lon="5.5651">
        <ele>544.4</ele>
        <time>2022-06-11T09:59:52Z</time>
      </trkpt>
      <trkpt lat="46.57015" lon="5.56515">
        <ele>543.5</ele>
        <time>2022-06-11T10:00:07Z</time>
      </trkpt>
      <trkpt lat="46.57017" lon="5.56522">
        <ele>542.9</ele>
        <time>2022-06-11T10:00:15Z</time>
      </trkpt>
      <trkpt lat="46.57016" lon="5.5653">
        <ele>545.3</ele>
        <time>2022-06-11T10:00:26Z</time>
      </trkpt>
      <trkpt lat="46.57013" lon="5.56534">
        <ele>546.1</ele>
        <time>2022-06-11T10:00:30Z</time>
      </trkpt>
      <trkpt lat="46.5701" lon="5.5654">
        <ele>546.8</ele>
        <time>2022-06-11T10:00:35Z</time>
      </trkpt>
      <trkpt lat="46.57009" lon="5.56547">
        <ele>546.9</ele>
        <time>2022-06-11T10:00:43Z</time>
      </trkpt>
      <trkpt lat="46.57007" lon="5.56554">
        <ele>547.8</ele>
        <time>2022-06-11T10:01:22Z</time>
      </trkpt>
      <trkpt lat="46.57011" lon="5.56558">
        <ele>549.7</ele>
        <time>2022-06-11T10:01:33Z</time>
      </trkpt>
      <trkpt lat="46.57016" lon="5.56564">
        <ele>549.6</ele>
        <time>2022-06-11T10:01:38Z</time>
      </trkpt>
      <trkpt lat="46.57018" lon="5.56569">
        <ele>549.3</ele>
        <time>2022-06-11T10:01:42Z</time>
      </trkpt>
      <trkpt lat="46.57014" lon="5.56566">
        <ele>549.4</ele>
        <time>2022-06-11T10:01:58Z</time>
      </trkpt>
      <trkpt lat="46.57011" lon="5.56559">
        <ele>550.3</ele>
        <time>2022-06-11T10:02:26Z</time>
      </trkpt>
      <trkpt lat="46.57009" lon="5.56551">
        <ele>549.9</ele>
        <time>2022-06-11T10:02:30Z</time>
      </trkpt>
      <trkpt lat="46.57008" lon="5.56544">
        <ele>550.5</ele>
        <time>2022-06-11T10:02:39Z</time>
      </trkpt>
      <trkpt lat="46.57009" lon="5.56537">
        <ele>550.5</ele>
        <time>2022-06-11T10:02:54Z</time>
      </trkpt>
      <trkpt lat="46.57011" lon="5.56531">
        <ele>549.5</ele>
        <time>2022-06-11T10:03:00Z</time>
      </trkpt>
      <trkpt lat="46.57013" lon="5.56524">
        <ele>548.5</ele>
        <time>2022-06-11T10:03:18Z</time>
      </trkpt>
      <trkpt lat="46.57011" lon="5.56518">
        <ele>548.1</ele>
        <time>2022-06-11T10:03:34Z</time>
      </trkpt>
      <trkpt lat="46.57013" lon="5.56511">
        <ele>548</ele>
        <time>2022-06-11T10:03:41Z</time>
      </trkpt>
      <trkpt lat="46.57016" lon="5.56505">
        <ele>548.2</ele>
        <time>2022-06-11T10:03:46Z</time>
      </trkpt>
      <trkpt lat="46.57014" lon="5.56499">
        <ele>549</ele>
        <time>2022-06-11T10:04:08Z</time>
      </trkpt>
      <trkpt lat="46.57013" lon="5.56492">
        <ele>549.1</ele>
        <time>2022-06-11T10:04:16Z</time>
      </trkpt>
      <trkpt lat="46.57018" lon="5.56492">
        <ele>547.4</ele>
        <time>2022-06-11T10:04:30Z</time>
      </trkpt>
      <trkpt lat="46.57022" lon="5.56489">
        <ele>544.7</ele>
        <time>2022-06-11T10:04:36Z</time>
      </trkpt>
      <trkpt lat="46.57027" lon="5.56485">
        <ele>541.1</ele>
        <time>2022-06-11T10:04:46Z</time>
      </trkpt>
      <trkpt lat="46.57024" lon="5.5648">
        <ele>539.8</ele>
        <time>2022-06-11T10:04:55Z</time>
      </trkpt>
      <trkpt lat="46.57023" lon="5.56471">
        <ele>539.6</ele>
        <time>2022-06-11T10:05:05Z</time>
      </trkpt>
      <trkpt lat="46.57025" lon="5.56464">
        <ele>539.9</ele>
        <time>2022-06-11T10:05:09Z</time>
      </trkpt>
      <trkpt lat="46.57025" lon="5.56457">
        <ele>540.6</ele>
        <time>2022-06-11T10:05:14Z</time>
      </trkpt>
      <trkpt lat="46.57024" lon="5.5645">
        <ele>540.8</ele>
        <time>2022-06-11T10:05:19Z</time>
      </trkpt>
      <trkpt lat="46.57024" lon="5.56442">
        <ele>540.9</ele>
        <time>2022-06-11T10:05:25Z</time>
      </trkpt>
      <trkpt lat="46.57024" lon="5.56434">
        <ele>539.3</ele>
        <time>2022-06-11T10:05:36Z</time>
      </trkpt>
      <trkpt lat="46.57025" lon="5.56427">
        <ele>541.8</ele>
        <time>2022-06-11T10:05:48Z</time>
      </trkpt>
      <trkpt lat="46.57028" lon="5.56421">
        <ele>548.9</ele>
        <time>2022-06-11T10:06:02Z</time>
      </trkpt>
      <trkpt lat="46.5703" lon="5.56415">
        <ele>549.7</ele>
        <time>2022-06-11T10:06:05Z</time>
      </trkpt>
      <trkpt lat="46.57031" lon="5.56409">
        <ele>550.2</ele>
        <time>2022-06-11T10:06:08Z</time>
      </trkpt>
      <trkpt lat="46.57032" lon="5.56402">
        <ele>551</ele>
        <time>2022-06-11T10:06:11Z</time>
      </trkpt>
      <trkpt lat="46.57033" lon="5.56395">
        <ele>552.3</ele>
        <time>2022-06-11T10:06:17Z</time>
      </trkpt>
      <trkpt lat="46.57036" lon="5.5639">
        <ele>551.2</ele>
        <time>2022-06-11T10:06:28Z</time>
      </trkpt>
      <trkpt lat="46.57038" lon="5.56384">
        <ele>551.5</ele>
        <time>2022-06-11T10:06:52Z</time>
      </trkpt>
      <trkpt lat="46.57041" lon="5.56379">
        <ele>550.1</ele>
        <time>2022-06-11T10:07:05Z</time>
      </trkpt>
      <trkpt lat="46.57038" lon="5.56374">
        <ele>549.8</ele>
        <time>2022-06-11T10:07:17Z</time>
      </trkpt>
      <trkpt lat="46.57038" lon="5.56367">
        <ele>549.2</ele>
        <time>2022-06-11T10:07:22Z</time>
      </trkpt>
      <trkpt lat="46.57037" lon="5.56361">
        <ele>548.2</ele>
        <time>2022-06-11T10:07:27Z</time>
      </trkpt>
      <trkpt lat="46.57034" lon="5.56354">
        <ele>547.4</ele>
        <time>2022-06-11T10:07:36Z</time>
      </trkpt>
      <trkpt lat="46.57033" lon="5.56348">
        <ele>546.1</ele>
        <time>2022-06-11T10:07:44Z</time>
      </trkpt>
      <trkpt lat="46.57034" lon="5.56341">
        <ele>545.8</ele>
        <time>2022-06-11T10:07:51Z</time>
      </trkpt>
      <trkpt lat="46.57034" lon="5.56333">
        <ele>545.9</ele>
        <time>2022-06-11T10:07:55Z</time>
      </trkpt>
      <trkpt lat="46.57036" lon="5.56327">
        <ele>546.2</ele>
        <time>2022-06-11T10:08:00Z</time>
      </trkpt>
      <trkpt lat="46.57037" lon="5.56319">
        <ele>546.7</ele>
        <time>2022-06-11T10:08:05Z</time>
      </trkpt>
      <trkpt lat="46.57036" lon="5.56312">
        <ele>546.8</ele>
        <time>2022-06-11T10:08:09Z</time>
      </trkpt>
      <trkpt lat="46.57039" lon="5.56307">
        <ele>547.2</ele>
        <time>2022-06-11T10:08:14Z</time>
      </trkpt>
      <trkpt lat="46.57043" lon="5.56308">
        <ele>549.7</ele>
        <time>2022-06-11T10:08:28Z</time>
      </trkpt>
      <trkpt lat="46.57045" lon="5.56302">
        <ele>551</ele>
        <time>2022-06-11T10:08:33Z</time>
      </trkpt>
      <trkpt lat="46.57044" lon="5.56294">
        <ele>551.9</ele>
        <time>2022-06-11T10:08:37Z</time>
      </trkpt>
      <trkpt lat="46.57042" lon="5.56289">
        <ele>552.3</ele>
        <time>2022-06-11T10:08:42Z</time>
      </trkpt>
      <trkpt lat="46.57042" lon="5.56282">
        <ele>551.5</ele>
        <time>2022-06-11T10:08:54Z</time>
      </trkpt>
      <trkpt lat="46.57042" lon="5.56274">
        <ele>549.6</ele>
        <time>2022-06-11T10:09:01Z</time>
      </trkpt>
      <trkpt lat="46.57041" lon="5.56266">
        <ele>549.4</ele>
        <time>2022-06-11T10:09:05Z</time>
      </trkpt>
      <trkpt lat="46.57042" lon="5.5626">
        <ele>549.4</ele>
        <time>2022-06-11T10:09:09Z</time>
      </trkpt>
      <trkpt lat="46.57041" lon="5.56253">
        <ele>548.8</ele>
        <time>2022-06-11T10:09:16Z</time>
      </trkpt>
      <trkpt lat="46.57044" lon="5.56247">
        <ele>548.5</ele>
        <time>2022-06-11T10:09:21Z</time>
      </trkpt>
      <trkpt lat="46.57046" lon="5.5624">
        <ele>546.8</ele>
        <time>2022-06-11T10:09:34Z</time>
      </trkpt>
      <trkpt lat="46.57043" lon="5.56234">
        <ele>546.5</ele>
        <time>2022-06-11T10:09:40Z</time>
      </trkpt>
      <trkpt lat="46.57039" lon="5.56231">
        <ele>543.6</ele>
        <time>2022-06-11T10:09:50Z</time>
      </trkpt>
      <trkpt lat="46.57035" lon="5.56227">
        <ele>542.8</ele>
        <time>2022-06-11T10:09:56Z</time>
      </trkpt>
      <trkpt lat="46.57032" lon="5.5622">
        <ele>542.3</ele>
        <time>2022-06-11T10:10:02Z</time>
      </trkpt>
      <trkpt lat="46.57028" lon="5.56215">
        <ele>541.3</ele>
        <time>2022-06-11T10:10:06Z</time>
      </trkpt>
      <trkpt lat="46.57025" lon="5.56208">
        <ele>539</ele>
        <time>2022-06-11T10:10:11Z</time>
      </trkpt>
      <trkpt lat="46.57024" lon="5.56202">
        <ele>535.9</ele>
        <time>2022-06-11T10:10:16Z</time>
      </trkpt>
      <trkpt lat="46.57021" lon="5.56195">
        <ele>529.3</ele>
        <time>2022-06-11T10:10:29Z</time>
      </trkpt>
      <trkpt lat="46.57019" lon="5.56187">
        <ele>526</ele>
        <time>2022-06-11T10:10:36Z</time>
      </trkpt>
      <trkpt lat="46.5702" lon="5.5618">
        <ele>524</ele>
        <time>2022-06-11T10:10:41Z</time>
      </trkpt>
      <trkpt lat="46.57019" lon="5.56172">
        <ele>522.4</ele>
        <time>2022-06-11T10:10:46Z</time>
      </trkpt>
      <trkpt lat="46.57019" lon="5.56164">
        <ele>521.6</ele>
        <time>2022-06-11T10:10:50Z</time>
      </trkpt>
      <trkpt lat="46.57019" lon="5.56158">
        <ele>521</ele>
        <time>2022-06-11T10:10:54Z</time>
      </trkpt>
      <trkpt lat="46.57019" lon="5.56151">
        <ele>520.9</ele>
        <time>2022-06-11T10:10:58Z</time>
      </trkpt>
      <trkpt lat="46.57017" lon="5.56143">
        <ele>520.9</ele>
        <time>2022-06-11T10:11:03Z</time>
      </trkpt>
      <trkpt lat="46.57015" lon="5.56136">
        <ele>520.8</ele>
        <time>2022-06-11T10:11:09Z</time>
      </trkpt>
      <trkpt lat="46.57011" lon="5.56132">
        <ele>522.3</ele>
        <time>2022-06-11T10:11:21Z</time>
      </trkpt>
      <trkpt lat="46.57006" lon="5.56131">
        <ele>522.2</ele>
        <time>2022-06-11T10:11:25Z</time>
      </trkpt>
      <trkpt lat="46.57001" lon="5.56131">
        <ele>521.7</ele>
        <time>2022-06-11T10:11:30Z</time>
      </trkpt>
      <trkpt lat="46.56996" lon="5.56128">
        <ele>521.3</ele>
        <time>2022-06-11T10:11:35Z</time>
      </trkpt>
      <trkpt lat="46.56992" lon="5.56127">
        <ele>520.6</ele>
        <time>2022-06-11T10:11:40Z</time>
      </trkpt>
      <trkpt lat="46.56987" lon="5.56124">
        <ele>519.8</ele>
        <time>2022-06-11T10:11:45Z</time>
      </trkpt>
      <trkpt lat="46.56982" lon="5.56122">
        <ele>519.2</ele>
        <time>2022-06-11T10:11:49Z</time>
      </trkpt>
      <trkpt lat="46.56977" lon="5.56121">
        <ele>519</ele>
        <time>2022-06-11T10:11:55Z</time>
      </trkpt>
      <trkpt lat="46.56972" lon="5.56119">
        <ele>518.4</ele>
        <time>2022-06-11T10:12:00Z</time>
      </trkpt>
      <trkpt lat="46.56968" lon="5.56115">
        <ele>518.1</ele>
        <time>2022-06-11T10:12:04Z</time>
      </trkpt>
      <trkpt lat="46.56963" lon="5.56112">
        <ele>518.1</ele>
        <time>2022-06-11T10:12:08Z</time>
      </trkpt>
      <trkpt lat="46.56958" lon="5.5611">
        <ele>518.6</ele>
        <time>2022-06-11T10:12:13Z</time>
      </trkpt>
      <trkpt lat="46.56954" lon="5.56109">
        <ele>519.3</ele>
        <time>2022-06-11T10:12:18Z</time>
      </trkpt>
      <trkpt lat="46.56949" lon="5.56108">
        <ele>519.2</ele>
        <time>2022-06-11T10:12:24Z</time>
      </trkpt>
      <trkpt lat="46.56944" lon="5.56106">
        <ele>519.1</ele>
        <time>2022-06-11T10:12:28Z</time>
      </trkpt>
      <trkpt lat="46.56938" lon="5.56104">
        <ele>519.1</ele>
        <time>2022-06-11T10:12:32Z</time>
      </trkpt>
      <trkpt lat="46.56934" lon="5.56103">
        <ele>519.2</ele>
        <time>2022-06-11T10:12:36Z</time>
      </trkpt>
      <trkpt lat="46.56929" lon="5.56102">
        <ele>519</ele>
        <time>2022-06-11T10:12:40Z</time>
      </trkpt>
      <trkpt lat="46.56924" lon="5.561">
        <ele>518.6</ele>
        <time>2022-06-11T10:12:45Z</time>
      </trkpt>
      <trkpt lat="46.56919" lon="5.56097">
        <ele>518.3</ele>
        <time>2022-06-11T10:12:50Z</time>
      </trkpt>
      <trkpt lat="46.56914" lon="5.56096">
        <ele>518.2</ele>
        <time>2022-06-11T10:12:54Z</time>
      </trkpt>
      <trkpt lat="46.56909" lon="5.56096">
        <ele>518.4</ele>
        <time>2022-06-11T10:12:57Z</time>
      </trkpt>
      <trkpt lat="46.56904" lon="5.56095">
        <ele>518.8</ele>
        <time>2022-06-11T10:13:01Z</time>
      </trkpt>
      <trkpt lat="46.56899" lon="5.56094">
        <ele>519.1</ele>
        <time>2022-06-11T10:13:06Z</time>
      </trkpt>
      <trkpt lat="46.56896" lon="5.5609">
        <ele>518.7</ele>
        <time>2022-06-11T10:13:12Z</time>
      </trkpt>
      <trkpt lat="46.56892" lon="5.56086">
        <ele>518.2</ele>
        <time>2022-06-11T10:13:16Z</time>
      </trkpt>
      <trkpt lat="46.56887" lon="5.56084">
        <ele>517.4</ele>
        <time>2022-06-11T10:13:21Z</time>
      </trkpt>
      <trkpt lat="46.56882" lon="5.56083">
        <ele>516.4</ele>
        <time>2022-06-11T10:13:26Z</time>
      </trkpt>
      <trkpt lat="46.56878" lon="5.56081">
        <ele>515.7</ele>
        <time>2022-06-11T10:13:30Z</time>
      </trkpt>
      <trkpt lat="46.56873" lon="5.56077">
        <ele>515.7</ele>
        <time>2022-06-11T10:13:34Z</time>
      </trkpt>
      <trkpt lat="46.56869" lon="5.56072">
        <ele>516</ele>
        <time>2022-06-11T10:13:38Z</time>
      </trkpt>
      <trkpt lat="46.56866" lon="5.56067">
        <ele>516.6</ele>
        <time>2022-06-11T10:13:43Z</time>
      </trkpt>
      <trkpt lat="46.56861" lon="5.56063">
        <ele>516.7</ele>
        <time>2022-06-11T10:13:48Z</time>
      </trkpt>
      <trkpt lat="46.56857" lon="5.56059">
        <ele>516.8</ele>
        <time>2022-06-11T10:13:53Z</time>
      </trkpt>
      <trkpt lat="46.56854" lon="5.56053">
        <ele>516.3</ele>
        <time>2022-06-11T10:13:57Z</time>
      </trkpt>
      <trkpt lat="46.5685" lon="5.56048">
        <ele>516.2</ele>
        <time>2022-06-11T10:14:01Z</time>
      </trkpt>
      <trkpt lat="46.56845" lon="5.56044">
        <ele>517.1</ele>
        <time>2022-06-11T10:14:05Z</time>
      </trkpt>
      <trkpt lat="46.56841" lon="5.5604">
        <ele>518.3</ele>
        <time>2022-06-11T10:14:10Z</time>
      </trkpt>
      <trkpt lat="46.56837" lon="5.56035">
        <ele>519.2</ele>
        <time>2022-06-11T10:14:15Z</time>
      </trkpt>
      <trkpt lat="46.56833" lon="5.56031">
        <ele>519.4</ele>
        <time>2022-06-11T10:14:19Z</time>
      </trkpt>
      <trkpt lat="46.5683" lon="5.56025">
        <ele>519.5</ele>
        <time>2022-06-11T10:14:23Z</time>
      </trkpt>
      <trkpt lat="46.56825" lon="5.56021">
        <ele>519.8</ele>
        <time>2022-06-11T10:14:28Z</time>
      </trkpt>
      <trkpt lat="46.56821" lon="5.56017">
        <ele>519.4</ele>
        <time>2022-06-11T10:14:33Z</time>
      </trkpt>
      <trkpt lat="46.56817" lon="5.56013">
        <ele>518.8</ele>
        <time>2022-06-11T10:14:37Z</time>
      </trkpt>
      <trkpt lat="46.56813" lon="5.56009">
        <ele>518.8</ele>
        <time>2022-06-11T10:14:40Z</time>
      </trkpt>
      <trkpt lat="46.56809" lon="5.56005">
        <ele>518.8</ele>
        <time>2022-06-11T10:14:44Z</time>
      </trkpt>
      <trkpt lat="46.56804" lon="5.56001">
        <ele>519.4</ele>
        <time>2022-06-11T10:14:49Z</time>
      </trkpt>
      <trkpt lat="46.568" lon="5.55998">
        <ele>520.4</ele>
        <time>2022-06-11T10:14:55Z</time>
      </trkpt>
      <trkpt lat="46.56803" lon="5.55992">
        <ele>520.8</ele>
        <time>2022-06-11T10:15:02Z</time>
      </trkpt>
      <trkpt lat="46.56807" lon="5.55988">
        <ele>521.2</ele>
        <time>2022-06-11T10:15:07Z</time>
      </trkpt>
      <trkpt lat="46.56811" lon="5.55985">
        <ele>522.4</ele>
        <time>2022-06-11T10:15:17Z</time>
      </trkpt>
      <trkpt lat="46.56816" lon="5.55982">
        <ele>521.9</ele>
        <time>2022-06-11T10:15:22Z</time>
      </trkpt>
      <trkpt lat="46.56821" lon="5.55981">
        <ele>521.5</ele>
        <time>2022-06-11T10:15:30Z</time>
      </trkpt>
      <trkpt lat="46.56825" lon="5.55978">
        <ele>523</ele>
        <time>2022-06-11T10:15:36Z</time>
      </trkpt>
      <trkpt lat="46.56827" lon="5.55971">
        <ele>525</ele>
        <time>2022-06-11T10:15:42Z</time>
      </trkpt>
      <trkpt lat="46.5683" lon="5.55966">
        <ele>525.6</ele>
        <time>2022-06-11T10:15:50Z</time>
      </trkpt>
      <trkpt lat="46.56835" lon="5.55962">
        <ele>524.9</ele>
        <time>2022-06-11T10:15:54Z</time>
      </trkpt>
      <trkpt lat="46.56839" lon="5.55957">
        <ele>524.1</ele>
        <time>2022-06-11T10:15:58Z</time>
      </trkpt>
      <trkpt lat="46.56843" lon="5.55956">
        <ele>523.5</ele>
        <time>2022-06-11T10:16:03Z</time>
      </trkpt>
      <trkpt lat="46.56848" lon="5.55955">
        <ele>523.3</ele>
        <time>2022-06-11T10:16:06Z</time>
      </trkpt>
      <trkpt lat="46.56852" lon="5.55953">
        <ele>523.4</ele>
        <time>2022-06-11T10:16:09Z</time>
      </trkpt>
      <trkpt lat="46.56857" lon="5.55952">
        <ele>523.6</ele>
        <time>2022-06-11T10:16:12Z</time>
      </trkpt>
      <trkpt lat="46.56862" lon="5.5595">
        <ele>524.7</ele>
        <time>2022-06-11T10:16:16Z</time>
      </trkpt>
      <trkpt lat="46.56868" lon="5.55948">
        <ele>527.6</ele>
        <time>2022-06-11T10:16:22Z</time>
      </trkpt>
      <trkpt lat="46.56873" lon="5.55948">
        <ele>529.2</ele>
        <time>2022-06-11T10:16:26Z</time>
      </trkpt>
      <trkpt lat="46.56878" lon="5.55949">
        <ele>530.9</ele>
        <time>2022-06-11T10:16:32Z</time>
      </trkpt>
      <trkpt lat="46.56882" lon="5.55947">
        <ele>531.5</ele>
        <time>2022-06-11T10:16:37Z</time>
      </trkpt>
      <trkpt lat="46.56887" lon="5.55946">
        <ele>532.1</ele>
        <time>2022-06-11T10:16:42Z</time>
      </trkpt>
      <trkpt lat="46.56892" lon="5.55947">
        <ele>532.6</ele>
        <time>2022-06-11T10:16:45Z</time>
      </trkpt>
      <trkpt lat="46.56897" lon="5.55947">
        <ele>533.4</ele>
        <time>2022-06-11T10:16:51Z</time>
      </trkpt>
      <trkpt lat="46.56902" lon="5.55946">
        <ele>533.8</ele>
        <time>2022-06-11T10:16:57Z</time>
      </trkpt>
      <trkpt lat="46.56907" lon="5.55943">
        <ele>534.6</ele>
        <time>2022-06-11T10:17:04Z</time>
      </trkpt>
      <trkpt lat="46.5691" lon="5.55939">
        <ele>534.8</ele>
        <time>2022-06-11T10:17:07Z</time>
      </trkpt>
      <trkpt lat="46.56913" lon="5.55933">
        <ele>535.3</ele>
        <time>2022-06-11T10:17:10Z</time>
      </trkpt>
      <trkpt lat="46.56917" lon="5.5593">
        <ele>536.1</ele>
        <time>2022-06-11T10:17:18Z</time>
      </trkpt>
      <trkpt lat="46.56922" lon="5.55931">
        <ele>535.2</ele>
        <time>2022-06-11T10:17:23Z</time>
      </trkpt>
      <trkpt lat="46.56927" lon="5.5593">
        <ele>533.5</ele>
        <time>2022-06-11T10:17:27Z</time>
      </trkpt>
      <trkpt lat="46.56932" lon="5.55928">
        <ele>531.8</ele>
        <time>2022-06-11T10:17:31Z</time>
      </trkpt>
      <trkpt lat="46.56937" lon="5.55926">
        <ele>530.1</ele>
        <time>2022-06-11T10:17:35Z</time>
      </trkpt>
      <trkpt lat="46.5694" lon="5.55919">
        <ele>528.1</ele>
        <time>2022-06-11T10:17:39Z</time>
      </trkpt>
      <trkpt lat="46.56942" lon="5.55913">
        <ele>526.5</ele>
        <time>2022-06-11T10:17:43Z</time>
      </trkpt>
      <trkpt lat="46.56946" lon="5.55909">
        <ele>525.4</ele>
        <time>2022-06-11T10:17:47Z</time>
      </trkpt>
      <trkpt lat="46.56949" lon="5.55904">
        <ele>525</ele>
        <time>2022-06-11T10:17:51Z</time>
      </trkpt>
      <trkpt lat="46.56952" lon="5.55898">
        <ele>525.9</ele>
        <time>2022-06-11T10:17:56Z</time>
      </trkpt>
      <trkpt lat="46.56952" lon="5.5589">
        <ele>527.5</ele>
        <time>2022-06-11T10:18:01Z</time>
      </trkpt>
      <trkpt lat="46.56956" lon="5.55885">
        <ele>528.5</ele>
        <time>2022-06-11T10:18:06Z</time>
      </trkpt>
      <trkpt lat="46.5696" lon="5.55882">
        <ele>529.2</ele>
        <time>2022-06-11T10:18:10Z</time>
      </trkpt>
      <trkpt lat="46.56964" lon="5.55878">
        <ele>530.6</ele>
        <time>2022-06-11T10:18:16Z</time>
      </trkpt>
      <trkpt lat="46.56969" lon="5.55874">
        <ele>531.6</ele>
        <time>2022-06-11T10:18:23Z</time>
      </trkpt>
      <trkpt lat="46.56971" lon="5.55868">
        <ele>531.8</ele>
        <time>2022-06-11T10:18:29Z</time>
      </trkpt>
      <trkpt lat="46.56974" lon="5.55862">
        <ele>532.4</ele>
        <time>2022-06-11T10:18:34Z</time>
      </trkpt>
      <trkpt lat="46.56979" lon="5.55859">
        <ele>532.8</ele>
        <time>2022-06-11T10:18:39Z</time>
      </trkpt>
      <trkpt lat="46.56983" lon="5.55858">
        <ele>533.5</ele>
        <time>2022-06-11T10:18:45Z</time>
      </trkpt>
      <trkpt lat="46.56988" lon="5.55853">
        <ele>534.2</ele>
        <time>2022-06-11T10:18:50Z</time>
      </trkpt>
      <trkpt lat="46.56992" lon="5.55848">
        <ele>535.2</ele>
        <time>2022-06-11T10:18:55Z</time>
      </trkpt>
      <trkpt lat="46.56996" lon="5.55849">
        <ele>537</ele>
        <time>2022-06-11T10:19:04Z</time>
      </trkpt>
      <trkpt lat="46.57001" lon="5.55845">
        <ele>539</ele>
        <time>2022-06-11T10:19:12Z</time>
      </trkpt>
      <trkpt lat="46.57001" lon="5.55838">
        <ele>541</ele>
        <time>2022-06-11T10:19:17Z</time>
      </trkpt>
      <trkpt lat="46.57002" lon="5.55832">
        <ele>542.4</ele>
        <time>2022-06-11T10:19:21Z</time>
      </trkpt>
      <trkpt lat="46.57006" lon="5.55828">
        <ele>544.2</ele>
        <time>2022-06-11T10:19:26Z</time>
      </trkpt>
      <trkpt lat="46.57011" lon="5.55827">
        <ele>544.9</ele>
        <time>2022-06-11T10:19:30Z</time>
      </trkpt>
      <trkpt lat="46.57015" lon="5.55825">
        <ele>545.8</ele>
        <time>2022-06-11T10:19:34Z</time>
      </trkpt>
      <trkpt lat="46.57019" lon="5.55821">
        <ele>546.7</ele>
        <time>2022-06-11T10:19:37Z</time>
      </trkpt>
      <trkpt lat="46.57022" lon="5.55816">
        <ele>547.6</ele>
        <time>2022-06-11T10:19:40Z</time>
      </trkpt>
      <trkpt lat="46.57025" lon="5.55809">
        <ele>548.8</ele>
        <time>2022-06-11T10:19:44Z</time>
      </trkpt>
      <trkpt lat="46.57027" lon="5.55804">
        <ele>550.4</ele>
        <time>2022-06-11T10:19:48Z</time>
      </trkpt>
      <trkpt lat="46.57028" lon="5.55797">
        <ele>552.7</ele>
        <time>2022-06-11T10:19:59Z</time>
      </trkpt>
      <trkpt lat="46.5703" lon="5.55791">
        <ele>553</ele>
        <time>2022-06-11T10:20:06Z</time>
      </trkpt>
      <trkpt lat="46.57034" lon="5.55786">
        <ele>552.4</ele>
        <time>2022-06-11T10:20:11Z</time>
      </trkpt>
      <trkpt lat="46.57035" lon="5.55778">
        <ele>552.2</ele>
        <time>2022-06-11T10:20:16Z</time>
      </trkpt>
      <trkpt lat="46.57035" lon="5.55771">
        <ele>551.7</ele>
        <time>2022-06-11T10:20:21Z</time>
      </trkpt>
      <trkpt lat="46.57033" lon="5.55765">
        <ele>550.8</ele>
        <time>2022-06-11T10:20:27Z</time>
      </trkpt>
      <trkpt lat="46.57032" lon="5.55758">
        <ele>551.2</ele>
        <time>2022-06-11T10:20:35Z</time>
      </trkpt>
      <trkpt lat="46.57032" lon="5.5575">
        <ele>551.1</ele>
        <time>2022-06-11T10:20:40Z</time>
      </trkpt>
      <trkpt lat="46.57032" lon="5.55743">
        <ele>551.2</ele>
        <time>2022-06-11T10:20:46Z</time>
      </trkpt>
      <trkpt lat="46.57029" lon="5.55737">
        <ele>552</ele>
        <time>2022-06-11T10:20:56Z</time>
      </trkpt>
      <trkpt lat="46.57025" lon="5.55734">
        <ele>555</ele>
        <time>2022-06-11T10:21:05Z</time>
      </trkpt>
      <trkpt lat="46.57022" lon="5.55727">
        <ele>557.4</ele>
        <time>2022-06-11T10:21:11Z</time>
      </trkpt>
      <trkpt lat="46.57022" lon="5.5572">
        <ele>558.6</ele>
        <time>2022-06-11T10:21:18Z</time>
      </trkpt>
      <trkpt lat="46.57019" lon="5.55713">
        <ele>558.8</ele>
        <time>2022-06-11T10:21:22Z</time>
      </trkpt>
      <trkpt lat="46.57015" lon="5.55708">
        <ele>559</ele>
        <time>2022-06-11T10:21:26Z</time>
      </trkpt>
      <trkpt lat="46.57011" lon="5.55706">
        <ele>559.7</ele>
        <time>2022-06-11T10:21:31Z</time>
      </trkpt>
      <trkpt lat="46.57006" lon="5.55702">
        <ele>562.7</ele>
        <time>2022-06-11T10:21:41Z</time>
      </trkpt>
      <trkpt lat="46.57001" lon="5.55702">
        <ele>564.4</ele>
        <time>2022-06-11T10:21:47Z</time>
      </trkpt>
      <trkpt lat="46.56997" lon="5.557">
        <ele>566.8</ele>
        <time>2022-06-11T10:21:53Z</time>
      </trkpt>
      <trkpt lat="46.56994" lon="5.55694">
        <ele>567.8</ele>
        <time>2022-06-11T10:21:57Z</time>
      </trkpt>
      <trkpt lat="46.56991" lon="5.55688">
        <ele>568.3</ele>
        <time>2022-06-11T10:22:01Z</time>
      </trkpt>
      <trkpt lat="46.56989" lon="5.55682">
        <ele>570</ele>
        <time>2022-06-11T10:22:25Z</time>
      </trkpt>
      <trkpt lat="46.56987" lon="5.55676">
        <ele>569.4</ele>
        <time>2022-06-11T10:22:29Z</time>
      </trkpt>
      <trkpt lat="46.56982" lon="5.55673">
        <ele>568.8</ele>
        <time>2022-06-11T10:22:34Z</time>
      </trkpt>
      <trkpt lat="46.56978" lon="5.5567">
        <ele>568.4</ele>
        <time>2022-06-11T10:22:37Z</time>
      </trkpt>
      <trkpt lat="46.56973" lon="5.55668">
        <ele>568.2</ele>
        <time>2022-06-11T10:22:40Z</time>
      </trkpt>
      <trkpt lat="46.56968" lon="5.55667">
        <ele>567.7</ele>
        <time>2022-06-11T10:22:45Z</time>
      </trkpt>
      <trkpt lat="46.56965" lon="5.55661">
        <ele>566.2</ele>
        <time>2022-06-11T10:22:53Z</time>
      </trkpt>
      <trkpt lat="46.56962" lon="5.55655">
        <ele>563.3</ele>
        <time>2022-06-11T10:23:03Z</time>
      </trkpt>
      <trkpt lat="46.56958" lon="5.55651">
        <ele>562.4</ele>
        <time>2022-06-11T10:23:07Z</time>
      </trkpt>
      <trkpt lat="46.56954" lon="5.55648">
        <ele>561.9</ele>
        <time>2022-06-11T10:23:11Z</time>
      </trkpt>
      <trkpt lat="46.56948" lon="5.55649">
        <ele>561.6</ele>
        <time>2022-06-11T10:23:16Z</time>
      </trkpt>
      <trkpt lat="46.56943" lon="5.55649">
        <ele>561.8</ele>
        <time>2022-06-11T10:23:21Z</time>
      </trkpt>
      <trkpt lat="46.56939" lon="5.55645">
        <ele>562.1</ele>
        <time>2022-06-11T10:23:25Z</time>
      </trkpt>
      <trkpt lat="46.56934" lon="5.55642">
        <ele>562.4</ele>
        <time>2022-06-11T10:23:29Z</time>
      </trkpt>
      <trkpt lat="46.5693" lon="5.55639">
        <ele>562.6</ele>
        <time>2022-06-11T10:23:32Z</time>
      </trkpt>
      <trkpt lat="46.56926" lon="5.55634">
        <ele>562.8</ele>
        <time>2022-06-11T10:23:36Z</time>
      </trkpt>
      <trkpt lat="46.56922" lon="5.5563">
        <ele>563.2</ele>
        <time>2022-06-11T10:23:41Z</time>
      </trkpt>
      <trkpt lat="46.56919" lon="5.55623">
        <ele>563.9</ele>
        <time>2022-06-11T10:23:47Z</time>
      </trkpt>
      <trkpt lat="46.56914" lon="5.55618">
        <ele>564.7</ele>
        <time>2022-06-11T10:23:51Z</time>
      </trkpt>
      <trkpt lat="46.56911" lon="5.55613">
        <ele>565.1</ele>
        <time>2022-06-11T10:23:54Z</time>
      </trkpt>
      <trkpt lat="46.56907" lon="5.55607">
        <ele>565.6</ele>
        <time>2022-06-11T10:23:58Z</time>
      </trkpt>
      <trkpt lat="46.56902" lon="5.55605">
        <ele>566.6</ele>
        <time>2022-06-11T10:24:02Z</time>
      </trkpt>
      <trkpt lat="46.56898" lon="5.55605">
        <ele>567.9</ele>
        <time>2022-06-11T10:24:06Z</time>
      </trkpt>
      <trkpt lat="46.56893" lon="5.55605">
        <ele>569.4</ele>
        <time>2022-06-11T10:24:11Z</time>
      </trkpt>
      <trkpt lat="46.56888" lon="5.55603">
        <ele>570.8</ele>
        <time>2022-06-11T10:24:17Z</time>
      </trkpt>
      <trkpt lat="46.56885" lon="5.55599">
        <ele>572.1</ele>
        <time>2022-06-11T10:24:24Z</time>
      </trkpt>
      <trkpt lat="46.56882" lon="5.55593">
        <ele>573.2</ele>
        <time>2022-06-11T10:24:32Z</time>
      </trkpt>
      <trkpt lat="46.56877" lon="5.5559">
        <ele>573.9</ele>
        <time>2022-06-11T10:24:37Z</time>
      </trkpt>
      <trkpt lat="46.56873" lon="5.55586">
        <ele>573.9</ele>
        <time>2022-06-11T10:24:40Z</time>
      </trkpt>
      <trkpt lat="46.56868" lon="5.55583">
        <ele>574</ele>
        <time>2022-06-11T10:24:43Z</time>
      </trkpt>
      <trkpt lat="46.56863" lon="5.55579">
        <ele>574.1</ele>
        <time>2022-06-11T10:24:47Z</time>
      </trkpt>
      <trkpt lat="46.56859" lon="5.55578">
        <ele>574.8</ele>
        <time>2022-06-11T10:24:52Z</time>
      </trkpt>
      <trkpt lat="46.56856" lon="5.55573">
        <ele>575.2</ele>
        <time>2022-06-11T10:24:58Z</time>
      </trkpt>
      <trkpt lat="46.56852" lon="5.55568">
        <ele>575.3</ele>
        <time>2022-06-11T10:25:02Z</time>
      </trkpt>
      <trkpt lat="46.56846" lon="5.55566">
        <ele>575.6</ele>
        <time>2022-06-11T10:25:06Z</time>
      </trkpt>
      <trkpt lat="46.56841" lon="5.55565">
        <ele>576.3</ele>
        <time>2022-06-11T10:25:10Z</time>
      </trkpt>
      <trkpt lat="46.56836" lon="5.55564">
        <ele>577</ele>
        <time>2022-06-11T10:25:14Z</time>
      </trkpt>
      <trkpt lat="46.56831" lon="5.55562">
        <ele>578</ele>
        <time>2022-06-11T10:25:19Z</time>
      </trkpt>
      <trkpt lat="46.56827" lon="5.55558">
        <ele>579.3</ele>
        <time>2022-06-11T10:25:24Z</time>
      </trkpt>
      <trkpt lat="46.56824" lon="5.55553">
        <ele>582</ele>
        <time>2022-06-11T10:25:32Z</time>
      </trkpt>
      <trkpt lat="46.5682" lon="5.55557">
        <ele>588.9</ele>
        <time>2022-06-11T10:25:43Z</time>
      </trkpt>
      <trkpt lat="46.56822" lon="5.55551">
        <ele>590.1</ele>
        <time>2022-06-11T10:25:54Z</time>
      </trkpt>
      <trkpt lat="46.56826" lon="5.55547">
        <ele>588</ele>
        <time>2022-06-11T10:26:09Z</time>
      </trkpt>
      <trkpt lat="46.56823" lon="5.55541">
        <ele>581.3</ele>
        <time>2022-06-11T10:27:15Z</time>
      </trkpt>
      <trkpt lat="46.56818" lon="5.55538">
        <ele>581.2</ele>
        <time>2022-06-11T10:27:21Z</time>
      </trkpt>
      <trkpt lat="46.56814" lon="5.55532">
        <ele>581.2</ele>
        <time>2022-06-11T10:27:27Z</time>
      </trkpt>
      <trkpt lat="46.56809" lon="5.55528">
        <ele>581</ele>
        <time>2022-06-11T10:27:33Z</time>
      </trkpt>
      <trkpt lat="46.56807" lon="5.55522">
        <ele>580.5</ele>
        <time>2022-06-11T10:27:39Z</time>
      </trkpt>
      <trkpt lat="46.56805" lon="5.55515">
        <ele>580.7</ele>
        <time>2022-06-11T10:27:44Z</time>
      </trkpt>
      <trkpt lat="46.56802" lon="5.5551">
        <ele>581</ele>
        <time>2022-06-11T10:27:50Z</time>
      </trkpt>
      <trkpt lat="46.56798" lon="5.55507">
        <ele>584</ele>
        <time>2022-06-11T10:28:00Z</time>
      </trkpt>
      <trkpt lat="46.56795" lon="5.55501">
        <ele>585.3</ele>
        <time>2022-06-11T10:28:05Z</time>
      </trkpt>
      <trkpt lat="46.56795" lon="5.55493">
        <ele>585.7</ele>
        <time>2022-06-11T10:28:09Z</time>
      </trkpt>
      <trkpt lat="46.56795" lon="5.55487">
        <ele>585.7</ele>
        <time>2022-06-11T10:28:13Z</time>
      </trkpt>
      <trkpt lat="46.56795" lon="5.55479">
        <ele>585.1</ele>
        <time>2022-06-11T10:28:18Z</time>
      </trkpt>
      <trkpt lat="46.56796" lon="5.55472">
        <ele>582.8</ele>
        <time>2022-06-11T10:28:43Z</time>
      </trkpt>
      <trkpt lat="46.56797" lon="5.55466">
        <ele>582.1</ele>
        <time>2022-06-11T10:28:48Z</time>
      </trkpt>
      <trkpt lat="46.56796" lon="5.55459">
        <ele>581.6</ele>
        <time>2022-06-11T10:28:52Z</time>
      </trkpt>
      <trkpt lat="46.56796" lon="5.55466">
        <ele>580.6</ele>
        <time>2022-06-11T10:29:06Z</time>
      </trkpt>
      <trkpt lat="46.56794" lon="5.55473">
        <ele>579.3</ele>
        <time>2022-06-11T10:29:26Z</time>
      </trkpt>
      <trkpt lat="46.56794" lon="5.55465">
        <ele>581.2</ele>
        <time>2022-06-11T10:29:56Z</time>
      </trkpt>
      <trkpt lat="46.56795" lon="5.55458">
        <ele>581</ele>
        <time>2022-06-11T10:29:59Z</time>
      </trkpt>
      <trkpt lat="46.56794" lon="5.5545">
        <ele>580.9</ele>
        <time>2022-06-11T10:30:02Z</time>
      </trkpt>
      <trkpt lat="46.56795" lon="5.55443">
        <ele>580.9</ele>
        <time>2022-06-11T10:30:06Z</time>
      </trkpt>
      <trkpt lat="46.56795" lon="5.55437">
        <ele>581</ele>
        <time>2022-06-11T10:30:09Z</time>
      </trkpt>
      <trkpt lat="46.56792" lon="5.55429">
        <ele>581.3</ele>
        <time>2022-06-11T10:30:12Z</time>
      </trkpt>
      <trkpt lat="46.56793" lon="5.55422">
        <ele>581.7</ele>
        <time>2022-06-11T10:30:16Z</time>
      </trkpt>
      <trkpt lat="46.56795" lon="5.55416">
        <ele>582.3</ele>
        <time>2022-06-11T10:30:24Z</time>
      </trkpt>
      <trkpt lat="46.56791" lon="5.55414">
        <ele>583.6</ele>
        <time>2022-06-11T10:30:31Z</time>
      </trkpt>
      <trkpt lat="46.56785" lon="5.55411">
        <ele>584.2</ele>
        <time>2022-06-11T10:30:35Z</time>
      </trkpt>
      <trkpt lat="46.56781" lon="5.55406">
        <ele>584.6</ele>
        <time>2022-06-11T10:30:39Z</time>
      </trkpt>
      <trkpt lat="46.56777" lon="5.55402">
        <ele>585.2</ele>
        <time>2022-06-11T10:30:42Z</time>
      </trkpt>
      <trkpt lat="46.56773" lon="5.554">
        <ele>586.1</ele>
        <time>2022-06-11T10:30:47Z</time>
      </trkpt>
      <trkpt lat="46.56768" lon="5.55402">
        <ele>587.2</ele>
        <time>2022-06-11T10:30:53Z</time>
      </trkpt>
      <trkpt lat="46.56763" lon="5.55401">
        <ele>587.3</ele>
        <time>2022-06-11T10:30:59Z</time>
      </trkpt>
      <trkpt lat="46.56758" lon="5.55403">
        <ele>587.4</ele>
        <time>2022-06-11T10:31:03Z</time>
      </trkpt>
      <trkpt lat="46.56753" lon="5.55405">
        <ele>588</ele>
        <time>2022-06-11T10:31:07Z</time>
      </trkpt>
      <trkpt lat="46.56747" lon="5.55406">
        <ele>589</ele>
        <time>2022-06-11T10:31:12Z</time>
      </trkpt>
      <trkpt lat="46.56742" lon="5.55405">
        <ele>590</ele>
        <time>2022-06-11T10:31:17Z</time>
      </trkpt>
      <trkpt lat="46.56737" lon="5.55406">
        <ele>591.5</ele>
        <time>2022-06-11T10:31:23Z</time>
      </trkpt>
      <trkpt lat="46.56733" lon="5.55406">
        <ele>593.5</ele>
        <time>2022-06-11T10:31:32Z</time>
      </trkpt>
      <trkpt lat="46.56728" lon="5.55408">
        <ele>595.1</ele>
        <time>2022-06-11T10:31:38Z</time>
      </trkpt>
      <trkpt lat="46.56724" lon="5.55403">
        <ele>596</ele>
        <time>2022-06-11T10:31:42Z</time>
      </trkpt>
      <trkpt lat="46.5672" lon="5.55399">
        <ele>596.7</ele>
        <time>2022-06-11T10:31:47Z</time>
      </trkpt>
      <trkpt lat="46.56716" lon="5.55397">
        <ele>596.4</ele>
        <time>2022-06-11T10:31:54Z</time>
      </trkpt>
      <trkpt lat="46.5671" lon="5.55395">
        <ele>595.8</ele>
        <time>2022-06-11T10:31:59Z</time>
      </trkpt>
      <trkpt lat="46.56705" lon="5.55394">
        <ele>594.9</ele>
        <time>2022-06-11T10:32:04Z</time>
      </trkpt>
      <trkpt lat="46.56701" lon="5.55389">
        <ele>592.8</ele>
        <time>2022-06-11T10:32:16Z</time>
      </trkpt>
      <trkpt lat="46.56698" lon="5.55383">
        <ele>591.3</ele>
        <time>2022-06-11T10:32:20Z</time>
      </trkpt>
      <trkpt lat="46.56695" lon="5.55378">
        <ele>590.2</ele>
        <time>2022-06-11T10:32:23Z</time>
      </trkpt>
      <trkpt lat="46.56692" lon="5.55372">
        <ele>588.4</ele>
        <time>2022-06-11T10:32:27Z</time>
      </trkpt>
      <trkpt lat="46.56688" lon="5.55369">
        <ele>586.5</ele>
        <time>2022-06-11T10:32:34Z</time>
      </trkpt>
      <trkpt lat="46.56683" lon="5.55367">
        <ele>585.2</ele>
        <time>2022-06-11T10:32:42Z</time>
      </trkpt>
      <trkpt lat="46.56678" lon="5.55368">
        <ele>584.2</ele>
        <time>2022-06-11T10:32:47Z</time>
      </trkpt>
      <trkpt lat="46.56674" lon="5.55367">
        <ele>583.5</ele>
        <time>2022-06-11T10:32:52Z</time>
      </trkpt>
      <trkpt lat="46.56669" lon="5.55368">
        <ele>583.5</ele>
        <time>2022-06-11T10:32:56Z</time>
      </trkpt>
      <trkpt lat="46.56664" lon="5.55369">
        <ele>583.9</ele>
        <time>2022-06-11T10:33:00Z</time>
      </trkpt>
      <trkpt lat="46.56659" lon="5.55366">
        <ele>584.5</ele>
        <time>2022-06-11T10:33:06Z</time>
      </trkpt>
      <trkpt lat="46.56654" lon="5.55366">
        <ele>585.2</ele>
        <time>2022-06-11T10:33:11Z</time>
      </trkpt>
      <trkpt lat="46.56649" lon="5.55365">
        <ele>585.9</ele>
        <time>2022-06-11T10:33:16Z</time>
      </trkpt>
      <trkpt lat="46.56644" lon="5.55363">
        <ele>586.7</ele>
        <time>2022-06-11T10:33:20Z</time>
      </trkpt>
      <trkpt lat="46.56639" lon="5.55362">
        <ele>587.3</ele>
        <time>2022-06-11T10:33:24Z</time>
      </trkpt>
      <trkpt lat="46.56635" lon="5.55356">
        <ele>589.2</ele>
        <time>2022-06-11T10:33:32Z</time>
      </trkpt>
      <trkpt lat="46.56632" lon="5.5535">
        <ele>589.8</ele>
        <time>2022-06-11T10:33:35Z</time>
      </trkpt>
      <trkpt lat="46.56628" lon="5.55346">
        <ele>590.3</ele>
        <time>2022-06-11T10:33:38Z</time>
      </trkpt>
      <trkpt lat="46.56624" lon="5.55342">
        <ele>590.6</ele>
        <time>2022-06-11T10:33:44Z</time>
      </trkpt>
      <trkpt lat="46.56619" lon="5.55341">
        <ele>591.1</ele>
        <time>2022-06-11T10:33:50Z</time>
      </trkpt>
      <trkpt lat="46.56615" lon="5.55338">
        <ele>591.6</ele>
        <time>2022-06-11T10:33:54Z</time>
      </trkpt>
      <trkpt lat="46.5661" lon="5.55335">
        <ele>591.9</ele>
        <time>2022-06-11T10:33:58Z</time>
      </trkpt>
      <trkpt lat="46.56604" lon="5.55333">
        <ele>592.5</ele>
        <time>2022-06-11T10:34:02Z</time>
      </trkpt>
      <trkpt lat="46.566" lon="5.5533">
        <ele>592.9</ele>
        <time>2022-06-11T10:34:05Z</time>
      </trkpt>
      <trkpt lat="46.56596" lon="5.55327">
        <ele>593.4</ele>
        <time>2022-06-11T10:34:09Z</time>
      </trkpt>
      <trkpt lat="46.56592" lon="5.55323">
        <ele>594</ele>
        <time>2022-06-11T10:34:13Z</time>
      </trkpt>
      <trkpt lat="46.56588" lon="5.55318">
        <ele>594.6</ele>
        <time>2022-06-11T10:34:17Z</time>
      </trkpt>
      <trkpt lat="46.56584" lon="5.55313">
        <ele>594.9</ele>
        <time>2022-06-11T10:34:26Z</time>
      </trkpt>
      <trkpt lat="46.5658" lon="5.55309">
        <ele>595.3</ele>
        <time>2022-06-11T10:34:34Z</time>
      </trkpt>
      <trkpt lat="46.56575" lon="5.5531">
        <ele>595.9</ele>
        <time>2022-06-11T10:34:39Z</time>
      </trkpt>
      <trkpt lat="46.5657" lon="5.5531">
        <ele>596.8</ele>
        <time>2022-06-11T10:34:45Z</time>
      </trkpt>
      <trkpt lat="46.56565" lon="5.55309">
        <ele>597.6</ele>
        <time>2022-06-11T10:34:49Z</time>
      </trkpt>
      <trkpt lat="46.5656" lon="5.55309">
        <ele>598.5</ele>
        <time>2022-06-11T10:34:53Z</time>
      </trkpt>
      <trkpt lat="46.56556" lon="5.55305">
        <ele>599.4</ele>
        <time>2022-06-11T10:35:01Z</time>
      </trkpt>
      <trkpt lat="46.56552" lon="5.55301">
        <ele>600</ele>
        <time>2022-06-11T10:35:08Z</time>
      </trkpt>
      <trkpt lat="46.56548" lon="5.55298">
        <ele>600.8</ele>
        <time>2022-06-11T10:35:12Z</time>
      </trkpt>
      <trkpt lat="46.56543" lon="5.55296">
        <ele>601.4</ele>
        <time>2022-06-11T10:35:17Z</time>
      </trkpt>
      <trkpt lat="46.56539" lon="5.55293">
        <ele>601.7</ele>
        <time>2022-06-11T10:35:22Z</time>
      </trkpt>
      <trkpt lat="46.56535" lon="5.55288">
        <ele>601.5</ele>
        <time>2022-06-11T10:35:28Z</time>
      </trkpt>
      <trkpt lat="46.56531" lon="5.55285">
        <ele>602.1</ele>
        <time>2022-06-11T10:35:34Z</time>
      </trkpt>
      <trkpt lat="46.56527" lon="5.55282">
        <ele>601.8</ele>
        <time>2022-06-11T10:35:38Z</time>
      </trkpt>
      <trkpt lat="46.56522" lon="5.55278">
        <ele>601.7</ele>
        <time>2022-06-11T10:35:44Z</time>
      </trkpt>
      <trkpt lat="46.56516" lon="5.55277">
        <ele>601.5</ele>
        <time>2022-06-11T10:35:48Z</time>
      </trkpt>
      <trkpt lat="46.56512" lon="5.55275">
        <ele>601.3</ele>
        <time>2022-06-11T10:35:53Z</time>
      </trkpt>
      <trkpt lat="46.56507" lon="5.55274">
        <ele>601.1</ele>
        <time>2022-06-11T10:36:01Z</time>
      </trkpt>
      <trkpt lat="46.56502" lon="5.55271">
        <ele>601.1</ele>
        <time>2022-06-11T10:36:08Z</time>
      </trkpt>
      <trkpt lat="46.56497" lon="5.55272">
        <ele>602.7</ele>
        <time>2022-06-11T10:36:16Z</time>
      </trkpt>
      <trkpt lat="46.56493" lon="5.55268">
        <ele>606.1</ele>
        <time>2022-06-11T10:36:22Z</time>
      </trkpt>
      <trkpt lat="46.56489" lon="5.55263">
        <ele>608.8</ele>
        <time>2022-06-11T10:36:27Z</time>
      </trkpt>
      <trkpt lat="46.56485" lon="5.5526">
        <ele>611</ele>
        <time>2022-06-11T10:36:33Z</time>
      </trkpt>
      <trkpt lat="46.5648" lon="5.55259">
        <ele>612.8</ele>
        <time>2022-06-11T10:36:42Z</time>
      </trkpt>
      <trkpt lat="46.56475" lon="5.55255">
        <ele>613.9</ele>
        <time>2022-06-11T10:36:49Z</time>
      </trkpt>
      <trkpt lat="46.56472" lon="5.55249">
        <ele>614.2</ele>
        <time>2022-06-11T10:36:54Z</time>
      </trkpt>
      <trkpt lat="46.56468" lon="5.55245">
        <ele>614.7</ele>
        <time>2022-06-11T10:36:59Z</time>
      </trkpt>
      <trkpt lat="46.56464" lon="5.55239">
        <ele>614.8</ele>
        <time>2022-06-11T10:37:05Z</time>
      </trkpt>
      <trkpt lat="46.56461" lon="5.55234">
        <ele>614.3</ele>
        <time>2022-06-11T10:37:12Z</time>
      </trkpt>
      <trkpt lat="46.56459" lon="5.55228">
        <ele>613.6</ele>
        <time>2022-06-11T10:37:17Z</time>
      </trkpt>
      <trkpt lat="46.56458" lon="5.5522">
        <ele>613</ele>
        <time>2022-06-11T10:37:23Z</time>
      </trkpt>
      <trkpt lat="46.56456" lon="5.55212">
        <ele>612.7</ele>
        <time>2022-06-11T10:37:27Z</time>
      </trkpt>
      <trkpt lat="46.56452" lon="5.55206">
        <ele>612.9</ele>
        <time>2022-06-11T10:37:32Z</time>
      </trkpt>
      <trkpt lat="46.56448" lon="5.55199">
        <ele>613.4</ele>
        <time>2022-06-11T10:37:36Z</time>
      </trkpt>
      <trkpt lat="46.56447" lon="5.55191">
        <ele>613.6</ele>
        <time>2022-06-11T10:37:40Z</time>
      </trkpt>
      <trkpt lat="46.56447" lon="5.55185">
        <ele>613.2</ele>
        <time>2022-06-11T10:37:44Z</time>
      </trkpt>
      <trkpt lat="46.56446" lon="5.55178">
        <ele>613.2</ele>
        <time>2022-06-11T10:37:51Z</time>
      </trkpt>
      <trkpt lat="46.56442" lon="5.55172">
        <ele>613.5</ele>
        <time>2022-06-11T10:37:57Z</time>
      </trkpt>
      <trkpt lat="46.56438" lon="5.55167">
        <ele>613.5</ele>
        <time>2022-06-11T10:38:05Z</time>
      </trkpt>
      <trkpt lat="46.56434" lon="5.55163">
        <ele>613.4</ele>
        <time>2022-06-11T10:38:10Z</time>
      </trkpt>
      <trkpt lat="46.56428" lon="5.5517">
        <ele>614.3</ele>
        <time>2022-06-11T10:38:30Z</time>
      </trkpt>
      <trkpt lat="46.56425" lon="5.55175">
        <ele>615.4</ele>
        <time>2022-06-11T10:38:34Z</time>
      </trkpt>
      <trkpt lat="46.56427" lon="5.55182">
        <ele>616.4</ele>
        <time>2022-06-11T10:38:40Z</time>
      </trkpt>
      <trkpt lat="46.56431" lon="5.55178">
        <ele>615.4</ele>
        <time>2022-06-11T10:39:05Z</time>
      </trkpt>
      <trkpt lat="46.56433" lon="5.55173">
        <ele>614.8</ele>
        <time>2022-06-11T10:39:12Z</time>
      </trkpt>
      <trkpt lat="46.56432" lon="5.55166">
        <ele>613.1</ele>
        <time>2022-06-11T10:45:26Z</time>
      </trkpt>
      <trkpt lat="46.56432" lon="5.55173">
        <ele>610.3</ele>
        <time>2022-06-11T10:46:31Z</time>
      </trkpt>
      <trkpt lat="46.56432" lon="5.55182">
        <ele>611.6</ele>
        <time>2022-06-11T10:46:47Z</time>
      </trkpt>
      <trkpt lat="46.56435" lon="5.55175">
        <ele>612.9</ele>
        <time>2022-06-11T10:47:09Z</time>
      </trkpt>
      <trkpt lat="46.56437" lon="5.55169">
        <ele>613.2</ele>
        <time>2022-06-11T10:47:14Z</time>
      </trkpt>
      <trkpt lat="46.56433" lon="5.55174">
        <ele>613.8</ele>
        <time>2022-06-11T10:48:07Z</time>
      </trkpt>
      <trkpt lat="46.56435" lon="5.55167">
        <ele>613.6</ele>
        <time>2022-06-11T10:48:52Z</time>
      </trkpt>
      <trkpt lat="46.56432" lon="5.55162">
        <ele>611.4</ele>
        <time>2022-06-11T10:50:00Z</time>
      </trkpt>
      <trkpt lat="46.56437" lon="5.55166">
        <ele>612.1</ele>
        <time>2022-06-11T10:51:02Z</time>
      </trkpt>
      <trkpt lat="46.56437" lon="5.5516">
        <ele>613.5</ele>
        <time>2022-06-11T10:53:26Z</time>
      </trkpt>
      <trkpt lat="46.56434" lon="5.55165">
        <ele>612.2</ele>
        <time>2022-06-11T10:54:20Z</time>
      </trkpt>
      <trkpt lat="46.56436" lon="5.55171">
        <ele>618.4</ele>
        <time>2022-06-11T10:57:32Z</time>
      </trkpt>
      <trkpt lat="46.56434" lon="5.55177">
        <ele>618.4</ele>
        <time>2022-06-11T10:57:56Z</time>
      </trkpt>
      <trkpt lat="46.56432" lon="5.5517">
        <ele>618.3</ele>
        <time>2022-06-11T11:01:56Z</time>
      </trkpt>
      <trkpt lat="46.56433" lon="5.55163">
        <ele>615.2</ele>
        <time>2022-06-11T11:07:44Z</time>
      </trkpt>
      <trkpt lat="46.56434" lon="5.55155">
        <ele>613.2</ele>
        <time>2022-06-11T11:07:48Z</time>
      </trkpt>
      <trkpt lat="46.56434" lon="5.55163">
        <ele>610.1</ele>
        <time>2022-06-11T11:08:20Z</time>
      </trkpt>
      <trkpt lat="46.56436" lon="5.55169">
        <ele>607.9</ele>
        <time>2022-06-11T11:09:36Z</time>
      </trkpt>
      <trkpt lat="46.5644" lon="5.55165">
        <ele>610.2</ele>
        <time>2022-06-11T11:10:08Z</time>
      </trkpt>
      <trkpt lat="46.56434" lon="5.55166">
        <ele>612.5</ele>
        <time>2022-06-11T11:11:12Z</time>
      </trkpt>
      <trkpt lat="46.5643" lon="5.55166">
        <ele>615</ele>
        <time>2022-06-11T11:11:20Z</time>
      </trkpt>
      <trkpt lat="46.56436" lon="5.55167">
        <ele>618.1</ele>
        <time>2022-06-11T11:12:04Z</time>
      </trkpt>
      <trkpt lat="46.56441" lon="5.55165">
        <ele>620</ele>
        <time>2022-06-11T11:12:09Z</time>
      </trkpt>
      <trkpt lat="46.56436" lon="5.55172">
        <ele>625.3</ele>
        <time>2022-06-11T11:12:43Z</time>
      </trkpt>
      <trkpt lat="46.56431" lon="5.55172">
        <ele>626</ele>
        <time>2022-06-11T11:12:47Z</time>
      </trkpt>
      <trkpt lat="46.56436" lon="5.55173">
        <ele>630.8</ele>
        <time>2022-06-11T11:13:04Z</time>
      </trkpt>
      <trkpt lat="46.56432" lon="5.5517">
        <ele>624.2</ele>
        <time>2022-06-11T11:15:02Z</time>
      </trkpt>
      <trkpt lat="46.56434" lon="5.55163">
        <ele>610</ele>
        <time>2022-06-11T11:16:26Z</time>
      </trkpt>
      <trkpt lat="46.56439" lon="5.55161">
        <ele>608.3</ele>
        <time>2022-06-11T11:16:36Z</time>
      </trkpt>
      <trkpt lat="46.56435" lon="5.55158">
        <ele>611.5</ele>
        <time>2022-06-11T11:17:33Z</time>
      </trkpt>
      <trkpt lat="46.56435" lon="5.55165">
        <ele>612.4</ele>
        <time>2022-06-11T11:17:52Z</time>
      </trkpt>
      <trkpt lat="46.56439" lon="5.55169">
        <ele>613.6</ele>
        <time>2022-06-11T11:17:56Z</time>
      </trkpt>
      <trkpt lat="46.56443" lon="5.55168">
        <ele>616.3</ele>
        <time>2022-06-11T11:18:04Z</time>
      </trkpt>
      <trkpt lat="46.56448" lon="5.55166">
        <ele>617.8</ele>
        <time>2022-06-11T11:18:07Z</time>
      </trkpt>
      <trkpt lat="46.56442" lon="5.55168">
        <ele>620.6</ele>
        <time>2022-06-11T11:18:29Z</time>
      </trkpt>
      <trkpt lat="46.56438" lon="5.55165">
        <ele>619</ele>
        <time>2022-06-11T11:18:47Z</time>
      </trkpt>
      <trkpt lat="46.56432" lon="5.55166">
        <ele>612.1</ele>
        <time>2022-06-11T11:19:56Z</time>
      </trkpt>
      <trkpt lat="46.56428" lon="5.5517">
        <ele>617.9</ele>
        <time>2022-06-11T11:24:38Z</time>
      </trkpt>
      <trkpt lat="46.56425" lon="5.55175">
        <ele>618.2</ele>
        <time>2022-06-11T11:24:42Z</time>
      </trkpt>
      <trkpt lat="46.56429" lon="5.55168">
        <ele>613.7</ele>
        <time>2022-06-11T11:25:18Z</time>
      </trkpt>
      <trkpt lat="46.56432" lon="5.55163">
        <ele>612.1</ele>
        <time>2022-06-11T11:25:23Z</time>
      </trkpt>
      <trkpt lat="46.56428" lon="5.55168">
        <ele>611.1</ele>
        <time>2022-06-11T11:25:27Z</time>
      </trkpt>
      <trkpt lat="46.56425" lon="5.55173">
        <ele>610.3</ele>
        <time>2022-06-11T11:25:32Z</time>
      </trkpt>
      <trkpt lat="46.56424" lon="5.55166">
        <ele>612.8</ele>
        <time>2022-06-11T11:25:48Z</time>
      </trkpt>
      <trkpt lat="46.56424" lon="5.55159">
        <ele>614.8</ele>
        <time>2022-06-11T11:25:58Z</time>
      </trkpt>
      <trkpt lat="46.5642" lon="5.55154">
        <ele>613.8</ele>
        <time>2022-06-11T11:26:07Z</time>
      </trkpt>
      <trkpt lat="46.56414" lon="5.55153">
        <ele>613.3</ele>
        <time>2022-06-11T11:26:12Z</time>
      </trkpt>
      <trkpt lat="46.5641" lon="5.55154">
        <ele>613.2</ele>
        <time>2022-06-11T11:26:15Z</time>
      </trkpt>
      <trkpt lat="46.56405" lon="5.55154">
        <ele>613.3</ele>
        <time>2022-06-11T11:26:19Z</time>
      </trkpt>
      <trkpt lat="46.564" lon="5.55153">
        <ele>613.4</ele>
        <time>2022-06-11T11:26:24Z</time>
      </trkpt>
      <trkpt lat="46.56395" lon="5.55151">
        <ele>614.2</ele>
        <time>2022-06-11T11:26:29Z</time>
      </trkpt>
      <trkpt lat="46.5639" lon="5.55152">
        <ele>614.8</ele>
        <time>2022-06-11T11:26:34Z</time>
      </trkpt>
      <trkpt lat="46.56385" lon="5.55152">
        <ele>615.7</ele>
        <time>2022-06-11T11:26:38Z</time>
      </trkpt>
      <trkpt lat="46.5638" lon="5.55155">
        <ele>616.7</ele>
        <time>2022-06-11T11:26:42Z</time>
      </trkpt>
      <trkpt lat="46.56375" lon="5.55155">
        <ele>619.1</ele>
        <time>2022-06-11T11:26:49Z</time>
      </trkpt>
      <trkpt lat="46.56372" lon="5.5515">
        <ele>623.5</ele>
        <time>2022-06-11T11:26:57Z</time>
      </trkpt>
      <trkpt lat="46.56367" lon="5.55153">
        <ele>626.6</ele>
        <time>2022-06-11T11:27:02Z</time>
      </trkpt>
      <trkpt lat="46.56362" lon="5.55152">
        <ele>630.1</ele>
        <time>2022-06-11T11:27:10Z</time>
      </trkpt>
      <trkpt lat="46.56359" lon="5.55147">
        <ele>631.3</ele>
        <time>2022-06-11T11:27:16Z</time>
      </trkpt>
      <trkpt lat="46.56355" lon="5.55143">
        <ele>632.4</ele>
        <time>2022-06-11T11:27:25Z</time>
      </trkpt>
      <trkpt lat="46.5635" lon="5.55143">
        <ele>632.3</ele>
        <time>2022-06-11T11:27:31Z</time>
      </trkpt>
      <trkpt lat="46.56345" lon="5.5514">
        <ele>632</ele>
        <time>2022-06-11T11:27:36Z</time>
      </trkpt>
      <trkpt lat="46.56341" lon="5.55135">
        <ele>631.7</ele>
        <time>2022-06-11T11:27:41Z</time>
      </trkpt>
      <trkpt lat="46.56338" lon="5.5513">
        <ele>630</ele>
        <time>2022-06-11T11:27:48Z</time>
      </trkpt>
      <trkpt lat="46.56333" lon="5.55126">
        <ele>628.4</ele>
        <time>2022-06-11T11:27:53Z</time>
      </trkpt>
      <trkpt lat="46.56329" lon="5.55122">
        <ele>627</ele>
        <time>2022-06-11T11:27:58Z</time>
      </trkpt>
      <trkpt lat="46.56325" lon="5.55118">
        <ele>626.1</ele>
        <time>2022-06-11T11:28:03Z</time>
      </trkpt>
      <trkpt lat="46.56321" lon="5.55115">
        <ele>625.9</ele>
        <time>2022-06-11T11:28:07Z</time>
      </trkpt>
      <trkpt lat="46.56317" lon="5.55114">
        <ele>626.1</ele>
        <time>2022-06-11T11:28:11Z</time>
      </trkpt>
      <trkpt lat="46.56312" lon="5.55113">
        <ele>627</ele>
        <time>2022-06-11T11:28:16Z</time>
      </trkpt>
      <trkpt lat="46.56307" lon="5.55111">
        <ele>627.9</ele>
        <time>2022-06-11T11:28:21Z</time>
      </trkpt>
      <trkpt lat="46.56303" lon="5.55106">
        <ele>629.2</ele>
        <time>2022-06-11T11:28:27Z</time>
      </trkpt>
      <trkpt lat="46.56299" lon="5.551">
        <ele>630.1</ele>
        <time>2022-06-11T11:28:33Z</time>
      </trkpt>
      <trkpt lat="46.56297" lon="5.55094">
        <ele>630.4</ele>
        <time>2022-06-11T11:28:38Z</time>
      </trkpt>
      <trkpt lat="46.56294" lon="5.5509">
        <ele>630.5</ele>
        <time>2022-06-11T11:28:42Z</time>
      </trkpt>
      <trkpt lat="46.56289" lon="5.55086">
        <ele>630.7</ele>
        <time>2022-06-11T11:28:46Z</time>
      </trkpt>
      <trkpt lat="46.56285" lon="5.55082">
        <ele>630.9</ele>
        <time>2022-06-11T11:28:50Z</time>
      </trkpt>
      <trkpt lat="46.56281" lon="5.55079">
        <ele>630.9</ele>
        <time>2022-06-11T11:28:55Z</time>
      </trkpt>
      <trkpt lat="46.56275" lon="5.55076">
        <ele>630.6</ele>
        <time>2022-06-11T11:28:59Z</time>
      </trkpt>
      <trkpt lat="46.5627" lon="5.55072">
        <ele>630.4</ele>
        <time>2022-06-11T11:29:03Z</time>
      </trkpt>
      <trkpt lat="46.56265" lon="5.55069">
        <ele>630.3</ele>
        <time>2022-06-11T11:29:07Z</time>
      </trkpt>
      <trkpt lat="46.56261" lon="5.55064">
        <ele>630.6</ele>
        <time>2022-06-11T11:29:11Z</time>
      </trkpt>
      <trkpt lat="46.56257" lon="5.55061">
        <ele>630.9</ele>
        <time>2022-06-11T11:29:14Z</time>
      </trkpt>
      <trkpt lat="46.56251" lon="5.55059">
        <ele>631.5</ele>
        <time>2022-06-11T11:29:18Z</time>
      </trkpt>
      <trkpt lat="46.56246" lon="5.55057">
        <ele>632.2</ele>
        <time>2022-06-11T11:29:22Z</time>
      </trkpt>
      <trkpt lat="46.56241" lon="5.55054">
        <ele>632.9</ele>
        <time>2022-06-11T11:29:27Z</time>
      </trkpt>
      <trkpt lat="46.56239" lon="5.55049">
        <ele>633.7</ele>
        <time>2022-06-11T11:29:32Z</time>
      </trkpt>
      <trkpt lat="46.56236" lon="5.55043">
        <ele>634.3</ele>
        <time>2022-06-11T11:29:38Z</time>
      </trkpt>
      <trkpt lat="46.56231" lon="5.55042">
        <ele>634.8</ele>
        <time>2022-06-11T11:29:43Z</time>
      </trkpt>
      <trkpt lat="46.56227" lon="5.5504">
        <ele>635.2</ele>
        <time>2022-06-11T11:29:47Z</time>
      </trkpt>
      <trkpt lat="46.56222" lon="5.55037">
        <ele>635.5</ele>
        <time>2022-06-11T11:29:50Z</time>
      </trkpt>
      <trkpt lat="46.56218" lon="5.55034">
        <ele>636</ele>
        <time>2022-06-11T11:29:54Z</time>
      </trkpt>
      <trkpt lat="46.56214" lon="5.5503">
        <ele>636.5</ele>
        <time>2022-06-11T11:29:59Z</time>
      </trkpt>
      <trkpt lat="46.5621" lon="5.55026">
        <ele>636.9</ele>
        <time>2022-06-11T11:30:04Z</time>
      </trkpt>
      <trkpt lat="46.56205" lon="5.55023">
        <ele>636.8</ele>
        <time>2022-06-11T11:30:08Z</time>
      </trkpt>
      <trkpt lat="46.56201" lon="5.55019">
        <ele>636.6</ele>
        <time>2022-06-11T11:30:13Z</time>
      </trkpt>
      <trkpt lat="46.56197" lon="5.55014">
        <ele>635.4</ele>
        <time>2022-06-11T11:30:21Z</time>
      </trkpt>
      <trkpt lat="46.56193" lon="5.5501">
        <ele>635.1</ele>
        <time>2022-06-11T11:30:27Z</time>
      </trkpt>
      <trkpt lat="46.56188" lon="5.55008">
        <ele>634.7</ele>
        <time>2022-06-11T11:30:32Z</time>
      </trkpt>
      <trkpt lat="46.56186" lon="5.55001">
        <ele>635.4</ele>
        <time>2022-06-11T11:30:40Z</time>
      </trkpt>
      <trkpt lat="46.56183" lon="5.54995">
        <ele>636.5</ele>
        <time>2022-06-11T11:30:48Z</time>
      </trkpt>
      <trkpt lat="46.56179" lon="5.54992">
        <ele>636.6</ele>
        <time>2022-06-11T11:30:52Z</time>
      </trkpt>
      <trkpt lat="46.56174" lon="5.54988">
        <ele>636.5</ele>
        <time>2022-06-11T11:30:57Z</time>
      </trkpt>
      <trkpt lat="46.56171" lon="5.54983">
        <ele>636.7</ele>
        <time>2022-06-11T11:31:01Z</time>
      </trkpt>
      <trkpt lat="46.56166" lon="5.54979">
        <ele>635.3</ele>
        <time>2022-06-11T11:31:06Z</time>
      </trkpt>
      <trkpt lat="46.56162" lon="5.54976">
        <ele>633.5</ele>
        <time>2022-06-11T11:31:10Z</time>
      </trkpt>
      <trkpt lat="46.56157" lon="5.54974">
        <ele>632.4</ele>
        <time>2022-06-11T11:31:15Z</time>
      </trkpt>
      <trkpt lat="46.56152" lon="5.54972">
        <ele>631.9</ele>
        <time>2022-06-11T11:31:19Z</time>
      </trkpt>
      <trkpt lat="46.56147" lon="5.54969">
        <ele>630.9</ele>
        <time>2022-06-11T11:31:25Z</time>
      </trkpt>
      <trkpt lat="46.56143" lon="5.54965">
        <ele>630.5</ele>
        <time>2022-06-11T11:31:30Z</time>
      </trkpt>
      <trkpt lat="46.56138" lon="5.5496">
        <ele>630.7</ele>
        <time>2022-06-11T11:31:36Z</time>
      </trkpt>
      <trkpt lat="46.56134" lon="5.54955">
        <ele>630.8</ele>
        <time>2022-06-11T11:31:41Z</time>
      </trkpt>
      <trkpt lat="46.56131" lon="5.54949">
        <ele>630.9</ele>
        <time>2022-06-11T11:31:45Z</time>
      </trkpt>
      <trkpt lat="46.56126" lon="5.54948">
        <ele>631.1</ele>
        <time>2022-06-11T11:31:49Z</time>
      </trkpt>
      <trkpt lat="46.56121" lon="5.54945">
        <ele>632.1</ele>
        <time>2022-06-11T11:31:57Z</time>
      </trkpt>
      <trkpt lat="46.56118" lon="5.54941">
        <ele>632.2</ele>
        <time>2022-06-11T11:32:00Z</time>
      </trkpt>
      <trkpt lat="46.56113" lon="5.54937">
        <ele>632.4</ele>
        <time>2022-06-11T11:32:04Z</time>
      </trkpt>
      <trkpt lat="46.5611" lon="5.54931">
        <ele>632.4</ele>
        <time>2022-06-11T11:32:08Z</time>
      </trkpt>
      <trkpt lat="46.56105" lon="5.54928">
        <ele>631.9</ele>
        <time>2022-06-11T11:32:12Z</time>
      </trkpt>
      <trkpt lat="46.561" lon="5.54926">
        <ele>631.6</ele>
        <time>2022-06-11T11:32:18Z</time>
      </trkpt>
      <trkpt lat="46.56096" lon="5.54921">
        <ele>630.8</ele>
        <time>2022-06-11T11:32:25Z</time>
      </trkpt>
      <trkpt lat="46.56091" lon="5.54919">
        <ele>630.3</ele>
        <time>2022-06-11T11:32:30Z</time>
      </trkpt>
      <trkpt lat="46.56086" lon="5.54922">
        <ele>630</ele>
        <time>2022-06-11T11:32:35Z</time>
      </trkpt>
      <trkpt lat="46.56082" lon="5.54919">
        <ele>631</ele>
        <time>2022-06-11T11:32:44Z</time>
      </trkpt>
      <trkpt lat="46.56078" lon="5.54917">
        <ele>632.2</ele>
        <time>2022-06-11T11:32:49Z</time>
      </trkpt>
      <trkpt lat="46.56073" lon="5.54914">
        <ele>633.9</ele>
        <time>2022-06-11T11:32:57Z</time>
      </trkpt>
      <trkpt lat="46.56068" lon="5.54912">
        <ele>635.7</ele>
        <time>2022-06-11T11:33:03Z</time>
      </trkpt>
      <trkpt lat="46.56063" lon="5.54911">
        <ele>639.8</ele>
        <time>2022-06-11T11:33:12Z</time>
      </trkpt>
      <trkpt lat="46.56058" lon="5.54911">
        <ele>641.6</ele>
        <time>2022-06-11T11:33:26Z</time>
      </trkpt>
      <trkpt lat="46.56053" lon="5.54909">
        <ele>641.2</ele>
        <time>2022-06-11T11:33:29Z</time>
      </trkpt>
      <trkpt lat="46.56048" lon="5.54908">
        <ele>640.3</ele>
        <time>2022-06-11T11:33:33Z</time>
      </trkpt>
      <trkpt lat="46.56043" lon="5.54907">
        <ele>639.4</ele>
        <time>2022-06-11T11:33:37Z</time>
      </trkpt>
      <trkpt lat="46.56038" lon="5.54907">
        <ele>638.8</ele>
        <time>2022-06-11T11:33:42Z</time>
      </trkpt>
      <trkpt lat="46.56034" lon="5.54905">
        <ele>638.5</ele>
        <time>2022-06-11T11:33:49Z</time>
      </trkpt>
      <trkpt lat="46.56029" lon="5.54902">
        <ele>638.4</ele>
        <time>2022-06-11T11:34:00Z</time>
      </trkpt>
      <trkpt lat="46.56024" lon="5.54901">
        <ele>638</ele>
        <time>2022-06-11T11:34:05Z</time>
      </trkpt>
      <trkpt lat="46.5602" lon="5.54898">
        <ele>637.9</ele>
        <time>2022-06-11T11:34:11Z</time>
      </trkpt>
      <trkpt lat="46.56015" lon="5.54897">
        <ele>637.7</ele>
        <time>2022-06-11T11:34:17Z</time>
      </trkpt>
      <trkpt lat="46.5601" lon="5.54894">
        <ele>637.2</ele>
        <time>2022-06-11T11:34:22Z</time>
      </trkpt>
      <trkpt lat="46.56005" lon="5.5489">
        <ele>636.9</ele>
        <time>2022-06-11T11:34:26Z</time>
      </trkpt>
      <trkpt lat="46.56001" lon="5.54886">
        <ele>636.5</ele>
        <time>2022-06-11T11:34:30Z</time>
      </trkpt>
      <trkpt lat="46.55997" lon="5.54882">
        <ele>636.4</ele>
        <time>2022-06-11T11:34:35Z</time>
      </trkpt>
      <trkpt lat="46.55993" lon="5.54878">
        <ele>636.9</ele>
        <time>2022-06-11T11:34:41Z</time>
      </trkpt>
      <trkpt lat="46.55991" lon="5.54871">
        <ele>636.9</ele>
        <time>2022-06-11T11:34:47Z</time>
      </trkpt>
      <trkpt lat="46.55986" lon="5.54868">
        <ele>635.5</ele>
        <time>2022-06-11T11:34:53Z</time>
      </trkpt>
      <trkpt lat="46.55982" lon="5.54865">
        <ele>635.1</ele>
        <time>2022-06-11T11:34:56Z</time>
      </trkpt>
      <trkpt lat="46.55977" lon="5.5486">
        <ele>634.9</ele>
        <time>2022-06-11T11:35:00Z</time>
      </trkpt>
      <trkpt lat="46.55973" lon="5.54856">
        <ele>634.9</ele>
        <time>2022-06-11T11:35:04Z</time>
      </trkpt>
      <trkpt lat="46.5597" lon="5.5485">
        <ele>634.6</ele>
        <time>2022-06-11T11:35:09Z</time>
      </trkpt>
      <trkpt lat="46.55966" lon="5.54842">
        <ele>628.1</ele>
        <time>2022-06-11T11:35:37Z</time>
      </trkpt>
      <trkpt lat="46.55963" lon="5.54835">
        <ele>624.9</ele>
        <time>2022-06-11T11:35:40Z</time>
      </trkpt>
      <trkpt lat="46.5596" lon="5.5483">
        <ele>622.1</ele>
        <time>2022-06-11T11:35:43Z</time>
      </trkpt>
      <trkpt lat="46.55955" lon="5.54826">
        <ele>619.6</ele>
        <time>2022-06-11T11:35:47Z</time>
      </trkpt>
      <trkpt lat="46.55949" lon="5.54825">
        <ele>618.2</ele>
        <time>2022-06-11T11:35:51Z</time>
      </trkpt>
      <trkpt lat="46.55945" lon="5.54821">
        <ele>617.5</ele>
        <time>2022-06-11T11:35:54Z</time>
      </trkpt>
      <trkpt lat="46.55939" lon="5.54818">
        <ele>617.1</ele>
        <time>2022-06-11T11:35:57Z</time>
      </trkpt>
      <trkpt lat="46.55934" lon="5.54814">
        <ele>617.1</ele>
        <time>2022-06-11T11:36:00Z</time>
      </trkpt>
      <trkpt lat="46.5593" lon="5.54811">
        <ele>617.6</ele>
        <time>2022-06-11T11:36:03Z</time>
      </trkpt>
      <trkpt lat="46.55927" lon="5.54806">
        <ele>620.2</ele>
        <time>2022-06-11T11:36:14Z</time>
      </trkpt>
      <trkpt lat="46.55923" lon="5.54801">
        <ele>622</ele>
        <time>2022-06-11T11:36:21Z</time>
      </trkpt>
      <trkpt lat="46.55919" lon="5.54797">
        <ele>623.4</ele>
        <time>2022-06-11T11:36:28Z</time>
      </trkpt>
      <trkpt lat="46.55915" lon="5.54794">
        <ele>624</ele>
        <time>2022-06-11T11:36:37Z</time>
      </trkpt>
      <trkpt lat="46.55912" lon="5.54788">
        <ele>624.6</ele>
        <time>2022-06-11T11:36:42Z</time>
      </trkpt>
      <trkpt lat="46.55908" lon="5.54783">
        <ele>625.3</ele>
        <time>2022-06-11T11:36:48Z</time>
      </trkpt>
      <trkpt lat="46.55903" lon="5.54774">
        <ele>626.3</ele>
        <time>2022-06-11T11:37:02Z</time>
      </trkpt>
      <trkpt lat="46.55901" lon="5.54767">
        <ele>626.4</ele>
        <time>2022-06-11T11:37:05Z</time>
      </trkpt>
      <trkpt lat="46.55899" lon="5.54761">
        <ele>626.8</ele>
        <time>2022-06-11T11:37:11Z</time>
      </trkpt>
      <trkpt lat="46.55896" lon="5.54755">
        <ele>627</ele>
        <time>2022-06-11T11:37:16Z</time>
      </trkpt>
      <trkpt lat="46.55894" lon="5.54748">
        <ele>626.7</ele>
        <time>2022-06-11T11:37:21Z</time>
      </trkpt>
      <trkpt lat="46.55894" lon="5.54741">
        <ele>626.2</ele>
        <time>2022-06-11T11:37:28Z</time>
      </trkpt>
      <trkpt lat="46.55891" lon="5.54734">
        <ele>625.7</ele>
        <time>2022-06-11T11:37:36Z</time>
      </trkpt>
      <trkpt lat="46.55888" lon="5.54729">
        <ele>625.3</ele>
        <time>2022-06-11T11:37:45Z</time>
      </trkpt>
      <trkpt lat="46.55884" lon="5.54724">
        <ele>625.5</ele>
        <time>2022-06-11T11:37:49Z</time>
      </trkpt>
      <trkpt lat="46.5588" lon="5.54719">
        <ele>625.7</ele>
        <time>2022-06-11T11:37:52Z</time>
      </trkpt>
      <trkpt lat="46.55875" lon="5.54717">
        <ele>626.5</ele>
        <time>2022-06-11T11:37:56Z</time>
      </trkpt>
      <trkpt lat="46.5587" lon="5.54713">
        <ele>632.1</ele>
        <time>2022-06-11T11:38:09Z</time>
      </trkpt>
      <trkpt lat="46.55864" lon="5.54716">
        <ele>633.9</ele>
        <time>2022-06-11T11:38:13Z</time>
      </trkpt>
      <trkpt lat="46.55859" lon="5.54717">
        <ele>634.8</ele>
        <time>2022-06-11T11:38:16Z</time>
      </trkpt>
      <trkpt lat="46.55854" lon="5.54719">
        <ele>635.2</ele>
        <time>2022-06-11T11:38:20Z</time>
      </trkpt>
      <trkpt lat="46.55849" lon="5.54719">
        <ele>634.8</ele>
        <time>2022-06-11T11:38:29Z</time>
      </trkpt>
      <trkpt lat="46.55843" lon="5.54718">
        <ele>634.8</ele>
        <time>2022-06-11T11:38:45Z</time>
      </trkpt>
      <trkpt lat="46.55839" lon="5.54717">
        <ele>635.9</ele>
        <time>2022-06-11T11:38:48Z</time>
      </trkpt>
      <trkpt lat="46.55834" lon="5.54715">
        <ele>637.4</ele>
        <time>2022-06-11T11:38:53Z</time>
      </trkpt>
      <trkpt lat="46.55829" lon="5.54711">
        <ele>638.1</ele>
        <time>2022-06-11T11:38:58Z</time>
      </trkpt>
      <trkpt lat="46.55824" lon="5.5471">
        <ele>638.1</ele>
        <time>2022-06-11T11:39:02Z</time>
      </trkpt>
      <trkpt lat="46.55819" lon="5.5471">
        <ele>638.4</ele>
        <time>2022-06-11T11:39:06Z</time>
      </trkpt>
      <trkpt lat="46.55815" lon="5.54707">
        <ele>640.2</ele>
        <time>2022-06-11T11:39:12Z</time>
      </trkpt>
      <trkpt lat="46.5581" lon="5.54707">
        <ele>640.4</ele>
        <time>2022-06-11T11:39:16Z</time>
      </trkpt>
      <trkpt lat="46.55805" lon="5.54705">
        <ele>640.4</ele>
        <time>2022-06-11T11:39:21Z</time>
      </trkpt>
      <trkpt lat="46.558" lon="5.54705">
        <ele>640.4</ele>
        <time>2022-06-11T11:39:28Z</time>
      </trkpt>
      <trkpt lat="46.55795" lon="5.54702">
        <ele>640</ele>
        <time>2022-06-11T11:39:32Z</time>
      </trkpt>
      <trkpt lat="46.55791" lon="5.547">
        <ele>639.5</ele>
        <time>2022-06-11T11:39:36Z</time>
      </trkpt>
      <trkpt lat="46.55786" lon="5.54699">
        <ele>639.3</ele>
        <time>2022-06-11T11:39:40Z</time>
      </trkpt>
      <trkpt lat="46.55782" lon="5.54697">
        <ele>639.6</ele>
        <time>2022-06-11T11:39:44Z</time>
      </trkpt>
      <trkpt lat="46.55777" lon="5.54696">
        <ele>640.9</ele>
        <time>2022-06-11T11:39:50Z</time>
      </trkpt>
      <trkpt lat="46.55771" lon="5.54695">
        <ele>642.1</ele>
        <time>2022-06-11T11:39:54Z</time>
      </trkpt>
      <trkpt lat="46.55768" lon="5.5469">
        <ele>642</ele>
        <time>2022-06-11T11:39:59Z</time>
      </trkpt>
      <trkpt lat="46.55767" lon="5.54683">
        <ele>640.2</ele>
        <time>2022-06-11T11:40:04Z</time>
      </trkpt>
      <trkpt lat="46.55763" lon="5.54679">
        <ele>638.5</ele>
        <time>2022-06-11T11:40:08Z</time>
      </trkpt>
      <trkpt lat="46.55758" lon="5.54675">
        <ele>637.5</ele>
        <time>2022-06-11T11:40:12Z</time>
      </trkpt>
      <trkpt lat="46.55753" lon="5.54673">
        <ele>637.1</ele>
        <time>2022-06-11T11:40:16Z</time>
      </trkpt>
      <trkpt lat="46.55749" lon="5.54672">
        <ele>637.3</ele>
        <time>2022-06-11T11:40:23Z</time>
      </trkpt>
      <trkpt lat="46.55744" lon="5.54671">
        <ele>637.6</ele>
        <time>2022-06-11T11:40:28Z</time>
      </trkpt>
      <trkpt lat="46.55739" lon="5.54668">
        <ele>638.2</ele>
        <time>2022-06-11T11:40:33Z</time>
      </trkpt>
      <trkpt lat="46.55734" lon="5.54666">
        <ele>639.4</ele>
        <time>2022-06-11T11:40:44Z</time>
      </trkpt>
      <trkpt lat="46.55729" lon="5.54667">
        <ele>640.2</ele>
        <time>2022-06-11T11:40:50Z</time>
      </trkpt>
      <trkpt lat="46.55724" lon="5.54667">
        <ele>640.5</ele>
        <time>2022-06-11T11:40:54Z</time>
      </trkpt>
      <trkpt lat="46.5572" lon="5.54662">
        <ele>640.5</ele>
        <time>2022-06-11T11:40:58Z</time>
      </trkpt>
      <trkpt lat="46.55715" lon="5.54658">
        <ele>640.6</ele>
        <time>2022-06-11T11:41:03Z</time>
      </trkpt>
      <trkpt lat="46.55713" lon="5.54653">
        <ele>640.1</ele>
        <time>2022-06-11T11:41:14Z</time>
      </trkpt>
      <trkpt lat="46.55708" lon="5.54648">
        <ele>639.7</ele>
        <time>2022-06-11T11:41:21Z</time>
      </trkpt>
      <trkpt lat="46.55705" lon="5.54642">
        <ele>640.4</ele>
        <time>2022-06-11T11:41:26Z</time>
      </trkpt>
      <trkpt lat="46.55702" lon="5.54638">
        <ele>641.8</ele>
        <time>2022-06-11T11:41:33Z</time>
      </trkpt>
      <trkpt lat="46.55697" lon="5.54634">
        <ele>640.5</ele>
        <time>2022-06-11T11:41:42Z</time>
      </trkpt>
      <trkpt lat="46.55693" lon="5.54633">
        <ele>639.4</ele>
        <time>2022-06-11T11:41:47Z</time>
      </trkpt>
      <trkpt lat="46.55688" lon="5.54632">
        <ele>638.7</ele>
        <time>2022-06-11T11:41:52Z</time>
      </trkpt>
      <trkpt lat="46.55683" lon="5.54631">
        <ele>638.5</ele>
        <time>2022-06-11T11:41:57Z</time>
      </trkpt>
      <trkpt lat="46.55679" lon="5.54628">
        <ele>638.5</ele>
        <time>2022-06-11T11:42:01Z</time>
      </trkpt>
      <trkpt lat="46.55674" lon="5.54625">
        <ele>638.4</ele>
        <time>2022-06-11T11:42:09Z</time>
      </trkpt>
      <trkpt lat="46.5567" lon="5.5462">
        <ele>639.3</ele>
        <time>2022-06-11T11:42:14Z</time>
      </trkpt>
      <trkpt lat="46.55669" lon="5.54614">
        <ele>640.3</ele>
        <time>2022-06-11T11:42:20Z</time>
      </trkpt>
      <trkpt lat="46.55666" lon="5.54608">
        <ele>640.5</ele>
        <time>2022-06-11T11:42:24Z</time>
      </trkpt>
      <trkpt lat="46.55662" lon="5.54603">
        <ele>640.5</ele>
        <time>2022-06-11T11:42:28Z</time>
      </trkpt>
      <trkpt lat="46.55657" lon="5.54601">
        <ele>640</ele>
        <time>2022-06-11T11:42:33Z</time>
      </trkpt>
      <trkpt lat="46.55652" lon="5.54598">
        <ele>637.3</ele>
        <time>2022-06-11T11:42:43Z</time>
      </trkpt>
      <trkpt lat="46.55648" lon="5.54595">
        <ele>636.4</ele>
        <time>2022-06-11T11:42:49Z</time>
      </trkpt>
      <trkpt lat="46.55643" lon="5.54592">
        <ele>635.3</ele>
        <time>2022-06-11T11:42:53Z</time>
      </trkpt>
      <trkpt lat="46.55638" lon="5.54591">
        <ele>634.4</ele>
        <time>2022-06-11T11:42:57Z</time>
      </trkpt>
      <trkpt lat="46.55636" lon="5.54585">
        <ele>634.2</ele>
        <time>2022-06-11T11:43:06Z</time>
      </trkpt>
      <trkpt lat="46.55636" lon="5.54578">
        <ele>633.4</ele>
        <time>2022-06-11T11:43:12Z</time>
      </trkpt>
      <trkpt lat="46.55636" lon="5.54571">
        <ele>632.7</ele>
        <time>2022-06-11T11:43:17Z</time>
      </trkpt>
      <trkpt lat="46.55631" lon="5.54571">
        <ele>634.3</ele>
        <time>2022-06-11T11:43:25Z</time>
      </trkpt>
      <trkpt lat="46.55629" lon="5.54577">
        <ele>637.8</ele>
        <time>2022-06-11T11:43:56Z</time>
      </trkpt>
      <trkpt lat="46.55632" lon="5.54583">
        <ele>639.2</ele>
        <time>2022-06-11T11:44:08Z</time>
      </trkpt>
      <trkpt lat="46.55633" lon="5.54589">
        <ele>640.2</ele>
        <time>2022-06-11T11:44:16Z</time>
      </trkpt>
      <trkpt lat="46.55631" lon="5.54595">
        <ele>639.3</ele>
        <time>2022-06-11T11:44:27Z</time>
      </trkpt>
      <trkpt lat="46.55631" lon="5.54588">
        <ele>635.3</ele>
        <time>2022-06-11T11:44:45Z</time>
      </trkpt>
      <trkpt lat="46.5563" lon="5.54595">
        <ele>633</ele>
        <time>2022-06-11T11:45:18Z</time>
      </trkpt>
      <trkpt lat="46.55629" lon="5.54601">
        <ele>634.2</ele>
        <time>2022-06-11T11:45:22Z</time>
      </trkpt>
      <trkpt lat="46.55631" lon="5.54607">
        <ele>635.3</ele>
        <time>2022-06-11T11:45:28Z</time>
      </trkpt>
      <trkpt lat="46.55636" lon="5.54611">
        <ele>634.9</ele>
        <time>2022-06-11T11:45:35Z</time>
      </trkpt>
      <trkpt lat="46.55639" lon="5.54615">
        <ele>634.4</ele>
        <time>2022-06-11T11:45:42Z</time>
      </trkpt>
      <trkpt lat="46.5564" lon="5.54622">
        <ele>633.5</ele>
        <time>2022-06-11T11:45:49Z</time>
      </trkpt>
      <trkpt lat="46.5564" lon="5.54628">
        <ele>631.2</ele>
        <time>2022-06-11T11:45:59Z</time>
      </trkpt>
      <trkpt lat="46.55644" lon="5.54632">
        <ele>629.4</ele>
        <time>2022-06-11T11:46:14Z</time>
      </trkpt>
      <trkpt lat="46.55647" lon="5.54638">
        <ele>628.1</ele>
        <time>2022-06-11T11:46:20Z</time>
      </trkpt>
      <trkpt lat="46.55647" lon="5.54645">
        <ele>627.1</ele>
        <time>2022-06-11T11:46:27Z</time>
      </trkpt>
      <trkpt lat="46.55646" lon="5.54652">
        <ele>625.8</ele>
        <time>2022-06-11T11:46:35Z</time>
      </trkpt>
      <trkpt lat="46.5565" lon="5.54656">
        <ele>626.4</ele>
        <time>2022-06-11T11:46:45Z</time>
      </trkpt>
      <trkpt lat="46.55652" lon="5.54662">
        <ele>626.4</ele>
        <time>2022-06-11T11:46:51Z</time>
      </trkpt>
      <trkpt lat="46.55652" lon="5.54669">
        <ele>624.7</ele>
        <time>2022-06-11T11:46:58Z</time>
      </trkpt>
      <trkpt lat="46.55652" lon="5.54675">
        <ele>623.5</ele>
        <time>2022-06-11T11:47:06Z</time>
      </trkpt>
      <trkpt lat="46.55654" lon="5.54681">
        <ele>622.6</ele>
        <time>2022-06-11T11:47:12Z</time>
      </trkpt>
      <trkpt lat="46.55657" lon="5.54686">
        <ele>621.1</ele>
        <time>2022-06-11T11:47:17Z</time>
      </trkpt>
      <trkpt lat="46.55657" lon="5.54693">
        <ele>619.4</ele>
        <time>2022-06-11T11:47:25Z</time>
      </trkpt>
      <trkpt lat="46.55656" lon="5.547">
        <ele>619</ele>
        <time>2022-06-11T11:47:29Z</time>
      </trkpt>
      <trkpt lat="46.55657" lon="5.54707">
        <ele>617.7</ele>
        <time>2022-06-11T11:47:34Z</time>
      </trkpt>
      <trkpt lat="46.55661" lon="5.54712">
        <ele>613</ele>
        <time>2022-06-11T11:47:44Z</time>
      </trkpt>
      <trkpt lat="46.55663" lon="5.54718">
        <ele>611.1</ele>
        <time>2022-06-11T11:47:50Z</time>
      </trkpt>
      <trkpt lat="46.55661" lon="5.54726">
        <ele>609.6</ele>
        <time>2022-06-11T11:47:57Z</time>
      </trkpt>
      <trkpt lat="46.55662" lon="5.54732">
        <ele>609.9</ele>
        <time>2022-06-11T11:48:04Z</time>
      </trkpt>
      <trkpt lat="46.55665" lon="5.54738">
        <ele>610.2</ele>
        <time>2022-06-11T11:48:11Z</time>
      </trkpt>
      <trkpt lat="46.55669" lon="5.54741">
        <ele>610.2</ele>
        <time>2022-06-11T11:48:18Z</time>
      </trkpt>
      <trkpt lat="46.55668" lon="5.54748">
        <ele>609</ele>
        <time>2022-06-11T11:48:28Z</time>
      </trkpt>
      <trkpt lat="46.55667" lon="5.54755">
        <ele>608.2</ele>
        <time>2022-06-11T11:48:33Z</time>
      </trkpt>
      <trkpt lat="46.55665" lon="5.54763">
        <ele>607</ele>
        <time>2022-06-11T11:48:38Z</time>
      </trkpt>
      <trkpt lat="46.55662" lon="5.54769">
        <ele>604.4</ele>
        <time>2022-06-11T11:48:48Z</time>
      </trkpt>
      <trkpt lat="46.55658" lon="5.5477">
        <ele>603.2</ele>
        <time>2022-06-11T11:48:53Z</time>
      </trkpt>
      <trkpt lat="46.55654" lon="5.54766">
        <ele>602.2</ele>
        <time>2022-06-11T11:49:00Z</time>
      </trkpt>
      <trkpt lat="46.5565" lon="5.54768">
        <ele>601.2</ele>
        <time>2022-06-11T11:49:07Z</time>
      </trkpt>
      <trkpt lat="46.55645" lon="5.54769">
        <ele>596.4</ele>
        <time>2022-06-11T11:49:19Z</time>
      </trkpt>
      <trkpt lat="46.5564" lon="5.54769">
        <ele>595.2</ele>
        <time>2022-06-11T11:49:24Z</time>
      </trkpt>
      <trkpt lat="46.55635" lon="5.54769">
        <ele>594.7</ele>
        <time>2022-06-11T11:49:30Z</time>
      </trkpt>
      <trkpt lat="46.5563" lon="5.54769">
        <ele>593.9</ele>
        <time>2022-06-11T11:49:35Z</time>
      </trkpt>
      <trkpt lat="46.55626" lon="5.54765">
        <ele>591.6</ele>
        <time>2022-06-11T11:49:45Z</time>
      </trkpt>
      <trkpt lat="46.55623" lon="5.54759">
        <ele>590.7</ele>
        <time>2022-06-11T11:49:51Z</time>
      </trkpt>
      <trkpt lat="46.55618" lon="5.54756">
        <ele>590.1</ele>
        <time>2022-06-11T11:49:55Z</time>
      </trkpt>
      <trkpt lat="46.55613" lon="5.54753">
        <ele>589.1</ele>
        <time>2022-06-11T11:49:59Z</time>
      </trkpt>
      <trkpt lat="46.55608" lon="5.54751">
        <ele>587.2</ele>
        <time>2022-06-11T11:50:05Z</time>
      </trkpt>
      <trkpt lat="46.55603" lon="5.54749">
        <ele>586.5</ele>
        <time>2022-06-11T11:50:10Z</time>
      </trkpt>
      <trkpt lat="46.55598" lon="5.54749">
        <ele>586.4</ele>
        <time>2022-06-11T11:50:14Z</time>
      </trkpt>
      <trkpt lat="46.55593" lon="5.54751">
        <ele>586.3</ele>
        <time>2022-06-11T11:50:19Z</time>
      </trkpt>
      <trkpt lat="46.55588" lon="5.54753">
        <ele>586.3</ele>
        <time>2022-06-11T11:50:23Z</time>
      </trkpt>
      <trkpt lat="46.55583" lon="5.54754">
        <ele>586.2</ele>
        <time>2022-06-11T11:50:27Z</time>
      </trkpt>
      <trkpt lat="46.55578" lon="5.54753">
        <ele>586.5</ele>
        <time>2022-06-11T11:50:31Z</time>
      </trkpt>
      <trkpt lat="46.55574" lon="5.54752">
        <ele>587.1</ele>
        <time>2022-06-11T11:50:36Z</time>
      </trkpt>
      <trkpt lat="46.55568" lon="5.54753">
        <ele>587.6</ele>
        <time>2022-06-11T11:50:40Z</time>
      </trkpt>
      <trkpt lat="46.55564" lon="5.54755">
        <ele>588.4</ele>
        <time>2022-06-11T11:50:45Z</time>
      </trkpt>
      <trkpt lat="46.55559" lon="5.54753">
        <ele>589.5</ele>
        <time>2022-06-11T11:50:52Z</time>
      </trkpt>
      <trkpt lat="46.55554" lon="5.54751">
        <ele>590.5</ele>
        <time>2022-06-11T11:51:00Z</time>
      </trkpt>
      <trkpt lat="46.5555" lon="5.54747">
        <ele>590</ele>
        <time>2022-06-11T11:51:08Z</time>
      </trkpt>
      <trkpt lat="46.55545" lon="5.54742">
        <ele>589.2</ele>
        <time>2022-06-11T11:51:12Z</time>
      </trkpt>
      <trkpt lat="46.55542" lon="5.54748">
        <ele>585.6</ele>
        <time>2022-06-11T11:51:31Z</time>
      </trkpt>
      <trkpt lat="46.55538" lon="5.54751">
        <ele>585.6</ele>
        <time>2022-06-11T11:51:36Z</time>
      </trkpt>
      <trkpt lat="46.55533" lon="5.54748">
        <ele>585.4</ele>
        <time>2022-06-11T11:51:41Z</time>
      </trkpt>
      <trkpt lat="46.55529" lon="5.54744">
        <ele>585.3</ele>
        <time>2022-06-11T11:51:45Z</time>
      </trkpt>
      <trkpt lat="46.55525" lon="5.54737">
        <ele>585.2</ele>
        <time>2022-06-11T11:51:50Z</time>
      </trkpt>
      <trkpt lat="46.5552" lon="5.54734">
        <ele>584.8</ele>
        <time>2022-06-11T11:51:54Z</time>
      </trkpt>
      <trkpt lat="46.55515" lon="5.54731">
        <ele>584.2</ele>
        <time>2022-06-11T11:51:58Z</time>
      </trkpt>
      <trkpt lat="46.5551" lon="5.5473">
        <ele>582.9</ele>
        <time>2022-06-11T11:52:04Z</time>
      </trkpt>
      <trkpt lat="46.55505" lon="5.54726">
        <ele>582.8</ele>
        <time>2022-06-11T11:52:11Z</time>
      </trkpt>
      <trkpt lat="46.55501" lon="5.54723">
        <ele>583</ele>
        <time>2022-06-11T11:52:16Z</time>
      </trkpt>
      <trkpt lat="46.55496" lon="5.54719">
        <ele>583</ele>
        <time>2022-06-11T11:52:23Z</time>
      </trkpt>
      <trkpt lat="46.55491" lon="5.54717">
        <ele>581.6</ele>
        <time>2022-06-11T11:52:30Z</time>
      </trkpt>
      <trkpt lat="46.55486" lon="5.54715">
        <ele>580.9</ele>
        <time>2022-06-11T11:52:35Z</time>
      </trkpt>
      <trkpt lat="46.55481" lon="5.54713">
        <ele>581</ele>
        <time>2022-06-11T11:52:39Z</time>
      </trkpt>
      <trkpt lat="46.55477" lon="5.5471">
        <ele>581.8</ele>
        <time>2022-06-11T11:52:45Z</time>
      </trkpt>
      <trkpt lat="46.55472" lon="5.54707">
        <ele>581.4</ele>
        <time>2022-06-11T11:52:51Z</time>
      </trkpt>
      <trkpt lat="46.55468" lon="5.54704">
        <ele>580.6</ele>
        <time>2022-06-11T11:52:56Z</time>
      </trkpt>
      <trkpt lat="46.55463" lon="5.54702">
        <ele>579.2</ele>
        <time>2022-06-11T11:53:01Z</time>
      </trkpt>
      <trkpt lat="46.55458" lon="5.547">
        <ele>578.1</ele>
        <time>2022-06-11T11:53:05Z</time>
      </trkpt>
      <trkpt lat="46.55454" lon="5.54696">
        <ele>576.2</ele>
        <time>2022-06-11T11:53:12Z</time>
      </trkpt>
      <trkpt lat="46.5545" lon="5.54692">
        <ele>574.7</ele>
        <time>2022-06-11T11:53:18Z</time>
      </trkpt>
      <trkpt lat="46.55446" lon="5.54688">
        <ele>573.5</ele>
        <time>2022-06-11T11:53:24Z</time>
      </trkpt>
      <trkpt lat="46.55443" lon="5.54682">
        <ele>572.3</ele>
        <time>2022-06-11T11:53:29Z</time>
      </trkpt>
      <trkpt lat="46.55438" lon="5.54679">
        <ele>571</ele>
        <time>2022-06-11T11:53:35Z</time>
      </trkpt>
      <trkpt lat="46.55433" lon="5.54677">
        <ele>568.4</ele>
        <time>2022-06-11T11:53:44Z</time>
      </trkpt>
      <trkpt lat="46.55429" lon="5.54677">
        <ele>566.2</ele>
        <time>2022-06-11T11:53:53Z</time>
      </trkpt>
      <trkpt lat="46.55424" lon="5.54677">
        <ele>564.5</ele>
        <time>2022-06-11T11:53:57Z</time>
      </trkpt>
      <trkpt lat="46.5542" lon="5.54675">
        <ele>561.7</ele>
        <time>2022-06-11T11:54:02Z</time>
      </trkpt>
      <trkpt lat="46.55415" lon="5.54673">
        <ele>555.9</ele>
        <time>2022-06-11T11:54:12Z</time>
      </trkpt>
      <trkpt lat="46.55412" lon="5.54679">
        <ele>553.4</ele>
        <time>2022-06-11T11:54:18Z</time>
      </trkpt>
      <trkpt lat="46.55411" lon="5.54686">
        <ele>550.9</ele>
        <time>2022-06-11T11:54:30Z</time>
      </trkpt>
      <trkpt lat="46.55414" lon="5.54692">
        <ele>549.6</ele>
        <time>2022-06-11T11:54:38Z</time>
      </trkpt>
      <trkpt lat="46.55416" lon="5.547">
        <ele>548.9</ele>
        <time>2022-06-11T11:54:43Z</time>
      </trkpt>
      <trkpt lat="46.55415" lon="5.54708">
        <ele>549</ele>
        <time>2022-06-11T11:54:46Z</time>
      </trkpt>
      <trkpt lat="46.55415" lon="5.54715">
        <ele>549.4</ele>
        <time>2022-06-11T11:54:49Z</time>
      </trkpt>
      <trkpt lat="46.55415" lon="5.54723">
        <ele>549.9</ele>
        <time>2022-06-11T11:54:53Z</time>
      </trkpt>
      <trkpt lat="46.5542" lon="5.54726">
        <ele>548.8</ele>
        <time>2022-06-11T11:54:59Z</time>
      </trkpt>
      <trkpt lat="46.55425" lon="5.54727">
        <ele>547</ele>
        <time>2022-06-11T11:55:05Z</time>
      </trkpt>
      <trkpt lat="46.5543" lon="5.54729">
        <ele>546</ele>
        <time>2022-06-11T11:55:09Z</time>
      </trkpt>
      <trkpt lat="46.55432" lon="5.54736">
        <ele>545.5</ele>
        <time>2022-06-11T11:55:12Z</time>
      </trkpt>
      <trkpt lat="46.55435" lon="5.54744">
        <ele>545.5</ele>
        <time>2022-06-11T11:55:15Z</time>
      </trkpt>
      <trkpt lat="46.55437" lon="5.5475">
        <ele>545.7</ele>
        <time>2022-06-11T11:55:18Z</time>
      </trkpt>
      <trkpt lat="46.55437" lon="5.54758">
        <ele>547</ele>
        <time>2022-06-11T11:55:24Z</time>
      </trkpt>
      <trkpt lat="46.5544" lon="5.54763">
        <ele>546.4</ele>
        <time>2022-06-11T11:55:33Z</time>
      </trkpt>
      <trkpt lat="46.55443" lon="5.54768">
        <ele>545.4</ele>
        <time>2022-06-11T11:55:38Z</time>
      </trkpt>
      <trkpt lat="46.55445" lon="5.54776">
        <ele>544.1</ele>
        <time>2022-06-11T11:55:44Z</time>
      </trkpt>
      <trkpt lat="46.55447" lon="5.54782">
        <ele>543.4</ele>
        <time>2022-06-11T11:55:48Z</time>
      </trkpt>
      <trkpt lat="46.55449" lon="5.54789">
        <ele>542.8</ele>
        <time>2022-06-11T11:55:53Z</time>
      </trkpt>
      <trkpt lat="46.55448" lon="5.54796">
        <ele>543.1</ele>
        <time>2022-06-11T11:55:59Z</time>
      </trkpt>
      <trkpt lat="46.55448" lon="5.54802">
        <ele>543.7</ele>
        <time>2022-06-11T11:56:04Z</time>
      </trkpt>
      <trkpt lat="46.55449" lon="5.54809">
        <ele>544.1</ele>
        <time>2022-06-11T11:56:11Z</time>
      </trkpt>
      <trkpt lat="46.55448" lon="5.54816">
        <ele>544</ele>
        <time>2022-06-11T11:56:20Z</time>
      </trkpt>
      <trkpt lat="46.5545" lon="5.54823">
        <ele>543.4</ele>
        <time>2022-06-11T11:56:27Z</time>
      </trkpt>
      <trkpt lat="46.55452" lon="5.5483">
        <ele>542.5</ele>
        <time>2022-06-11T11:56:32Z</time>
      </trkpt>
      <trkpt lat="46.55448" lon="5.54833">
        <ele>539.3</ele>
        <time>2022-06-11T11:56:43Z</time>
      </trkpt>
      <trkpt lat="46.55444" lon="5.54828">
        <ele>536.5</ele>
        <time>2022-06-11T11:56:59Z</time>
      </trkpt>
      <trkpt lat="46.55441" lon="5.54822">
        <ele>536</ele>
        <time>2022-06-11T11:57:03Z</time>
      </trkpt>
      <trkpt lat="46.55438" lon="5.54816">
        <ele>535</ele>
        <time>2022-06-11T11:57:10Z</time>
      </trkpt>
      <trkpt lat="46.55436" lon="5.54816">
        <ele>534.8</ele>
        <time>2022-06-11T11:57:23Z</time>
      </trkpt>
      <trkpt lat="46.55432" lon="5.54818">
        <ele>534.9</ele>
        <time>2022-06-11T11:57:29Z</time>
      </trkpt>
      <trkpt lat="46.55427" lon="5.54818">
        <ele>533.5</ele>
        <time>2022-06-11T11:57:44Z</time>
      </trkpt>
      <trkpt lat="46.55424" lon="5.54813">
        <ele>537</ele>
        <time>2022-06-11T11:57:59Z</time>
      </trkpt>
      <trkpt lat="46.55429" lon="5.54813">
        <ele>537.5</ele>
        <time>2022-06-11T11:58:08Z</time>
      </trkpt>
      <trkpt lat="46.5543" lon="5.5482">
        <ele>537.2</ele>
        <time>2022-06-11T11:58:17Z</time>
      </trkpt>
      <trkpt lat="46.55433" lon="5.54825">
        <ele>536.7</ele>
        <time>2022-06-11T11:58:25Z</time>
      </trkpt>
      <trkpt lat="46.55438" lon="5.54825">
        <ele>536.3</ele>
        <time>2022-06-11T11:58:28Z</time>
      </trkpt>
      <trkpt lat="46.55443" lon="5.54824">
        <ele>535.9</ele>
        <time>2022-06-11T11:58:31Z</time>
      </trkpt>
      <trkpt lat="46.55447" lon="5.54828">
        <ele>535.4</ele>
        <time>2022-06-11T11:58:36Z</time>
      </trkpt>
      <trkpt lat="46.55451" lon="5.54832">
        <ele>536.3</ele>
        <time>2022-06-11T11:58:42Z</time>
      </trkpt>
      <trkpt lat="46.55456" lon="5.54831">
        <ele>536.7</ele>
        <time>2022-06-11T11:58:46Z</time>
      </trkpt>
      <trkpt lat="46.5546" lon="5.54833">
        <ele>537.3</ele>
        <time>2022-06-11T11:58:51Z</time>
      </trkpt>
      <trkpt lat="46.55455" lon="5.54836">
        <ele>538.3</ele>
        <time>2022-06-11T11:58:57Z</time>
      </trkpt>
      <trkpt lat="46.55451" lon="5.54835">
        <ele>538.7</ele>
        <time>2022-06-11T11:59:01Z</time>
      </trkpt>
      <trkpt lat="46.55455" lon="5.54839">
        <ele>539.8</ele>
        <time>2022-06-11T11:59:17Z</time>
      </trkpt>
      <trkpt lat="46.55453" lon="5.54833">
        <ele>537.3</ele>
        <time>2022-06-11T11:59:34Z</time>
      </trkpt>
      <trkpt lat="46.55457" lon="5.54832">
        <ele>533</ele>
        <time>2022-06-11T11:59:48Z</time>
      </trkpt>
      <trkpt lat="46.55452" lon="5.54836">
        <ele>531.9</ele>
        <time>2022-06-11T12:00:09Z</time>
      </trkpt>
      <trkpt lat="46.55447" lon="5.54839">
        <ele>532.6</ele>
        <time>2022-06-11T12:00:12Z</time>
      </trkpt>
      <trkpt lat="46.55444" lon="5.54846">
        <ele>534.4</ele>
        <time>2022-06-11T12:00:24Z</time>
      </trkpt>
      <trkpt lat="46.55444" lon="5.54853">
        <ele>534.9</ele>
        <time>2022-06-11T12:00:28Z</time>
      </trkpt>
      <trkpt lat="46.55442" lon="5.5486">
        <ele>535.1</ele>
        <time>2022-06-11T12:00:33Z</time>
      </trkpt>
      <trkpt lat="46.55439" lon="5.54864">
        <ele>534.2</ele>
        <time>2022-06-11T12:00:42Z</time>
      </trkpt>
      <trkpt lat="46.55436" lon="5.54869">
        <ele>532.8</ele>
        <time>2022-06-11T12:00:53Z</time>
      </trkpt>
      <trkpt lat="46.55433" lon="5.54875">
        <ele>531.2</ele>
        <time>2022-06-11T12:01:03Z</time>
      </trkpt>
      <trkpt lat="46.55432" lon="5.54882">
        <ele>529.2</ele>
        <time>2022-06-11T12:01:10Z</time>
      </trkpt>
      <trkpt lat="46.5543" lon="5.54889">
        <ele>528</ele>
        <time>2022-06-11T12:01:14Z</time>
      </trkpt>
      <trkpt lat="46.55427" lon="5.54895">
        <ele>526.9</ele>
        <time>2022-06-11T12:01:20Z</time>
      </trkpt>
      <trkpt lat="46.55429" lon="5.54902">
        <ele>525.1</ele>
        <time>2022-06-11T12:01:29Z</time>
      </trkpt>
      <trkpt lat="46.5543" lon="5.54908">
        <ele>524.5</ele>
        <time>2022-06-11T12:01:34Z</time>
      </trkpt>
      <trkpt lat="46.5543" lon="5.54916">
        <ele>524.1</ele>
        <time>2022-06-11T12:01:38Z</time>
      </trkpt>
      <trkpt lat="46.55431" lon="5.54925">
        <ele>524.1</ele>
        <time>2022-06-11T12:01:42Z</time>
      </trkpt>
      <trkpt lat="46.55431" lon="5.54931">
        <ele>523.5</ele>
        <time>2022-06-11T12:01:48Z</time>
      </trkpt>
      <trkpt lat="46.55432" lon="5.54938">
        <ele>522.3</ele>
        <time>2022-06-11T12:01:53Z</time>
      </trkpt>
      <trkpt lat="46.55432" lon="5.54945">
        <ele>521.1</ele>
        <time>2022-06-11T12:01:58Z</time>
      </trkpt>
      <trkpt lat="46.55435" lon="5.54952">
        <ele>520.3</ele>
        <time>2022-06-11T12:02:04Z</time>
      </trkpt>
      <trkpt lat="46.55436" lon="5.54959">
        <ele>519.3</ele>
        <time>2022-06-11T12:02:09Z</time>
      </trkpt>
      <trkpt lat="46.55439" lon="5.54964">
        <ele>518.1</ele>
        <time>2022-06-11T12:02:14Z</time>
      </trkpt>
      <trkpt lat="46.55443" lon="5.54969">
        <ele>516.5</ele>
        <time>2022-06-11T12:02:20Z</time>
      </trkpt>
      <trkpt lat="46.55445" lon="5.54975">
        <ele>515.9</ele>
        <time>2022-06-11T12:02:24Z</time>
      </trkpt>
      <trkpt lat="46.55448" lon="5.54981">
        <ele>515.7</ele>
        <time>2022-06-11T12:02:29Z</time>
      </trkpt>
      <trkpt lat="46.5545" lon="5.54988">
        <ele>515.6</ele>
        <time>2022-06-11T12:02:34Z</time>
      </trkpt>
      <trkpt lat="46.55453" lon="5.54994">
        <ele>514.8</ele>
        <time>2022-06-11T12:02:39Z</time>
      </trkpt>
      <trkpt lat="46.55456" lon="5.54999">
        <ele>513.4</ele>
        <time>2022-06-11T12:02:44Z</time>
      </trkpt>
      <trkpt lat="46.5546" lon="5.55004">
        <ele>512.5</ele>
        <time>2022-06-11T12:02:49Z</time>
      </trkpt>
      <trkpt lat="46.55464" lon="5.55007">
        <ele>512.3</ele>
        <time>2022-06-11T12:02:54Z</time>
      </trkpt>
      <trkpt lat="46.55469" lon="5.5501">
        <ele>511.9</ele>
        <time>2022-06-11T12:02:58Z</time>
      </trkpt>
      <trkpt lat="46.55473" lon="5.55012">
        <ele>511.1</ele>
        <time>2022-06-11T12:03:01Z</time>
      </trkpt>
      <trkpt lat="46.55478" lon="5.55015">
        <ele>509.8</ele>
        <time>2022-06-11T12:03:05Z</time>
      </trkpt>
      <trkpt lat="46.55484" lon="5.55017">
        <ele>508.9</ele>
        <time>2022-06-11T12:03:09Z</time>
      </trkpt>
      <trkpt lat="46.55489" lon="5.55019">
        <ele>508</ele>
        <time>2022-06-11T12:03:13Z</time>
      </trkpt>
      <trkpt lat="46.55493" lon="5.55023">
        <ele>507.7</ele>
        <time>2022-06-11T12:03:17Z</time>
      </trkpt>
      <trkpt lat="46.55498" lon="5.55027">
        <ele>507.9</ele>
        <time>2022-06-11T12:03:21Z</time>
      </trkpt>
      <trkpt lat="46.55502" lon="5.55031">
        <ele>508.1</ele>
        <time>2022-06-11T12:03:26Z</time>
      </trkpt>
      <trkpt lat="46.55507" lon="5.55033">
        <ele>506.9</ele>
        <time>2022-06-11T12:03:31Z</time>
      </trkpt>
      <trkpt lat="46.55511" lon="5.55037">
        <ele>505.1</ele>
        <time>2022-06-11T12:03:36Z</time>
      </trkpt>
      <trkpt lat="46.55516" lon="5.55041">
        <ele>503.2</ele>
        <time>2022-06-11T12:03:41Z</time>
      </trkpt>
      <trkpt lat="46.5552" lon="5.55044">
        <ele>502</ele>
        <time>2022-06-11T12:03:45Z</time>
      </trkpt>
      <trkpt lat="46.55524" lon="5.55048">
        <ele>501.4</ele>
        <time>2022-06-11T12:03:49Z</time>
      </trkpt>
      <trkpt lat="46.55528" lon="5.55052">
        <ele>501.1</ele>
        <time>2022-06-11T12:03:53Z</time>
      </trkpt>
      <trkpt lat="46.55532" lon="5.55055">
        <ele>501</ele>
        <time>2022-06-11T12:03:57Z</time>
      </trkpt>
      <trkpt lat="46.55536" lon="5.55059">
        <ele>501.1</ele>
        <time>2022-06-11T12:04:01Z</time>
      </trkpt>
      <trkpt lat="46.55542" lon="5.55063">
        <ele>501.4</ele>
        <time>2022-06-11T12:04:05Z</time>
      </trkpt>
      <trkpt lat="46.55546" lon="5.55066">
        <ele>501.7</ele>
        <time>2022-06-11T12:04:09Z</time>
      </trkpt>
      <trkpt lat="46.55551" lon="5.5507">
        <ele>502</ele>
        <time>2022-06-11T12:04:15Z</time>
      </trkpt>
      <trkpt lat="46.55555" lon="5.55072">
        <ele>502</ele>
        <time>2022-06-11T12:04:20Z</time>
      </trkpt>
      <trkpt lat="46.5556" lon="5.55076">
        <ele>501.7</ele>
        <time>2022-06-11T12:04:25Z</time>
      </trkpt>
      <trkpt lat="46.55564" lon="5.55079">
        <ele>501.1</ele>
        <time>2022-06-11T12:04:29Z</time>
      </trkpt>
      <trkpt lat="46.55569" lon="5.55083">
        <ele>499.9</ele>
        <time>2022-06-11T12:04:33Z</time>
      </trkpt>
      <trkpt lat="46.55572" lon="5.55088">
        <ele>498.6</ele>
        <time>2022-06-11T12:04:38Z</time>
      </trkpt>
      <trkpt lat="46.55576" lon="5.55093">
        <ele>497.6</ele>
        <time>2022-06-11T12:04:44Z</time>
      </trkpt>
      <trkpt lat="46.55581" lon="5.55097">
        <ele>497.2</ele>
        <time>2022-06-11T12:04:49Z</time>
      </trkpt>
      <trkpt lat="46.55585" lon="5.55101">
        <ele>497</ele>
        <time>2022-06-11T12:04:54Z</time>
      </trkpt>
      <trkpt lat="46.55591" lon="5.55103">
        <ele>497.2</ele>
        <time>2022-06-11T12:04:58Z</time>
      </trkpt>
      <trkpt lat="46.55597" lon="5.55105">
        <ele>497.6</ele>
        <time>2022-06-11T12:05:02Z</time>
      </trkpt>
      <trkpt lat="46.55602" lon="5.55107">
        <ele>498.1</ele>
        <time>2022-06-11T12:05:05Z</time>
      </trkpt>
      <trkpt lat="46.55606" lon="5.55109">
        <ele>498.7</ele>
        <time>2022-06-11T12:05:08Z</time>
      </trkpt>
      <trkpt lat="46.55611" lon="5.5511">
        <ele>499.2</ele>
        <time>2022-06-11T12:05:11Z</time>
      </trkpt>
      <trkpt lat="46.55616" lon="5.55112">
        <ele>499.8</ele>
        <time>2022-06-11T12:05:14Z</time>
      </trkpt>
      <trkpt lat="46.5562" lon="5.55115">
        <ele>500.5</ele>
        <time>2022-06-11T12:05:18Z</time>
      </trkpt>
      <trkpt lat="46.55625" lon="5.55118">
        <ele>501.6</ele>
        <time>2022-06-11T12:05:22Z</time>
      </trkpt>
      <trkpt lat="46.55629" lon="5.55122">
        <ele>502</ele>
        <time>2022-06-11T12:05:27Z</time>
      </trkpt>
      <trkpt lat="46.55633" lon="5.55126">
        <ele>501.2</ele>
        <time>2022-06-11T12:05:32Z</time>
      </trkpt>
      <trkpt lat="46.55636" lon="5.55132">
        <ele>499.7</ele>
        <time>2022-06-11T12:05:37Z</time>
      </trkpt>
      <trkpt lat="46.5564" lon="5.55137">
        <ele>498.9</ele>
        <time>2022-06-11T12:05:41Z</time>
      </trkpt>
      <trkpt lat="46.55644" lon="5.55142">
        <ele>498.1</ele>
        <time>2022-06-11T12:05:46Z</time>
      </trkpt>
      <trkpt lat="46.55645" lon="5.5515">
        <ele>497.5</ele>
        <time>2022-06-11T12:05:51Z</time>
      </trkpt>
      <trkpt lat="46.55649" lon="5.55156">
        <ele>497.8</ele>
        <time>2022-06-11T12:05:54Z</time>
      </trkpt>
      <trkpt lat="46.55653" lon="5.55162">
        <ele>498.9</ele>
        <time>2022-06-11T12:05:58Z</time>
      </trkpt>
      <trkpt lat="46.55658" lon="5.55166">
        <ele>500.6</ele>
        <time>2022-06-11T12:06:02Z</time>
      </trkpt>
      <trkpt lat="46.55662" lon="5.5517">
        <ele>501.8</ele>
        <time>2022-06-11T12:06:05Z</time>
      </trkpt>
      <trkpt lat="46.55665" lon="5.55177">
        <ele>502.9</ele>
        <time>2022-06-11T12:06:09Z</time>
      </trkpt>
      <trkpt lat="46.55668" lon="5.55184">
        <ele>504</ele>
        <time>2022-06-11T12:06:13Z</time>
      </trkpt>
      <trkpt lat="46.5567" lon="5.55192">
        <ele>504.8</ele>
        <time>2022-06-11T12:06:17Z</time>
      </trkpt>
      <trkpt lat="46.55673" lon="5.55198">
        <ele>505.2</ele>
        <time>2022-06-11T12:06:21Z</time>
      </trkpt>
      <trkpt lat="46.55676" lon="5.55203">
        <ele>505.3</ele>
        <time>2022-06-11T12:06:26Z</time>
      </trkpt>
      <trkpt lat="46.55678" lon="5.5521">
        <ele>505.5</ele>
        <time>2022-06-11T12:06:30Z</time>
      </trkpt>
      <trkpt lat="46.55679" lon="5.55216">
        <ele>505.4</ele>
        <time>2022-06-11T12:06:33Z</time>
      </trkpt>
      <trkpt lat="46.55682" lon="5.55224">
        <ele>505</ele>
        <time>2022-06-11T12:06:37Z</time>
      </trkpt>
      <trkpt lat="46.55685" lon="5.55229">
        <ele>504.6</ele>
        <time>2022-06-11T12:06:41Z</time>
      </trkpt>
      <trkpt lat="46.55688" lon="5.55235">
        <ele>503.9</ele>
        <time>2022-06-11T12:06:49Z</time>
      </trkpt>
      <trkpt lat="46.55689" lon="5.55242">
        <ele>503</ele>
        <time>2022-06-11T12:06:55Z</time>
      </trkpt>
      <trkpt lat="46.5569" lon="5.5525">
        <ele>501.7</ele>
        <time>2022-06-11T12:07:00Z</time>
      </trkpt>
      <trkpt lat="46.55692" lon="5.55257">
        <ele>500.8</ele>
        <time>2022-06-11T12:07:04Z</time>
      </trkpt>
      <trkpt lat="46.55695" lon="5.55263">
        <ele>500.3</ele>
        <time>2022-06-11T12:07:08Z</time>
      </trkpt>
      <trkpt lat="46.55698" lon="5.5527">
        <ele>500.3</ele>
        <time>2022-06-11T12:07:12Z</time>
      </trkpt>
      <trkpt lat="46.557" lon="5.55276">
        <ele>500.9</ele>
        <time>2022-06-11T12:07:17Z</time>
      </trkpt>
      <trkpt lat="46.55703" lon="5.55282">
        <ele>501.4</ele>
        <time>2022-06-11T12:07:21Z</time>
      </trkpt>
      <trkpt lat="46.55706" lon="5.55288">
        <ele>501.7</ele>
        <time>2022-06-11T12:07:25Z</time>
      </trkpt>
      <trkpt lat="46.55708" lon="5.55294">
        <ele>501.7</ele>
        <time>2022-06-11T12:07:28Z</time>
      </trkpt>
      <trkpt lat="46.5571" lon="5.55302">
        <ele>501.7</ele>
        <time>2022-06-11T12:07:32Z</time>
      </trkpt>
      <trkpt lat="46.55711" lon="5.5531">
        <ele>501.8</ele>
        <time>2022-06-11T12:07:37Z</time>
      </trkpt>
      <trkpt lat="46.55712" lon="5.55317">
        <ele>501.9</ele>
        <time>2022-06-11T12:07:41Z</time>
      </trkpt>
      <trkpt lat="46.55713" lon="5.55324">
        <ele>501.5</ele>
        <time>2022-06-11T12:07:47Z</time>
      </trkpt>
      <trkpt lat="46.55713" lon="5.55332">
        <ele>500.9</ele>
        <time>2022-06-11T12:07:52Z</time>
      </trkpt>
      <trkpt lat="46.55712" lon="5.55339">
        <ele>501</ele>
        <time>2022-06-11T12:07:56Z</time>
      </trkpt>
      <trkpt lat="46.55711" lon="5.55347">
        <ele>501.3</ele>
        <time>2022-06-11T12:08:00Z</time>
      </trkpt>
      <trkpt lat="46.55709" lon="5.55353">
        <ele>501.1</ele>
        <time>2022-06-11T12:08:05Z</time>
      </trkpt>
      <trkpt lat="46.55707" lon="5.5536">
        <ele>500.3</ele>
        <time>2022-06-11T12:08:11Z</time>
      </trkpt>
      <trkpt lat="46.55707" lon="5.55368">
        <ele>500</ele>
        <time>2022-06-11T12:08:15Z</time>
      </trkpt>
      <trkpt lat="46.55708" lon="5.55375">
        <ele>499.6</ele>
        <time>2022-06-11T12:08:19Z</time>
      </trkpt>
      <trkpt lat="46.55709" lon="5.55381">
        <ele>499.1</ele>
        <time>2022-06-11T12:08:24Z</time>
      </trkpt>
      <trkpt lat="46.55712" lon="5.55387">
        <ele>499</ele>
        <time>2022-06-11T12:08:30Z</time>
      </trkpt>
      <trkpt lat="46.55714" lon="5.55394">
        <ele>498.8</ele>
        <time>2022-06-11T12:08:36Z</time>
      </trkpt>
      <trkpt lat="46.55716" lon="5.55401">
        <ele>497.9</ele>
        <time>2022-06-11T12:08:40Z</time>
      </trkpt>
      <trkpt lat="46.55719" lon="5.55406">
        <ele>496.6</ele>
        <time>2022-06-11T12:08:45Z</time>
      </trkpt>
      <trkpt lat="46.55725" lon="5.55408">
        <ele>495.6</ele>
        <time>2022-06-11T12:08:49Z</time>
      </trkpt>
      <trkpt lat="46.5573" lon="5.55409">
        <ele>495.3</ele>
        <time>2022-06-11T12:08:52Z</time>
      </trkpt>
      <trkpt lat="46.55735" lon="5.55409">
        <ele>495.2</ele>
        <time>2022-06-11T12:08:55Z</time>
      </trkpt>
      <trkpt lat="46.5574" lon="5.55409">
        <ele>494.6</ele>
        <time>2022-06-11T12:09:00Z</time>
      </trkpt>
      <trkpt lat="46.55745" lon="5.55412">
        <ele>493.5</ele>
        <time>2022-06-11T12:09:06Z</time>
      </trkpt>
      <trkpt lat="46.5575" lon="5.55414">
        <ele>492.3</ele>
        <time>2022-06-11T12:09:10Z</time>
      </trkpt>
      <trkpt lat="46.55755" lon="5.55414">
        <ele>491.1</ele>
        <time>2022-06-11T12:09:15Z</time>
      </trkpt>
      <trkpt lat="46.5576" lon="5.55414">
        <ele>491</ele>
        <time>2022-06-11T12:09:20Z</time>
      </trkpt>
      <trkpt lat="46.55765" lon="5.55416">
        <ele>491.1</ele>
        <time>2022-06-11T12:09:24Z</time>
      </trkpt>
      <trkpt lat="46.55769" lon="5.55418">
        <ele>491</ele>
        <time>2022-06-11T12:09:28Z</time>
      </trkpt>
      <trkpt lat="46.55774" lon="5.55417">
        <ele>490.5</ele>
        <time>2022-06-11T12:09:31Z</time>
      </trkpt>
      <trkpt lat="46.55779" lon="5.55418">
        <ele>489.8</ele>
        <time>2022-06-11T12:09:34Z</time>
      </trkpt>
      <trkpt lat="46.55784" lon="5.55419">
        <ele>489.1</ele>
        <time>2022-06-11T12:09:38Z</time>
      </trkpt>
      <trkpt lat="46.55788" lon="5.55423">
        <ele>488.2</ele>
        <time>2022-06-11T12:09:44Z</time>
      </trkpt>
      <trkpt lat="46.55793" lon="5.55427">
        <ele>488.1</ele>
        <time>2022-06-11T12:09:57Z</time>
      </trkpt>
      <trkpt lat="46.55796" lon="5.55432">
        <ele>488.9</ele>
        <time>2022-06-11T12:10:02Z</time>
      </trkpt>
      <trkpt lat="46.55797" lon="5.5544">
        <ele>489.5</ele>
        <time>2022-06-11T12:10:06Z</time>
      </trkpt>
      <trkpt lat="46.55795" lon="5.55446">
        <ele>489.7</ele>
        <time>2022-06-11T12:10:10Z</time>
      </trkpt>
      <trkpt lat="46.55796" lon="5.55453">
        <ele>490.2</ele>
        <time>2022-06-11T12:10:14Z</time>
      </trkpt>
      <trkpt lat="46.55798" lon="5.55461">
        <ele>490.3</ele>
        <time>2022-06-11T12:10:18Z</time>
      </trkpt>
      <trkpt lat="46.55801" lon="5.55468">
        <ele>490</ele>
        <time>2022-06-11T12:10:22Z</time>
      </trkpt>
      <trkpt lat="46.55805" lon="5.55475">
        <ele>489.5</ele>
        <time>2022-06-11T12:10:26Z</time>
      </trkpt>
      <trkpt lat="46.55807" lon="5.55482">
        <ele>489.1</ele>
        <time>2022-06-11T12:10:30Z</time>
      </trkpt>
      <trkpt lat="46.5581" lon="5.55489">
        <ele>489.5</ele>
        <time>2022-06-11T12:10:35Z</time>
      </trkpt>
      <trkpt lat="46.55811" lon="5.55495">
        <ele>490</ele>
        <time>2022-06-11T12:10:39Z</time>
      </trkpt>
      <trkpt lat="46.55811" lon="5.55502">
        <ele>490.2</ele>
        <time>2022-06-11T12:10:43Z</time>
      </trkpt>
      <trkpt lat="46.55813" lon="5.5551">
        <ele>490.1</ele>
        <time>2022-06-11T12:10:48Z</time>
      </trkpt>
      <trkpt lat="46.55815" lon="5.55516">
        <ele>490.2</ele>
        <time>2022-06-11T12:10:51Z</time>
      </trkpt>
      <trkpt lat="46.55817" lon="5.55524">
        <ele>490.2</ele>
        <time>2022-06-11T12:10:55Z</time>
      </trkpt>
      <trkpt lat="46.55818" lon="5.5553">
        <ele>490.3</ele>
        <time>2022-06-11T12:10:59Z</time>
      </trkpt>
      <trkpt lat="46.55821" lon="5.55535">
        <ele>490.6</ele>
        <time>2022-06-11T12:11:04Z</time>
      </trkpt>
      <trkpt lat="46.55823" lon="5.55542">
        <ele>489.9</ele>
        <time>2022-06-11T12:11:09Z</time>
      </trkpt>
      <trkpt lat="46.55826" lon="5.55548">
        <ele>490.2</ele>
        <time>2022-06-11T12:11:13Z</time>
      </trkpt>
      <trkpt lat="46.55828" lon="5.55555">
        <ele>490.3</ele>
        <time>2022-06-11T12:11:19Z</time>
      </trkpt>
      <trkpt lat="46.55832" lon="5.55556">
        <ele>491.1</ele>
        <time>2022-06-11T12:11:42Z</time>
      </trkpt>
      <trkpt lat="46.55837" lon="5.55556">
        <ele>490.3</ele>
        <time>2022-06-11T12:11:51Z</time>
      </trkpt>
      <trkpt lat="46.55839" lon="5.55562">
        <ele>490.1</ele>
        <time>2022-06-11T12:11:58Z</time>
      </trkpt>
      <trkpt lat="46.55838" lon="5.55569">
        <ele>490</ele>
        <time>2022-06-11T12:12:02Z</time>
      </trkpt>
      <trkpt lat="46.55836" lon="5.55575">
        <ele>490.8</ele>
        <time>2022-06-11T12:12:13Z</time>
      </trkpt>
      <trkpt lat="46.55835" lon="5.55582">
        <ele>491.7</ele>
        <time>2022-06-11T12:12:17Z</time>
      </trkpt>
      <trkpt lat="46.55837" lon="5.55588">
        <ele>492.7</ele>
        <time>2022-06-11T12:12:24Z</time>
      </trkpt>
      <trkpt lat="46.55833" lon="5.55584">
        <ele>491.2</ele>
        <time>2022-06-11T12:13:01Z</time>
      </trkpt>
      <trkpt lat="46.55828" lon="5.55585">
        <ele>489.1</ele>
        <time>2022-06-11T12:13:22Z</time>
      </trkpt>
      <trkpt lat="46.55823" lon="5.5558">
        <ele>489</ele>
        <time>2022-06-11T12:13:26Z</time>
      </trkpt>
      <trkpt lat="46.55819" lon="5.55577">
        <ele>489</ele>
        <time>2022-06-11T12:13:30Z</time>
      </trkpt>
      <trkpt lat="46.55814" lon="5.55573">
        <ele>489.1</ele>
        <time>2022-06-11T12:13:35Z</time>
      </trkpt>
      <trkpt lat="46.5581" lon="5.5557">
        <ele>488.9</ele>
        <time>2022-06-11T12:13:40Z</time>
      </trkpt>
      <trkpt lat="46.55806" lon="5.55565">
        <ele>488.7</ele>
        <time>2022-06-11T12:13:48Z</time>
      </trkpt>
      <trkpt lat="46.55803" lon="5.5556">
        <ele>488.9</ele>
        <time>2022-06-11T12:13:52Z</time>
      </trkpt>
      <trkpt lat="46.55799" lon="5.55557">
        <ele>488.8</ele>
        <time>2022-06-11T12:13:57Z</time>
      </trkpt>
      <trkpt lat="46.55795" lon="5.55554">
        <ele>488.1</ele>
        <time>2022-06-11T12:14:07Z</time>
      </trkpt>
      <trkpt lat="46.55792" lon="5.55548">
        <ele>487.6</ele>
        <time>2022-06-11T12:14:12Z</time>
      </trkpt>
      <trkpt lat="46.55791" lon="5.55541">
        <ele>487.7</ele>
        <time>2022-06-11T12:14:19Z</time>
      </trkpt>
      <trkpt lat="46.55794" lon="5.55535">
        <ele>488</ele>
        <time>2022-06-11T12:14:24Z</time>
      </trkpt>
      <trkpt lat="46.55793" lon="5.55529">
        <ele>488</ele>
        <time>2022-06-11T12:14:30Z</time>
      </trkpt>
      <trkpt lat="46.55797" lon="5.55525">
        <ele>486.7</ele>
        <time>2022-06-11T12:14:46Z</time>
      </trkpt>
      <trkpt lat="46.55802" lon="5.5553">
        <ele>488.5</ele>
        <time>2022-06-11T12:15:10Z</time>
      </trkpt>
      <trkpt lat="46.55804" lon="5.55537">
        <ele>489.6</ele>
        <time>2022-06-11T12:15:14Z</time>
      </trkpt>
      <trkpt lat="46.55805" lon="5.55544">
        <ele>490.7</ele>
        <time>2022-06-11T12:15:18Z</time>
      </trkpt>
      <trkpt lat="46.55806" lon="5.55552">
        <ele>491.9</ele>
        <time>2022-06-11T12:15:22Z</time>
      </trkpt>
      <trkpt lat="46.55807" lon="5.55558">
        <ele>492.9</ele>
        <time>2022-06-11T12:15:27Z</time>
      </trkpt>
      <trkpt lat="46.55808" lon="5.55565">
        <ele>492.9</ele>
        <time>2022-06-11T12:15:32Z</time>
      </trkpt>
      <trkpt lat="46.55813" lon="5.55569">
        <ele>489.7</ele>
        <time>2022-06-11T12:15:54Z</time>
      </trkpt>
      <trkpt lat="46.55818" lon="5.55572">
        <ele>490.1</ele>
        <time>2022-06-11T12:15:58Z</time>
      </trkpt>
      <trkpt lat="46.55822" lon="5.55576">
        <ele>490.9</ele>
        <time>2022-06-11T12:16:03Z</time>
      </trkpt>
      <trkpt lat="46.55826" lon="5.5558">
        <ele>491.3</ele>
        <time>2022-06-11T12:16:08Z</time>
      </trkpt>
      <trkpt lat="46.55831" lon="5.55584">
        <ele>492.2</ele>
        <time>2022-06-11T12:16:13Z</time>
      </trkpt>
      <trkpt lat="46.55835" lon="5.55589">
        <ele>493.5</ele>
        <time>2022-06-11T12:16:17Z</time>
      </trkpt>
      <trkpt lat="46.55834" lon="5.55596">
        <ele>493.9</ele>
        <time>2022-06-11T12:16:33Z</time>
      </trkpt>
      <trkpt lat="46.55837" lon="5.55601">
        <ele>493.9</ele>
        <time>2022-06-11T12:16:37Z</time>
      </trkpt>
      <trkpt lat="46.5584" lon="5.55607">
        <ele>492.6</ele>
        <time>2022-06-11T12:16:42Z</time>
      </trkpt>
      <trkpt lat="46.55845" lon="5.55612">
        <ele>491.3</ele>
        <time>2022-06-11T12:16:47Z</time>
      </trkpt>
      <trkpt lat="46.55848" lon="5.55616">
        <ele>491</ele>
        <time>2022-06-11T12:16:50Z</time>
      </trkpt>
      <trkpt lat="46.55853" lon="5.55619">
        <ele>491.1</ele>
        <time>2022-06-11T12:16:55Z</time>
      </trkpt>
      <trkpt lat="46.55858" lon="5.55623">
        <ele>492.1</ele>
        <time>2022-06-11T12:17:00Z</time>
      </trkpt>
      <trkpt lat="46.55862" lon="5.55626">
        <ele>494.3</ele>
        <time>2022-06-11T12:17:06Z</time>
      </trkpt>
      <trkpt lat="46.55867" lon="5.55628">
        <ele>495.9</ele>
        <time>2022-06-11T12:17:11Z</time>
      </trkpt>
      <trkpt lat="46.55872" lon="5.55632">
        <ele>497.2</ele>
        <time>2022-06-11T12:17:15Z</time>
      </trkpt>
      <trkpt lat="46.55875" lon="5.55638">
        <ele>499.1</ele>
        <time>2022-06-11T12:17:22Z</time>
      </trkpt>
      <trkpt lat="46.55876" lon="5.55644">
        <ele>498.7</ele>
        <time>2022-06-11T12:17:31Z</time>
      </trkpt>
      <trkpt lat="46.5588" lon="5.55648">
        <ele>498.3</ele>
        <time>2022-06-11T12:17:37Z</time>
      </trkpt>
      <trkpt lat="46.55884" lon="5.55652">
        <ele>498</ele>
        <time>2022-06-11T12:17:48Z</time>
      </trkpt>
      <trkpt lat="46.55888" lon="5.55656">
        <ele>498.1</ele>
        <time>2022-06-11T12:17:53Z</time>
      </trkpt>
      <trkpt lat="46.55892" lon="5.55659">
        <ele>498.3</ele>
        <time>2022-06-11T12:17:59Z</time>
      </trkpt>
      <trkpt lat="46.55897" lon="5.55662">
        <ele>498.2</ele>
        <time>2022-06-11T12:18:04Z</time>
      </trkpt>
      <trkpt lat="46.55902" lon="5.55668">
        <ele>497.9</ele>
        <time>2022-06-11T12:18:08Z</time>
      </trkpt>
      <trkpt lat="46.55906" lon="5.55671">
        <ele>497.5</ele>
        <time>2022-06-11T12:18:13Z</time>
      </trkpt>
      <trkpt lat="46.55911" lon="5.55674">
        <ele>497.1</ele>
        <time>2022-06-11T12:18:18Z</time>
      </trkpt>
      <trkpt lat="46.55915" lon="5.55676">
        <ele>496.9</ele>
        <time>2022-06-11T12:18:23Z</time>
      </trkpt>
      <trkpt lat="46.5592" lon="5.55678">
        <ele>496.2</ele>
        <time>2022-06-11T12:18:27Z</time>
      </trkpt>
      <trkpt lat="46.55925" lon="5.55681">
        <ele>495.1</ele>
        <time>2022-06-11T12:18:31Z</time>
      </trkpt>
      <trkpt lat="46.5593" lon="5.55686">
        <ele>494.3</ele>
        <time>2022-06-11T12:18:35Z</time>
      </trkpt>
      <trkpt lat="46.55933" lon="5.55692">
        <ele>493.8</ele>
        <time>2022-06-11T12:18:39Z</time>
      </trkpt>
      <trkpt lat="46.55937" lon="5.55697">
        <ele>493.5</ele>
        <time>2022-06-11T12:18:43Z</time>
      </trkpt>
      <trkpt lat="46.55941" lon="5.55702">
        <ele>493.5</ele>
        <time>2022-06-11T12:18:48Z</time>
      </trkpt>
      <trkpt lat="46.55942" lon="5.5571">
        <ele>493.2</ele>
        <time>2022-06-11T12:18:54Z</time>
      </trkpt>
      <trkpt lat="46.55938" lon="5.55716">
        <ele>492.3</ele>
        <time>2022-06-11T12:19:04Z</time>
      </trkpt>
      <trkpt lat="46.55935" lon="5.55721">
        <ele>492.7</ele>
        <time>2022-06-11T12:19:08Z</time>
      </trkpt>
      <trkpt lat="46.5593" lon="5.55724">
        <ele>493.9</ele>
        <time>2022-06-11T12:19:13Z</time>
      </trkpt>
      <trkpt lat="46.55926" lon="5.55723">
        <ele>494.8</ele>
        <time>2022-06-11T12:19:22Z</time>
      </trkpt>
      <trkpt lat="46.55921" lon="5.55722">
        <ele>494.9</ele>
        <time>2022-06-11T12:19:47Z</time>
      </trkpt>
      <trkpt lat="46.5592" lon="5.55729">
        <ele>495.2</ele>
        <time>2022-06-11T12:19:56Z</time>
      </trkpt>
      <trkpt lat="46.55921" lon="5.55737">
        <ele>496.6</ele>
        <time>2022-06-11T12:20:01Z</time>
      </trkpt>
      <trkpt lat="46.5592" lon="5.55743">
        <ele>498.2</ele>
        <time>2022-06-11T12:20:06Z</time>
      </trkpt>
      <trkpt lat="46.55918" lon="5.5575">
        <ele>499.1</ele>
        <time>2022-06-11T12:20:12Z</time>
      </trkpt>
      <trkpt lat="46.55913" lon="5.55751">
        <ele>498.6</ele>
        <time>2022-06-11T12:20:27Z</time>
      </trkpt>
      <trkpt lat="46.55909" lon="5.55756">
        <ele>498.2</ele>
        <time>2022-06-11T12:20:33Z</time>
      </trkpt>
      <trkpt lat="46.55905" lon="5.55759">
        <ele>498.3</ele>
        <time>2022-06-11T12:20:38Z</time>
      </trkpt>
      <trkpt lat="46.55902" lon="5.55763">
        <ele>498.3</ele>
        <time>2022-06-11T12:20:50Z</time>
      </trkpt>
      <trkpt lat="46.55903" lon="5.5577">
        <ele>495.9</ele>
        <time>2022-06-11T12:21:13Z</time>
      </trkpt>
      <trkpt lat="46.55905" lon="5.55777">
        <ele>495.4</ele>
        <time>2022-06-11T12:21:16Z</time>
      </trkpt>
      <trkpt lat="46.55908" lon="5.55783">
        <ele>494.6</ele>
        <time>2022-06-11T12:21:21Z</time>
      </trkpt>
      <trkpt lat="46.55909" lon="5.55791">
        <ele>494.2</ele>
        <time>2022-06-11T12:21:25Z</time>
      </trkpt>
      <trkpt lat="46.55911" lon="5.55797">
        <ele>493.7</ele>
        <time>2022-06-11T12:21:29Z</time>
      </trkpt>
      <trkpt lat="46.55916" lon="5.55802">
        <ele>493.2</ele>
        <time>2022-06-11T12:21:33Z</time>
      </trkpt>
      <trkpt lat="46.5592" lon="5.55807">
        <ele>492.7</ele>
        <time>2022-06-11T12:21:37Z</time>
      </trkpt>
      <trkpt lat="46.55922" lon="5.55813">
        <ele>491.2</ele>
        <time>2022-06-11T12:21:45Z</time>
      </trkpt>
      <trkpt lat="46.55926" lon="5.55818">
        <ele>490.5</ele>
        <time>2022-06-11T12:21:49Z</time>
      </trkpt>
      <trkpt lat="46.5593" lon="5.55823">
        <ele>490.2</ele>
        <time>2022-06-11T12:21:53Z</time>
      </trkpt>
      <trkpt lat="46.55933" lon="5.55829">
        <ele>490.3</ele>
        <time>2022-06-11T12:21:59Z</time>
      </trkpt>
      <trkpt lat="46.55936" lon="5.55834">
        <ele>490.2</ele>
        <time>2022-06-11T12:22:04Z</time>
      </trkpt>
      <trkpt lat="46.5594" lon="5.55837">
        <ele>488.9</ele>
        <time>2022-06-11T12:22:58Z</time>
      </trkpt>
      <trkpt lat="46.55942" lon="5.55843">
        <ele>488.9</ele>
        <time>2022-06-11T12:23:03Z</time>
      </trkpt>
      <trkpt lat="46.55944" lon="5.55849">
        <ele>488.8</ele>
        <time>2022-06-11T12:23:06Z</time>
      </trkpt>
      <trkpt lat="46.55947" lon="5.55855">
        <ele>489.3</ele>
        <time>2022-06-11T12:23:09Z</time>
      </trkpt>
      <trkpt lat="46.55951" lon="5.5586">
        <ele>489.6</ele>
        <time>2022-06-11T12:23:12Z</time>
      </trkpt>
      <trkpt lat="46.55955" lon="5.55863">
        <ele>490.4</ele>
        <time>2022-06-11T12:23:15Z</time>
      </trkpt>
      <trkpt lat="46.55959" lon="5.55869">
        <ele>491.5</ele>
        <time>2022-06-11T12:23:19Z</time>
      </trkpt>
      <trkpt lat="46.55964" lon="5.55874">
        <ele>492.3</ele>
        <time>2022-06-11T12:23:23Z</time>
      </trkpt>
      <trkpt lat="46.55967" lon="5.55879">
        <ele>493.3</ele>
        <time>2022-06-11T12:23:27Z</time>
      </trkpt>
      <trkpt lat="46.55972" lon="5.55884">
        <ele>494.1</ele>
        <time>2022-06-11T12:23:32Z</time>
      </trkpt>
      <trkpt lat="46.55976" lon="5.55888">
        <ele>494.8</ele>
        <time>2022-06-11T12:23:35Z</time>
      </trkpt>
      <trkpt lat="46.55981" lon="5.55891">
        <ele>495.4</ele>
        <time>2022-06-11T12:23:39Z</time>
      </trkpt>
      <trkpt lat="46.55985" lon="5.55894">
        <ele>495.8</ele>
        <time>2022-06-11T12:23:42Z</time>
      </trkpt>
      <trkpt lat="46.5599" lon="5.55896">
        <ele>496.2</ele>
        <time>2022-06-11T12:23:45Z</time>
      </trkpt>
      <trkpt lat="46.55995" lon="5.55899">
        <ele>496.8</ele>
        <time>2022-06-11T12:23:50Z</time>
      </trkpt>
      <trkpt lat="46.55999" lon="5.55903">
        <ele>496.9</ele>
        <time>2022-06-11T12:23:54Z</time>
      </trkpt>
      <trkpt lat="46.56004" lon="5.55907">
        <ele>496.8</ele>
        <time>2022-06-11T12:23:58Z</time>
      </trkpt>
      <trkpt lat="46.56009" lon="5.55911">
        <ele>496.9</ele>
        <time>2022-06-11T12:24:02Z</time>
      </trkpt>
      <trkpt lat="46.56014" lon="5.55913">
        <ele>497.2</ele>
        <time>2022-06-11T12:24:06Z</time>
      </trkpt>
      <trkpt lat="46.56019" lon="5.55915">
        <ele>497.8</ele>
        <time>2022-06-11T12:24:11Z</time>
      </trkpt>
      <trkpt lat="46.56024" lon="5.55917">
        <ele>497.6</ele>
        <time>2022-06-11T12:24:16Z</time>
      </trkpt>
      <trkpt lat="46.56029" lon="5.55916">
        <ele>497.6</ele>
        <time>2022-06-11T12:24:20Z</time>
      </trkpt>
      <trkpt lat="46.56035" lon="5.55917">
        <ele>497.7</ele>
        <time>2022-06-11T12:24:24Z</time>
      </trkpt>
      <trkpt lat="46.56041" lon="5.55917">
        <ele>498.1</ele>
        <time>2022-06-11T12:24:28Z</time>
      </trkpt>
      <trkpt lat="46.56046" lon="5.55917">
        <ele>498.8</ele>
        <time>2022-06-11T12:24:32Z</time>
      </trkpt>
      <trkpt lat="46.56052" lon="5.55918">
        <ele>499.8</ele>
        <time>2022-06-11T12:24:36Z</time>
      </trkpt>
      <trkpt lat="46.56057" lon="5.5592">
        <ele>500.9</ele>
        <time>2022-06-11T12:24:40Z</time>
      </trkpt>
      <trkpt lat="46.56062" lon="5.55922">
        <ele>502.1</ele>
        <time>2022-06-11T12:24:45Z</time>
      </trkpt>
      <trkpt lat="46.56066" lon="5.55926">
        <ele>502.9</ele>
        <time>2022-06-11T12:24:49Z</time>
      </trkpt>
      <trkpt lat="46.56068" lon="5.55932">
        <ele>503.7</ele>
        <time>2022-06-11T12:24:54Z</time>
      </trkpt>
      <trkpt lat="46.56068" lon="5.5594">
        <ele>504.2</ele>
        <time>2022-06-11T12:24:59Z</time>
      </trkpt>
      <trkpt lat="46.5607" lon="5.55947">
        <ele>504.5</ele>
        <time>2022-06-11T12:25:04Z</time>
      </trkpt>
      <trkpt lat="46.5607" lon="5.55954">
        <ele>504.5</ele>
        <time>2022-06-11T12:25:10Z</time>
      </trkpt>
      <trkpt lat="46.56071" lon="5.5596">
        <ele>504.8</ele>
        <time>2022-06-11T12:25:14Z</time>
      </trkpt>
      <trkpt lat="46.56071" lon="5.55967">
        <ele>505.1</ele>
        <time>2022-06-11T12:25:18Z</time>
      </trkpt>
      <trkpt lat="46.5607" lon="5.55974">
        <ele>506</ele>
        <time>2022-06-11T12:25:24Z</time>
      </trkpt>
      <trkpt lat="46.56069" lon="5.55982">
        <ele>506.4</ele>
        <time>2022-06-11T12:25:31Z</time>
      </trkpt>
      <trkpt lat="46.56069" lon="5.55989">
        <ele>507</ele>
        <time>2022-06-11T12:25:35Z</time>
      </trkpt>
      <trkpt lat="46.5607" lon="5.55996">
        <ele>507.6</ele>
        <time>2022-06-11T12:25:45Z</time>
      </trkpt>
      <trkpt lat="46.56067" lon="5.56002">
        <ele>506.8</ele>
        <time>2022-06-11T12:25:54Z</time>
      </trkpt>
      <trkpt lat="46.56071" lon="5.56008">
        <ele>506.7</ele>
        <time>2022-06-11T12:26:02Z</time>
      </trkpt>
      <trkpt lat="46.56073" lon="5.56015">
        <ele>506.6</ele>
        <time>2022-06-11T12:26:06Z</time>
      </trkpt>
      <trkpt lat="46.56073" lon="5.56022">
        <ele>506.8</ele>
        <time>2022-06-11T12:26:11Z</time>
      </trkpt>
      <trkpt lat="46.56074" lon="5.5603">
        <ele>508.3</ele>
        <time>2022-06-11T12:26:18Z</time>
      </trkpt>
      <trkpt lat="46.56075" lon="5.56036">
        <ele>509.6</ele>
        <time>2022-06-11T12:26:23Z</time>
      </trkpt>
      <trkpt lat="46.56079" lon="5.56041">
        <ele>510.4</ele>
        <time>2022-06-11T12:26:27Z</time>
      </trkpt>
      <trkpt lat="46.56084" lon="5.56045">
        <ele>511.5</ele>
        <time>2022-06-11T12:26:32Z</time>
      </trkpt>
      <trkpt lat="46.56086" lon="5.56051">
        <ele>514.8</ele>
        <time>2022-06-11T12:26:46Z</time>
      </trkpt>
      <trkpt lat="46.56088" lon="5.56057">
        <ele>515.8</ele>
        <time>2022-06-11T12:26:52Z</time>
      </trkpt>
      <trkpt lat="46.56085" lon="5.56063">
        <ele>517.1</ele>
        <time>2022-06-11T12:27:00Z</time>
      </trkpt>
      <trkpt lat="46.56083" lon="5.56069">
        <ele>518.1</ele>
        <time>2022-06-11T12:27:07Z</time>
      </trkpt>
      <trkpt lat="46.56085" lon="5.56075">
        <ele>518.8</ele>
        <time>2022-06-11T12:27:12Z</time>
      </trkpt>
      <trkpt lat="46.56081" lon="5.56079">
        <ele>519.7</ele>
        <time>2022-06-11T12:27:18Z</time>
      </trkpt>
      <trkpt lat="46.56079" lon="5.56086">
        <ele>520.4</ele>
        <time>2022-06-11T12:27:30Z</time>
      </trkpt>
      <trkpt lat="46.5608" lon="5.56093">
        <ele>521.2</ele>
        <time>2022-06-11T12:27:39Z</time>
      </trkpt>
      <trkpt lat="46.56081" lon="5.561">
        <ele>521.9</ele>
        <time>2022-06-11T12:27:45Z</time>
      </trkpt>
      <trkpt lat="46.5608" lon="5.56106">
        <ele>522.3</ele>
        <time>2022-06-11T12:27:51Z</time>
      </trkpt>
      <trkpt lat="46.56079" lon="5.56114">
        <ele>524.5</ele>
        <time>2022-06-11T12:28:00Z</time>
      </trkpt>
      <trkpt lat="46.56075" lon="5.56118">
        <ele>524.7</ele>
        <time>2022-06-11T12:28:05Z</time>
      </trkpt>
      <trkpt lat="46.56071" lon="5.56124">
        <ele>524.7</ele>
        <time>2022-06-11T12:28:10Z</time>
      </trkpt>
      <trkpt lat="46.56069" lon="5.56129">
        <ele>525.2</ele>
        <time>2022-06-11T12:28:16Z</time>
      </trkpt>
      <trkpt lat="46.5607" lon="5.56136">
        <ele>526.3</ele>
        <time>2022-06-11T12:28:22Z</time>
      </trkpt>
      <trkpt lat="46.56068" lon="5.56143">
        <ele>529.3</ele>
        <time>2022-06-11T12:28:52Z</time>
      </trkpt>
      <trkpt lat="46.56065" lon="5.56136">
        <ele>529.7</ele>
        <time>2022-06-11T12:29:47Z</time>
      </trkpt>
      <trkpt lat="46.5607" lon="5.56138">
        <ele>529.1</ele>
        <time>2022-06-11T12:30:40Z</time>
      </trkpt>
      <trkpt lat="46.56072" lon="5.56132">
        <ele>533.2</ele>
        <time>2022-06-11T12:31:07Z</time>
      </trkpt>
      <trkpt lat="46.56077" lon="5.56131">
        <ele>533.3</ele>
        <time>2022-06-11T12:31:15Z</time>
      </trkpt>
      <trkpt lat="46.56082" lon="5.56131">
        <ele>533</ele>
        <time>2022-06-11T12:31:23Z</time>
      </trkpt>
      <trkpt lat="46.56087" lon="5.56133">
        <ele>532.6</ele>
        <time>2022-06-11T12:31:30Z</time>
      </trkpt>
      <trkpt lat="46.56091" lon="5.56135">
        <ele>534.2</ele>
        <time>2022-06-11T12:31:53Z</time>
      </trkpt>
      <trkpt lat="46.56096" lon="5.56134">
        <ele>534.6</ele>
        <time>2022-06-11T12:31:57Z</time>
      </trkpt>
      <trkpt lat="46.56101" lon="5.56132">
        <ele>535.3</ele>
        <time>2022-06-11T12:32:01Z</time>
      </trkpt>
      <trkpt lat="46.56105" lon="5.56129">
        <ele>535.5</ele>
        <time>2022-06-11T12:32:06Z</time>
      </trkpt>
      <trkpt lat="46.56109" lon="5.56126">
        <ele>535.7</ele>
        <time>2022-06-11T12:32:12Z</time>
      </trkpt>
      <trkpt lat="46.56114" lon="5.56124">
        <ele>536.5</ele>
        <time>2022-06-11T12:32:17Z</time>
      </trkpt>
      <trkpt lat="46.56119" lon="5.56121">
        <ele>537.3</ele>
        <time>2022-06-11T12:32:22Z</time>
      </trkpt>
      <trkpt lat="46.56124" lon="5.56117">
        <ele>537.7</ele>
        <time>2022-06-11T12:32:27Z</time>
      </trkpt>
      <trkpt lat="46.56128" lon="5.56113">
        <ele>537.6</ele>
        <time>2022-06-11T12:32:31Z</time>
      </trkpt>
      <trkpt lat="46.56134" lon="5.56111">
        <ele>537.4</ele>
        <time>2022-06-11T12:32:35Z</time>
      </trkpt>
      <trkpt lat="46.56138" lon="5.5611">
        <ele>537</ele>
        <time>2022-06-11T12:32:39Z</time>
      </trkpt>
      <trkpt lat="46.56143" lon="5.56109">
        <ele>536.2</ele>
        <time>2022-06-11T12:32:43Z</time>
      </trkpt>
      <trkpt lat="46.56147" lon="5.56109">
        <ele>534.9</ele>
        <time>2022-06-11T12:32:47Z</time>
      </trkpt>
      <trkpt lat="46.56152" lon="5.56106">
        <ele>532.4</ele>
        <time>2022-06-11T12:32:53Z</time>
      </trkpt>
      <trkpt lat="46.56156" lon="5.56107">
        <ele>530.5</ele>
        <time>2022-06-11T12:32:57Z</time>
      </trkpt>
      <trkpt lat="46.56161" lon="5.56108">
        <ele>528</ele>
        <time>2022-06-11T12:33:02Z</time>
      </trkpt>
      <trkpt lat="46.56166" lon="5.56108">
        <ele>526</ele>
        <time>2022-06-11T12:33:07Z</time>
      </trkpt>
      <trkpt lat="46.56171" lon="5.56107">
        <ele>525</ele>
        <time>2022-06-11T12:33:11Z</time>
      </trkpt>
      <trkpt lat="46.56176" lon="5.56108">
        <ele>524.2</ele>
        <time>2022-06-11T12:33:18Z</time>
      </trkpt>
      <trkpt lat="46.56181" lon="5.56111">
        <ele>523.4</ele>
        <time>2022-06-11T12:33:22Z</time>
      </trkpt>
      <trkpt lat="46.56185" lon="5.56115">
        <ele>522.6</ele>
        <time>2022-06-11T12:33:26Z</time>
      </trkpt>
      <trkpt lat="46.56188" lon="5.56121">
        <ele>522.4</ele>
        <time>2022-06-11T12:33:31Z</time>
      </trkpt>
      <trkpt lat="46.56188" lon="5.56128">
        <ele>522.7</ele>
        <time>2022-06-11T12:33:38Z</time>
      </trkpt>
      <trkpt lat="46.56189" lon="5.56135">
        <ele>522</ele>
        <time>2022-06-11T12:33:45Z</time>
      </trkpt>
      <trkpt lat="46.56191" lon="5.56141">
        <ele>521.2</ele>
        <time>2022-06-11T12:33:51Z</time>
      </trkpt>
      <trkpt lat="46.56195" lon="5.56145">
        <ele>521.5</ele>
        <time>2022-06-11T12:33:57Z</time>
      </trkpt>
      <trkpt lat="46.56199" lon="5.5615">
        <ele>522.6</ele>
        <time>2022-06-11T12:34:03Z</time>
      </trkpt>
      <trkpt lat="46.562" lon="5.56158">
        <ele>523.7</ele>
        <time>2022-06-11T12:34:07Z</time>
      </trkpt>
      <trkpt lat="46.56203" lon="5.56163">
        <ele>524</ele>
        <time>2022-06-11T12:34:12Z</time>
      </trkpt>
      <trkpt lat="46.56206" lon="5.56171">
        <ele>525.1</ele>
        <time>2022-06-11T12:34:18Z</time>
      </trkpt>
      <trkpt lat="46.56208" lon="5.56179">
        <ele>526</ele>
        <time>2022-06-11T12:34:23Z</time>
      </trkpt>
      <trkpt lat="46.5621" lon="5.56185">
        <ele>526.6</ele>
        <time>2022-06-11T12:34:28Z</time>
      </trkpt>
      <trkpt lat="46.5621" lon="5.56193">
        <ele>527.3</ele>
        <time>2022-06-11T12:34:32Z</time>
      </trkpt>
      <trkpt lat="46.56209" lon="5.56202">
        <ele>527.6</ele>
        <time>2022-06-11T12:34:36Z</time>
      </trkpt>
      <trkpt lat="46.56206" lon="5.56208">
        <ele>527.6</ele>
        <time>2022-06-11T12:34:39Z</time>
      </trkpt>
      <trkpt lat="46.56204" lon="5.56215">
        <ele>528</ele>
        <time>2022-06-11T12:34:45Z</time>
      </trkpt>
      <trkpt lat="46.56205" lon="5.56222">
        <ele>528</ele>
        <time>2022-06-11T12:34:52Z</time>
      </trkpt>
      <trkpt lat="46.56203" lon="5.5623">
        <ele>528.5</ele>
        <time>2022-06-11T12:34:56Z</time>
      </trkpt>
      <trkpt lat="46.56203" lon="5.56238">
        <ele>529.1</ele>
        <time>2022-06-11T12:35:01Z</time>
      </trkpt>
      <trkpt lat="46.56206" lon="5.56244">
        <ele>529</ele>
        <time>2022-06-11T12:35:06Z</time>
      </trkpt>
      <trkpt lat="46.5621" lon="5.56249">
        <ele>528.6</ele>
        <time>2022-06-11T12:35:13Z</time>
      </trkpt>
      <trkpt lat="46.56215" lon="5.56251">
        <ele>528.3</ele>
        <time>2022-06-11T12:35:18Z</time>
      </trkpt>
      <trkpt lat="46.56219" lon="5.56254">
        <ele>528.4</ele>
        <time>2022-06-11T12:35:22Z</time>
      </trkpt>
      <trkpt lat="46.56223" lon="5.56258">
        <ele>528.5</ele>
        <time>2022-06-11T12:35:26Z</time>
      </trkpt>
      <trkpt lat="46.56226" lon="5.56264">
        <ele>529</ele>
        <time>2022-06-11T12:35:32Z</time>
      </trkpt>
      <trkpt lat="46.56231" lon="5.56262">
        <ele>529.1</ele>
        <time>2022-06-11T12:35:39Z</time>
      </trkpt>
      <trkpt lat="46.56235" lon="5.56264">
        <ele>528.6</ele>
        <time>2022-06-11T12:35:44Z</time>
      </trkpt>
      <trkpt lat="46.5624" lon="5.56268">
        <ele>527.6</ele>
        <time>2022-06-11T12:35:48Z</time>
      </trkpt>
      <trkpt lat="46.56243" lon="5.56274">
        <ele>526.7</ele>
        <time>2022-06-11T12:35:52Z</time>
      </trkpt>
      <trkpt lat="46.56246" lon="5.56279">
        <ele>525.9</ele>
        <time>2022-06-11T12:35:56Z</time>
      </trkpt>
      <trkpt lat="46.5625" lon="5.56284">
        <ele>524.8</ele>
        <time>2022-06-11T12:36:01Z</time>
      </trkpt>
      <trkpt lat="46.56253" lon="5.56289">
        <ele>523.8</ele>
        <time>2022-06-11T12:36:06Z</time>
      </trkpt>
      <trkpt lat="46.56256" lon="5.56295">
        <ele>523.4</ele>
        <time>2022-06-11T12:36:11Z</time>
      </trkpt>
      <trkpt lat="46.56259" lon="5.56299">
        <ele>523.4</ele>
        <time>2022-06-11T12:36:16Z</time>
      </trkpt>
      <trkpt lat="46.56263" lon="5.56304">
        <ele>523</ele>
        <time>2022-06-11T12:36:22Z</time>
      </trkpt>
      <trkpt lat="46.56268" lon="5.56308">
        <ele>522</ele>
        <time>2022-06-11T12:36:28Z</time>
      </trkpt>
      <trkpt lat="46.56272" lon="5.56311">
        <ele>521.1</ele>
        <time>2022-06-11T12:36:31Z</time>
      </trkpt>
      <trkpt lat="46.56275" lon="5.56317">
        <ele>520</ele>
        <time>2022-06-11T12:36:34Z</time>
      </trkpt>
      <trkpt lat="46.56277" lon="5.56324">
        <ele>519.1</ele>
        <time>2022-06-11T12:36:37Z</time>
      </trkpt>
      <trkpt lat="46.5628" lon="5.56332">
        <ele>518.7</ele>
        <time>2022-06-11T12:36:40Z</time>
      </trkpt>
      <trkpt lat="46.56282" lon="5.56338">
        <ele>518.6</ele>
        <time>2022-06-11T12:36:44Z</time>
      </trkpt>
      <trkpt lat="46.56286" lon="5.56343">
        <ele>516.3</ele>
        <time>2022-06-11T12:36:55Z</time>
      </trkpt>
      <trkpt lat="46.56291" lon="5.56346">
        <ele>515.1</ele>
        <time>2022-06-11T12:36:59Z</time>
      </trkpt>
      <trkpt lat="46.56296" lon="5.56348">
        <ele>514</ele>
        <time>2022-06-11T12:37:04Z</time>
      </trkpt>
      <trkpt lat="46.56301" lon="5.56344">
        <ele>516.9</ele>
        <time>2022-06-11T12:37:16Z</time>
      </trkpt>
      <trkpt lat="46.56307" lon="5.56343">
        <ele>518</ele>
        <time>2022-06-11T12:37:19Z</time>
      </trkpt>
      <trkpt lat="46.56311" lon="5.56344">
        <ele>518.5</ele>
        <time>2022-06-11T12:37:22Z</time>
      </trkpt>
      <trkpt lat="46.56316" lon="5.56346">
        <ele>518.8</ele>
        <time>2022-06-11T12:37:25Z</time>
      </trkpt>
      <trkpt lat="46.56321" lon="5.56347">
        <ele>518.7</ele>
        <time>2022-06-11T12:37:28Z</time>
      </trkpt>
      <trkpt lat="46.56326" lon="5.56347">
        <ele>519</ele>
        <time>2022-06-11T12:37:32Z</time>
      </trkpt>
      <trkpt lat="46.5633" lon="5.56349">
        <ele>519.7</ele>
        <time>2022-06-11T12:37:38Z</time>
      </trkpt>
      <trkpt lat="46.56335" lon="5.56351">
        <ele>520.2</ele>
        <time>2022-06-11T12:37:42Z</time>
      </trkpt>
      <trkpt lat="46.56339" lon="5.56353">
        <ele>520.3</ele>
        <time>2022-06-11T12:37:48Z</time>
      </trkpt>
      <trkpt lat="46.56344" lon="5.56357">
        <ele>520.4</ele>
        <time>2022-06-11T12:37:54Z</time>
      </trkpt>
      <trkpt lat="46.56348" lon="5.5636">
        <ele>521.5</ele>
        <time>2022-06-11T12:38:05Z</time>
      </trkpt>
      <trkpt lat="46.56353" lon="5.56361">
        <ele>520.4</ele>
        <time>2022-06-11T12:38:14Z</time>
      </trkpt>
      <trkpt lat="46.56358" lon="5.56365">
        <ele>519.6</ele>
        <time>2022-06-11T12:38:18Z</time>
      </trkpt>
      <trkpt lat="46.56363" lon="5.56368">
        <ele>519.5</ele>
        <time>2022-06-11T12:38:21Z</time>
      </trkpt>
      <trkpt lat="46.56366" lon="5.56372">
        <ele>519.8</ele>
        <time>2022-06-11T12:38:27Z</time>
      </trkpt>
      <trkpt lat="46.5637" lon="5.56377">
        <ele>519.7</ele>
        <time>2022-06-11T12:38:34Z</time>
      </trkpt>
      <trkpt lat="46.56375" lon="5.56381">
        <ele>519.2</ele>
        <time>2022-06-11T12:38:39Z</time>
      </trkpt>
      <trkpt lat="46.5638" lon="5.56384">
        <ele>518.4</ele>
        <time>2022-06-11T12:38:44Z</time>
      </trkpt>
      <trkpt lat="46.56385" lon="5.56386">
        <ele>517.8</ele>
        <time>2022-06-11T12:38:47Z</time>
      </trkpt>
      <trkpt lat="46.56389" lon="5.5639">
        <ele>516.9</ele>
        <time>2022-06-11T12:38:51Z</time>
      </trkpt>
      <trkpt lat="46.56392" lon="5.56397">
        <ele>515.1</ele>
        <time>2022-06-11T12:38:57Z</time>
      </trkpt>
      <trkpt lat="46.56392" lon="5.56403">
        <ele>514.2</ele>
        <time>2022-06-11T12:39:05Z</time>
      </trkpt>
      <trkpt lat="46.56393" lon="5.5641">
        <ele>514.8</ele>
        <time>2022-06-11T12:39:11Z</time>
      </trkpt>
      <trkpt lat="46.56397" lon="5.56416">
        <ele>515.8</ele>
        <time>2022-06-11T12:39:16Z</time>
      </trkpt>
      <trkpt lat="46.56402" lon="5.56421">
        <ele>516.1</ele>
        <time>2022-06-11T12:39:20Z</time>
      </trkpt>
      <trkpt lat="46.56406" lon="5.56426">
        <ele>516.2</ele>
        <time>2022-06-11T12:39:24Z</time>
      </trkpt>
      <trkpt lat="46.56408" lon="5.56432">
        <ele>517.1</ele>
        <time>2022-06-11T12:39:32Z</time>
      </trkpt>
      <trkpt lat="46.56408" lon="5.56425">
        <ele>514.8</ele>
        <time>2022-06-11T12:39:54Z</time>
      </trkpt>
      <trkpt lat="46.56403" lon="5.56425">
        <ele>514.9</ele>
        <time>2022-06-11T12:40:00Z</time>
      </trkpt>
      <trkpt lat="46.56398" lon="5.56426">
        <ele>514.7</ele>
        <time>2022-06-11T12:40:05Z</time>
      </trkpt>
      <trkpt lat="46.56394" lon="5.56421">
        <ele>515.4</ele>
        <time>2022-06-11T12:40:13Z</time>
      </trkpt>
      <trkpt lat="46.56388" lon="5.5642">
        <ele>517.9</ele>
        <time>2022-06-11T12:40:24Z</time>
      </trkpt>
      <trkpt lat="46.56382" lon="5.5642">
        <ele>518.1</ele>
        <time>2022-06-11T12:40:28Z</time>
      </trkpt>
      <trkpt lat="46.56378" lon="5.56415">
        <ele>518</ele>
        <time>2022-06-11T12:40:33Z</time>
      </trkpt>
      <trkpt lat="46.56375" lon="5.56409">
        <ele>517.7</ele>
        <time>2022-06-11T12:40:37Z</time>
      </trkpt>
      <trkpt lat="46.56369" lon="5.56411">
        <ele>518.4</ele>
        <time>2022-06-11T12:40:43Z</time>
      </trkpt>
      <trkpt lat="46.56365" lon="5.56408">
        <ele>517.6</ele>
        <time>2022-06-11T12:40:54Z</time>
      </trkpt>
      <trkpt lat="46.56361" lon="5.56412">
        <ele>517.3</ele>
        <time>2022-06-11T12:40:58Z</time>
      </trkpt>
      <trkpt lat="46.56356" lon="5.56414">
        <ele>517.6</ele>
        <time>2022-06-11T12:41:02Z</time>
      </trkpt>
      <trkpt lat="46.56351" lon="5.56414">
        <ele>519.1</ele>
        <time>2022-06-11T12:41:08Z</time>
      </trkpt>
      <trkpt lat="46.56346" lon="5.56413">
        <ele>520</ele>
        <time>2022-06-11T12:41:12Z</time>
      </trkpt>
      <trkpt lat="46.56341" lon="5.56412">
        <ele>521.3</ele>
        <time>2022-06-11T12:41:22Z</time>
      </trkpt>
      <trkpt lat="46.56336" lon="5.56413">
        <ele>521.1</ele>
        <time>2022-06-11T12:41:28Z</time>
      </trkpt>
      <trkpt lat="46.5633" lon="5.56413">
        <ele>520.9</ele>
        <time>2022-06-11T12:41:32Z</time>
      </trkpt>
      <trkpt lat="46.56325" lon="5.56412">
        <ele>520.6</ele>
        <time>2022-06-11T12:41:36Z</time>
      </trkpt>
      <trkpt lat="46.5632" lon="5.56409">
        <ele>519.8</ele>
        <time>2022-06-11T12:41:46Z</time>
      </trkpt>
      <trkpt lat="46.56315" lon="5.56408">
        <ele>519.7</ele>
        <time>2022-06-11T12:41:50Z</time>
      </trkpt>
      <trkpt lat="46.56309" lon="5.56409">
        <ele>519.4</ele>
        <time>2022-06-11T12:41:54Z</time>
      </trkpt>
      <trkpt lat="46.56304" lon="5.56411">
        <ele>519.2</ele>
        <time>2022-06-11T12:41:58Z</time>
      </trkpt>
      <trkpt lat="46.56299" lon="5.56412">
        <ele>519.3</ele>
        <time>2022-06-11T12:42:03Z</time>
      </trkpt>
      <trkpt lat="46.56293" lon="5.56413">
        <ele>519.4</ele>
        <time>2022-06-11T12:42:08Z</time>
      </trkpt>
      <trkpt lat="46.56289" lon="5.56414">
        <ele>518.6</ele>
        <time>2022-06-11T12:42:16Z</time>
      </trkpt>
      <trkpt lat="46.56285" lon="5.56416">
        <ele>518.4</ele>
        <time>2022-06-11T12:42:29Z</time>
      </trkpt>
      <trkpt lat="46.5628" lon="5.56417">
        <ele>517.8</ele>
        <time>2022-06-11T12:42:35Z</time>
      </trkpt>
      <trkpt lat="46.56276" lon="5.56412">
        <ele>516.6</ele>
        <time>2022-06-11T12:42:59Z</time>
      </trkpt>
      <trkpt lat="46.56279" lon="5.56419">
        <ele>517.7</ele>
        <time>2022-06-11T12:43:15Z</time>
      </trkpt>
      <trkpt lat="46.56283" lon="5.56423">
        <ele>517.2</ele>
        <time>2022-06-11T12:43:19Z</time>
      </trkpt>
      <trkpt lat="46.56278" lon="5.56426">
        <ele>516.8</ele>
        <time>2022-06-11T12:43:26Z</time>
      </trkpt>
      <trkpt lat="46.56273" lon="5.56428">
        <ele>517.4</ele>
        <time>2022-06-11T12:43:29Z</time>
      </trkpt>
      <trkpt lat="46.56268" lon="5.5643">
        <ele>518.1</ele>
        <time>2022-06-11T12:43:32Z</time>
      </trkpt>
      <trkpt lat="46.56264" lon="5.56431">
        <ele>518.6</ele>
        <time>2022-06-11T12:43:35Z</time>
      </trkpt>
      <trkpt lat="46.56259" lon="5.56431">
        <ele>518.9</ele>
        <time>2022-06-11T12:43:40Z</time>
      </trkpt>
      <trkpt lat="46.56254" lon="5.56433">
        <ele>518.2</ele>
        <time>2022-06-11T12:43:49Z</time>
      </trkpt>
      <trkpt lat="46.56252" lon="5.5644">
        <ele>516.6</ele>
        <time>2022-06-11T12:43:57Z</time>
      </trkpt>
      <trkpt lat="46.56246" lon="5.56442">
        <ele>515.8</ele>
        <time>2022-06-11T12:44:01Z</time>
      </trkpt>
      <trkpt lat="46.56242" lon="5.56444">
        <ele>514.7</ele>
        <time>2022-06-11T12:44:05Z</time>
      </trkpt>
      <trkpt lat="46.56244" lon="5.56451">
        <ele>512.3</ele>
        <time>2022-06-11T12:44:15Z</time>
      </trkpt>
      <trkpt lat="46.56246" lon="5.56457">
        <ele>511.8</ele>
        <time>2022-06-11T12:44:26Z</time>
      </trkpt>
      <trkpt lat="46.56244" lon="5.56464">
        <ele>512.5</ele>
        <time>2022-06-11T12:44:30Z</time>
      </trkpt>
      <trkpt lat="46.56249" lon="5.56462">
        <ele>514.7</ele>
        <time>2022-06-11T12:44:43Z</time>
      </trkpt>
      <trkpt lat="46.56247" lon="5.56455">
        <ele>514.4</ele>
        <time>2022-06-11T12:44:51Z</time>
      </trkpt>
      <trkpt lat="46.56249" lon="5.56448">
        <ele>514.3</ele>
        <time>2022-06-11T12:44:56Z</time>
      </trkpt>
      <trkpt lat="46.56247" lon="5.56441">
        <ele>513.7</ele>
        <time>2022-06-11T12:45:01Z</time>
      </trkpt>
      <trkpt lat="46.56247" lon="5.56433">
        <ele>512.9</ele>
        <time>2022-06-11T12:45:05Z</time>
      </trkpt>
      <trkpt lat="46.56252" lon="5.56428">
        <ele>511.5</ele>
        <time>2022-06-11T12:45:10Z</time>
      </trkpt>
      <trkpt lat="46.56254" lon="5.56422">
        <ele>509.1</ele>
        <time>2022-06-11T12:45:18Z</time>
      </trkpt>
      <trkpt lat="46.56258" lon="5.56418">
        <ele>507.5</ele>
        <time>2022-06-11T12:45:23Z</time>
      </trkpt>
      <trkpt lat="46.5626" lon="5.56412">
        <ele>506.3</ele>
        <time>2022-06-11T12:45:29Z</time>
      </trkpt>
      <trkpt lat="46.5626" lon="5.56419">
        <ele>504.8</ele>
        <time>2022-06-11T12:45:42Z</time>
      </trkpt>
      <trkpt lat="46.56259" lon="5.56425">
        <ele>503.4</ele>
        <time>2022-06-11T12:46:10Z</time>
      </trkpt>
      <trkpt lat="46.56256" lon="5.56431">
        <ele>508.6</ele>
        <time>2022-06-11T12:46:56Z</time>
      </trkpt>
      <trkpt lat="46.56252" lon="5.56436">
        <ele>509.3</ele>
        <time>2022-06-11T12:47:02Z</time>
      </trkpt>
      <trkpt lat="46.56247" lon="5.56438">
        <ele>510.7</ele>
        <time>2022-06-11T12:47:09Z</time>
      </trkpt>
      <trkpt lat="46.56242" lon="5.56439">
        <ele>511.3</ele>
        <time>2022-06-11T12:47:13Z</time>
      </trkpt>
      <trkpt lat="46.56236" lon="5.56441">
        <ele>511.9</ele>
        <time>2022-06-11T12:47:17Z</time>
      </trkpt>
      <trkpt lat="46.56232" lon="5.56443">
        <ele>512.2</ele>
        <time>2022-06-11T12:47:21Z</time>
      </trkpt>
      <trkpt lat="46.56228" lon="5.56448">
        <ele>512.2</ele>
        <time>2022-06-11T12:47:43Z</time>
      </trkpt>
      <trkpt lat="46.56226" lon="5.56454">
        <ele>512.2</ele>
        <time>2022-06-11T12:47:47Z</time>
      </trkpt>
      <trkpt lat="46.56226" lon="5.56461">
        <ele>511.4</ele>
        <time>2022-06-11T12:47:55Z</time>
      </trkpt>
      <trkpt lat="46.56225" lon="5.56468">
        <ele>511.1</ele>
        <time>2022-06-11T12:48:03Z</time>
      </trkpt>
      <trkpt lat="46.56221" lon="5.5647">
        <ele>511.7</ele>
        <time>2022-06-11T12:48:11Z</time>
      </trkpt>
      <trkpt lat="46.56217" lon="5.56474">
        <ele>512.8</ele>
        <time>2022-06-11T12:48:19Z</time>
      </trkpt>
      <trkpt lat="46.56219" lon="5.5648">
        <ele>515.2</ele>
        <time>2022-06-11T12:48:37Z</time>
      </trkpt>
      <trkpt lat="46.56224" lon="5.56484">
        <ele>515.2</ele>
        <time>2022-06-11T12:48:44Z</time>
      </trkpt>
      <trkpt lat="46.56228" lon="5.56488">
        <ele>515.3</ele>
        <time>2022-06-11T12:48:49Z</time>
      </trkpt>
      <trkpt lat="46.56226" lon="5.56496">
        <ele>515.9</ele>
        <time>2022-06-11T12:48:54Z</time>
      </trkpt>
      <trkpt lat="46.56224" lon="5.56502">
        <ele>516.6</ele>
        <time>2022-06-11T12:48:58Z</time>
      </trkpt>
      <trkpt lat="46.56221" lon="5.56508">
        <ele>516.2</ele>
        <time>2022-06-11T12:49:03Z</time>
      </trkpt>
      <trkpt lat="46.56218" lon="5.56514">
        <ele>519.6</ele>
        <time>2022-06-11T12:49:33Z</time>
      </trkpt>
      <trkpt lat="46.56215" lon="5.56519">
        <ele>521.5</ele>
        <time>2022-06-11T12:49:47Z</time>
      </trkpt>
      <trkpt lat="46.56213" lon="5.56527">
        <ele>521.1</ele>
        <time>2022-06-11T12:50:11Z</time>
      </trkpt>
      <trkpt lat="46.56211" lon="5.56533">
        <ele>519.6</ele>
        <time>2022-06-11T12:50:16Z</time>
      </trkpt>
      <trkpt lat="46.56207" lon="5.56538">
        <ele>518.5</ele>
        <time>2022-06-11T12:50:22Z</time>
      </trkpt>
      <trkpt lat="46.56202" lon="5.56543">
        <ele>518.7</ele>
        <time>2022-06-11T12:50:26Z</time>
      </trkpt>
      <trkpt lat="46.56206" lon="5.56546">
        <ele>520.7</ele>
        <time>2022-06-11T12:50:56Z</time>
      </trkpt>
      <trkpt lat="46.56202" lon="5.56544">
        <ele>520.1</ele>
        <time>2022-06-11T12:51:12Z</time>
      </trkpt>
      <trkpt lat="46.56206" lon="5.56541">
        <ele>523.2</ele>
        <time>2022-06-11T12:51:30Z</time>
      </trkpt>
      <trkpt lat="46.56204" lon="5.56534">
        <ele>523.1</ele>
        <time>2022-06-11T12:51:48Z</time>
      </trkpt>
      <trkpt lat="46.56208" lon="5.56532">
        <ele>526.9</ele>
        <time>2022-06-11T12:52:27Z</time>
      </trkpt>
      <trkpt lat="46.56203" lon="5.5653">
        <ele>528.4</ele>
        <time>2022-06-11T12:52:36Z</time>
      </trkpt>
      <trkpt lat="46.56199" lon="5.56527">
        <ele>528.1</ele>
        <time>2022-06-11T12:53:01Z</time>
      </trkpt>
      <trkpt lat="46.562" lon="5.56534">
        <ele>529.8</ele>
        <time>2022-06-11T12:53:22Z</time>
      </trkpt>
      <trkpt lat="46.56198" lon="5.5654">
        <ele>530.8</ele>
        <time>2022-06-11T12:53:28Z</time>
      </trkpt>
      <trkpt lat="46.56194" lon="5.56546">
        <ele>531</ele>
        <time>2022-06-11T12:53:34Z</time>
      </trkpt>
      <trkpt lat="46.56192" lon="5.56552">
        <ele>530.3</ele>
        <time>2022-06-11T12:53:41Z</time>
      </trkpt>
      <trkpt lat="46.5619" lon="5.56559">
        <ele>529.9</ele>
        <time>2022-06-11T12:53:47Z</time>
      </trkpt>
      <trkpt lat="46.56191" lon="5.56565">
        <ele>528.6</ele>
        <time>2022-06-11T12:53:56Z</time>
      </trkpt>
      <trkpt lat="46.56187" lon="5.56569">
        <ele>527.9</ele>
        <time>2022-06-11T12:54:01Z</time>
      </trkpt>
      <trkpt lat="46.56182" lon="5.56571">
        <ele>527.8</ele>
        <time>2022-06-11T12:54:06Z</time>
      </trkpt>
      <trkpt lat="46.56178" lon="5.56571">
        <ele>529.4</ele>
        <time>2022-06-11T12:54:27Z</time>
      </trkpt>
      <trkpt lat="46.56182" lon="5.56572">
        <ele>530</ele>
        <time>2022-06-11T12:54:32Z</time>
      </trkpt>
      <trkpt lat="46.56187" lon="5.56572">
        <ele>529.9</ele>
        <time>2022-06-11T12:54:37Z</time>
      </trkpt>
      <trkpt lat="46.56183" lon="5.56576">
        <ele>531.3</ele>
        <time>2022-06-11T12:54:48Z</time>
      </trkpt>
      <trkpt lat="46.56179" lon="5.56578">
        <ele>532.2</ele>
        <time>2022-06-11T12:54:53Z</time>
      </trkpt>
      <trkpt lat="46.56173" lon="5.56579">
        <ele>533.2</ele>
        <time>2022-06-11T12:54:58Z</time>
      </trkpt>
      <trkpt lat="46.56169" lon="5.56579">
        <ele>534</ele>
        <time>2022-06-11T12:55:02Z</time>
      </trkpt>
      <trkpt lat="46.56164" lon="5.5658">
        <ele>535</ele>
        <time>2022-06-11T12:55:12Z</time>
      </trkpt>
      <trkpt lat="46.5616" lon="5.56582">
        <ele>535.1</ele>
        <time>2022-06-11T12:55:15Z</time>
      </trkpt>
      <trkpt lat="46.56154" lon="5.56585">
        <ele>535.2</ele>
        <time>2022-06-11T12:55:18Z</time>
      </trkpt>
      <trkpt lat="46.56157" lon="5.5659">
        <ele>538.1</ele>
        <time>2022-06-11T12:55:32Z</time>
      </trkpt>
      <trkpt lat="46.56152" lon="5.56589">
        <ele>538.3</ele>
        <time>2022-06-11T12:55:51Z</time>
      </trkpt>
      <trkpt lat="46.56144" lon="5.5659">
        <ele>537.7</ele>
        <time>2022-06-11T12:55:54Z</time>
      </trkpt>
      <trkpt lat="46.56139" lon="5.56591">
        <ele>536.9</ele>
        <time>2022-06-11T12:55:58Z</time>
      </trkpt>
      <trkpt lat="46.56139" lon="5.56598">
        <ele>534.9</ele>
        <time>2022-06-11T12:56:18Z</time>
      </trkpt>
      <trkpt lat="46.56134" lon="5.56595">
        <ele>535.4</ele>
        <time>2022-06-11T12:56:25Z</time>
      </trkpt>
      <trkpt lat="46.5613" lon="5.56592">
        <ele>536.3</ele>
        <time>2022-06-11T12:56:39Z</time>
      </trkpt>
      <trkpt lat="46.56126" lon="5.56597">
        <ele>537.8</ele>
        <time>2022-06-11T12:56:50Z</time>
      </trkpt>
      <trkpt lat="46.56122" lon="5.56601">
        <ele>539.2</ele>
        <time>2022-06-11T12:56:53Z</time>
      </trkpt>
      <trkpt lat="46.56121" lon="5.56608">
        <ele>541.9</ele>
        <time>2022-06-11T12:57:00Z</time>
      </trkpt>
      <trkpt lat="46.56117" lon="5.56609">
        <ele>541.9</ele>
        <time>2022-06-11T12:57:09Z</time>
      </trkpt>
      <trkpt lat="46.56117" lon="5.56616">
        <ele>541.7</ele>
        <time>2022-06-11T12:57:19Z</time>
      </trkpt>
      <trkpt lat="46.56118" lon="5.56623">
        <ele>541.6</ele>
        <time>2022-06-11T12:57:29Z</time>
      </trkpt>
      <trkpt lat="46.56118" lon="5.56623">
        <ele>541.5</ele>
        <time>2022-06-11T12:57:44Z</time>
      </trkpt>
      <trkpt lat="46.56112" lon="5.56624">
        <ele>540.9</ele>
        <time>2022-06-11T12:57:47Z</time>
      </trkpt>
      <trkpt lat="46.56107" lon="5.56622">
        <ele>540.8</ele>
        <time>2022-06-11T12:57:51Z</time>
      </trkpt>
      <trkpt lat="46.56111" lon="5.56618">
        <ele>540.7</ele>
        <time>2022-06-11T12:58:01Z</time>
      </trkpt>
      <trkpt lat="46.56117" lon="5.56618">
        <ele>543.1</ele>
        <time>2022-06-11T12:58:37Z</time>
      </trkpt>
      <trkpt lat="46.5612" lon="5.56613">
        <ele>543.1</ele>
        <time>2022-06-11T12:58:40Z</time>
      </trkpt>
      <trkpt lat="46.56124" lon="5.56609">
        <ele>543.1</ele>
        <time>2022-06-11T12:58:45Z</time>
      </trkpt>
      <trkpt lat="46.5612" lon="5.5661">
        <ele>542.3</ele>
        <time>2022-06-11T12:58:58Z</time>
      </trkpt>
      <trkpt lat="46.56115" lon="5.56613">
        <ele>540.4</ele>
        <time>2022-06-11T12:59:09Z</time>
      </trkpt>
      <trkpt lat="46.5612" lon="5.56615">
        <ele>538.8</ele>
        <time>2022-06-11T12:59:29Z</time>
      </trkpt>
      <trkpt lat="46.56112" lon="5.56608">
        <ele>538.1</ele>
        <time>2022-06-11T13:00:58Z</time>
      </trkpt>
      <trkpt lat="46.56107" lon="5.56609">
        <ele>536.8</ele>
        <time>2022-06-11T13:01:12Z</time>
      </trkpt>
      <trkpt lat="46.56112" lon="5.5661">
        <ele>536.5</ele>
        <time>2022-06-11T13:01:23Z</time>
      </trkpt>
      <trkpt lat="46.56112" lon="5.56603">
        <ele>536.2</ele>
        <time>2022-06-11T13:01:40Z</time>
      </trkpt>
      <trkpt lat="46.56109" lon="5.56598">
        <ele>535</ele>
        <time>2022-06-11T13:01:47Z</time>
      </trkpt>
      <trkpt lat="46.56105" lon="5.56593">
        <ele>533.1</ele>
        <time>2022-06-11T13:01:54Z</time>
      </trkpt>
      <trkpt lat="46.56105" lon="5.56585">
        <ele>530.7</ele>
        <time>2022-06-11T13:02:02Z</time>
      </trkpt>
      <trkpt lat="46.56102" lon="5.56579">
        <ele>530</ele>
        <time>2022-06-11T13:02:06Z</time>
      </trkpt>
      <trkpt lat="46.561" lon="5.56573">
        <ele>529.7</ele>
        <time>2022-06-11T13:02:10Z</time>
      </trkpt>
      <trkpt lat="46.56096" lon="5.5657">
        <ele>529.8</ele>
        <time>2022-06-11T13:02:14Z</time>
      </trkpt>
      <trkpt lat="46.56091" lon="5.56567">
        <ele>529.3</ele>
        <time>2022-06-11T13:02:18Z</time>
      </trkpt>
      <trkpt lat="46.56086" lon="5.56568">
        <ele>527.3</ele>
        <time>2022-06-11T13:02:29Z</time>
      </trkpt>
      <trkpt lat="46.56082" lon="5.56565">
        <ele>526.7</ele>
        <time>2022-06-11T13:02:34Z</time>
      </trkpt>
      <trkpt lat="46.56079" lon="5.56559">
        <ele>526.2</ele>
        <time>2022-06-11T13:02:38Z</time>
      </trkpt>
      <trkpt lat="46.56074" lon="5.56554">
        <ele>526</ele>
        <time>2022-06-11T13:02:42Z</time>
      </trkpt>
      <trkpt lat="46.56072" lon="5.56549">
        <ele>526.2</ele>
        <time>2022-06-11T13:02:47Z</time>
      </trkpt>
      <trkpt lat="46.56071" lon="5.56542">
        <ele>526.8</ele>
        <time>2022-06-11T13:02:52Z</time>
      </trkpt>
      <trkpt lat="46.56069" lon="5.56533">
        <ele>527.3</ele>
        <time>2022-06-11T13:02:56Z</time>
      </trkpt>
      <trkpt lat="46.56065" lon="5.56528">
        <ele>527.2</ele>
        <time>2022-06-11T13:02:59Z</time>
      </trkpt>
      <trkpt lat="46.56062" lon="5.56522">
        <ele>527.1</ele>
        <time>2022-06-11T13:03:02Z</time>
      </trkpt>
      <trkpt lat="46.56057" lon="5.56504">
        <ele>519.3</ele>
        <time>2022-06-11T13:03:40Z</time>
      </trkpt>
      <trkpt lat="46.5606" lon="5.56498">
        <ele>516.9</ele>
        <time>2022-06-11T13:03:50Z</time>
      </trkpt>
      <trkpt lat="46.56067" lon="5.56492">
        <ele>513.3</ele>
        <time>2022-06-11T13:04:04Z</time>
      </trkpt>
      <trkpt lat="46.56061" lon="5.56501">
        <ele>513.6</ele>
        <time>2022-06-11T13:04:49Z</time>
      </trkpt>
      <trkpt lat="46.56048" lon="5.56507">
        <ele>513.8</ele>
        <time>2022-06-11T13:05:23Z</time>
      </trkpt>
      <trkpt lat="46.56051" lon="5.56513">
        <ele>515.3</ele>
        <time>2022-06-11T13:05:29Z</time>
      </trkpt>
      <trkpt lat="46.56056" lon="5.56515">
        <ele>518.9</ele>
        <time>2022-06-11T13:05:35Z</time>
      </trkpt>
      <trkpt lat="46.56061" lon="5.56512">
        <ele>522.1</ele>
        <time>2022-06-11T13:05:45Z</time>
      </trkpt>
      <trkpt lat="46.56063" lon="5.56518">
        <ele>525.9</ele>
        <time>2022-06-11T13:05:59Z</time>
      </trkpt>
      <trkpt lat="46.56064" lon="5.56525">
        <ele>526.7</ele>
        <time>2022-06-11T13:06:03Z</time>
      </trkpt>
      <trkpt lat="46.56066" lon="5.56531">
        <ele>527.1</ele>
        <time>2022-06-11T13:06:07Z</time>
      </trkpt>
      <trkpt lat="46.56063" lon="5.56537">
        <ele>527.5</ele>
        <time>2022-06-11T13:06:12Z</time>
      </trkpt>
      <trkpt lat="46.56062" lon="5.56544">
        <ele>527.8</ele>
        <time>2022-06-11T13:06:16Z</time>
      </trkpt>
      <trkpt lat="46.56064" lon="5.56551">
        <ele>528.2</ele>
        <time>2022-06-11T13:06:21Z</time>
      </trkpt>
      <trkpt lat="46.56067" lon="5.56556">
        <ele>528.8</ele>
        <time>2022-06-11T13:06:28Z</time>
      </trkpt>
      <trkpt lat="46.56071" lon="5.56561">
        <ele>528.6</ele>
        <time>2022-06-11T13:06:33Z</time>
      </trkpt>
      <trkpt lat="46.56077" lon="5.56565">
        <ele>527.9</ele>
        <time>2022-06-11T13:06:38Z</time>
      </trkpt>
      <trkpt lat="46.56082" lon="5.56569">
        <ele>526.9</ele>
        <time>2022-06-11T13:06:42Z</time>
      </trkpt>
      <trkpt lat="46.56086" lon="5.56572">
        <ele>526.2</ele>
        <time>2022-06-11T13:06:45Z</time>
      </trkpt>
      <trkpt lat="46.5609" lon="5.56577">
        <ele>526.1</ele>
        <time>2022-06-11T13:06:49Z</time>
      </trkpt>
      <trkpt lat="46.56092" lon="5.56583">
        <ele>526.9</ele>
        <time>2022-06-11T13:06:56Z</time>
      </trkpt>
      <trkpt lat="46.56096" lon="5.56588">
        <ele>527.1</ele>
        <time>2022-06-11T13:07:01Z</time>
      </trkpt>
      <trkpt lat="46.56101" lon="5.5659">
        <ele>527.4</ele>
        <time>2022-06-11T13:07:04Z</time>
      </trkpt>
      <trkpt lat="46.56106" lon="5.56593">
        <ele>527.9</ele>
        <time>2022-06-11T13:07:08Z</time>
      </trkpt>
      <trkpt lat="46.56108" lon="5.56599">
        <ele>528.9</ele>
        <time>2022-06-11T13:07:14Z</time>
      </trkpt>
      <trkpt lat="46.56109" lon="5.56606">
        <ele>529</ele>
        <time>2022-06-11T13:07:20Z</time>
      </trkpt>
      <trkpt lat="46.5611" lon="5.56613">
        <ele>529.3</ele>
        <time>2022-06-11T13:07:25Z</time>
      </trkpt>
      <trkpt lat="46.56112" lon="5.56619">
        <ele>530.3</ele>
        <time>2022-06-11T13:07:30Z</time>
      </trkpt>
      <trkpt lat="46.5611" lon="5.56625">
        <ele>533</ele>
        <time>2022-06-11T13:07:38Z</time>
      </trkpt>
      <trkpt lat="46.56106" lon="5.5663">
        <ele>534.2</ele>
        <time>2022-06-11T13:07:45Z</time>
      </trkpt>
      <trkpt lat="46.56105" lon="5.56637">
        <ele>535.7</ele>
        <time>2022-06-11T13:07:52Z</time>
      </trkpt>
      <trkpt lat="46.56104" lon="5.56644">
        <ele>536.9</ele>
        <time>2022-06-11T13:07:58Z</time>
      </trkpt>
      <trkpt lat="46.56105" lon="5.56651">
        <ele>537.9</ele>
        <time>2022-06-11T13:08:04Z</time>
      </trkpt>
      <trkpt lat="46.56106" lon="5.56658">
        <ele>538.3</ele>
        <time>2022-06-11T13:08:09Z</time>
      </trkpt>
      <trkpt lat="46.56108" lon="5.56664">
        <ele>538.6</ele>
        <time>2022-06-11T13:08:13Z</time>
      </trkpt>
      <trkpt lat="46.56108" lon="5.56671">
        <ele>538.8</ele>
        <time>2022-06-11T13:08:17Z</time>
      </trkpt>
      <trkpt lat="46.56108" lon="5.56678">
        <ele>538.7</ele>
        <time>2022-06-11T13:08:21Z</time>
      </trkpt>
      <trkpt lat="46.56109" lon="5.56684">
        <ele>538.7</ele>
        <time>2022-06-11T13:08:25Z</time>
      </trkpt>
      <trkpt lat="46.56112" lon="5.56689">
        <ele>539.3</ele>
        <time>2022-06-11T13:08:30Z</time>
      </trkpt>
      <trkpt lat="46.56115" lon="5.56696">
        <ele>540.5</ele>
        <time>2022-06-11T13:08:35Z</time>
      </trkpt>
      <trkpt lat="46.56115" lon="5.56702">
        <ele>541.8</ele>
        <time>2022-06-11T13:08:39Z</time>
      </trkpt>
      <trkpt lat="46.56111" lon="5.56704">
        <ele>547.4</ele>
        <time>2022-06-11T13:08:54Z</time>
      </trkpt>
      <trkpt lat="46.56111" lon="5.56711">
        <ele>548</ele>
        <time>2022-06-11T13:09:07Z</time>
      </trkpt>
      <trkpt lat="46.56116" lon="5.5671">
        <ele>549.3</ele>
        <time>2022-06-11T13:09:26Z</time>
      </trkpt>
      <trkpt lat="46.56111" lon="5.56712">
        <ele>550.2</ele>
        <time>2022-06-11T13:09:41Z</time>
      </trkpt>
      <trkpt lat="46.56105" lon="5.56714">
        <ele>550.3</ele>
        <time>2022-06-11T13:09:44Z</time>
      </trkpt>
      <trkpt lat="46.56101" lon="5.56717">
        <ele>550.6</ele>
        <time>2022-06-11T13:09:48Z</time>
      </trkpt>
      <trkpt lat="46.56096" lon="5.56719">
        <ele>551.2</ele>
        <time>2022-06-11T13:09:52Z</time>
      </trkpt>
      <trkpt lat="46.56091" lon="5.56719">
        <ele>551.8</ele>
        <time>2022-06-11T13:09:56Z</time>
      </trkpt>
      <trkpt lat="46.56086" lon="5.56716">
        <ele>552.5</ele>
        <time>2022-06-11T13:10:00Z</time>
      </trkpt>
      <trkpt lat="46.56081" lon="5.56713">
        <ele>553</ele>
        <time>2022-06-11T13:10:03Z</time>
      </trkpt>
      <trkpt lat="46.56077" lon="5.5671">
        <ele>553.9</ele>
        <time>2022-06-11T13:10:06Z</time>
      </trkpt>
      <trkpt lat="46.56073" lon="5.56707">
        <ele>555.1</ele>
        <time>2022-06-11T13:10:10Z</time>
      </trkpt>
      <trkpt lat="46.56068" lon="5.56704">
        <ele>556.6</ele>
        <time>2022-06-11T13:10:16Z</time>
      </trkpt>
      <trkpt lat="46.56063" lon="5.56703">
        <ele>557</ele>
        <time>2022-06-11T13:10:24Z</time>
      </trkpt>
      <trkpt lat="46.56059" lon="5.567">
        <ele>556.8</ele>
        <time>2022-06-11T13:10:29Z</time>
      </trkpt>
      <trkpt lat="46.56054" lon="5.567">
        <ele>556.6</ele>
        <time>2022-06-11T13:10:34Z</time>
      </trkpt>
      <trkpt lat="46.56048" lon="5.56702">
        <ele>556</ele>
        <time>2022-06-11T13:10:38Z</time>
      </trkpt>
      <trkpt lat="46.56043" lon="5.56705">
        <ele>554.9</ele>
        <time>2022-06-11T13:10:43Z</time>
      </trkpt>
      <trkpt lat="46.56039" lon="5.56707">
        <ele>554.8</ele>
        <time>2022-06-11T13:10:48Z</time>
      </trkpt>
      <trkpt lat="46.56034" lon="5.56709">
        <ele>555.2</ele>
        <time>2022-06-11T13:10:52Z</time>
      </trkpt>
      <trkpt lat="46.56029" lon="5.56711">
        <ele>555.5</ele>
        <time>2022-06-11T13:10:56Z</time>
      </trkpt>
      <trkpt lat="46.56025" lon="5.5671">
        <ele>555.5</ele>
        <time>2022-06-11T13:10:59Z</time>
      </trkpt>
      <trkpt lat="46.56019" lon="5.5671">
        <ele>555.6</ele>
        <time>2022-06-11T13:11:03Z</time>
      </trkpt>
      <trkpt lat="46.56014" lon="5.56713">
        <ele>555.7</ele>
        <time>2022-06-11T13:11:08Z</time>
      </trkpt>
      <trkpt lat="46.56009" lon="5.56718">
        <ele>555.9</ele>
        <time>2022-06-11T13:11:12Z</time>
      </trkpt>
      <trkpt lat="46.56005" lon="5.56722">
        <ele>556</ele>
        <time>2022-06-11T13:11:15Z</time>
      </trkpt>
      <trkpt lat="46.56001" lon="5.56727">
        <ele>556.4</ele>
        <time>2022-06-11T13:11:18Z</time>
      </trkpt>
      <trkpt lat="46.55995" lon="5.56729">
        <ele>557.1</ele>
        <time>2022-06-11T13:11:21Z</time>
      </trkpt>
      <trkpt lat="46.5599" lon="5.56731">
        <ele>557.9</ele>
        <time>2022-06-11T13:11:24Z</time>
      </trkpt>
      <trkpt lat="46.55985" lon="5.56735">
        <ele>558.7</ele>
        <time>2022-06-11T13:11:28Z</time>
      </trkpt>
      <trkpt lat="46.55981" lon="5.56739">
        <ele>559.1</ele>
        <time>2022-06-11T13:11:33Z</time>
      </trkpt>
      <trkpt lat="46.55978" lon="5.56745">
        <ele>558.7</ele>
        <time>2022-06-11T13:11:38Z</time>
      </trkpt>
      <trkpt lat="46.55977" lon="5.56752">
        <ele>558.3</ele>
        <time>2022-06-11T13:11:43Z</time>
      </trkpt>
      <trkpt lat="46.55973" lon="5.56756">
        <ele>557.9</ele>
        <time>2022-06-11T13:11:49Z</time>
      </trkpt>
      <trkpt lat="46.55971" lon="5.56763">
        <ele>556.9</ele>
        <time>2022-06-11T13:11:57Z</time>
      </trkpt>
      <trkpt lat="46.55968" lon="5.56768">
        <ele>555.7</ele>
        <time>2022-06-11T13:12:02Z</time>
      </trkpt>
      <trkpt lat="46.55965" lon="5.56774">
        <ele>554.6</ele>
        <time>2022-06-11T13:12:07Z</time>
      </trkpt>
      <trkpt lat="46.55961" lon="5.56778">
        <ele>553.7</ele>
        <time>2022-06-11T13:12:13Z</time>
      </trkpt>
      <trkpt lat="46.55956" lon="5.56782">
        <ele>553.1</ele>
        <time>2022-06-11T13:12:18Z</time>
      </trkpt>
      <trkpt lat="46.55951" lon="5.56786">
        <ele>553.1</ele>
        <time>2022-06-11T13:12:23Z</time>
      </trkpt>
      <trkpt lat="46.55946" lon="5.56789">
        <ele>553.1</ele>
        <time>2022-06-11T13:12:27Z</time>
      </trkpt>
      <trkpt lat="46.55941" lon="5.56792">
        <ele>553.1</ele>
        <time>2022-06-11T13:12:31Z</time>
      </trkpt>
      <trkpt lat="46.55936" lon="5.56794">
        <ele>552.8</ele>
        <time>2022-06-11T13:12:34Z</time>
      </trkpt>
      <trkpt lat="46.55931" lon="5.56797">
        <ele>552.2</ele>
        <time>2022-06-11T13:12:39Z</time>
      </trkpt>
      <trkpt lat="46.55926" lon="5.56801">
        <ele>551.5</ele>
        <time>2022-06-11T13:12:44Z</time>
      </trkpt>
      <trkpt lat="46.55921" lon="5.56798">
        <ele>551.1</ele>
        <time>2022-06-11T13:12:51Z</time>
      </trkpt>
      <trkpt lat="46.55917" lon="5.56795">
        <ele>551</ele>
        <time>2022-06-11T13:12:54Z</time>
      </trkpt>
      <trkpt lat="46.55912" lon="5.56794">
        <ele>550.8</ele>
        <time>2022-06-11T13:12:58Z</time>
      </trkpt>
      <trkpt lat="46.55907" lon="5.56792">
        <ele>551.2</ele>
        <time>2022-06-11T13:13:03Z</time>
      </trkpt>
      <trkpt lat="46.55901" lon="5.56793">
        <ele>551.4</ele>
        <time>2022-06-11T13:13:08Z</time>
      </trkpt>
      <trkpt lat="46.55895" lon="5.56797">
        <ele>551.5</ele>
        <time>2022-06-11T13:13:11Z</time>
      </trkpt>
      <trkpt lat="46.5589" lon="5.568">
        <ele>551.7</ele>
        <time>2022-06-11T13:13:14Z</time>
      </trkpt>
      <trkpt lat="46.55886" lon="5.56805">
        <ele>552</ele>
        <time>2022-06-11T13:13:18Z</time>
      </trkpt>
      <trkpt lat="46.55882" lon="5.56809">
        <ele>552.7</ele>
        <time>2022-06-11T13:13:21Z</time>
      </trkpt>
      <trkpt lat="46.55877" lon="5.56812">
        <ele>553.8</ele>
        <time>2022-06-11T13:13:25Z</time>
      </trkpt>
      <trkpt lat="46.55872" lon="5.56813">
        <ele>555.1</ele>
        <time>2022-06-11T13:13:32Z</time>
      </trkpt>
      <trkpt lat="46.55868" lon="5.56814">
        <ele>555.1</ele>
        <time>2022-06-11T13:13:37Z</time>
      </trkpt>
      <trkpt lat="46.55863" lon="5.56816">
        <ele>554.9</ele>
        <time>2022-06-11T13:13:42Z</time>
      </trkpt>
      <trkpt lat="46.55857" lon="5.56818">
        <ele>554.5</ele>
        <time>2022-06-11T13:13:46Z</time>
      </trkpt>
      <trkpt lat="46.55851" lon="5.56821">
        <ele>554.5</ele>
        <time>2022-06-11T13:13:49Z</time>
      </trkpt>
      <trkpt lat="46.55847" lon="5.56822">
        <ele>554.6</ele>
        <time>2022-06-11T13:13:53Z</time>
      </trkpt>
      <trkpt lat="46.55842" lon="5.56823">
        <ele>554.9</ele>
        <time>2022-06-11T13:13:57Z</time>
      </trkpt>
      <trkpt lat="46.55838" lon="5.56826">
        <ele>555.6</ele>
        <time>2022-06-11T13:14:02Z</time>
      </trkpt>
      <trkpt lat="46.55835" lon="5.56832">
        <ele>556.2</ele>
        <time>2022-06-11T13:14:07Z</time>
      </trkpt>
      <trkpt lat="46.55831" lon="5.56839">
        <ele>556.6</ele>
        <time>2022-06-11T13:14:11Z</time>
      </trkpt>
      <trkpt lat="46.5583" lon="5.56847">
        <ele>557</ele>
        <time>2022-06-11T13:14:14Z</time>
      </trkpt>
      <trkpt lat="46.55827" lon="5.56853">
        <ele>557.4</ele>
        <time>2022-06-11T13:14:17Z</time>
      </trkpt>
      <trkpt lat="46.55824" lon="5.56858">
        <ele>557.8</ele>
        <time>2022-06-11T13:14:21Z</time>
      </trkpt>
      <trkpt lat="46.55821" lon="5.56863">
        <ele>557.9</ele>
        <time>2022-06-11T13:14:25Z</time>
      </trkpt>
      <trkpt lat="46.55818" lon="5.56869">
        <ele>558.4</ele>
        <time>2022-06-11T13:14:30Z</time>
      </trkpt>
      <trkpt lat="46.55813" lon="5.56872">
        <ele>559.2</ele>
        <time>2022-06-11T13:14:35Z</time>
      </trkpt>
      <trkpt lat="46.55808" lon="5.56876">
        <ele>559.7</ele>
        <time>2022-06-11T13:14:39Z</time>
      </trkpt>
      <trkpt lat="46.55803" lon="5.5688">
        <ele>560</ele>
        <time>2022-06-11T13:14:42Z</time>
      </trkpt>
      <trkpt lat="46.55799" lon="5.56884">
        <ele>560.3</ele>
        <time>2022-06-11T13:14:46Z</time>
      </trkpt>
      <trkpt lat="46.55794" lon="5.56886">
        <ele>560.4</ele>
        <time>2022-06-11T13:14:55Z</time>
      </trkpt>
      <trkpt lat="46.55798" lon="5.56881">
        <ele>552.5</ele>
        <time>2022-06-11T13:15:38Z</time>
      </trkpt>
      <trkpt lat="46.55794" lon="5.56886">
        <ele>553.8</ele>
        <time>2022-06-11T13:15:53Z</time>
      </trkpt>
      <trkpt lat="46.55789" lon="5.56887">
        <ele>554.6</ele>
        <time>2022-06-11T13:15:56Z</time>
      </trkpt>
      <trkpt lat="46.55784" lon="5.5689">
        <ele>555.6</ele>
        <time>2022-06-11T13:16:00Z</time>
      </trkpt>
      <trkpt lat="46.55778" lon="5.56893">
        <ele>555.9</ele>
        <time>2022-06-11T13:16:14Z</time>
      </trkpt>
      <trkpt lat="46.55773" lon="5.56899">
        <ele>554</ele>
        <time>2022-06-11T13:16:39Z</time>
      </trkpt>
      <trkpt lat="46.55768" lon="5.569">
        <ele>554.2</ele>
        <time>2022-06-11T13:16:45Z</time>
      </trkpt>
      <trkpt lat="46.55764" lon="5.56898">
        <ele>554.6</ele>
        <time>2022-06-11T13:16:51Z</time>
      </trkpt>
      <trkpt lat="46.55768" lon="5.56903">
        <ele>555.4</ele>
        <time>2022-06-11T13:16:58Z</time>
      </trkpt>
      <trkpt lat="46.55773" lon="5.56906">
        <ele>554.6</ele>
        <time>2022-06-11T13:17:11Z</time>
      </trkpt>
      <trkpt lat="46.55768" lon="5.56908">
        <ele>555.5</ele>
        <time>2022-06-11T13:17:47Z</time>
      </trkpt>
      <trkpt lat="46.55763" lon="5.56905">
        <ele>556.1</ele>
        <time>2022-06-11T13:17:52Z</time>
      </trkpt>
      <trkpt lat="46.55758" lon="5.56905">
        <ele>555.9</ele>
        <time>2022-06-11T13:17:56Z</time>
      </trkpt>
      <trkpt lat="46.55753" lon="5.56908">
        <ele>556</ele>
        <time>2022-06-11T13:18:07Z</time>
      </trkpt>
      <trkpt lat="46.55749" lon="5.56913">
        <ele>556.3</ele>
        <time>2022-06-11T13:18:14Z</time>
      </trkpt>
      <trkpt lat="46.55744" lon="5.56917">
        <ele>555.9</ele>
        <time>2022-06-11T13:18:19Z</time>
      </trkpt>
      <trkpt lat="46.5574" lon="5.56921">
        <ele>555.4</ele>
        <time>2022-06-11T13:18:25Z</time>
      </trkpt>
      <trkpt lat="46.55734" lon="5.56923">
        <ele>555.5</ele>
        <time>2022-06-11T13:18:31Z</time>
      </trkpt>
      <trkpt lat="46.55729" lon="5.56923">
        <ele>555.6</ele>
        <time>2022-06-11T13:18:34Z</time>
      </trkpt>
      <trkpt lat="46.55724" lon="5.56924">
        <ele>555.5</ele>
        <time>2022-06-11T13:18:37Z</time>
      </trkpt>
      <trkpt lat="46.5572" lon="5.56927">
        <ele>555.3</ele>
        <time>2022-06-11T13:18:41Z</time>
      </trkpt>
      <trkpt lat="46.55716" lon="5.56931">
        <ele>555.1</ele>
        <time>2022-06-11T13:18:44Z</time>
      </trkpt>
      <trkpt lat="46.55713" lon="5.56937">
        <ele>554.7</ele>
        <time>2022-06-11T13:18:48Z</time>
      </trkpt>
      <trkpt lat="46.55711" lon="5.56943">
        <ele>554.4</ele>
        <time>2022-06-11T13:18:51Z</time>
      </trkpt>
      <trkpt lat="46.55713" lon="5.5695">
        <ele>551.7</ele>
        <time>2022-06-11T13:18:57Z</time>
      </trkpt>
      <trkpt lat="46.55712" lon="5.56957">
        <ele>548.5</ele>
        <time>2022-06-11T13:19:03Z</time>
      </trkpt>
      <trkpt lat="46.55711" lon="5.56965">
        <ele>546.5</ele>
        <time>2022-06-11T13:19:07Z</time>
      </trkpt>
      <trkpt lat="46.55709" lon="5.56972">
        <ele>545</ele>
        <time>2022-06-11T13:19:11Z</time>
      </trkpt>
      <trkpt lat="46.55707" lon="5.56979">
        <ele>543.8</ele>
        <time>2022-06-11T13:19:17Z</time>
      </trkpt>
      <trkpt lat="46.55704" lon="5.56985">
        <ele>542.8</ele>
        <time>2022-06-11T13:19:21Z</time>
      </trkpt>
      <trkpt lat="46.55704" lon="5.56991">
        <ele>542.3</ele>
        <time>2022-06-11T13:19:24Z</time>
      </trkpt>
      <trkpt lat="46.55704" lon="5.56999">
        <ele>541.7</ele>
        <time>2022-06-11T13:19:28Z</time>
      </trkpt>
      <trkpt lat="46.55705" lon="5.57007">
        <ele>541.2</ele>
        <time>2022-06-11T13:19:32Z</time>
      </trkpt>
      <trkpt lat="46.55704" lon="5.57015">
        <ele>540.7</ele>
        <time>2022-06-11T13:19:37Z</time>
      </trkpt>
      <trkpt lat="46.55704" lon="5.57022">
        <ele>540.6</ele>
        <time>2022-06-11T13:19:41Z</time>
      </trkpt>
      <trkpt lat="46.55704" lon="5.5703">
        <ele>540.7</ele>
        <time>2022-06-11T13:19:45Z</time>
      </trkpt>
      <trkpt lat="46.55703" lon="5.57037">
        <ele>540.7</ele>
        <time>2022-06-11T13:19:50Z</time>
      </trkpt>
      <trkpt lat="46.55702" lon="5.57044">
        <ele>540.9</ele>
        <time>2022-06-11T13:19:54Z</time>
      </trkpt>
      <trkpt lat="46.557" lon="5.57052">
        <ele>540.9</ele>
        <time>2022-06-11T13:19:58Z</time>
      </trkpt>
      <trkpt lat="46.55697" lon="5.57058">
        <ele>540.9</ele>
        <time>2022-06-11T13:20:02Z</time>
      </trkpt>
      <trkpt lat="46.55696" lon="5.57066">
        <ele>541.3</ele>
        <time>2022-06-11T13:20:07Z</time>
      </trkpt>
      <trkpt lat="46.55692" lon="5.57069">
        <ele>541.2</ele>
        <time>2022-06-11T13:20:11Z</time>
      </trkpt>
      <trkpt lat="46.55686" lon="5.57073">
        <ele>540.9</ele>
        <time>2022-06-11T13:20:14Z</time>
      </trkpt>
      <trkpt lat="46.55681" lon="5.57077">
        <ele>540.6</ele>
        <time>2022-06-11T13:20:17Z</time>
      </trkpt>
      <trkpt lat="46.55678" lon="5.57083">
        <ele>540.5</ele>
        <time>2022-06-11T13:20:20Z</time>
      </trkpt>
      <trkpt lat="46.55676" lon="5.57089">
        <ele>540.5</ele>
        <time>2022-06-11T13:20:24Z</time>
      </trkpt>
      <trkpt lat="46.55672" lon="5.57096">
        <ele>541</ele>
        <time>2022-06-11T13:20:28Z</time>
      </trkpt>
      <trkpt lat="46.55669" lon="5.57102">
        <ele>541.2</ele>
        <time>2022-06-11T13:20:31Z</time>
      </trkpt>
      <trkpt lat="46.55665" lon="5.57108">
        <ele>541.2</ele>
        <time>2022-06-11T13:20:35Z</time>
      </trkpt>
      <trkpt lat="46.55659" lon="5.57109">
        <ele>541.1</ele>
        <time>2022-06-11T13:20:38Z</time>
      </trkpt>
      <trkpt lat="46.55658" lon="5.57116">
        <ele>541.9</ele>
        <time>2022-06-11T13:20:45Z</time>
      </trkpt>
      <trkpt lat="46.55655" lon="5.57122">
        <ele>543</ele>
        <time>2022-06-11T13:20:52Z</time>
      </trkpt>
      <trkpt lat="46.55651" lon="5.57125">
        <ele>543.8</ele>
        <time>2022-06-11T13:20:55Z</time>
      </trkpt>
      <trkpt lat="46.55646" lon="5.57127">
        <ele>544.5</ele>
        <time>2022-06-11T13:20:58Z</time>
      </trkpt>
      <trkpt lat="46.55641" lon="5.57129">
        <ele>545.3</ele>
        <time>2022-06-11T13:21:01Z</time>
      </trkpt>
      <trkpt lat="46.55635" lon="5.57132">
        <ele>545.7</ele>
        <time>2022-06-11T13:21:04Z</time>
      </trkpt>
      <trkpt lat="46.5563" lon="5.57134">
        <ele>546.2</ele>
        <time>2022-06-11T13:21:07Z</time>
      </trkpt>
      <trkpt lat="46.55626" lon="5.57136">
        <ele>547.2</ele>
        <time>2022-06-11T13:21:11Z</time>
      </trkpt>
      <trkpt lat="46.55621" lon="5.57139">
        <ele>548.6</ele>
        <time>2022-06-11T13:21:15Z</time>
      </trkpt>
      <trkpt lat="46.55616" lon="5.57141">
        <ele>550.3</ele>
        <time>2022-06-11T13:21:20Z</time>
      </trkpt>
      <trkpt lat="46.55611" lon="5.57144">
        <ele>551.4</ele>
        <time>2022-06-11T13:21:23Z</time>
      </trkpt>
      <trkpt lat="46.55607" lon="5.57147">
        <ele>552.2</ele>
        <time>2022-06-11T13:21:27Z</time>
      </trkpt>
      <trkpt lat="46.55602" lon="5.57147">
        <ele>552.7</ele>
        <time>2022-06-11T13:21:32Z</time>
      </trkpt>
      <trkpt lat="46.55598" lon="5.57152">
        <ele>552.8</ele>
        <time>2022-06-11T13:21:40Z</time>
      </trkpt>
      <trkpt lat="46.55596" lon="5.57158">
        <ele>552.1</ele>
        <time>2022-06-11T13:21:47Z</time>
      </trkpt>
      <trkpt lat="46.55593" lon="5.57163">
        <ele>551.6</ele>
        <time>2022-06-11T13:21:51Z</time>
      </trkpt>
      <trkpt lat="46.55588" lon="5.57165">
        <ele>550.9</ele>
        <time>2022-06-11T13:21:55Z</time>
      </trkpt>
      <trkpt lat="46.55582" lon="5.5716">
        <ele>550.4</ele>
        <time>2022-06-11T13:21:59Z</time>
      </trkpt>
      <trkpt lat="46.55575" lon="5.57158">
        <ele>550.1</ele>
        <time>2022-06-11T13:22:02Z</time>
      </trkpt>
      <trkpt lat="46.55569" lon="5.57156">
        <ele>549.4</ele>
        <time>2022-06-11T13:22:05Z</time>
      </trkpt>
      <trkpt lat="46.55565" lon="5.57153">
        <ele>548.6</ele>
        <time>2022-06-11T13:22:08Z</time>
      </trkpt>
      <trkpt lat="46.55558" lon="5.57149">
        <ele>546</ele>
        <time>2022-06-11T13:22:12Z</time>
      </trkpt>
      <trkpt lat="46.55552" lon="5.57144">
        <ele>544.1</ele>
        <time>2022-06-11T13:22:15Z</time>
      </trkpt>
      <trkpt lat="46.55548" lon="5.57148">
        <ele>539.9</ele>
        <time>2022-06-11T13:22:23Z</time>
      </trkpt>
      <trkpt lat="46.55544" lon="5.57153">
        <ele>538.8</ele>
        <time>2022-06-11T13:22:26Z</time>
      </trkpt>
      <trkpt lat="46.5554" lon="5.57156">
        <ele>537.9</ele>
        <time>2022-06-11T13:22:31Z</time>
      </trkpt>
      <trkpt lat="46.55535" lon="5.57156">
        <ele>537.7</ele>
        <time>2022-06-11T13:22:34Z</time>
      </trkpt>
      <trkpt lat="46.5553" lon="5.57156">
        <ele>538</ele>
        <time>2022-06-11T13:22:39Z</time>
      </trkpt>
      <trkpt lat="46.55523" lon="5.57158">
        <ele>538.5</ele>
        <time>2022-06-11T13:22:43Z</time>
      </trkpt>
      <trkpt lat="46.55512" lon="5.57159">
        <ele>540.5</ele>
        <time>2022-06-11T13:22:46Z</time>
      </trkpt>
      <trkpt lat="46.55507" lon="5.5716">
        <ele>541.4</ele>
        <time>2022-06-11T13:22:49Z</time>
      </trkpt>
      <trkpt lat="46.55502" lon="5.57163">
        <ele>544.7</ele>
        <time>2022-06-11T13:22:53Z</time>
      </trkpt>
      <trkpt lat="46.55497" lon="5.57165">
        <ele>549.3</ele>
        <time>2022-06-11T13:22:58Z</time>
      </trkpt>
      <trkpt lat="46.55493" lon="5.5717">
        <ele>553</ele>
        <time>2022-06-11T13:23:04Z</time>
      </trkpt>
      <trkpt lat="46.5549" lon="5.57175">
        <ele>554.5</ele>
        <time>2022-06-11T13:23:08Z</time>
      </trkpt>
      <trkpt lat="46.55485" lon="5.57175">
        <ele>555.1</ele>
        <time>2022-06-11T13:23:12Z</time>
      </trkpt>
      <trkpt lat="46.5548" lon="5.57173">
        <ele>554.2</ele>
        <time>2022-06-11T13:23:15Z</time>
      </trkpt>
      <trkpt lat="46.55476" lon="5.57171">
        <ele>552.5</ele>
        <time>2022-06-11T13:23:18Z</time>
      </trkpt>
      <trkpt lat="46.55472" lon="5.57168">
        <ele>548.4</ele>
        <time>2022-06-11T13:23:25Z</time>
      </trkpt>
      <trkpt lat="46.55467" lon="5.57168">
        <ele>545.6</ele>
        <time>2022-06-11T13:23:32Z</time>
      </trkpt>
      <trkpt lat="46.55463" lon="5.57171">
        <ele>544.4</ele>
        <time>2022-06-11T13:23:36Z</time>
      </trkpt>
      <trkpt lat="46.55458" lon="5.57171">
        <ele>543.5</ele>
        <time>2022-06-11T13:23:40Z</time>
      </trkpt>
      <trkpt lat="46.55453" lon="5.57173">
        <ele>542.9</ele>
        <time>2022-06-11T13:23:43Z</time>
      </trkpt>
      <trkpt lat="46.55448" lon="5.57174">
        <ele>542.3</ele>
        <time>2022-06-11T13:23:46Z</time>
      </trkpt>
      <trkpt lat="46.55442" lon="5.57174">
        <ele>541.7</ele>
        <time>2022-06-11T13:23:50Z</time>
      </trkpt>
      <trkpt lat="46.55437" lon="5.57176">
        <ele>540.6</ele>
        <time>2022-06-11T13:23:54Z</time>
      </trkpt>
      <trkpt lat="46.55433" lon="5.5718">
        <ele>539.2</ele>
        <time>2022-06-11T13:24:00Z</time>
      </trkpt>
      <trkpt lat="46.55427" lon="5.5718">
        <ele>537.4</ele>
        <time>2022-06-11T13:24:06Z</time>
      </trkpt>
      <trkpt lat="46.55421" lon="5.57177">
        <ele>536.4</ele>
        <time>2022-06-11T13:24:11Z</time>
      </trkpt>
      <trkpt lat="46.55415" lon="5.57178">
        <ele>536.3</ele>
        <time>2022-06-11T13:24:14Z</time>
      </trkpt>
      <trkpt lat="46.55411" lon="5.57183">
        <ele>536.3</ele>
        <time>2022-06-11T13:24:18Z</time>
      </trkpt>
      <trkpt lat="46.55406" lon="5.57185">
        <ele>535.9</ele>
        <time>2022-06-11T13:24:22Z</time>
      </trkpt>
      <trkpt lat="46.554" lon="5.57186">
        <ele>535</ele>
        <time>2022-06-11T13:24:25Z</time>
      </trkpt>
      <trkpt lat="46.55395" lon="5.57187">
        <ele>533.2</ele>
        <time>2022-06-11T13:24:30Z</time>
      </trkpt>
      <trkpt lat="46.5539" lon="5.57185">
        <ele>531</ele>
        <time>2022-06-11T13:24:34Z</time>
      </trkpt>
      <trkpt lat="46.55386" lon="5.57185">
        <ele>527.8</ele>
        <time>2022-06-11T13:24:41Z</time>
      </trkpt>
      <trkpt lat="46.55382" lon="5.57189">
        <ele>524.7</ele>
        <time>2022-06-11T13:24:49Z</time>
      </trkpt>
      <trkpt lat="46.55375" lon="5.57191">
        <ele>523.6</ele>
        <time>2022-06-11T13:24:52Z</time>
      </trkpt>
      <trkpt lat="46.55371" lon="5.57196">
        <ele>522.7</ele>
        <time>2022-06-11T13:24:55Z</time>
      </trkpt>
      <trkpt lat="46.55368" lon="5.57201">
        <ele>521.8</ele>
        <time>2022-06-11T13:24:58Z</time>
      </trkpt>
      <trkpt lat="46.5537" lon="5.57206">
        <ele>520.4</ele>
        <time>2022-06-11T13:25:04Z</time>
      </trkpt>
      <trkpt lat="46.55375" lon="5.57211">
        <ele>519.3</ele>
        <time>2022-06-11T13:25:08Z</time>
      </trkpt>
      <trkpt lat="46.55379" lon="5.57217">
        <ele>517.7</ele>
        <time>2022-06-11T13:25:14Z</time>
      </trkpt>
      <trkpt lat="46.55383" lon="5.57219">
        <ele>517.3</ele>
        <time>2022-06-11T13:25:17Z</time>
      </trkpt>
      <trkpt lat="46.55388" lon="5.57222">
        <ele>516.7</ele>
        <time>2022-06-11T13:25:21Z</time>
      </trkpt>
      <trkpt lat="46.55392" lon="5.57226">
        <ele>516.2</ele>
        <time>2022-06-11T13:25:24Z</time>
      </trkpt>
      <trkpt lat="46.55396" lon="5.57231">
        <ele>515.9</ele>
        <time>2022-06-11T13:25:27Z</time>
      </trkpt>
      <trkpt lat="46.55395" lon="5.57238">
        <ele>516</ele>
        <time>2022-06-11T13:25:32Z</time>
      </trkpt>
      <trkpt lat="46.55394" lon="5.57245">
        <ele>516.3</ele>
        <time>2022-06-11T13:25:37Z</time>
      </trkpt>
      <trkpt lat="46.55393" lon="5.57252">
        <ele>516.7</ele>
        <time>2022-06-11T13:25:40Z</time>
      </trkpt>
      <trkpt lat="46.55392" lon="5.57259">
        <ele>517.8</ele>
        <time>2022-06-11T13:25:43Z</time>
      </trkpt>
      <trkpt lat="46.55393" lon="5.57266">
        <ele>518.9</ele>
        <time>2022-06-11T13:25:46Z</time>
      </trkpt>
      <trkpt lat="46.55394" lon="5.57273">
        <ele>519.9</ele>
        <time>2022-06-11T13:25:50Z</time>
      </trkpt>
      <trkpt lat="46.55398" lon="5.57279">
        <ele>520.9</ele>
        <time>2022-06-11T13:25:54Z</time>
      </trkpt>
      <trkpt lat="46.55403" lon="5.57283">
        <ele>520.9</ele>
        <time>2022-06-11T13:25:57Z</time>
      </trkpt>
      <trkpt lat="46.55407" lon="5.57286">
        <ele>520.6</ele>
        <time>2022-06-11T13:26:00Z</time>
      </trkpt>
      <trkpt lat="46.55408" lon="5.57293">
        <ele>520.4</ele>
        <time>2022-06-11T13:26:05Z</time>
      </trkpt>
      <trkpt lat="46.55408" lon="5.57301">
        <ele>521</ele>
        <time>2022-06-11T13:26:11Z</time>
      </trkpt>
      <trkpt lat="46.55407" lon="5.57308">
        <ele>521.8</ele>
        <time>2022-06-11T13:26:14Z</time>
      </trkpt>
      <trkpt lat="46.55407" lon="5.57314">
        <ele>522.4</ele>
        <time>2022-06-11T13:26:19Z</time>
      </trkpt>
      <trkpt lat="46.55408" lon="5.57322">
        <ele>522.9</ele>
        <time>2022-06-11T13:26:26Z</time>
      </trkpt>
      <trkpt lat="46.55407" lon="5.57329">
        <ele>523.4</ele>
        <time>2022-06-11T13:26:30Z</time>
      </trkpt>
      <trkpt lat="46.55405" lon="5.57336">
        <ele>523.7</ele>
        <time>2022-06-11T13:26:34Z</time>
      </trkpt>
      <trkpt lat="46.55404" lon="5.57343">
        <ele>523.2</ele>
        <time>2022-06-11T13:26:39Z</time>
      </trkpt>
      <trkpt lat="46.5541" lon="5.57359">
        <ele>522.6</ele>
        <time>2022-06-11T13:26:52Z</time>
      </trkpt>
      <trkpt lat="46.55414" lon="5.57365">
        <ele>522.5</ele>
        <time>2022-06-11T13:26:56Z</time>
      </trkpt>
      <trkpt lat="46.55417" lon="5.57372">
        <ele>522.3</ele>
        <time>2022-06-11T13:27:00Z</time>
      </trkpt>
      <trkpt lat="46.5542" lon="5.57377">
        <ele>522.3</ele>
        <time>2022-06-11T13:27:03Z</time>
      </trkpt>
      <trkpt lat="46.55425" lon="5.57381">
        <ele>522.8</ele>
        <time>2022-06-11T13:27:07Z</time>
      </trkpt>
      <trkpt lat="46.55429" lon="5.57387">
        <ele>523.8</ele>
        <time>2022-06-11T13:27:11Z</time>
      </trkpt>
      <trkpt lat="46.55421" lon="5.57392">
        <ele>524.5</ele>
        <time>2022-06-11T13:27:14Z</time>
      </trkpt>
      <trkpt lat="46.55413" lon="5.57397">
        <ele>524.9</ele>
        <time>2022-06-11T13:27:17Z</time>
      </trkpt>
      <trkpt lat="46.55405" lon="5.57397">
        <ele>520.9</ele>
        <time>2022-06-11T13:27:20Z</time>
      </trkpt>
      <trkpt lat="46.55406" lon="5.57404">
        <ele>518.3</ele>
        <time>2022-06-11T13:27:24Z</time>
      </trkpt>
      <trkpt lat="46.55407" lon="5.57411">
        <ele>517.2</ele>
        <time>2022-06-11T13:27:27Z</time>
      </trkpt>
      <trkpt lat="46.55411" lon="5.57418">
        <ele>516.9</ele>
        <time>2022-06-11T13:27:31Z</time>
      </trkpt>
      <trkpt lat="46.55413" lon="5.57424">
        <ele>516.9</ele>
        <time>2022-06-11T13:27:34Z</time>
      </trkpt>
      <trkpt lat="46.55416" lon="5.57431">
        <ele>517.1</ele>
        <time>2022-06-11T13:27:37Z</time>
      </trkpt>
      <trkpt lat="46.55422" lon="5.57437">
        <ele>517.7</ele>
        <time>2022-06-11T13:27:40Z</time>
      </trkpt>
      <trkpt lat="46.55428" lon="5.5744">
        <ele>518.4</ele>
        <time>2022-06-11T13:27:43Z</time>
      </trkpt>
      <trkpt lat="46.55433" lon="5.57444">
        <ele>519.2</ele>
        <time>2022-06-11T13:27:46Z</time>
      </trkpt>
      <trkpt lat="46.55437" lon="5.57448">
        <ele>520</ele>
        <time>2022-06-11T13:27:49Z</time>
      </trkpt>
      <trkpt lat="46.55441" lon="5.57452">
        <ele>520.7</ele>
        <time>2022-06-11T13:27:52Z</time>
      </trkpt>
      <trkpt lat="46.55442" lon="5.57459">
        <ele>521.7</ele>
        <time>2022-06-11T13:27:57Z</time>
      </trkpt>
      <trkpt lat="46.55442" lon="5.57466">
        <ele>522.2</ele>
        <time>2022-06-11T13:28:01Z</time>
      </trkpt>
      <trkpt lat="46.55443" lon="5.57474">
        <ele>522.7</ele>
        <time>2022-06-11T13:28:05Z</time>
      </trkpt>
      <trkpt lat="46.55447" lon="5.57479">
        <ele>523.3</ele>
        <time>2022-06-11T13:28:09Z</time>
      </trkpt>
      <trkpt lat="46.55446" lon="5.57485">
        <ele>523.5</ele>
        <time>2022-06-11T13:28:13Z</time>
      </trkpt>
      <trkpt lat="46.55449" lon="5.5749">
        <ele>523.6</ele>
        <time>2022-06-11T13:28:17Z</time>
      </trkpt>
      <trkpt lat="46.55453" lon="5.57497">
        <ele>523.7</ele>
        <time>2022-06-11T13:28:21Z</time>
      </trkpt>
      <trkpt lat="46.55456" lon="5.57503">
        <ele>523.5</ele>
        <time>2022-06-11T13:28:25Z</time>
      </trkpt>
      <trkpt lat="46.5546" lon="5.57509">
        <ele>523.5</ele>
        <time>2022-06-11T13:28:29Z</time>
      </trkpt>
      <trkpt lat="46.5546" lon="5.57515">
        <ele>524.9</ele>
        <time>2022-06-11T13:28:35Z</time>
      </trkpt>
      <trkpt lat="46.55461" lon="5.57522">
        <ele>527.9</ele>
        <time>2022-06-11T13:28:42Z</time>
      </trkpt>
      <trkpt lat="46.55462" lon="5.57529">
        <ele>530.4</ele>
        <time>2022-06-11T13:28:49Z</time>
      </trkpt>
      <trkpt lat="46.55466" lon="5.57534">
        <ele>531.8</ele>
        <time>2022-06-11T13:28:53Z</time>
      </trkpt>
      <trkpt lat="46.5547" lon="5.57539">
        <ele>532.4</ele>
        <time>2022-06-11T13:28:56Z</time>
      </trkpt>
      <trkpt lat="46.55473" lon="5.57546">
        <ele>532.7</ele>
        <time>2022-06-11T13:28:59Z</time>
      </trkpt>
      <trkpt lat="46.55475" lon="5.57551">
        <ele>532.7</ele>
        <time>2022-06-11T13:29:02Z</time>
      </trkpt>
      <trkpt lat="46.55479" lon="5.57556">
        <ele>533.1</ele>
        <time>2022-06-11T13:29:06Z</time>
      </trkpt>
      <trkpt lat="46.55485" lon="5.5756">
        <ele>533.7</ele>
        <time>2022-06-11T13:29:09Z</time>
      </trkpt>
      <trkpt lat="46.55488" lon="5.57565">
        <ele>534.8</ele>
        <time>2022-06-11T13:29:13Z</time>
      </trkpt>
      <trkpt lat="46.55492" lon="5.5757">
        <ele>536.7</ele>
        <time>2022-06-11T13:29:19Z</time>
      </trkpt>
      <trkpt lat="46.55497" lon="5.57574">
        <ele>538.1</ele>
        <time>2022-06-11T13:29:23Z</time>
      </trkpt>
      <trkpt lat="46.55502" lon="5.57577">
        <ele>540</ele>
        <time>2022-06-11T13:29:27Z</time>
      </trkpt>
      <trkpt lat="46.55506" lon="5.5758">
        <ele>541.6</ele>
        <time>2022-06-11T13:29:31Z</time>
      </trkpt>
      <trkpt lat="46.55511" lon="5.57581">
        <ele>545</ele>
        <time>2022-06-11T13:29:39Z</time>
      </trkpt>
      <trkpt lat="46.55507" lon="5.57587">
        <ele>549</ele>
        <time>2022-06-11T13:29:54Z</time>
      </trkpt>
      <trkpt lat="46.55507" lon="5.57593">
        <ele>549.6</ele>
        <time>2022-06-11T13:30:02Z</time>
      </trkpt>
      <trkpt lat="46.55503" lon="5.57597">
        <ele>546.7</ele>
        <time>2022-06-11T13:30:12Z</time>
      </trkpt>
      <trkpt lat="46.55507" lon="5.57603">
        <ele>545.6</ele>
        <time>2022-06-11T13:30:25Z</time>
      </trkpt>
      <trkpt lat="46.55511" lon="5.57606">
        <ele>545.3</ele>
        <time>2022-06-11T13:30:28Z</time>
      </trkpt>
      <trkpt lat="46.55513" lon="5.57611">
        <ele>544</ele>
        <time>2022-06-11T13:30:35Z</time>
      </trkpt>
      <trkpt lat="46.55519" lon="5.57614">
        <ele>543.3</ele>
        <time>2022-06-11T13:30:41Z</time>
      </trkpt>
      <trkpt lat="46.55524" lon="5.57618">
        <ele>543.3</ele>
        <time>2022-06-11T13:30:45Z</time>
      </trkpt>
      <trkpt lat="46.55528" lon="5.5762">
        <ele>543.3</ele>
        <time>2022-06-11T13:30:48Z</time>
      </trkpt>
      <trkpt lat="46.55532" lon="5.57624">
        <ele>543.6</ele>
        <time>2022-06-11T13:30:51Z</time>
      </trkpt>
      <trkpt lat="46.55536" lon="5.57628">
        <ele>543.9</ele>
        <time>2022-06-11T13:30:54Z</time>
      </trkpt>
      <trkpt lat="46.5554" lon="5.57633">
        <ele>545</ele>
        <time>2022-06-11T13:30:59Z</time>
      </trkpt>
      <trkpt lat="46.55545" lon="5.57633">
        <ele>546</ele>
        <time>2022-06-11T13:31:04Z</time>
      </trkpt>
      <trkpt lat="46.55552" lon="5.57634">
        <ele>546.2</ele>
        <time>2022-06-11T13:31:07Z</time>
      </trkpt>
      <trkpt lat="46.55557" lon="5.57634">
        <ele>547.5</ele>
        <time>2022-06-11T13:31:11Z</time>
      </trkpt>
      <trkpt lat="46.55562" lon="5.57631">
        <ele>549</ele>
        <time>2022-06-11T13:31:26Z</time>
      </trkpt>
      <trkpt lat="46.55567" lon="5.57629">
        <ele>548.4</ele>
        <time>2022-06-11T13:31:30Z</time>
      </trkpt>
      <trkpt lat="46.55572" lon="5.57631">
        <ele>548.1</ele>
        <time>2022-06-11T13:31:36Z</time>
      </trkpt>
      <trkpt lat="46.55577" lon="5.57632">
        <ele>548.9</ele>
        <time>2022-06-11T13:31:41Z</time>
      </trkpt>
      <trkpt lat="46.55581" lon="5.57629">
        <ele>549.6</ele>
        <time>2022-06-11T13:31:46Z</time>
      </trkpt>
      <trkpt lat="46.55586" lon="5.57626">
        <ele>550.2</ele>
        <time>2022-06-11T13:31:50Z</time>
      </trkpt>
      <trkpt lat="46.55591" lon="5.57626">
        <ele>550.7</ele>
        <time>2022-06-11T13:31:56Z</time>
      </trkpt>
      <trkpt lat="46.55597" lon="5.57625">
        <ele>551.6</ele>
        <time>2022-06-11T13:32:08Z</time>
      </trkpt>
      <trkpt lat="46.55603" lon="5.57627">
        <ele>551</ele>
        <time>2022-06-11T13:32:12Z</time>
      </trkpt>
      <trkpt lat="46.55608" lon="5.57629">
        <ele>550</ele>
        <time>2022-06-11T13:32:17Z</time>
      </trkpt>
      <trkpt lat="46.55614" lon="5.57629">
        <ele>549.6</ele>
        <time>2022-06-11T13:32:20Z</time>
      </trkpt>
      <trkpt lat="46.55618" lon="5.57631">
        <ele>549.3</ele>
        <time>2022-06-11T13:32:24Z</time>
      </trkpt>
      <trkpt lat="46.55623" lon="5.57635">
        <ele>549.2</ele>
        <time>2022-06-11T13:32:29Z</time>
      </trkpt>
      <trkpt lat="46.55626" lon="5.5764">
        <ele>549</ele>
        <time>2022-06-11T13:32:37Z</time>
      </trkpt>
      <trkpt lat="46.5563" lon="5.57644">
        <ele>548.9</ele>
        <time>2022-06-11T13:32:42Z</time>
      </trkpt>
      <trkpt lat="46.55635" lon="5.57645">
        <ele>548.9</ele>
        <time>2022-06-11T13:32:46Z</time>
      </trkpt>
      <trkpt lat="46.55638" lon="5.5765">
        <ele>548.2</ele>
        <time>2022-06-11T13:32:52Z</time>
      </trkpt>
      <trkpt lat="46.55642" lon="5.57655">
        <ele>547.7</ele>
        <time>2022-06-11T13:32:56Z</time>
      </trkpt>
      <trkpt lat="46.55648" lon="5.57655">
        <ele>547.8</ele>
        <time>2022-06-11T13:32:59Z</time>
      </trkpt>
      <trkpt lat="46.55655" lon="5.57649">
        <ele>546.4</ele>
        <time>2022-06-11T13:33:02Z</time>
      </trkpt>
      <trkpt lat="46.55661" lon="5.57647">
        <ele>546.3</ele>
        <time>2022-06-11T13:33:05Z</time>
      </trkpt>
      <trkpt lat="46.55668" lon="5.57641">
        <ele>546.4</ele>
        <time>2022-06-11T13:33:08Z</time>
      </trkpt>
      <trkpt lat="46.55673" lon="5.5764">
        <ele>547</ele>
        <time>2022-06-11T13:33:11Z</time>
      </trkpt>
      <trkpt lat="46.55678" lon="5.5764">
        <ele>547.7</ele>
        <time>2022-06-11T13:33:14Z</time>
      </trkpt>
      <trkpt lat="46.55682" lon="5.57645">
        <ele>549.3</ele>
        <time>2022-06-11T13:33:17Z</time>
      </trkpt>
      <trkpt lat="46.55685" lon="5.57651">
        <ele>553.6</ele>
        <time>2022-06-11T13:33:24Z</time>
      </trkpt>
      <trkpt lat="46.5569" lon="5.57651">
        <ele>556</ele>
        <time>2022-06-11T13:33:30Z</time>
      </trkpt>
      <trkpt lat="46.55695" lon="5.57653">
        <ele>557.1</ele>
        <time>2022-06-11T13:33:34Z</time>
      </trkpt>
      <trkpt lat="46.557" lon="5.57655">
        <ele>558.5</ele>
        <time>2022-06-11T13:33:38Z</time>
      </trkpt>
      <trkpt lat="46.557" lon="5.57662">
        <ele>560.3</ele>
        <time>2022-06-11T13:33:47Z</time>
      </trkpt>
      <trkpt lat="46.557" lon="5.57669">
        <ele>561.9</ele>
        <time>2022-06-11T13:33:53Z</time>
      </trkpt>
      <trkpt lat="46.55702" lon="5.57675">
        <ele>563.4</ele>
        <time>2022-06-11T13:33:58Z</time>
      </trkpt>
      <trkpt lat="46.55705" lon="5.57682">
        <ele>564.1</ele>
        <time>2022-06-11T13:34:03Z</time>
      </trkpt>
      <trkpt lat="46.55703" lon="5.5769">
        <ele>564.8</ele>
        <time>2022-06-11T13:34:07Z</time>
      </trkpt>
      <trkpt lat="46.55701" lon="5.57697">
        <ele>565.7</ele>
        <time>2022-06-11T13:34:11Z</time>
      </trkpt>
      <trkpt lat="46.55706" lon="5.57699">
        <ele>566.6</ele>
        <time>2022-06-11T13:34:16Z</time>
      </trkpt>
      <trkpt lat="46.55737" lon="5.57691">
        <ele>568.9</ele>
        <time>2022-06-11T13:35:30Z</time>
      </trkpt>
      <trkpt lat="46.55734" lon="5.57696">
        <ele>569.2</ele>
        <time>2022-06-11T13:35:35Z</time>
      </trkpt>
      <trkpt lat="46.55727" lon="5.577">
        <ele>573.9</ele>
        <time>2022-06-11T13:36:24Z</time>
      </trkpt>
      <trkpt lat="46.55716" lon="5.57706">
        <ele>574</ele>
        <time>2022-06-11T13:36:27Z</time>
      </trkpt>
      <trkpt lat="46.55704" lon="5.57702">
        <ele>573.1</ele>
        <time>2022-06-11T13:36:47Z</time>
      </trkpt>
      <trkpt lat="46.55697" lon="5.57701">
        <ele>574.4</ele>
        <time>2022-06-11T13:37:00Z</time>
      </trkpt>
      <trkpt lat="46.55692" lon="5.57704">
        <ele>574.4</ele>
        <time>2022-06-11T13:37:04Z</time>
      </trkpt>
      <trkpt lat="46.55696" lon="5.577">
        <ele>573.2</ele>
        <time>2022-06-11T13:37:21Z</time>
      </trkpt>
      <trkpt lat="46.55698" lon="5.57706">
        <ele>572.3</ele>
        <time>2022-06-11T13:37:35Z</time>
      </trkpt>
      <trkpt lat="46.55698" lon="5.57714">
        <ele>572.3</ele>
        <time>2022-06-11T13:37:39Z</time>
      </trkpt>
      <trkpt lat="46.55696" lon="5.57719">
        <ele>572.3</ele>
        <time>2022-06-11T13:37:43Z</time>
      </trkpt>
      <trkpt lat="46.557" lon="5.57715">
        <ele>575.3</ele>
        <time>2022-06-11T13:38:13Z</time>
      </trkpt>
      <trkpt lat="46.55696" lon="5.57711">
        <ele>575.6</ele>
        <time>2022-06-11T13:38:27Z</time>
      </trkpt>
      <trkpt lat="46.55701" lon="5.57713">
        <ele>574.7</ele>
        <time>2022-06-11T13:38:37Z</time>
      </trkpt>
      <trkpt lat="46.55708" lon="5.57713">
        <ele>574.2</ele>
        <time>2022-06-11T13:38:40Z</time>
      </trkpt>
      <trkpt lat="46.55717" lon="5.57699">
        <ele>568.7</ele>
        <time>2022-06-11T13:38:55Z</time>
      </trkpt>
      <trkpt lat="46.55724" lon="5.57698">
        <ele>572.5</ele>
        <time>2022-06-11T13:39:30Z</time>
      </trkpt>
      <trkpt lat="46.55717" lon="5.57699">
        <ele>572.5</ele>
        <time>2022-06-11T13:39:36Z</time>
      </trkpt>
      <trkpt lat="46.55711" lon="5.57701">
        <ele>572.8</ele>
        <time>2022-06-11T13:39:39Z</time>
      </trkpt>
      <trkpt lat="46.55706" lon="5.57703">
        <ele>573.1</ele>
        <time>2022-06-11T13:39:43Z</time>
      </trkpt>
      <trkpt lat="46.55711" lon="5.577">
        <ele>571.2</ele>
        <time>2022-06-11T13:40:12Z</time>
      </trkpt>
      <trkpt lat="46.55715" lon="5.57697">
        <ele>570.5</ele>
        <time>2022-06-11T13:40:18Z</time>
      </trkpt>
      <trkpt lat="46.55719" lon="5.57692">
        <ele>569.8</ele>
        <time>2022-06-11T13:40:27Z</time>
      </trkpt>
      <trkpt lat="46.55725" lon="5.57692">
        <ele>569.7</ele>
        <time>2022-06-11T13:40:31Z</time>
      </trkpt>
      <trkpt lat="46.5573" lon="5.57692">
        <ele>569.8</ele>
        <time>2022-06-11T13:40:36Z</time>
      </trkpt>
      <trkpt lat="46.55725" lon="5.57695">
        <ele>568.3</ele>
        <time>2022-06-11T13:40:50Z</time>
      </trkpt>
      <trkpt lat="46.55722" lon="5.5769">
        <ele>568.1</ele>
        <time>2022-06-11T13:41:10Z</time>
      </trkpt>
      <trkpt lat="46.55717" lon="5.5769">
        <ele>568.6</ele>
        <time>2022-06-11T13:41:13Z</time>
      </trkpt>
      <trkpt lat="46.55716" lon="5.57697">
        <ele>569.3</ele>
        <time>2022-06-11T13:41:32Z</time>
      </trkpt>
      <trkpt lat="46.55716" lon="5.57704">
        <ele>568.7</ele>
        <time>2022-06-11T13:41:37Z</time>
      </trkpt>
      <trkpt lat="46.55715" lon="5.57711">
        <ele>568.3</ele>
        <time>2022-06-11T13:41:44Z</time>
      </trkpt>
      <trkpt lat="46.55714" lon="5.57718">
        <ele>568</ele>
        <time>2022-06-11T13:41:48Z</time>
      </trkpt>
      <trkpt lat="46.55715" lon="5.57726">
        <ele>564.9</ele>
        <time>2022-06-11T13:42:04Z</time>
      </trkpt>
      <trkpt lat="46.55714" lon="5.57733">
        <ele>564.5</ele>
        <time>2022-06-11T13:42:07Z</time>
      </trkpt>
      <trkpt lat="46.55714" lon="5.5774">
        <ele>564.8</ele>
        <time>2022-06-11T13:42:13Z</time>
      </trkpt>
      <trkpt lat="46.5571" lon="5.57736">
        <ele>563.8</ele>
        <time>2022-06-11T13:42:20Z</time>
      </trkpt>
      <trkpt lat="46.55713" lon="5.5773">
        <ele>563.2</ele>
        <time>2022-06-11T13:42:27Z</time>
      </trkpt>
      <trkpt lat="46.5572" lon="5.5773">
        <ele>563.7</ele>
        <time>2022-06-11T13:42:31Z</time>
      </trkpt>
      <trkpt lat="46.55727" lon="5.57727">
        <ele>564.5</ele>
        <time>2022-06-11T13:42:34Z</time>
      </trkpt>
      <trkpt lat="46.55733" lon="5.57726">
        <ele>565.2</ele>
        <time>2022-06-11T13:42:37Z</time>
      </trkpt>
      <trkpt lat="46.55733" lon="5.57732">
        <ele>564.9</ele>
        <time>2022-06-11T13:42:44Z</time>
      </trkpt>
      <trkpt lat="46.55728" lon="5.57736">
        <ele>564.4</ele>
        <time>2022-06-11T13:42:47Z</time>
      </trkpt>
      <trkpt lat="46.55725" lon="5.57742">
        <ele>563</ele>
        <time>2022-06-11T13:42:52Z</time>
      </trkpt>
      <trkpt lat="46.55724" lon="5.5775">
        <ele>561.2</ele>
        <time>2022-06-11T13:42:59Z</time>
      </trkpt>
      <trkpt lat="46.55727" lon="5.57756">
        <ele>559.8</ele>
        <time>2022-06-11T13:43:03Z</time>
      </trkpt>
      <trkpt lat="46.55731" lon="5.5776">
        <ele>557.9</ele>
        <time>2022-06-11T13:43:09Z</time>
      </trkpt>
      <trkpt lat="46.55733" lon="5.57768">
        <ele>556.9</ele>
        <time>2022-06-11T13:43:14Z</time>
      </trkpt>
      <trkpt lat="46.55731" lon="5.57776">
        <ele>556.2</ele>
        <time>2022-06-11T13:43:18Z</time>
      </trkpt>
      <trkpt lat="46.55729" lon="5.57784">
        <ele>555.3</ele>
        <time>2022-06-11T13:43:22Z</time>
      </trkpt>
      <trkpt lat="46.55731" lon="5.57792">
        <ele>554.9</ele>
        <time>2022-06-11T13:43:26Z</time>
      </trkpt>
      <trkpt lat="46.55733" lon="5.57797">
        <ele>554.8</ele>
        <time>2022-06-11T13:43:29Z</time>
      </trkpt>
      <trkpt lat="46.55738" lon="5.578">
        <ele>554.9</ele>
        <time>2022-06-11T13:43:37Z</time>
      </trkpt>
      <trkpt lat="46.55743" lon="5.57801">
        <ele>554.7</ele>
        <time>2022-06-11T13:43:41Z</time>
      </trkpt>
      <trkpt lat="46.55747" lon="5.57806">
        <ele>553.9</ele>
        <time>2022-06-11T13:43:45Z</time>
      </trkpt>
      <trkpt lat="46.5575" lon="5.57811">
        <ele>551.4</ele>
        <time>2022-06-11T13:43:54Z</time>
      </trkpt>
      <trkpt lat="46.55754" lon="5.57818">
        <ele>551.4</ele>
        <time>2022-06-11T13:43:57Z</time>
      </trkpt>
      <trkpt lat="46.55757" lon="5.57827">
        <ele>551.5</ele>
        <time>2022-06-11T13:44:00Z</time>
      </trkpt>
      <trkpt lat="46.55759" lon="5.57832">
        <ele>552</ele>
        <time>2022-06-11T13:44:03Z</time>
      </trkpt>
      <trkpt lat="46.55762" lon="5.57839">
        <ele>552.8</ele>
        <time>2022-06-11T13:44:16Z</time>
      </trkpt>
      <trkpt lat="46.55762" lon="5.57845">
        <ele>551.1</ele>
        <time>2022-06-11T13:44:25Z</time>
      </trkpt>
      <trkpt lat="46.55762" lon="5.57852">
        <ele>550.6</ele>
        <time>2022-06-11T13:44:28Z</time>
      </trkpt>
      <trkpt lat="46.55762" lon="5.5786">
        <ele>550.5</ele>
        <time>2022-06-11T13:44:32Z</time>
      </trkpt>
      <trkpt lat="46.55763" lon="5.57866">
        <ele>550.8</ele>
        <time>2022-06-11T13:44:35Z</time>
      </trkpt>
      <trkpt lat="46.55761" lon="5.57874">
        <ele>551.8</ele>
        <time>2022-06-11T13:44:39Z</time>
      </trkpt>
      <trkpt lat="46.5576" lon="5.57881">
        <ele>553.6</ele>
        <time>2022-06-11T13:44:43Z</time>
      </trkpt>
      <trkpt lat="46.55759" lon="5.57887">
        <ele>557.5</ele>
        <time>2022-06-11T13:44:50Z</time>
      </trkpt>
      <trkpt lat="46.55755" lon="5.57892">
        <ele>561.2</ele>
        <time>2022-06-11T13:45:00Z</time>
      </trkpt>
      <trkpt lat="46.55753" lon="5.57898">
        <ele>563.1</ele>
        <time>2022-06-11T13:45:04Z</time>
      </trkpt>
      <trkpt lat="46.55749" lon="5.57904">
        <ele>565</ele>
        <time>2022-06-11T13:45:09Z</time>
      </trkpt>
      <trkpt lat="46.55749" lon="5.57911">
        <ele>567.4</ele>
        <time>2022-06-11T13:45:14Z</time>
      </trkpt>
      <trkpt lat="46.55748" lon="5.57918">
        <ele>569.5</ele>
        <time>2022-06-11T13:45:19Z</time>
      </trkpt>
      <trkpt lat="46.55745" lon="5.57924">
        <ele>571.8</ele>
        <time>2022-06-11T13:45:23Z</time>
      </trkpt>
      <trkpt lat="46.55749" lon="5.5793">
        <ele>575.2</ele>
        <time>2022-06-11T13:45:27Z</time>
      </trkpt>
      <trkpt lat="46.55749" lon="5.57937">
        <ele>578.1</ele>
        <time>2022-06-11T13:45:33Z</time>
      </trkpt>
      <trkpt lat="46.55747" lon="5.57943">
        <ele>579.1</ele>
        <time>2022-06-11T13:45:38Z</time>
      </trkpt>
      <trkpt lat="46.55744" lon="5.57949">
        <ele>582.7</ele>
        <time>2022-06-11T13:46:03Z</time>
      </trkpt>
      <trkpt lat="46.55741" lon="5.57954">
        <ele>583.4</ele>
        <time>2022-06-11T13:46:16Z</time>
      </trkpt>
      <trkpt lat="46.55736" lon="5.57955">
        <ele>580.8</ele>
        <time>2022-06-11T13:46:29Z</time>
      </trkpt>
      <trkpt lat="46.55731" lon="5.57957">
        <ele>580.7</ele>
        <time>2022-06-11T13:46:33Z</time>
      </trkpt>
      <trkpt lat="46.55727" lon="5.57959">
        <ele>580.7</ele>
        <time>2022-06-11T13:46:37Z</time>
      </trkpt>
      <trkpt lat="46.55722" lon="5.57958">
        <ele>580.9</ele>
        <time>2022-06-11T13:46:41Z</time>
      </trkpt>
      <trkpt lat="46.55716" lon="5.57955">
        <ele>580.9</ele>
        <time>2022-06-11T13:46:45Z</time>
      </trkpt>
      <trkpt lat="46.55712" lon="5.57953">
        <ele>581.2</ele>
        <time>2022-06-11T13:46:48Z</time>
      </trkpt>
      <trkpt lat="46.55707" lon="5.57952">
        <ele>581.7</ele>
        <time>2022-06-11T13:46:52Z</time>
      </trkpt>
      <trkpt lat="46.55701" lon="5.57954">
        <ele>582.7</ele>
        <time>2022-06-11T13:46:57Z</time>
      </trkpt>
      <trkpt lat="46.55697" lon="5.57958">
        <ele>583</ele>
        <time>2022-06-11T13:47:01Z</time>
      </trkpt>
      <trkpt lat="46.55692" lon="5.57957">
        <ele>583</ele>
        <time>2022-06-11T13:47:07Z</time>
      </trkpt>
      <trkpt lat="46.55688" lon="5.57952">
        <ele>583.1</ele>
        <time>2022-06-11T13:47:11Z</time>
      </trkpt>
      <trkpt lat="46.55683" lon="5.57949">
        <ele>583.6</ele>
        <time>2022-06-11T13:47:14Z</time>
      </trkpt>
      <trkpt lat="46.55679" lon="5.57949">
        <ele>584.4</ele>
        <time>2022-06-11T13:47:17Z</time>
      </trkpt>
      <trkpt lat="46.55673" lon="5.57951">
        <ele>585.2</ele>
        <time>2022-06-11T13:47:21Z</time>
      </trkpt>
      <trkpt lat="46.55668" lon="5.57952">
        <ele>585.6</ele>
        <time>2022-06-11T13:47:25Z</time>
      </trkpt>
      <trkpt lat="46.55663" lon="5.57953">
        <ele>586.3</ele>
        <time>2022-06-11T13:47:31Z</time>
      </trkpt>
      <trkpt lat="46.55658" lon="5.57953">
        <ele>587.5</ele>
        <time>2022-06-11T13:47:37Z</time>
      </trkpt>
      <trkpt lat="46.55655" lon="5.57947">
        <ele>588.9</ele>
        <time>2022-06-11T13:47:46Z</time>
      </trkpt>
      <trkpt lat="46.55649" lon="5.57945">
        <ele>589.2</ele>
        <time>2022-06-11T13:47:50Z</time>
      </trkpt>
      <trkpt lat="46.55644" lon="5.57945">
        <ele>589.5</ele>
        <time>2022-06-11T13:47:53Z</time>
      </trkpt>
      <trkpt lat="46.55639" lon="5.57945">
        <ele>589.7</ele>
        <time>2022-06-11T13:47:56Z</time>
      </trkpt>
      <trkpt lat="46.55635" lon="5.57944">
        <ele>589.5</ele>
        <time>2022-06-11T13:47:59Z</time>
      </trkpt>
      <trkpt lat="46.55629" lon="5.57943">
        <ele>588.3</ele>
        <time>2022-06-11T13:48:03Z</time>
      </trkpt>
      <trkpt lat="46.55624" lon="5.57942">
        <ele>585.8</ele>
        <time>2022-06-11T13:48:09Z</time>
      </trkpt>
      <trkpt lat="46.55619" lon="5.57939">
        <ele>583.7</ele>
        <time>2022-06-11T13:48:15Z</time>
      </trkpt>
      <trkpt lat="46.55614" lon="5.5794">
        <ele>582.1</ele>
        <time>2022-06-11T13:48:19Z</time>
      </trkpt>
      <trkpt lat="46.55609" lon="5.57938">
        <ele>579.9</ele>
        <time>2022-06-11T13:48:25Z</time>
      </trkpt>
      <trkpt lat="46.55606" lon="5.57933">
        <ele>578.1</ele>
        <time>2022-06-11T13:48:29Z</time>
      </trkpt>
      <trkpt lat="46.55601" lon="5.57932">
        <ele>576.3</ele>
        <time>2022-06-11T13:48:33Z</time>
      </trkpt>
      <trkpt lat="46.55597" lon="5.57929">
        <ele>574.1</ele>
        <time>2022-06-11T13:48:43Z</time>
      </trkpt>
      <trkpt lat="46.5559" lon="5.57932">
        <ele>573.6</ele>
        <time>2022-06-11T13:48:47Z</time>
      </trkpt>
      <trkpt lat="46.55581" lon="5.57932">
        <ele>572.5</ele>
        <time>2022-06-11T13:48:50Z</time>
      </trkpt>
      <trkpt lat="46.55574" lon="5.57931">
        <ele>571.5</ele>
        <time>2022-06-11T13:48:53Z</time>
      </trkpt>
      <trkpt lat="46.55568" lon="5.57931">
        <ele>570.9</ele>
        <time>2022-06-11T13:48:56Z</time>
      </trkpt>
      <trkpt lat="46.55563" lon="5.57928">
        <ele>570.9</ele>
        <time>2022-06-11T13:48:59Z</time>
      </trkpt>
      <trkpt lat="46.55558" lon="5.57928">
        <ele>571.7</ele>
        <time>2022-06-11T13:49:05Z</time>
      </trkpt>
      <trkpt lat="46.55553" lon="5.57928">
        <ele>571.6</ele>
        <time>2022-06-11T13:49:09Z</time>
      </trkpt>
      <trkpt lat="46.55548" lon="5.57926">
        <ele>571.3</ele>
        <time>2022-06-11T13:49:12Z</time>
      </trkpt>
      <trkpt lat="46.55544" lon="5.57929">
        <ele>570.6</ele>
        <time>2022-06-11T13:49:18Z</time>
      </trkpt>
      <trkpt lat="46.55541" lon="5.57935">
        <ele>570.2</ele>
        <time>2022-06-11T13:49:22Z</time>
      </trkpt>
      <trkpt lat="46.55537" lon="5.57938">
        <ele>570.6</ele>
        <time>2022-06-11T13:49:27Z</time>
      </trkpt>
      <trkpt lat="46.55534" lon="5.57943">
        <ele>570.9</ele>
        <time>2022-06-11T13:49:33Z</time>
      </trkpt>
      <trkpt lat="46.5553" lon="5.57948">
        <ele>569.8</ele>
        <time>2022-06-11T13:49:38Z</time>
      </trkpt>
      <trkpt lat="46.55526" lon="5.57953">
        <ele>570.1</ele>
        <time>2022-06-11T13:49:45Z</time>
      </trkpt>
      <trkpt lat="46.55524" lon="5.57959">
        <ele>570.6</ele>
        <time>2022-06-11T13:49:48Z</time>
      </trkpt>
      <trkpt lat="46.55521" lon="5.57966">
        <ele>571.2</ele>
        <time>2022-06-11T13:49:51Z</time>
      </trkpt>
      <trkpt lat="46.55518" lon="5.57972">
        <ele>571.6</ele>
        <time>2022-06-11T13:49:54Z</time>
      </trkpt>
      <trkpt lat="46.55514" lon="5.57977">
        <ele>572.5</ele>
        <time>2022-06-11T13:49:58Z</time>
      </trkpt>
      <trkpt lat="46.55509" lon="5.5798">
        <ele>573.2</ele>
        <time>2022-06-11T13:50:02Z</time>
      </trkpt>
      <trkpt lat="46.55504" lon="5.57982">
        <ele>573.4</ele>
        <time>2022-06-11T13:50:08Z</time>
      </trkpt>
      <trkpt lat="46.55499" lon="5.57984">
        <ele>573.6</ele>
        <time>2022-06-11T13:50:12Z</time>
      </trkpt>
      <trkpt lat="46.55494" lon="5.57987">
        <ele>573.4</ele>
        <time>2022-06-11T13:50:17Z</time>
      </trkpt>
      <trkpt lat="46.5549" lon="5.5799">
        <ele>573</ele>
        <time>2022-06-11T13:50:21Z</time>
      </trkpt>
      <trkpt lat="46.55485" lon="5.57992">
        <ele>572.4</ele>
        <time>2022-06-11T13:50:26Z</time>
      </trkpt>
      <trkpt lat="46.5548" lon="5.57996">
        <ele>571.9</ele>
        <time>2022-06-11T13:50:30Z</time>
      </trkpt>
      <trkpt lat="46.55475" lon="5.57999">
        <ele>571.6</ele>
        <time>2022-06-11T13:50:33Z</time>
      </trkpt>
      <trkpt lat="46.55471" lon="5.58004">
        <ele>571.4</ele>
        <time>2022-06-11T13:50:37Z</time>
      </trkpt>
      <trkpt lat="46.55466" lon="5.58007">
        <ele>571.5</ele>
        <time>2022-06-11T13:50:41Z</time>
      </trkpt>
      <trkpt lat="46.55462" lon="5.58011">
        <ele>571.5</ele>
        <time>2022-06-11T13:50:44Z</time>
      </trkpt>
      <trkpt lat="46.55459" lon="5.58017">
        <ele>571.7</ele>
        <time>2022-06-11T13:50:47Z</time>
      </trkpt>
      <trkpt lat="46.55455" lon="5.58022">
        <ele>571.4</ele>
        <time>2022-06-11T13:50:51Z</time>
      </trkpt>
      <trkpt lat="46.5545" lon="5.58021">
        <ele>570.9</ele>
        <time>2022-06-11T13:50:54Z</time>
      </trkpt>
      <trkpt lat="46.55445" lon="5.58021">
        <ele>570.3</ele>
        <time>2022-06-11T13:50:58Z</time>
      </trkpt>
      <trkpt lat="46.55441" lon="5.58023">
        <ele>569.5</ele>
        <time>2022-06-11T13:51:02Z</time>
      </trkpt>
      <trkpt lat="46.55436" lon="5.58028">
        <ele>568.3</ele>
        <time>2022-06-11T13:51:07Z</time>
      </trkpt>
      <trkpt lat="46.55435" lon="5.58035">
        <ele>567.8</ele>
        <time>2022-06-11T13:51:11Z</time>
      </trkpt>
      <trkpt lat="46.55435" lon="5.58043">
        <ele>567.3</ele>
        <time>2022-06-11T13:51:15Z</time>
      </trkpt>
      <trkpt lat="46.55435" lon="5.5805">
        <ele>567</ele>
        <time>2022-06-11T13:51:19Z</time>
      </trkpt>
      <trkpt lat="46.55434" lon="5.58057">
        <ele>566.6</ele>
        <time>2022-06-11T13:51:23Z</time>
      </trkpt>
      <trkpt lat="46.55434" lon="5.58066">
        <ele>566.8</ele>
        <time>2022-06-11T13:51:26Z</time>
      </trkpt>
      <trkpt lat="46.55432" lon="5.58075">
        <ele>566.9</ele>
        <time>2022-06-11T13:51:29Z</time>
      </trkpt>
      <trkpt lat="46.55428" lon="5.58082">
        <ele>566.8</ele>
        <time>2022-06-11T13:51:32Z</time>
      </trkpt>
      <trkpt lat="46.55423" lon="5.58083">
        <ele>566.8</ele>
        <time>2022-06-11T13:51:35Z</time>
      </trkpt>
      <trkpt lat="46.55426" lon="5.58088">
        <ele>566.7</ele>
        <time>2022-06-11T13:51:40Z</time>
      </trkpt>
      <trkpt lat="46.55422" lon="5.58092">
        <ele>565.7</ele>
        <time>2022-06-11T13:51:49Z</time>
      </trkpt>
      <trkpt lat="46.55424" lon="5.58099">
        <ele>564.8</ele>
        <time>2022-06-11T13:51:55Z</time>
      </trkpt>
      <trkpt lat="46.55426" lon="5.58105">
        <ele>563.7</ele>
        <time>2022-06-11T13:51:58Z</time>
      </trkpt>
      <trkpt lat="46.55423" lon="5.58111">
        <ele>561.3</ele>
        <time>2022-06-11T13:52:04Z</time>
      </trkpt>
      <trkpt lat="46.55418" lon="5.58116">
        <ele>560.2</ele>
        <time>2022-06-11T13:52:08Z</time>
      </trkpt>
      <trkpt lat="46.55414" lon="5.58121">
        <ele>559.5</ele>
        <time>2022-06-11T13:52:12Z</time>
      </trkpt>
      <trkpt lat="46.55412" lon="5.58127">
        <ele>559.2</ele>
        <time>2022-06-11T13:52:16Z</time>
      </trkpt>
      <trkpt lat="46.5541" lon="5.58134">
        <ele>559.3</ele>
        <time>2022-06-11T13:52:20Z</time>
      </trkpt>
      <trkpt lat="46.55406" lon="5.58138">
        <ele>560</ele>
        <time>2022-06-11T13:52:24Z</time>
      </trkpt>
      <trkpt lat="46.55402" lon="5.58141">
        <ele>561.3</ele>
        <time>2022-06-11T13:52:29Z</time>
      </trkpt>
      <trkpt lat="46.55397" lon="5.58142">
        <ele>562.5</ele>
        <time>2022-06-11T13:52:34Z</time>
      </trkpt>
      <trkpt lat="46.55393" lon="5.58145">
        <ele>563.2</ele>
        <time>2022-06-11T13:52:39Z</time>
      </trkpt>
      <trkpt lat="46.55389" lon="5.5814">
        <ele>560.8</ele>
        <time>2022-06-11T13:52:47Z</time>
      </trkpt>
      <trkpt lat="46.55384" lon="5.58143">
        <ele>560.2</ele>
        <time>2022-06-11T13:52:51Z</time>
      </trkpt>
      <trkpt lat="46.55379" lon="5.58145">
        <ele>559.8</ele>
        <time>2022-06-11T13:52:55Z</time>
      </trkpt>
      <trkpt lat="46.55374" lon="5.58152">
        <ele>559.4</ele>
        <time>2022-06-11T13:52:58Z</time>
      </trkpt>
      <trkpt lat="46.55368" lon="5.58156">
        <ele>558.7</ele>
        <time>2022-06-11T13:53:03Z</time>
      </trkpt>
      <trkpt lat="46.55363" lon="5.58158">
        <ele>558.1</ele>
        <time>2022-06-11T13:53:06Z</time>
      </trkpt>
      <trkpt lat="46.55357" lon="5.58159">
        <ele>558.1</ele>
        <time>2022-06-11T13:53:09Z</time>
      </trkpt>
      <trkpt lat="46.55352" lon="5.58162">
        <ele>558.5</ele>
        <time>2022-06-11T13:53:13Z</time>
      </trkpt>
      <trkpt lat="46.55347" lon="5.58166">
        <ele>559.2</ele>
        <time>2022-06-11T13:53:17Z</time>
      </trkpt>
      <trkpt lat="46.55343" lon="5.58169">
        <ele>559.4</ele>
        <time>2022-06-11T13:53:22Z</time>
      </trkpt>
      <trkpt lat="46.55338" lon="5.58172">
        <ele>558.9</ele>
        <time>2022-06-11T13:53:26Z</time>
      </trkpt>
      <trkpt lat="46.55334" lon="5.58178">
        <ele>558.1</ele>
        <time>2022-06-11T13:53:29Z</time>
      </trkpt>
      <trkpt lat="46.55331" lon="5.58183">
        <ele>557.5</ele>
        <time>2022-06-11T13:53:32Z</time>
      </trkpt>
      <trkpt lat="46.55332" lon="5.58189">
        <ele>555.6</ele>
        <time>2022-06-11T13:53:40Z</time>
      </trkpt>
      <trkpt lat="46.55335" lon="5.58196">
        <ele>555.1</ele>
        <time>2022-06-11T13:53:45Z</time>
      </trkpt>
      <trkpt lat="46.55338" lon="5.58202">
        <ele>554.8</ele>
        <time>2022-06-11T13:53:51Z</time>
      </trkpt>
      <trkpt lat="46.55342" lon="5.58205">
        <ele>554.5</ele>
        <time>2022-06-11T13:53:54Z</time>
      </trkpt>
      <trkpt lat="46.55347" lon="5.58211">
        <ele>554.1</ele>
        <time>2022-06-11T13:53:57Z</time>
      </trkpt>
      <trkpt lat="46.55349" lon="5.58217">
        <ele>553.3</ele>
        <time>2022-06-11T13:54:01Z</time>
      </trkpt>
      <trkpt lat="46.55351" lon="5.58224">
        <ele>552.9</ele>
        <time>2022-06-11T13:54:05Z</time>
      </trkpt>
      <trkpt lat="46.55353" lon="5.5823">
        <ele>552.7</ele>
        <time>2022-06-11T13:54:09Z</time>
      </trkpt>
      <trkpt lat="46.55354" lon="5.58237">
        <ele>553.1</ele>
        <time>2022-06-11T13:54:14Z</time>
      </trkpt>
      <trkpt lat="46.55356" lon="5.58243">
        <ele>553.9</ele>
        <time>2022-06-11T13:54:19Z</time>
      </trkpt>
      <trkpt lat="46.55361" lon="5.58244">
        <ele>554.8</ele>
        <time>2022-06-11T13:54:24Z</time>
      </trkpt>
      <trkpt lat="46.55366" lon="5.58246">
        <ele>555.1</ele>
        <time>2022-06-11T13:54:30Z</time>
      </trkpt>
      <trkpt lat="46.55371" lon="5.5825">
        <ele>555.8</ele>
        <time>2022-06-11T13:54:35Z</time>
      </trkpt>
      <trkpt lat="46.55376" lon="5.58254">
        <ele>556.2</ele>
        <time>2022-06-11T13:54:39Z</time>
      </trkpt>
      <trkpt lat="46.5538" lon="5.58258">
        <ele>556.5</ele>
        <time>2022-06-11T13:54:43Z</time>
      </trkpt>
      <trkpt lat="46.55385" lon="5.58262">
        <ele>557.4</ele>
        <time>2022-06-11T13:54:48Z</time>
      </trkpt>
      <trkpt lat="46.55389" lon="5.58266">
        <ele>557.8</ele>
        <time>2022-06-11T13:54:51Z</time>
      </trkpt>
      <trkpt lat="46.55393" lon="5.58271">
        <ele>558.2</ele>
        <time>2022-06-11T13:54:54Z</time>
      </trkpt>
      <trkpt lat="46.55398" lon="5.58273">
        <ele>558.9</ele>
        <time>2022-06-11T13:55:00Z</time>
      </trkpt>
      <trkpt lat="46.55403" lon="5.58272">
        <ele>559.1</ele>
        <time>2022-06-11T13:55:05Z</time>
      </trkpt>
      <trkpt lat="46.55407" lon="5.58276">
        <ele>559.8</ele>
        <time>2022-06-11T13:55:10Z</time>
      </trkpt>
      <trkpt lat="46.55411" lon="5.5828">
        <ele>561</ele>
        <time>2022-06-11T13:55:15Z</time>
      </trkpt>
      <trkpt lat="46.55416" lon="5.58283">
        <ele>562.4</ele>
        <time>2022-06-11T13:55:19Z</time>
      </trkpt>
      <trkpt lat="46.55421" lon="5.58285">
        <ele>563.6</ele>
        <time>2022-06-11T13:55:23Z</time>
      </trkpt>
      <trkpt lat="46.55424" lon="5.5829">
        <ele>565</ele>
        <time>2022-06-11T13:55:29Z</time>
      </trkpt>
      <trkpt lat="46.55429" lon="5.58294">
        <ele>566.1</ele>
        <time>2022-06-11T13:55:34Z</time>
      </trkpt>
      <trkpt lat="46.55434" lon="5.58297">
        <ele>566.6</ele>
        <time>2022-06-11T13:55:38Z</time>
      </trkpt>
      <trkpt lat="46.55438" lon="5.58299">
        <ele>566.8</ele>
        <time>2022-06-11T13:55:41Z</time>
      </trkpt>
      <trkpt lat="46.55443" lon="5.58302">
        <ele>566.8</ele>
        <time>2022-06-11T13:55:45Z</time>
      </trkpt>
      <trkpt lat="46.55446" lon="5.58307">
        <ele>565</ele>
        <time>2022-06-11T13:55:58Z</time>
      </trkpt>
      <trkpt lat="46.55449" lon="5.58312">
        <ele>564</ele>
        <time>2022-06-11T13:56:03Z</time>
      </trkpt>
      <trkpt lat="46.55454" lon="5.58316">
        <ele>563.6</ele>
        <time>2022-06-11T13:56:07Z</time>
      </trkpt>
      <trkpt lat="46.55458" lon="5.5832">
        <ele>563.2</ele>
        <time>2022-06-11T13:56:11Z</time>
      </trkpt>
      <trkpt lat="46.55462" lon="5.58324">
        <ele>562.9</ele>
        <time>2022-06-11T13:56:18Z</time>
      </trkpt>
      <trkpt lat="46.55468" lon="5.58325">
        <ele>562.7</ele>
        <time>2022-06-11T13:56:24Z</time>
      </trkpt>
      <trkpt lat="46.55473" lon="5.58327">
        <ele>562.3</ele>
        <time>2022-06-11T13:56:28Z</time>
      </trkpt>
      <trkpt lat="46.55478" lon="5.5833">
        <ele>561.6</ele>
        <time>2022-06-11T13:56:33Z</time>
      </trkpt>
      <trkpt lat="46.55482" lon="5.58332">
        <ele>560.9</ele>
        <time>2022-06-11T13:56:37Z</time>
      </trkpt>
      <trkpt lat="46.55487" lon="5.58335">
        <ele>560.5</ele>
        <time>2022-06-11T13:56:41Z</time>
      </trkpt>
      <trkpt lat="46.55491" lon="5.58341">
        <ele>560.2</ele>
        <time>2022-06-11T13:56:46Z</time>
      </trkpt>
      <trkpt lat="46.55496" lon="5.58344">
        <ele>560</ele>
        <time>2022-06-11T13:56:50Z</time>
      </trkpt>
      <trkpt lat="46.55502" lon="5.58343">
        <ele>559.8</ele>
        <time>2022-06-11T13:56:54Z</time>
      </trkpt>
      <trkpt lat="46.55507" lon="5.58343">
        <ele>559.4</ele>
        <time>2022-06-11T13:56:57Z</time>
      </trkpt>
      <trkpt lat="46.55513" lon="5.58345">
        <ele>559</ele>
        <time>2022-06-11T13:57:01Z</time>
      </trkpt>
      <trkpt lat="46.55519" lon="5.58349">
        <ele>559.4</ele>
        <time>2022-06-11T13:57:04Z</time>
      </trkpt>
      <trkpt lat="46.55524" lon="5.5835">
        <ele>559.8</ele>
        <time>2022-06-11T13:57:07Z</time>
      </trkpt>
      <trkpt lat="46.55529" lon="5.58352">
        <ele>560.5</ele>
        <time>2022-06-11T13:57:11Z</time>
      </trkpt>
      <trkpt lat="46.55534" lon="5.58353">
        <ele>560.9</ele>
        <time>2022-06-11T13:57:17Z</time>
      </trkpt>
      <trkpt lat="46.55539" lon="5.58357">
        <ele>560.7</ele>
        <time>2022-06-11T13:57:21Z</time>
      </trkpt>
      <trkpt lat="46.55543" lon="5.58358">
        <ele>560.3</ele>
        <time>2022-06-11T13:57:25Z</time>
      </trkpt>
      <trkpt lat="46.55548" lon="5.58362">
        <ele>559.9</ele>
        <time>2022-06-11T13:57:30Z</time>
      </trkpt>
      <trkpt lat="46.55552" lon="5.58365">
        <ele>559.5</ele>
        <time>2022-06-11T13:57:34Z</time>
      </trkpt>
      <trkpt lat="46.55558" lon="5.58367">
        <ele>559.1</ele>
        <time>2022-06-11T13:57:39Z</time>
      </trkpt>
      <trkpt lat="46.55562" lon="5.58363">
        <ele>558.5</ele>
        <time>2022-06-11T13:57:44Z</time>
      </trkpt>
      <trkpt lat="46.55567" lon="5.58363">
        <ele>557.1</ele>
        <time>2022-06-11T13:57:51Z</time>
      </trkpt>
      <trkpt lat="46.55572" lon="5.58366">
        <ele>555.7</ele>
        <time>2022-06-11T13:57:58Z</time>
      </trkpt>
      <trkpt lat="46.55576" lon="5.5837">
        <ele>555</ele>
        <time>2022-06-11T13:58:02Z</time>
      </trkpt>
      <trkpt lat="46.55581" lon="5.58374">
        <ele>553.8</ele>
        <time>2022-06-11T13:58:07Z</time>
      </trkpt>
      <trkpt lat="46.55585" lon="5.58377">
        <ele>553</ele>
        <time>2022-06-11T13:58:11Z</time>
      </trkpt>
      <trkpt lat="46.55589" lon="5.58379">
        <ele>552.6</ele>
        <time>2022-06-11T13:58:14Z</time>
      </trkpt>
      <trkpt lat="46.55594" lon="5.5838">
        <ele>552.1</ele>
        <time>2022-06-11T13:58:18Z</time>
      </trkpt>
      <trkpt lat="46.55599" lon="5.58381">
        <ele>551.7</ele>
        <time>2022-06-11T13:58:22Z</time>
      </trkpt>
      <trkpt lat="46.55604" lon="5.58381">
        <ele>550.9</ele>
        <time>2022-06-11T13:58:27Z</time>
      </trkpt>
      <trkpt lat="46.55608" lon="5.58377">
        <ele>549.7</ele>
        <time>2022-06-11T13:58:33Z</time>
      </trkpt>
      <trkpt lat="46.55613" lon="5.58379">
        <ele>548.5</ele>
        <time>2022-06-11T13:58:42Z</time>
      </trkpt>
      <trkpt lat="46.55618" lon="5.58381">
        <ele>547.5</ele>
        <time>2022-06-11T13:58:46Z</time>
      </trkpt>
      <trkpt lat="46.55622" lon="5.58384">
        <ele>546.2</ele>
        <time>2022-06-11T13:58:51Z</time>
      </trkpt>
      <trkpt lat="46.55626" lon="5.5838">
        <ele>543.4</ele>
        <time>2022-06-11T13:58:57Z</time>
      </trkpt>
      <trkpt lat="46.55632" lon="5.58378">
        <ele>541.1</ele>
        <time>2022-06-11T13:59:02Z</time>
      </trkpt>
      <trkpt lat="46.55636" lon="5.58379">
        <ele>538.8</ele>
        <time>2022-06-11T13:59:08Z</time>
      </trkpt>
      <trkpt lat="46.5564" lon="5.58383">
        <ele>537.3</ele>
        <time>2022-06-11T13:59:15Z</time>
      </trkpt>
      <trkpt lat="46.55638" lon="5.58389">
        <ele>535.7</ele>
        <time>2022-06-11T13:59:20Z</time>
      </trkpt>
      <trkpt lat="46.55638" lon="5.58396">
        <ele>533.8</ele>
        <time>2022-06-11T13:59:28Z</time>
      </trkpt>
      <trkpt lat="46.5564" lon="5.58403">
        <ele>533.6</ele>
        <time>2022-06-11T13:59:37Z</time>
      </trkpt>
      <trkpt lat="46.55644" lon="5.58405">
        <ele>534.7</ele>
        <time>2022-06-11T13:59:45Z</time>
      </trkpt>
      <trkpt lat="46.55648" lon="5.58409">
        <ele>535.6</ele>
        <time>2022-06-11T13:59:49Z</time>
      </trkpt>
      <trkpt lat="46.55653" lon="5.58412">
        <ele>536.6</ele>
        <time>2022-06-11T13:59:54Z</time>
      </trkpt>
      <trkpt lat="46.55657" lon="5.58416">
        <ele>538</ele>
        <time>2022-06-11T14:00:00Z</time>
      </trkpt>
      <trkpt lat="46.55662" lon="5.58415">
        <ele>538.2</ele>
        <time>2022-06-11T14:00:05Z</time>
      </trkpt>
      <trkpt lat="46.55667" lon="5.58417">
        <ele>538.2</ele>
        <time>2022-06-11T14:00:10Z</time>
      </trkpt>
      <trkpt lat="46.55671" lon="5.58421">
        <ele>538.3</ele>
        <time>2022-06-11T14:00:15Z</time>
      </trkpt>
      <trkpt lat="46.55676" lon="5.58423">
        <ele>538.4</ele>
        <time>2022-06-11T14:00:20Z</time>
      </trkpt>
      <trkpt lat="46.55681" lon="5.58425">
        <ele>538.6</ele>
        <time>2022-06-11T14:00:26Z</time>
      </trkpt>
      <trkpt lat="46.55685" lon="5.5843">
        <ele>538.3</ele>
        <time>2022-06-11T14:00:31Z</time>
      </trkpt>
      <trkpt lat="46.55688" lon="5.58436">
        <ele>538.1</ele>
        <time>2022-06-11T14:00:34Z</time>
      </trkpt>
      <trkpt lat="46.55692" lon="5.5844">
        <ele>537.8</ele>
        <time>2022-06-11T14:00:37Z</time>
      </trkpt>
      <trkpt lat="46.55695" lon="5.58445">
        <ele>537.4</ele>
        <time>2022-06-11T14:00:40Z</time>
      </trkpt>
      <trkpt lat="46.557" lon="5.58447">
        <ele>536.5</ele>
        <time>2022-06-11T14:00:46Z</time>
      </trkpt>
      <trkpt lat="46.55703" lon="5.58453">
        <ele>535.8</ele>
        <time>2022-06-11T14:00:53Z</time>
      </trkpt>
      <trkpt lat="46.55707" lon="5.58458">
        <ele>535.5</ele>
        <time>2022-06-11T14:00:58Z</time>
      </trkpt>
      <trkpt lat="46.5571" lon="5.58463">
        <ele>534.8</ele>
        <time>2022-06-11T14:01:02Z</time>
      </trkpt>
      <trkpt lat="46.55713" lon="5.58468">
        <ele>534.3</ele>
        <time>2022-06-11T14:01:06Z</time>
      </trkpt>
      <trkpt lat="46.55718" lon="5.5847">
        <ele>533.6</ele>
        <time>2022-06-11T14:01:11Z</time>
      </trkpt>
      <trkpt lat="46.55722" lon="5.58473">
        <ele>532.6</ele>
        <time>2022-06-11T14:01:17Z</time>
      </trkpt>
      <trkpt lat="46.55726" lon="5.58478">
        <ele>531</ele>
        <time>2022-06-11T14:01:23Z</time>
      </trkpt>
      <trkpt lat="46.55729" lon="5.58484">
        <ele>529.9</ele>
        <time>2022-06-11T14:01:28Z</time>
      </trkpt>
      <trkpt lat="46.55731" lon="5.5849">
        <ele>528.7</ele>
        <time>2022-06-11T14:01:35Z</time>
      </trkpt>
      <trkpt lat="46.55736" lon="5.58495">
        <ele>527.8</ele>
        <time>2022-06-11T14:01:40Z</time>
      </trkpt>
      <trkpt lat="46.55741" lon="5.58494">
        <ele>525.9</ele>
        <time>2022-06-11T14:01:46Z</time>
      </trkpt>
      <trkpt lat="46.55746" lon="5.58495">
        <ele>524.6</ele>
        <time>2022-06-11T14:01:51Z</time>
      </trkpt>
      <trkpt lat="46.55751" lon="5.58496">
        <ele>524</ele>
        <time>2022-06-11T14:01:55Z</time>
      </trkpt>
      <trkpt lat="46.55755" lon="5.585">
        <ele>523.3</ele>
        <time>2022-06-11T14:02:00Z</time>
      </trkpt>
      <trkpt lat="46.55759" lon="5.58504">
        <ele>522.8</ele>
        <time>2022-06-11T14:02:05Z</time>
      </trkpt>
      <trkpt lat="46.55762" lon="5.5851">
        <ele>522.8</ele>
        <time>2022-06-11T14:02:09Z</time>
      </trkpt>
      <trkpt lat="46.55765" lon="5.58517">
        <ele>522.8</ele>
        <time>2022-06-11T14:02:13Z</time>
      </trkpt>
      <trkpt lat="46.55768" lon="5.58524">
        <ele>522.7</ele>
        <time>2022-06-11T14:02:16Z</time>
      </trkpt>
      <trkpt lat="46.5577" lon="5.58531">
        <ele>522.8</ele>
        <time>2022-06-11T14:02:19Z</time>
      </trkpt>
      <trkpt lat="46.55773" lon="5.58537">
        <ele>523.1</ele>
        <time>2022-06-11T14:02:23Z</time>
      </trkpt>
      <trkpt lat="46.55772" lon="5.58544">
        <ele>523.3</ele>
        <time>2022-06-11T14:02:32Z</time>
      </trkpt>
      <trkpt lat="46.55768" lon="5.58547">
        <ele>522.1</ele>
        <time>2022-06-11T14:02:38Z</time>
      </trkpt>
      <trkpt lat="46.55762" lon="5.58546">
        <ele>520.6</ele>
        <time>2022-06-11T14:02:43Z</time>
      </trkpt>
      <trkpt lat="46.55757" lon="5.58547">
        <ele>519.4</ele>
        <time>2022-06-11T14:02:48Z</time>
      </trkpt>
      <trkpt lat="46.55752" lon="5.58547">
        <ele>518</ele>
        <time>2022-06-11T14:02:53Z</time>
      </trkpt>
      <trkpt lat="46.55747" lon="5.58546">
        <ele>516.5</ele>
        <time>2022-06-11T14:02:59Z</time>
      </trkpt>
      <trkpt lat="46.55743" lon="5.58544">
        <ele>515</ele>
        <time>2022-06-11T14:03:04Z</time>
      </trkpt>
      <trkpt lat="46.55738" lon="5.58543">
        <ele>513</ele>
        <time>2022-06-11T14:03:12Z</time>
      </trkpt>
      <trkpt lat="46.55734" lon="5.58541">
        <ele>511.6</ele>
        <time>2022-06-11T14:03:19Z</time>
      </trkpt>
      <trkpt lat="46.55729" lon="5.58539">
        <ele>510.1</ele>
        <time>2022-06-11T14:03:25Z</time>
      </trkpt>
      <trkpt lat="46.55725" lon="5.58538">
        <ele>509.1</ele>
        <time>2022-06-11T14:03:30Z</time>
      </trkpt>
      <trkpt lat="46.5572" lon="5.58535">
        <ele>508.5</ele>
        <time>2022-06-11T14:03:36Z</time>
      </trkpt>
      <trkpt lat="46.55714" lon="5.58536">
        <ele>507.9</ele>
        <time>2022-06-11T14:03:42Z</time>
      </trkpt>
      <trkpt lat="46.55711" lon="5.58541">
        <ele>508.9</ele>
        <time>2022-06-11T14:03:46Z</time>
      </trkpt>
      <trkpt lat="46.55709" lon="5.58548">
        <ele>510.5</ele>
        <time>2022-06-11T14:03:50Z</time>
      </trkpt>
      <trkpt lat="46.5571" lon="5.58555">
        <ele>513.5</ele>
        <time>2022-06-11T14:04:01Z</time>
      </trkpt>
      <trkpt lat="46.55711" lon="5.58561">
        <ele>520.2</ele>
        <time>2022-06-11T14:05:26Z</time>
      </trkpt>
      <trkpt lat="46.55716" lon="5.58558">
        <ele>527.1</ele>
        <time>2022-06-11T14:05:43Z</time>
      </trkpt>
    </trkseg>
  </trk>
</gpx>